# Wetter Temperatur Luftdruck Luftfeuchtigkeit Sichtweite Windgeschwindigkeit Windrichtung Zeit
1 Clouds 6 1006 81 10000 6.69 260 15:24 01.02.2023
2 Clouds 5 1006 88 10000 7.2 280 13:20 01.02.2023
3 Rain 5 1007 89 10000 8.75 280 12:59 01.02.2023
4 Clouds 4 1007 91 10000 6.69 270 11:57 01.02.2023
5 Clouds 4 1006 87 10000 6.69 260 09:39 01.02.2023
6 Clouds 5 1008 83 10000 7.2 270 03:45 01.02.2023
7 Clouds 5 1008 89 10000 6.69 260 22:19 31.01.2023
8 Clouds 5 1008 86 10000 8.23 250 20:22 31.01.2023
9 Clouds 4 1009 89 10000 7.2 260 19:24 31.01.2023
10 Rain 4 1009 87 10000 7.72 250 16:34 31.01.2023
11 Drizzle 4 1009 87 10000 8.23 240 15:36 31.01.2023
12 Rain 4 1009 86 10000 6.69 250 15:18 31.01.2023
13 Clouds 5 1012 79 10000 8.75 260 12:48 31.01.2023
14 Clouds 5 1013 82 10000 6.17 270 11:21 31.01.2023
15 Clouds 4 1014 88 10000 6.17 280 09:55 31.01.2023
16 Clouds 4 1014 88 10000 6.17 280 09:55 31.01.2023
17 Clouds 3 1014 91 10000 6.17 290 09:25 31.01.2023
18 Clouds 3 1013 90 10000 4.63 280 08:35 31.01.2023
19 Clouds 3 1013 92 10000 4.63 280 06:20 31.01.2023
20 Clouds 4 1005 82 10000 8.75 300 00:25 31.01.2023
21 Clouds 4 1009 88 10000 8.75 290 23:24 30.01.2023
22 Rain 4 1008 85 10000 8.75 290 22:47 30.01.2023
23 Clouds 5 1007 87 10000 9.26 300 21:30 30.01.2023
24 Clouds 4 1006 88 10000 8.75 300 20:42 30.01.2023
25 Rain 4 1004 89 10000 6.69 270 18:26 30.01.2023
26 Clouds 5 999 78 10000 7.72 270 16:58 30.01.2023
27 Clouds 5 1002 85 10000 7.72 260 14:35 30.01.2023
28 Clouds 4 1003 86 10000 7.2 260 13:39 30.01.2023
29 Clouds 4 1003 86 10000 8.75 270 12:18 30.01.2023
30 Clouds 3 1004 90 10000 7.72 260 10:20 30.01.2023
31 Clouds 3 1004 90 10000 8.75 260 09:53 30.01.2023
32 Clouds 3 1004 86 10000 6.17 240 08:19 30.01.2023
33 Clouds 1 1008 84 10000 6.69 240 04:30 30.01.2023
34 Clouds -1 1013 83 10000 6.69 230 23:35 29.01.2023
35 Clouds -1 1015 83 10000 5.14 230 22:56 29.01.2023
36 Clouds -1 1015 82 10000 4.63 240 22:21 29.01.2023
37 Clouds 0 1016 83 10000 4.63 240 20:52 29.01.2023
38 Clouds 0 1016 83 10000 4.12 250 20:19 29.01.2023
39 Clouds 0 1017 84 10000 4.12 240 19:32 29.01.2023
40 Clouds 0 1017 85 10000 4.12 230 17:55 29.01.2023
41 Clouds 1 1018 83 10000 3.6 260 16:22 29.01.2023
42 Clouds 1 1018 83 10000 4.63 250 15:51 29.01.2023
43 Clouds 2 1019 83 10000 3.6 240 14:20 29.01.2023
44 Clouds 1 1020 83 10000 4.12 240 12:59 29.01.2023
45 Clouds 1 1020 83 10000 4.12 240 12:36 29.01.2023
46 Clouds 0 1020 84 10000 4.63 250 12:18 29.01.2023
47 Clouds 0 1021 85 10000 4.12 240 11:36 29.01.2023
48 Clouds -1 1021 86 10000 3.09 230 10:45 29.01.2023
49 Clouds -3 1022 84 10000 3.6 230 08:32 29.01.2023
50 Clouds -3 1029 88 10000 3.09 250 04:44 29.01.2023
51 Clouds -2 1023 86 10000 2.06 240 23:51 28.01.2023
52 Clouds -1 1020 76 10000 1.54 290 20:59 28.01.2023
53 Clouds -1 1023 83 10000 1.03 0 19:57 28.01.2023
54 Clouds -2 1023 83 10000 1.54 330 19:24 28.01.2023
55 Clouds -1 1022 81 10000 1.54 360 17:44 28.01.2023
56 Clouds -1 1022 83 10000 2.06 310 16:45 28.01.2023
57 Clouds -1 1022 81 10000 2.57 340 16:19 28.01.2023
58 Clouds -1 1022 83 10000 3.09 360 15:37 28.01.2023
59 Clouds -1 1022 83 10000 3.6 350 13:50 28.01.2023
60 Clouds -1 1022 84 10000 3.6 20 12:31 28.01.2023
61 Clouds -2 1022 85 10000 3.6 10 10:35 28.01.2023
62 Clouds -2 1022 88 10000 2.57 10 09:54 28.01.2023
63 Clouds -1 1020 94 10000 3.6 30 05:57 28.01.2023
64 Mist 0 1019 94 4700 4.12 30 01:32 28.01.2023
65 Mist 0 1019 96 3800 2.06 360 00:21 28.01.2023
66 Snow 0 1019 94 10000 4.12 30 20:35 27.01.2023
67 Clouds 0 1018 96 10000 4.12 30 17:58 27.01.2023
68 Snow 0 1017 95 7000 2.06 360 17:21 27.01.2023
69 Mist 0 1017 95 4400 2.06 360 16:59 27.01.2023
70 Mist 0 1017 95 4400 2.06 360 16:31 27.01.2023
71 Mist 0 1017 95 3600 3.09 350 14:45 27.01.2023
72 Snow 0 1017 95 6000 3.09 350 14:22 27.01.2023
73 Mist 0 1017 94 2400 2.57 350 12:44 27.01.2023
74 Drizzle -1 1016 95 2900 3.6 10 08:36 27.01.2023
75 Mist -1 1015 95 1300 2.06 320 03:55 27.01.2023
76 Clouds -1 1015 95 6000 2.06 310 22:51 26.01.2023
77 Clouds -1 1015 93 8000 2.06 330 21:22 26.01.2023
78 Clouds -1 1015 93 8000 2.06 330 21:22 26.01.2023
79 Mist -1 1015 95 5000 2.57 340 20:35 26.01.2023
80 Clouds -1 1015 93 10000 2.57 320 18:23 26.01.2023
81 Clouds -1 1015 95 7000 3.09 320 17:42 26.01.2023
82 Clouds 0 1014 94 10000 2.57 300 16:27 26.01.2023
83 Clouds 0 1014 94 10000 3.09 310 15:53 26.01.2023
84 Clouds 0 1014 94 8000 2.57 320 15:30 26.01.2023
85 Clouds 0 1014 94 10000 2.06 320 14:49 26.01.2023
86 Mist 0 1015 96 2600 2.57 320 12:48 26.01.2023
87 Mist 0 1016 95 3200 2.06 330 11:31 26.01.2023
88 Mist 0 1015 95 1200 2.06 340 10:30 26.01.2023
89 Mist 0 1016 95 1400 2.06 340 09:44 26.01.2023
90 Mist 0 1016 95 3300 1.54 330 08:25 26.01.2023
91 Fog 0 1017 93 1200 2.06 350 02:26 26.01.2023
92 Mist 1 1019 94 5000 1.03 80 23:38 25.01.2023
93 Mist 1 1019 93 5000 0.51 0 22:21 25.01.2023
94 Mist 1 1020 95 5000 1.03 330 21:24 25.01.2023
95 Mist 1 1021 93 5000 1.03 350 19:41 25.01.2023
96 Clouds 1 1022 94 7000 0.51 0 18:24 25.01.2023
97 Clouds 1 1024 94 10000 0.51 0 15:51 25.01.2023
98 Clouds 1 1025 94 8000 2.06 220 13:46 25.01.2023
99 Clouds 1 1027 94 9000 0.51 0 11:25 25.01.2023
100 Clouds 1 1028 94 10000 1.03 0 09:52 25.01.2023
101 Clouds 1 1029 94 8000 1.03 0 07:59 25.01.2023
102 Clouds 1 1031 96 6000 1.03 0 01:51 25.01.2023
103 Mist 1 1032 96 1900 1.03 0 00:25 25.01.2023
104 Mist 1 1032 96 3900 1.03 20 21:54 24.01.2023
105 Mist 1 1032 94 4300 1.03 0 21:26 24.01.2023
106 Mist 1 1032 96 4300 1.54 80 19:18 24.01.2023
107 Mist 1 1032 96 1300 1.54 70 18:29 24.01.2023
108 Fog 1 1032 96 750 2.06 30 17:18 24.01.2023
109 Fog 1 1032 96 700 2.57 30 16:43 24.01.2023
110 Mist 1 1032 96 1500 2.57 40 13:51 24.01.2023
111 Fog 1 1033 96 1300 2.57 40 11:59 24.01.2023
112 Fog 1 1032 96 1300 2.57 40 08:53 24.01.2023
113 Mist 1 1032 96 1400 2.57 30 08:19 24.01.2023
114 Fog 1 1032 96 1500 2.57 40 07:49 24.01.2023
115 Mist 1 1032 96 1300 2.57 40 02:48 24.01.2023
116 Fog 1 1031 96 800 3.09 40 00:41 24.01.2023
117 Mist 1 1031 96 1500 2.06 40 23:29 23.01.2023
118 Fog 1 1031 96 1100 3.09 40 20:54 23.01.2023
119 Fog 1 1031 96 1000 3.09 40 19:24 23.01.2023
120 Fog 1 1031 96 900 3.6 30 17:32 23.01.2023
121 Fog 1 1030 96 600 4.12 30 15:33 23.01.2023
122 Mist 2 1030 94 3400 3.6 40 13:57 23.01.2023
123 Mist 2 1030 94 3700 3.09 50 13:21 23.01.2023
124 Mist 2 1030 94 3900 3.09 40 12:44 23.01.2023
125 Mist 2 1030 95 3900 3.09 40 11:34 23.01.2023
126 Mist 1 1029 96 5000 2.57 50 08:25 23.01.2023
127 Mist 1 1027 96 2000 2.06 70 02:43 23.01.2023
128 Clouds 1 1026 96 10000 3.6 60 22:55 22.01.2023
129 Mist 0 1025 96 4800 2.57 50 21:19 22.01.2023
130 Snow 0 1024 96 2500 3.6 50 20:24 22.01.2023
131 Snow 0 1024 96 4400 5.14 60 19:46 22.01.2023
132 Snow 0 1024 96 3000 4.12 50 19:18 22.01.2023
133 Snow 1 1023 96 10000 4.12 30 17:57 22.01.2023
134 Mist 1 1023 96 3500 3.6 30 17:26 22.01.2023
135 Mist 1 1022 96 5000 3.6 20 16:21 22.01.2023
136 Snow 1 1022 94 9000 3.09 20 14:54 22.01.2023
137 Clouds 1 1022 94 10000 3.09 40 13:40 22.01.2023
138 Clouds 1 1022 94 10000 3.09 30 12:48 22.01.2023
139 Clouds 1 1022 96 7000 3.6 60 11:36 22.01.2023
140 Mist 0 1028 99 2400 4.12 60 09:36 22.01.2023
141 Mist 0 1027 99 1700 2.57 40 07:40 22.01.2023
142 Snow 0 1025 100 10000 3.09 40 02:50 22.01.2023
143 Snow 0 1025 99 8000 3.09 30 23:36 21.01.2023
144 Mist 0 1024 99 5000 3.09 30 22:35 21.01.2023
145 Snow 0 1023 99 4300 4.12 20 20:21 21.01.2023
146 Mist 0 1023 96 2100 5.14 340 17:51 21.01.2023
147 Snow 1 1023 95 1200 6.17 340 14:42 21.01.2023
148 Snow 0 1024 95 10000 5.14 350 12:58 21.01.2023
149 Snow 0 1025 96 10000 5.14 350 12:36 21.01.2023
150 Clouds 0 1026 94 10000 4.12 350 11:27 21.01.2023
151 Clouds -1 1025 96 10000 4.63 360 09:56 21.01.2023
152 Mist -2 1024 98 5000 5.14 10 04:51 21.01.2023
153 Clouds 0 1023 96 8000 4.12 10 22:47 20.01.2023
154 Clouds 0 1022 96 8000 3.6 350 22:25 20.01.2023
155 Clouds 0 1022 96 7000 3.09 340 21:34 20.01.2023
156 Clouds 0 1022 96 6000 2.57 330 20:39 20.01.2023
157 Clouds 1 1020 94 9000 2.57 10 17:59 20.01.2023
158 Mist 1 1018 96 4400 2.06 340 15:27 20.01.2023
159 Snow 1 1018 96 7000 2.57 330 14:33 20.01.2023
160 Mist 1 1016 96 5000 1.54 300 11:59 20.01.2023
161 Snow 0 1015 99 2000 1.03 310 08:59 20.01.2023
162 Clouds 1 1012 94 6000 1.54 290 07:41 20.01.2023
163 Clouds 0 1011 96 10000 2.06 250 02:33 20.01.2023
164 Clouds 0 1010 90 10000 3.09 220 22:38 19.01.2023
165 Clouds 0 1009 90 10000 4.12 200 21:59 19.01.2023
166 Clouds -1 1009 90 10000 5.14 200 19:46 19.01.2023
167 Clouds -2 1008 90 10000 5.14 230 18:57 19.01.2023
168 Clear 2 1000 82 10000 3.09 250 15:22 19.01.2023
169 Clear -2 1001 89 10000 4.12 200 10:44 19.01.2023
170 Clear -6 996 88 10000 4.12 180 08:59 19.01.2023
171 Clouds -1 997 95 10000 2.06 250 23:19 18.01.2023
172 Snow 0 995 95 3700 4.63 310 20:54 18.01.2023
173 Snow 0 994 95 2600 5.14 310 20:18 18.01.2023
174 Snow 0 994 95 3400 4.63 310 19:36 18.01.2023
175 Mist 1 987 94 3200 2.57 320 17:33 18.01.2023
176 Mist 1 985 92 3600 1.54 290 15:18 18.01.2023
177 Snow 1 983 93 8000 1.03 330 13:18 18.01.2023
178 Clouds 1 982 93 8000 0.51 0 10:41 18.01.2023
179 Mist 0 981 94 1300 2.06 30 08:18 18.01.2023
180 Clouds -1 988 86 10000 1.54 80 01:26 18.01.2023
181 Clear -1 989 86 10000 1.03 20 23:32 17.01.2023
182 Clear -1 980 76 10000 2.06 130 20:32 17.01.2023
183 Clear 0 980 75 10000 1.03 0 19:33 17.01.2023
184 Clouds 2 980 72 10000 0.51 160 18:18 17.01.2023
185 Clear 3 980 76 10000 2.57 260 16:24 17.01.2023
186 Clouds 5 979 58 10000 4.63 260 14:56 17.01.2023
187 Clouds 6 972 59 10000 0.45 311 13:52 17.01.2023
188 Clouds 5 979 68 10000 5.66 260 12:27 17.01.2023
189 Clouds 6 979 61 10000 7.2 260 11:38 17.01.2023
190 Clear 4 978 78 10000 6.17 230 09:34 17.01.2023
191 Clouds 5 977 77 10000 6.17 240 07:54 17.01.2023
192 Clouds 5 974 82 10000 6.69 200 03:57 17.01.2023
193 Clear 3 974 78 10000 7.2 160 00:57 17.01.2023
194 Clear 4 975 75 10000 6.17 170 23:38 16.01.2023
195 Clear 5 976 72 10000 8.23 180 21:55 16.01.2023
196 Clear 5 976 72 10000 7.72 170 20:46 16.01.2023
197 Clear 5 977 78 10000 7.72 160 19:40 16.01.2023
198 Clear 5 978 79 10000 6.69 160 18:54 16.01.2023
199 Clear 5 978 69 10000 7.2 150 18:21 16.01.2023
200 Clear 5 979 67 10000 7.72 150 17:35 16.01.2023
201 Clear 6 981 76 10000 6.17 150 15:33 16.01.2023
202 Clear 7 982 62 10000 6.69 160 13:39 16.01.2023
203 Clear 6 986 76 10000 5.14 170 11:57 16.01.2023
204 Clear 5 987 74 10000 5.66 180 10:20 16.01.2023
205 Clear 4 999 80 10000 7.2 210 23:38 15.01.2023
206 Clear 5 999 82 10000 8.23 220 22:27 15.01.2023
207 Clear 4 999 81 10000 7.72 220 20:41 15.01.2023
208 Clear 4 1000 81 10000 6.69 220 19:59 15.01.2023
209 Clouds 5 1000 82 10000 6.69 240 18:19 15.01.2023
210 Clear 6 998 83 10000 6.69 230 16:22 15.01.2023
211 Rain 6 997 90 10000 6.69 230 12:39 15.01.2023
212 Rain 6 997 92 10000 4.12 230 11:36 15.01.2023
213 Rain 5 997 93 10000 3.09 290 10:41 15.01.2023
214 Rain 5 997 93 10000 2.57 300 10:21 15.01.2023
215 Clouds 9 996 85 10000 7.2 190 01:53 15.01.2023
216 Rain 8 997 87 10000 6.69 180 23:21 14.01.2023
217 Rain 8 998 87 10000 8.23 180 22:31 14.01.2023
218 Rain 8 999 85 10000 9.77 190 21:36 14.01.2023
219 Rain 8 999 85 10000 9.77 190 21:36 14.01.2023
220 Rain 8 999 85 10000 8.75 190 21:18 14.01.2023
221 Rain 8 999 85 10000 8.75 190 21:18 14.01.2023
222 Rain 8 1000 85 10000 9.26 190 20:40 14.01.2023
223 Rain 8 1001 82 10000 8.75 180 19:27 14.01.2023
224 Rain 8 1004 78 10000 6.69 180 17:42 14.01.2023
225 Clouds 9 1006 76 10000 6.17 190 15:30 14.01.2023
226 Clear 9 1007 75 10000 7.2 200 14:26 14.01.2023
227 Clouds 9 1008 72 10000 8.23 200 13:44 14.01.2023
228 Clouds 9 1010 69 10000 6.69 210 12:23 14.01.2023
229 Clear 9 1011 78 10000 5.66 210 10:47 14.01.2023
230 Clear 6 1011 83 10000 3.09 230 08:19 14.01.2023
231 Clear 6 1011 83 10000 3.09 230 08:19 14.01.2023
232 Clear 8 1009 83 10000 5.14 230 23:56 13.01.2023
233 Clouds 8 1008 83 10000 5.66 240 22:59 13.01.2023
234 Clouds 7 1008 83 10000 5.66 240 22:40 13.01.2023
235 Clouds 8 1007 81 10000 5.66 250 21:56 13.01.2023
236 Clouds 7 1006 84 10000 6.69 240 20:25 13.01.2023
237 Rain 6 1006 84 10000 6.17 230 19:25 13.01.2023
238 Clouds 8 1000 78 10000 6.69 260 16:58 13.01.2023
239 Clouds 10 1003 81 10000 6.69 240 14:52 13.01.2023
240 Rain 8 1003 89 10000 4.12 210 12:22 13.01.2023
241 Rain 10 1003 81 10000 6.69 220 10:41 13.01.2023
242 Rain 11 998 77 10000 6.69 220 10:22 13.01.2023
243 Clouds 10 1002 83 10000 7.2 210 09:41 13.01.2023
244 Clouds 10 1002 83 10000 8.23 220 08:51 13.01.2023
245 Clouds 11 1002 83 10000 6.17 230 06:56 13.01.2023
246 Clouds 10 1002 83 10000 6.17 230 06:18 13.01.2023
247 Rain 10 1003 84 10000 7.72 230 02:20 13.01.2023
248 Rain 10 1004 85 10000 6.69 240 22:52 12.01.2023
249 Rain 10 1004 88 10000 6.69 230 21:56 12.01.2023
250 Rain 10 1004 87 10000 7.72 230 20:52 12.01.2023
251 Clouds 9 1004 88 10000 7.72 220 18:27 12.01.2023
252 Rain 8 1005 89 10000 6.69 220 16:59 12.01.2023
253 Drizzle 8 1005 88 10000 7.2 200 15:28 12.01.2023
254 Rain 8 1005 87 10000 7.2 210 14:42 12.01.2023
255 Rain 8 1005 89 10000 7.2 210 14:19 12.01.2023
256 Clouds 9 1006 82 10000 8.23 210 12:29 12.01.2023
257 Clouds 9 1008 83 10000 7.2 210 10:26 12.01.2023
258 Clear 7 1008 82 10000 6.17 210 07:27 12.01.2023
259 Clear 7 1006 83 10000 4.63 230 00:32 12.01.2023
260 Clear 7 1010 89 10000 5.14 250 23:57 11.01.2023
261 Clear 7 1010 89 10000 5.14 250 23:38 11.01.2023
262 Clear 7 1010 91 10000 4.63 250 23:19 11.01.2023
263 Clear 8 1009 92 10000 3.6 250 21:32 11.01.2023
264 Rain 8 1007 93 10000 3.6 250 19:30 11.01.2023
265 Rain 8 1007 92 10000 4.12 230 18:19 11.01.2023
266 Rain 8 1006 89 10000 4.12 170 15:53 11.01.2023
267 Clouds 8 1006 85 10000 5.66 160 13:59 11.01.2023
268 Clouds 8 1007 85 10000 6.69 160 12:34 11.01.2023
269 Clouds 8 1007 85 10000 5.66 160 11:51 11.01.2023
270 Clouds 5 1008 86 10000 3.09 160 09:46 11.01.2023
271 Clouds 4 1008 87 10000 4.63 150 07:37 11.01.2023
272 Clear 4 1008 87 10000 5.14 150 07:19 11.01.2023
273 Clear 2 1019 86 10000 4.63 170 23:55 10.01.2023
274 Clear 2 1010 81 10000 5.66 180 22:36 10.01.2023
275 Clear 3 1015 87 10000 4.12 200 21:30 10.01.2023
276 Clouds 5 1015 85 10000 4.12 220 19:56 10.01.2023
277 Clouds 5 1015 85 10000 4.12 220 19:34 10.01.2023
278 Clouds 5 1015 84 10000 2.57 230 18:47 10.01.2023
279 Clouds 6 1015 84 10000 2.57 240 17:54 10.01.2023
280 Clouds 7 1015 83 10000 3.6 260 15:48 10.01.2023
281 Clouds 7 1014 83 10000 4.12 250 15:23 10.01.2023
282 Clouds 7 1014 84 10000 4.12 290 14:25 10.01.2023
283 Clouds 6 1013 92 10000 3.09 280 11:57 10.01.2023
284 Clouds 6 1007 85 10000 3.09 280 08:58 10.01.2023
285 Clouds 6 1006 86 10000 3.09 280 08:28 10.01.2023
286 Clouds 6 1005 86 10000 4.12 280 07:26 10.01.2023
287 Clouds 6 1006 89 10000 4.12 270 04:52 10.01.2023
288 Clouds 6 1001 87 10000 3.6 230 22:55 09.01.2023
289 Clouds 6 1000 89 10000 3.6 220 21:49 09.01.2023
290 Clouds 6 999 87 10000 3.6 240 20:43 09.01.2023
291 Clouds 6 994 84 10000 2.57 230 18:44 09.01.2023
292 Clouds 7 994 81 10000 2.06 250 17:53 09.01.2023
293 Clouds 8 993 80 10000 3.09 220 16:59 09.01.2023
294 Clouds 8 997 85 10000 3.6 240 16:32 09.01.2023
295 Clouds 8 996 85 10000 2.57 270 15:23 09.01.2023
296 Clouds 8 996 85 10000 4.12 260 14:43 09.01.2023
297 Clouds 8 995 89 10000 4.12 260 12:56 09.01.2023
298 Clouds 8 995 89 10000 3.6 250 12:35 09.01.2023
299 Rain 8 994 90 10000 3.6 230 11:21 09.01.2023
300 Clouds 5 993 92 10000 5.14 160 08:42 09.01.2023
301 Clouds 5 989 88 10000 5.66 150 06:39 09.01.2023
302 Clear 5 995 91 10000 6.69 150 02:54 09.01.2023
303 Clear 5 998 91 10000 5.66 170 22:54 08.01.2023
304 Clear 5 999 91 10000 5.14 160 21:23 08.01.2023
305 Clear 5 999 91 10000 5.14 160 20:57 08.01.2023
306 Clouds 6 995 87 10000 5.66 150 19:44 08.01.2023
307 Clouds 6 1001 90 10000 7.2 170 17:42 08.01.2023
308 Clear 6 1001 90 10000 6.69 170 17:19 08.01.2023
309 Rain 7 1001 89 10000 5.14 150 15:39 08.01.2023
310 Clear 7 1001 86 10000 6.17 150 14:35 08.01.2023
311 Clear 7 1001 86 10000 5.14 160 13:55 08.01.2023
312 Clear 7 1001 86 10000 6.69 170 13:21 08.01.2023
313 Clear 7 1002 88 10000 6.69 160 11:51 08.01.2023
314 Clouds 6 1003 90 10000 6.17 160 09:38 08.01.2023
315 Clouds 5 1004 92 10000 6.69 160 08:42 08.01.2023
316 Clear 5 1004 91 10000 5.14 160 06:20 08.01.2023
317 Clear 4 1013 92 10000 4.12 160 23:35 07.01.2023
318 Clear 5 1012 87 10000 3.6 150 22:45 07.01.2023
319 Clear 5 1013 87 10000 2.06 150 22:18 07.01.2023
320 Clear 5 1013 90 10000 2.06 160 21:32 07.01.2023
321 Clear 6 1014 86 10000 2.06 180 20:29 07.01.2023
322 Clear 6 1005 81 10000 2.57 150 19:28 07.01.2023
323 Clouds 7 1009 86 10000 2.57 140 18:21 07.01.2023
324 Clouds 7 1009 85 10000 2.06 150 17:43 07.01.2023
325 Clouds 9 1006 77 10000 2.57 170 16:54 07.01.2023
326 Clouds 10 1006 75 10000 4.12 200 16:29 07.01.2023
327 Clouds 10 1010 82 10000 4.63 200 15:40 07.01.2023
328 Clouds 10 1010 83 10000 2.57 170 15:22 07.01.2023
329 Clouds 10 1010 83 10000 2.57 170 15:22 07.01.2023
330 Clear 11 1007 78 10000 3.09 170 14:26 07.01.2023
331 Clear 10 1007 80 10000 3.09 180 13:43 07.01.2023
332 Clouds 11 1011 86 10000 3.09 190 13:22 07.01.2023
333 Clouds 10 1012 87 10000 4.12 180 12:21 07.01.2023
334 Clouds 9 1013 91 10000 3.09 170 10:41 07.01.2023
335 Clouds 8 1013 91 10000 3.09 170 10:18 07.01.2023
336 Clouds 8 1014 89 10000 4.12 190 08:18 07.01.2023
337 Clouds 8 1013 89 10000 3.09 200 07:43 07.01.2023
338 Clouds 8 1013 89 10000 4.63 220 06:46 07.01.2023
339 Clouds 8 1015 88 10000 3.6 240 23:54 06.01.2023
340 Clear 9 1015 87 10000 3.6 240 22:22 06.01.2023
341 Clear 8 1015 88 10000 2.57 240 21:58 06.01.2023
342 Clouds 9 1014 88 10000 3.6 250 20:38 06.01.2023
343 Clouds 9 1014 88 10000 3.6 250 19:56 06.01.2023
344 Clouds 9 1014 88 10000 3.6 250 19:38 06.01.2023
345 Clouds 10 1010 83 10000 4.63 260 19:20 06.01.2023
346 Drizzle 10 1013 86 10000 5.14 260 18:24 06.01.2023
347 Clouds 10 1012 85 10000 4.63 260 16:54 06.01.2023
348 Clouds 11 1012 86 10000 4.12 250 16:23 06.01.2023
349 Clouds 11 1012 86 10000 5.14 260 15:53 06.01.2023
350 Clouds 11 1012 87 10000 5.14 260 15:34 06.01.2023
351 Clouds 10 1012 93 10000 4.63 270 13:48 06.01.2023
352 Clouds 11 1018 99 10000 2.06 210 12:21 06.01.2023
353 Clouds 9 1019 97 10000 4.63 200 10:57 06.01.2023
354 Clouds 8 1019 94 10000 3.09 180 08:53 06.01.2023
355 Clouds 6 1011 93 10000 3.09 160 05:26 06.01.2023
356 Clouds 7 1016 92 10000 2.06 280 23:39 05.01.2023
357 Clouds 7 1016 92 10000 2.06 290 22:45 05.01.2023
358 Clouds 7 1015 90 10000 4.12 300 21:22 05.01.2023
359 Rain 8 1013 90 10000 5.66 320 17:57 05.01.2023
360 Clouds 8 1013 89 10000 7.2 310 17:26 05.01.2023
361 Clouds 8 1013 89 10000 7.2 310 17:26 05.01.2023
362 Rain 9 1011 90 10000 6.69 310 15:59 05.01.2023
363 Rain 9 1011 90 10000 6.69 310 15:59 05.01.2023
364 Rain 9 1011 89 10000 6.69 310 15:37 05.01.2023
365 Clouds 10 1016 89 10000 7.72 290 14:34 05.01.2023
366 Rain 10 1015 89 10000 7.2 270 12:42 05.01.2023
367 Rain 11 1014 86 10000 9.26 280 11:42 05.01.2023
368 Rain 10 1014 88 10000 8.23 270 09:48 05.01.2023
369 Clouds 11 1013 84 10000 7.2 270 08:24 05.01.2023
370 Clouds 10 1012 84 10000 8.23 280 06:57 05.01.2023
371 Clouds 11 1011 84 10000 8.23 270 03:34 05.01.2023
372 Clouds 11 1012 87 10000 8.23 240 22:33 04.01.2023
373 Clouds 12 1013 85 10000 7.72 240 21:33 04.01.2023
374 Clouds 11 1014 88 10000 7.72 240 20:26 04.01.2023
375 Clouds 11 1014 90 10000 8.23 240 19:54 04.01.2023
376 Clouds 10 1014 92 10000 8.75 240 19:30 04.01.2023
377 Clouds 10 1015 92 10000 9.26 240 18:19 04.01.2023
378 Clouds 9 1016 91 10000 6.17 240 16:31 04.01.2023
379 Clouds 9 1010 88 10000 6.69 230 15:28 04.01.2023
380 Rain 8 1012 88 10000 6.69 230 13:36 04.01.2023
381 Rain 8 1014 86 10000 8.23 210 11:40 04.01.2023
382 Rain 7 1014 86 10000 8.23 200 11:19 04.01.2023
383 Rain 6 1015 88 10000 7.72 200 10:42 04.01.2023
384 Rain 7 1021 87 10000 8.23 190 10:21 04.01.2023
385 Clear 4 1024 87 10000 5.14 170 06:18 04.01.2023
386 Clouds 4 1018 79 10000 4.63 190 01:43 04.01.2023
387 Clear 5 1019 75 10000 3.09 200 23:58 03.01.2023
388 Clear 5 1019 74 10000 3.09 200 23:32 03.01.2023
389 Clear 6 1024 84 10000 3.6 220 22:26 03.01.2023
390 Clouds 7 1020 74 10000 3.6 220 20:52 03.01.2023
391 Clouds 5 1024 87 10000 3.09 210 19:20 03.01.2023
392 Clouds 7 1023 82 10000 1.54 290 16:47 03.01.2023
393 Clouds 8 1023 80 10000 4.12 290 15:47 03.01.2023
394 Clouds 10 1023 77 10000 4.63 270 13:51 03.01.2023
395 Clouds 10 1023 78 10000 4.12 280 13:29 03.01.2023
396 Clouds 9 1023 79 10000 4.12 270 12:57 03.01.2023
397 Clouds 10 1023 79 10000 4.12 270 12:29 03.01.2023
398 Clear 9 1023 83 10000 4.12 260 10:25 03.01.2023
399 Clear 8 1021 86 10000 3.6 250 06:21 03.01.2023
400 Clouds 8 1020 90 10000 3.6 230 03:57 03.01.2023
401 Clouds 8 1020 90 10000 3.6 230 03:39 03.01.2023
402 Clouds 10 1013 85 10000 2.57 250 23:56 02.01.2023
403 Rain 10 1017 89 10000 3.6 290 22:41 02.01.2023
404 Rain 11 1015 85 10000 6.17 320 21:55 02.01.2023
405 Clouds 13 1013 78 10000 4.12 230 20:39 02.01.2023
406 Clouds 13 1013 78 10000 4.63 240 19:28 02.01.2023
407 Clear 12 1008 70 10000 4.63 200 16:56 02.01.2023
408 Clear 12 1012 78 10000 5.14 200 14:46 02.01.2023
409 Clear 12 1017 71 10000 2.57 140 13:23 02.01.2023
410 Clear 12 1018 82 10000 5.66 150 11:40 02.01.2023
411 Clear 11 1012 80 10000 6.69 170 09:49 02.01.2023
412 Clear 12 1011 77 10000 4.12 140 07:32 02.01.2023
413 Clear 12 1012 79 10000 2.06 120 00:58 02.01.2023
414 Clear 13 1014 77 10000 4.12 220 21:58 01.01.2023
415 Clouds 13 1014 77 10000 5.14 220 21:24 01.01.2023
416 Clear 14 1014 73 10000 4.63 220 20:46 01.01.2023
417 Clear 14 1014 73 10000 4.63 220 19:42 01.01.2023
418 Clear 15 1014 73 10000 4.63 230 17:56 01.01.2023
419 Clear 15 1014 72 10000 5.14 220 17:20 01.01.2023
420 Clear 16 1014 69 10000 4.12 230 16:32 01.01.2023
421 Clear 17 1013 58 10000 7.2 230 14:47 01.01.2023
422 Clear 18 1013 54 10000 6.17 230 13:38 01.01.2023
423 Clear 17 1010 54 10000 5.14 240 12:40 01.01.2023
424 Clear 17 1013 56 10000 7.2 230 11:36 01.01.2023
425 Clear 16 1013 61 10000 7.72 230 10:35 01.01.2023
426 Clear 15 1012 72 10000 8.23 220 08:51 01.01.2023
427 Clear 15 1012 70 10000 8.75 220 08:20 01.01.2023
428 Clear 15 1011 62 10000 7.2 210 07:18 01.01.2023
429 Clear 16 1010 71 10000 6.69 210 01:42 01.01.2023
430 Clear 17 1009 62 10000 8.23 230 23:42 31.12.2022
431 Clear 17 1008 74 10000 7.72 220 22:33 31.12.2022
432 Clear 16 1009 77 10000 5.14 220 21:36 31.12.2022
433 Clear 16 1015 83 10000 6.69 210 21:18 31.12.2022
434 Clear 17 1006 64 10000 6.17 220 19:33 31.12.2022
435 Clear 16 1009 77 10000 6.69 210 18:42 31.12.2022
436 Clear 16 1009 77 10000 6.17 220 18:19 31.12.2022
437 Clear 16 1009 78 10000 6.17 220 17:47 31.12.2022
438 Clear 16 1015 82 10000 8.23 220 16:50 31.12.2022
439 Clear 17 1008 76 10000 7.2 220 16:22 31.12.2022
440 Clear 18 1007 74 10000 8.75 230 14:40 31.12.2022
441 Clear 18 1007 75 10000 7.2 240 13:38 31.12.2022
442 Clouds 18 1007 76 10000 8.75 230 12:40 31.12.2022
443 Clear 18 1007 76 10000 9.26 230 12:19 31.12.2022
444 Clear 18 1007 76 10000 9.26 230 11:50 31.12.2022
445 Clouds 16 1007 82 10000 10.29 230 10:36 31.12.2022
446 Clouds 16 1006 82 10000 8.75 230 09:54 31.12.2022
447 Clouds 16 1006 82 10000 8.75 230 09:35 31.12.2022
448 Clouds 14 1006 84 10000 9.77 210 07:49 31.12.2022
449 Clear 10 1004 85 10000 9.26 210 00:43 31.12.2022
450 Rain 10 1004 84 10000 8.23 190 23:47 30.12.2022
451 Clouds 9 1004 84 10000 8.23 180 22:50 30.12.2022
452 Rain 8 1001 78 10000 7.2 180 21:45 30.12.2022
453 Rain 9 1001 71 10000 8.23 170 21:26 30.12.2022
454 Clear 8 1002 72 10000 8.75 170 19:24 30.12.2022
455 Clear 7 1007 81 10000 7.72 170 17:52 30.12.2022
456 Clear 7 1007 81 10000 7.72 170 17:33 30.12.2022
457 Clear 8 1009 79 10000 5.66 170 15:58 30.12.2022
458 Clear 10 1009 76 10000 4.12 160 14:54 30.12.2022
459 Clear 10 1010 77 10000 5.14 240 12:50 30.12.2022
460 Clouds 6 1010 84 10000 4.12 230 08:22 30.12.2022
461 Clear 8 1007 81 10000 3.09 230 03:44 30.12.2022
462 Clear 9 1006 82 10000 4.63 240 02:24 30.12.2022
463 Clear 9 1005 81 10000 6.17 230 23:18 29.12.2022
464 Clear 9 1004 83 10000 6.17 200 21:32 29.12.2022
465 Clear 10 1004 82 10000 6.17 200 20:54 29.12.2022
466 Clouds 9 1004 82 10000 5.14 220 20:26 29.12.2022
467 Clouds 11 1004 77 10000 5.66 230 18:37 29.12.2022
468 Clouds 11 1004 77 10000 8.23 230 17:51 29.12.2022
469 Clouds 12 1004 75 10000 7.2 230 17:18 29.12.2022
470 Clouds 12 1003 75 10000 5.14 230 16:44 29.12.2022
471 Clear 13 1003 75 10000 7.72 230 15:44 29.12.2022
472 Clouds 13 1003 75 10000 8.23 220 13:34 29.12.2022
473 Clear 12 1003 77 10000 9.77 220 11:48 29.12.2022
474 Clouds 10 1003 82 10000 8.23 210 09:20 29.12.2022
475 Rain 9 1004 79 10000 8.75 200 02:31 29.12.2022
476 Clear 7 1006 84 10000 5.66 170 23:28 28.12.2022
477 Rain 7 1007 84 10000 4.63 170 21:49 28.12.2022
478 Clear 7 1008 84 10000 3.6 170 21:19 28.12.2022
479 Clear 7 1008 84 10000 5.66 200 19:47 28.12.2022
480 Clouds 8 1009 81 10000 4.63 220 16:58 28.12.2022
481 Clouds 9 1009 80 10000 4.63 220 16:20 28.12.2022
482 Clouds 9 1010 82 10000 6.17 230 12:59 28.12.2022
483 Clouds 8 1010 83 10000 5.14 220 12:32 28.12.2022
484 Clear 7 1011 86 10000 5.66 200 11:32 28.12.2022
485 Rain 4 1019 91 10000 6.17 180 09:28 28.12.2022
486 Clear 2 1020 91 10000 6.69 180 07:30 28.12.2022
487 Clear 2 1010 84 10000 6.17 180 06:44 28.12.2022
488 Clear 3 1019 86 10000 3.6 220 00:29 28.12.2022
489 Clear 4 1020 83 10000 3.6 230 21:18 27.12.2022
490 Clear 4 1020 86 10000 3.6 240 19:50 27.12.2022
491 Clear 3 1020 84 10000 3.6 230 18:21 27.12.2022
492 Clouds 5 1020 81 10000 3.09 250 16:58 27.12.2022
493 Clouds 6 1019 82 10000 3.6 260 15:53 27.12.2022
494 Clouds 6 1019 80 10000 6.17 270 14:20 27.12.2022
495 Clouds 6 1019 80 10000 5.66 250 12:22 27.12.2022
496 Clouds 4 1019 87 10000 5.66 240 09:47 27.12.2022
497 Clear 3 1019 85 10000 5.14 240 09:23 27.12.2022
498 Clear 3 1018 86 10000 5.66 250 08:44 27.12.2022
499 Clouds 3 1016 89 10000 5.66 270 04:54 27.12.2022
500 Rain 7 1011 92 10000 4.12 290 23:25 26.12.2022
501 Rain 8 1010 89 8000 7.2 300 21:41 26.12.2022
502 Clear 9 1008 88 10000 6.17 230 20:43 26.12.2022
503 Rain 10 1008 87 10000 3.6 240 19:37 26.12.2022
504 Clouds 9 1008 90 10000 4.12 220 18:41 26.12.2022
505 Clear 9 1008 88 10000 3.6 240 16:51 26.12.2022
506 Clouds 10 1008 87 10000 3.6 270 15:25 26.12.2022
507 Clouds 14 1007 81 10000 5.14 240 12:55 26.12.2022
508 Clouds 12 1008 85 10000 4.63 230 09:44 26.12.2022
509 Clear 10 1007 86 10000 7.2 210 05:41 26.12.2022
510 Clear 9 1007 88 10000 6.17 170 23:39 25.12.2022
511 Clear 9 1007 88 10000 6.69 170 22:48 25.12.2022
512 Clouds 9 1007 88 10000 6.69 170 22:19 25.12.2022
513 Clear 9 1008 90 10000 6.69 160 19:38 25.12.2022
514 Drizzle 8 1009 91 10000 5.14 150 17:52 25.12.2022
515 Drizzle 8 1006 88 10000 5.14 150 17:34 25.12.2022
516 Clear 8 1006 89 10000 5.14 150 16:40 25.12.2022
517 Clouds 8 1009 92 10000 3.75 149 13:30 25.12.2022
518 Clouds 8 1009 92 10000 3.84 155 13:30 25.12.2022
519 Clear 6 1013 93 10000 5.14 160 11:35 25.12.2022
520 Clouds 5 1009 88 10000 2.06 190 04:19 25.12.2022
521 Clear 6 1012 91 10000 3.09 230 22:47 24.12.2022
522 Clear 7 1006 89 10000 2.06 200 19:53 24.12.2022
523 Clouds 10 1009 86 10000 4.12 270 16:59 24.12.2022
524 Clouds 11 1008 83 10000 4.12 260 15:37 24.12.2022
525 Clouds 11 1007 84 10000 5.66 260 14:28 24.12.2022
526 Clear 11 1006 80 10000 6.69 260 12:20 24.12.2022
527 Clear 10 1005 84 10000 6.17 260 10:23 24.12.2022
528 Clear 10 1005 84 10000 6.17 260 10:23 24.12.2022
529 Clouds 10 1004 84 10000 7.2 260 09:37 24.12.2022
530 Clouds 10 1003 84 10000 6.69 270 08:36 24.12.2022
531 Rain 10 998 93 10000 5.14 260 02:52 24.12.2022
532 Rain 9 997 95 10000 2.06 220 00:29 24.12.2022
533 Clouds 7 997 94 10000 3.6 160 22:30 23.12.2022
534 Clouds 7 997 94 10000 4.12 150 21:37 23.12.2022
535 Rain 8 998 93 10000 2.57 170 19:40 23.12.2022
536 Rain 8 998 92 10000 3.09 170 19:22 23.12.2022
537 Rain 9 999 91 10000 4.12 190 18:53 23.12.2022
538 Rain 9 999 90 10000 3.6 190 18:22 23.12.2022
539 Rain 9 999 90 10000 3.09 200 17:43 23.12.2022
540 Clouds 10 1000 89 10000 2.06 290 15:45 23.12.2022
541 Clouds 11 1000 89 10000 4.63 260 13:42 23.12.2022
542 Mist 9 1000 92 5000 3.6 250 10:21 23.12.2022
543 Clouds 9 999 92 10000 4.12 240 09:35 23.12.2022
544 Clouds 9 999 91 10000 5.14 230 07:30 23.12.2022
545 Clouds 9 998 92 10000 5.14 220 06:50 23.12.2022
546 Clouds 6 999 94 10000 5.14 190 02:45 23.12.2022
547 Clouds 6 1001 94 10000 2.06 210 23:20 22.12.2022
548 Clouds 7 1002 95 10000 2.57 220 21:56 22.12.2022
549 Clouds 9 1002 93 10000 2.57 280 19:48 22.12.2022
550 Clouds 9 1001 93 10000 5.14 290 19:21 22.12.2022
551 Clouds 9 1000 94 9000 4.12 280 17:59 22.12.2022
552 Rain 10 999 88 10000 5.66 260 16:54 22.12.2022
553 Clouds 11 998 86 10000 6.17 240 15:48 22.12.2022
554 Clouds 11 998 85 10000 5.66 240 15:29 22.12.2022
555 Clouds 11 994 82 10000 4.63 200 14:28 22.12.2022
556 Rain 9 994 86 10000 5.66 190 13:31 22.12.2022
557 Rain 9 995 85 10000 4.12 170 12:31 22.12.2022
558 Clouds 8 996 85 10000 6.17 160 10:32 22.12.2022
559 Rain 5 1000 94 10000 6.17 150 09:24 22.12.2022
560 Drizzle 5 1001 94 10000 5.66 150 08:59 22.12.2022
561 Rain 4 1001 94 10000 5.66 150 07:54 22.12.2022
562 Clouds 4 1003 93 10000 5.14 150 04:19 22.12.2022
563 Clouds 3 1005 94 10000 4.63 170 00:48 22.12.2022
564 Clear 3 1011 94 10000 5.14 180 22:41 21.12.2022
565 Clear 3 1011 98 10000 4.12 180 21:50 21.12.2022
566 Clear 3 1011 98 10000 2.06 0 21:20 21.12.2022
567 Clouds 3 1011 98 10000 3.09 200 20:40 21.12.2022
568 Clouds 3 1011 94 10000 1.54 200 19:56 21.12.2022
569 Clouds 3 1011 94 10000 1.54 200 19:38 21.12.2022
570 Clear 3 1003 90 10000 4.12 180 19:19 21.12.2022
571 Clouds 3 1003 90 10000 3.09 190 18:42 21.12.2022
572 Drizzle 3 1003 90 10000 4.12 190 17:34 21.12.2022
573 Clouds 3 1007 91 10000 3.6 160 14:24 21.12.2022
574 Clouds 3 1007 93 8000 4.63 160 12:30 21.12.2022
575 Clouds 3 1008 93 10000 2.57 150 11:21 21.12.2022
576 Drizzle 3 1008 92 10000 3.6 150 10:50 21.12.2022
577 Rain 3 1004 87 10000 5.14 150 08:51 21.12.2022
578 Clouds 2 1014 94 10000 6.69 160 06:55 21.12.2022
579 Snow 2 1010 88 10000 8.23 160 00:28 21.12.2022
580 Clear 2 1010 87 10000 7.72 150 21:58 20.12.2022
581 Snow 2 1011 87 10000 6.69 140 20:58 20.12.2022
582 Clouds 2 1011 88 10000 9.77 150 19:59 20.12.2022
583 Clouds 2 1007 83 10000 9.26 150 18:49 20.12.2022
584 Clouds 2 1007 83 10000 8.23 150 18:25 20.12.2022
585 Clouds 2 1012 88 10000 7.72 150 17:51 20.12.2022
586 Snow 2 1012 88 10000 6.69 150 17:26 20.12.2022
587 Clear 2 1012 88 10000 7.72 150 16:20 20.12.2022
588 Clear 2 1013 86 10000 9.26 160 14:56 20.12.2022
589 Rain 2 1013 86 10000 9.26 160 14:36 20.12.2022
590 Rain 2 1013 86 10000 7.72 150 13:49 20.12.2022
591 Clear 2 1014 86 10000 8.75 160 12:37 20.12.2022
592 Snow 2 1015 88 10000 8.23 150 11:55 20.12.2022
593 Clear 2 1015 87 10000 8.23 150 10:42 20.12.2022
594 Clouds 1 1015 92 9000 8.75 160 07:31 20.12.2022
595 Clear 1 1013 85 10000 6.17 160 00:20 20.12.2022
596 Clear 1 1013 86 10000 8.75 160 22:36 19.12.2022
597 Clear 1 1013 88 10000 8.23 160 21:30 19.12.2022
598 Rain 1 1014 90 10000 9.77 160 19:50 19.12.2022
599 Rain 1 1014 88 10000 9.26 160 19:31 19.12.2022
600 Snow 1 1014 88 10000 8.75 160 18:23 19.12.2022
601 Snow 1 1014 86 6000 7.2 160 16:29 19.12.2022
602 Clouds 0 1019 84 10000 10.29 170 13:22 19.12.2022
603 Snow 0 1020 84 10000 10.29 160 11:55 19.12.2022
604 Clear -3 1022 85 10000 11.32 160 08:27 19.12.2022
605 Clear -3 1022 85 10000 6.17 160 07:25 19.12.2022
606 Clear -4 1023 85 10000 10.29 160 00:56 19.12.2022
607 Clear -4 1025 86 10000 7.2 150 21:50 18.12.2022
608 Clear -4 1025 87 10000 8.23 140 21:31 18.12.2022
609 Clear -4 1025 87 10000 7.2 150 20:58 18.12.2022
610 Clear -5 1027 88 10000 6.69 140 19:45 18.12.2022
611 Clear -5 1027 89 10000 6.17 150 19:24 18.12.2022
612 Clear -5 1027 88 10000 7.72 150 17:52 18.12.2022
613 Clear -5 1028 87 10000 6.69 140 16:26 18.12.2022
614 Clear -4 1028 87 10000 4.63 140 15:39 18.12.2022
615 Clear -4 1028 85 10000 5.14 140 15:18 18.12.2022
616 Clear -2 1028 87 10000 4.63 160 13:36 18.12.2022
617 Clear -3 1028 86 10000 4.63 160 12:51 18.12.2022
618 Clear -4 1029 89 10000 3.6 140 11:54 18.12.2022
619 Clear -5 1029 93 10000 3.6 150 10:20 18.12.2022
620 Clear -9 1033 92 10000 1.54 150 08:47 18.12.2022
621 Clear -9 1032 92 9000 1.54 140 07:20 18.12.2022
622 Clear -8 1032 92 6000 1.03 0 06:20 18.12.2022
623 Clear -8 1032 92 6000 1.54 170 03:38 18.12.2022
624 Mist -7 1022 88 5000 1.03 160 23:40 17.12.2022
625 Mist -6 1021 87 5000 1.03 130 21:47 17.12.2022
626 Clouds -3 1019 86 10000 1.03 0 19:27 17.12.2022
627 Clouds -2 1023 90 8000 2.06 270 16:49 17.12.2022
628 Mist -1 1021 92 3900 2.06 330 14:30 17.12.2022
629 Mist -2 1020 93 2100 3.6 310 11:38 17.12.2022
630 Mist -2 1020 93 2800 2.57 290 10:47 17.12.2022
631 Mist -3 1019 93 3700 2.57 290 09:46 17.12.2022
632 Clouds -3 1018 91 6000 1.54 260 07:48 17.12.2022
633 Clouds -4 1017 91 6000 1.54 270 06:46 17.12.2022
634 Clouds -4 1014 90 6000 2.06 280 23:57 16.12.2022
635 Clouds -5 1013 92 6000 2.06 290 21:34 16.12.2022
636 Clouds -5 1012 92 6000 2.57 300 19:57 16.12.2022
637 Clouds -5 1010 89 6000 3.6 320 16:55 16.12.2022
638 Clouds -4 1008 90 6000 3.6 310 14:49 16.12.2022
639 Clouds -3 1007 88 6000 3.6 320 13:50 16.12.2022
640 Clouds -2 1006 88 9000 3.09 360 12:18 16.12.2022
641 Clouds -3 1006 91 6000 2.06 360 10:42 16.12.2022
642 Clouds -4 1005 91 6000 3.09 80 09:26 16.12.2022
643 Snow -4 1005 93 7000 4.63 50 08:25 16.12.2022
644 Snow -4 1004 90 10000 4.12 40 07:54 16.12.2022
645 Clouds -5 1004 91 8000 1.54 110 23:39 15.12.2022
646 Clear -6 1004 90 10000 2.06 80 22:30 15.12.2022
647 Clear -6 1005 93 10000 2.57 150 20:40 15.12.2022
648 Clear -7 1005 89 10000 1.54 120 19:37 15.12.2022
649 Clear -7 1005 87 10000 2.06 160 18:25 15.12.2022
650 Clear -6 1000 84 10000 1.54 150 17:26 15.12.2022
651 Clear -4 1004 86 10000 1.54 210 15:38 15.12.2022
652 Clear -1 1004 84 10000 1.54 210 13:59 15.12.2022
653 Clear -2 1011 90 10000 2.57 210 12:41 15.12.2022
654 Clear -6 1010 97 10000 3.6 200 10:29 15.12.2022
655 Clear -7 1007 93 10000 3.09 220 08:54 15.12.2022
656 Clear -7 997 86 10000 2.57 230 06:27 15.12.2022
657 Clouds -8 1000 92 8000 3.09 220 05:19 15.12.2022
658 Clouds -8 1000 92 8000 3.09 220 05:19 15.12.2022
659 Clouds -4 997 89 7000 1.54 250 21:25 14.12.2022
660 Clouds -4 997 89 9000 0.51 0 20:59 14.12.2022
661 Clouds -4 997 91 10000 0.51 0 20:31 14.12.2022
662 Clouds -4 997 91 10000 0.51 0 20:31 14.12.2022
663 Clouds -3 996 89 10000 1.54 190 18:38 14.12.2022
664 Snow -2 996 86 10000 2.57 130 16:58 14.12.2022
665 Clouds -2 996 86 10000 2.57 130 15:58 14.12.2022
666 Clouds -2 996 86 10000 4.63 150 14:49 14.12.2022
667 Snow -2 997 84 10000 6.17 150 12:49 14.12.2022
668 Clear -3 999 88 10000 7.2 140 10:45 14.12.2022
669 Clear -4 999 88 10000 5.66 150 09:38 14.12.2022
670 Clear -6 1002 89 10000 5.14 140 05:53 14.12.2022
671 Clear -8 1002 88 10000 1.03 0 21:57 13.12.2022
672 Clear -9 1006 92 10000 1.03 0 21:36 13.12.2022
673 Clear -9 1006 91 10000 2.57 150 20:47 13.12.2022
674 Clear -8 1007 89 10000 2.06 130 18:49 13.12.2022
675 Clear -6 1007 88 10000 1.54 120 16:31 13.12.2022
676 Clear -3 1006 84 10000 0.51 0 14:54 13.12.2022
677 Clear -3 1002 80 10000 2.06 200 13:31 13.12.2022
678 Clear -5 1014 90 10000 2.06 180 10:41 13.12.2022
679 Clouds -6 1014 94 10000 2.06 170 09:48 13.12.2022
680 Clouds -6 1003 82 10000 1.03 220 07:53 13.12.2022
681 Clouds -3 1008 91 10000 3.09 260 22:37 12.12.2022
682 Clouds -3 1007 91 10000 3.6 260 21:58 12.12.2022
683 Clouds -3 1007 90 10000 2.57 290 19:46 12.12.2022
684 Clouds -3 1007 92 10000 3.6 280 17:53 12.12.2022
685 Clouds -2 1006 93 9000 4.63 310 15:32 12.12.2022
686 Snow -1 1005 93 1600 3.09 280 13:51 12.12.2022
687 Snow -3 1004 94 4600 4.12 290 09:21 12.12.2022
688 Snow -3 1004 94 1900 3.6 290 08:56 12.12.2022
689 Snow -3 1003 93 2800 3.09 300 04:48 12.12.2022
690 Snow -3 1003 93 4600 3.09 290 01:50 12.12.2022
691 Mist -3 1003 92 4500 2.57 290 22:18 11.12.2022
692 Snow -3 1003 92 4700 3.09 310 20:37 11.12.2022
693 Clouds -3 1003 90 10000 2.57 290 19:39 11.12.2022
694 Clouds -3 1003 90 10000 2.57 310 18:40 11.12.2022
695 Clouds -3 1003 92 10000 2.57 300 17:53 11.12.2022
696 Clouds -3 1003 90 10000 2.57 300 16:53 11.12.2022
697 Clouds -3 1003 90 10000 3.09 320 16:29 11.12.2022
698 Snow -3 1003 91 7000 3.6 310 15:45 11.12.2022
699 Mist -3 1003 90 3800 3.6 300 13:39 11.12.2022
700 Clouds -2 1003 93 7000 3.09 300 12:42 11.12.2022
701 Clouds -3 1004 93 9000 3.09 320 10:44 11.12.2022
702 Clouds -2 1004 94 8000 2.06 350 03:39 11.12.2022
703 Mist -1 1004 94 4500 2.57 10 00:28 11.12.2022
704 Mist -1 1004 94 5000 3.6 350 22:50 10.12.2022
705 Mist -1 1004 95 4700 2.57 360 22:32 10.12.2022
706 Clouds -1 1004 95 6000 2.57 360 21:18 10.12.2022
707 Snow 0 1004 93 6000 3.09 20 20:21 10.12.2022
708 Snow 0 1003 95 4200 2.57 10 18:22 10.12.2022
709 Mist 0 1003 95 5000 2.57 360 16:47 10.12.2022
710 Snow 0 1003 95 4600 2.06 360 15:53 10.12.2022
711 Snow 0 1002 95 4100 2.57 350 15:33 10.12.2022
712 Snow 0 1002 95 7000 2.06 360 13:44 10.12.2022
713 Snow 0 1002 95 5000 2.06 360 12:34 10.12.2022
714 Snow 1 1002 93 3600 2.06 20 11:22 10.12.2022
715 Mist 0 1002 95 3200 2.06 40 10:26 10.12.2022
716 Mist 1 1001 93 5000 2.57 40 07:29 10.12.2022
717 Mist 1 1001 93 5000 2.06 40 06:56 10.12.2022
718 Clouds 1 1000 92 6000 4.12 50 23:52 09.12.2022
719 Clouds 1 1000 92 10000 3.6 50 22:43 09.12.2022
720 Clouds 2 1000 90 10000 3.09 50 21:47 09.12.2022
721 Clouds 1 1000 90 10000 4.12 60 21:20 09.12.2022
722 Clouds 1 1000 92 10000 4.63 60 19:49 09.12.2022
723 Clouds 2 1000 91 9000 3.6 40 18:32 09.12.2022
724 Clouds 2 1000 91 10000 3.09 50 17:38 09.12.2022
725 Clouds 2 1000 89 10000 3.09 50 16:29 09.12.2022
726 Clouds 3 1000 88 10000 3.09 60 15:31 09.12.2022
727 Clouds 3 1000 87 10000 2.57 50 14:23 09.12.2022
728 Clouds 2 1001 92 10000 2.57 100 10:51 09.12.2022
729 Mist 3 1002 92 5000 2.06 60 10:29 09.12.2022
730 Mist 2 1001 94 5000 0.51 100 08:22 09.12.2022
731 Clouds 2 1002 92 8000 0.51 0 03:18 09.12.2022
732 Clouds 3 1002 90 10000 0.51 0 23:36 08.12.2022
733 Clouds 4 1001 85 10000 4.12 220 20:56 08.12.2022
734 Clouds 4 1001 85 10000 4.63 220 20:20 08.12.2022
735 Clouds 4 997 78 10000 5.14 210 16:51 08.12.2022
736 Clouds 5 1001 82 10000 5.14 230 14:43 08.12.2022
737 Clouds 5 1001 82 10000 4.63 230 14:20 08.12.2022
738 Clear 4 1003 90 10000 4.63 210 10:49 08.12.2022
739 Clouds 3 1003 92 10000 3.6 230 09:34 08.12.2022
740 Clouds 3 1003 92 10000 4.12 220 08:28 08.12.2022
741 Clouds 2 1005 92 10000 3.6 250 22:44 07.12.2022
742 Clouds 2 1005 92 10000 3.6 250 22:19 07.12.2022
743 Clouds 2 1005 92 10000 3.6 250 22:19 07.12.2022
744 Clouds 2 1005 92 10000 4.12 260 21:47 07.12.2022
745 Clouds 2 1005 92 10000 3.6 260 20:36 07.12.2022
746 Clouds 3 1005 90 10000 3.6 280 18:41 07.12.2022
747 Clouds 3 1005 91 10000 3.6 270 15:53 07.12.2022
748 Rain 4 1005 92 10000 4.63 270 14:30 07.12.2022
749 Clouds 5 1006 89 10000 6.69 270 11:37 07.12.2022
750 Clouds 4 1006 92 10000 4.63 260 10:36 07.12.2022
751 Clouds 3 1006 94 10000 4.12 260 09:36 07.12.2022
752 Snow 2 1006 94 4200 5.14 250 08:36 07.12.2022
753 Clouds 1 1007 95 10000 2.57 240 05:27 07.12.2022
754 Clouds 2 1008 94 10000 3.6 260 03:55 07.12.2022
755 Snow 2 1009 94 10000 3.09 290 22:35 06.12.2022
756 Clouds 2 1009 95 6000 3.09 280 19:45 06.12.2022
757 Drizzle 3 1009 92 10000 3.6 270 17:30 06.12.2022
758 Clouds 3 1009 91 10000 2.57 270 16:40 06.12.2022
759 Clouds 3 1009 91 10000 3.09 290 15:40 06.12.2022
760 Clouds 3 1009 89 10000 3.09 280 14:55 06.12.2022
761 Clouds 4 1009 91 10000 3.09 300 14:24 06.12.2022
762 Clouds 4 1009 92 10000 2.57 300 12:51 06.12.2022
763 Clouds 4 1009 92 10000 2.57 290 12:28 06.12.2022
764 Clouds 4 1010 93 10000 2.06 270 07:59 06.12.2022
765 Clouds 4 1011 93 10000 2.57 290 04:54 06.12.2022
766 Clouds 4 1012 93 10000 1.54 290 01:25 06.12.2022
767 Drizzle 4 1013 93 10000 1.54 250 22:26 05.12.2022
768 Clouds 5 1013 92 10000 1.54 270 20:55 05.12.2022
769 Clouds 5 1013 92 10000 0.51 340 20:26 05.12.2022
770 Rain 5 1013 92 10000 1.03 0 19:44 05.12.2022
771 Clouds 6 1013 90 10000 1.54 280 17:44 05.12.2022
772 Clouds 6 1012 90 10000 1.54 270 16:26 05.12.2022
773 Clouds 6 1012 88 10000 2.57 200 15:22 05.12.2022
774 Clouds 7 1012 90 10000 4.12 200 12:59 05.12.2022
775 Clouds 7 1012 90 10000 4.12 200 12:40 05.12.2022
776 Clouds 7 1012 90 10000 2.57 200 11:51 05.12.2022
777 Clouds 7 1012 90 10000 1.54 230 10:58 05.12.2022
778 Clouds 6 1010 89 9000 3.09 80 00:20 05.12.2022
779 Mist 6 1010 92 4100 4.12 60 22:45 04.12.2022
780 Rain 6 1010 90 5000 3.6 60 22:20 04.12.2022
781 Mist 6 1010 92 4300 3.6 70 21:59 04.12.2022
782 Mist 6 1010 90 5000 4.12 60 20:49 04.12.2022
783 Clouds 6 1010 91 6000 4.63 80 19:39 04.12.2022
784 Clouds 6 1010 92 7000 4.63 90 19:18 04.12.2022
785 Clouds 6 1011 92 6000 3.6 70 17:24 04.12.2022
786 Mist 5 1011 92 5000 4.12 60 16:56 04.12.2022
787 Mist 6 1011 92 5000 4.12 60 16:36 04.12.2022
788 Mist 6 1011 93 5000 3.6 70 16:18 04.12.2022
789 Clouds 6 1011 94 6000 4.12 90 14:46 04.12.2022
790 Mist 6 1011 94 5000 3.6 80 13:37 04.12.2022
791 Mist 4 1012 96 2600 3.6 60 12:44 04.12.2022
792 Mist 4 1012 96 2700 4.63 60 11:59 04.12.2022
793 Mist 3 1012 96 2400 3.6 80 09:33 04.12.2022
794 Mist 2 1012 96 2300 3.6 60 07:33 04.12.2022
795 Clouds 2 1013 94 6000 3.6 90 02:22 04.12.2022
796 Mist 2 1014 94 4800 4.63 100 23:43 03.12.2022
797 Clouds 2 1014 94 6000 3.6 70 22:23 03.12.2022
798 Clouds 2 1014 94 7000 3.6 90 21:28 03.12.2022
799 Clouds 2 1014 92 7000 3.09 80 20:34 03.12.2022
800 Clouds 1 1015 95 6000 3.09 90 18:40 03.12.2022
801 Mist 1 1015 94 5000 3.09 90 17:22 03.12.2022
802 Clouds 2 1015 94 7000 3.09 90 15:48 03.12.2022
803 Mist 1 1016 94 5000 3.09 90 12:55 03.12.2022
804 Mist 1 1016 94 5000 3.09 80 12:26 03.12.2022
805 Clouds 0 1016 94 7000 3.09 80 10:30 03.12.2022
806 Clouds 0 1016 94 8000 4.12 90 07:58 03.12.2022
807 Snow 0 1017 93 3200 4.12 60 01:31 03.12.2022
808 Snow 0 1018 92 3400 4.63 80 23:26 02.12.2022
809 Snow 0 1018 89 10000 6.17 80 21:34 02.12.2022
810 Clouds 0 1018 89 10000 4.63 80 19:34 02.12.2022
811 Clouds 1 1017 88 8000 5.14 80 16:23 02.12.2022
812 Clouds 1 1017 89 8000 5.66 80 14:48 02.12.2022
813 Clouds 1 1017 89 8000 5.14 90 14:28 02.12.2022
814 Clouds 1 1017 89 9000 5.66 80 13:41 02.12.2022
815 Clouds 1 1018 90 10000 6.17 90 11:48 02.12.2022
816 Clouds 1 1018 90 9000 5.14 90 09:52 02.12.2022
817 Snow 1 1018 92 4500 3.6 80 07:25 02.12.2022
818 Mist 1 1018 92 4200 4.63 70 06:23 02.12.2022
819 Mist 1 1020 92 5000 1.03 350 22:49 01.12.2022
820 Mist 1 1020 94 5000 1.03 360 21:41 01.12.2022
821 Clouds 1 1020 92 7000 1.54 20 20:36 01.12.2022
822 Snow 1 1020 91 7000 2.57 70 18:58 01.12.2022
823 Snow 1 1020 91 6000 3.6 60 16:57 01.12.2022
824 Mist 1 1021 93 4600 3.09 70 14:21 01.12.2022
825 Mist 1 1018 91 3600 3.09 60 10:56 01.12.2022
826 Mist 0 1017 93 2400 3.09 80 09:54 01.12.2022
827 Mist 0 1021 95 2400 3.09 80 09:36 01.12.2022
828 Mist 0 1021 95 3600 2.57 80 06:19 01.12.2022
829 Clouds 1 1020 91 6000 3.6 70 22:41 30.11.2022
830 Mist 2 1020 93 4600 4.63 100 21:45 30.11.2022
831 Mist 1 1027 98 4400 4.12 70 21:18 30.11.2022
832 Clouds 3 1020 90 6000 4.12 80 20:23 30.11.2022
833 Clouds 4 1019 89 9000 3.09 100 18:39 30.11.2022
834 Clouds 4 1019 89 10000 3.09 90 18:21 30.11.2022
835 Clouds 4 1019 85 10000 2.06 150 16:26 30.11.2022
836 Clear 5 1018 84 10000 3.09 130 14:46 30.11.2022
837 Clear 5 1018 84 10000 3.09 120 14:26 30.11.2022
838 Clear 5 1018 84 10000 3.09 120 14:26 30.11.2022
839 Clear 5 1018 84 10000 4.63 150 12:00 30.11.2022
840 Clear 2 1018 89 10000 3.09 140 09:38 30.11.2022
841 Clear 1 1018 91 10000 3.09 130 08:27 30.11.2022
842 Clouds 1 1017 88 10000 2.06 130 06:42 30.11.2022
843 Clouds 4 1016 88 10000 4.12 150 23:27 29.11.2022
844 Clouds 5 1012 83 10000 5.66 150 22:19 29.11.2022
845 Clouds 4 1015 88 10000 4.12 160 20:52 29.11.2022
846 Clouds 5 1015 88 10000 4.63 160 19:54 29.11.2022
847 Clouds 5 1015 88 10000 5.14 160 18:41 29.11.2022
848 Clouds 5 1014 89 10000 4.12 150 16:47 29.11.2022
849 Clouds 6 1014 87 10000 4.63 150 15:34 29.11.2022
850 Clouds 5 1013 87 10000 3.6 150 14:47 29.11.2022
851 Clouds 5 1013 88 10000 5.14 160 12:38 29.11.2022
852 Clouds 5 1013 90 10000 5.66 160 11:31 29.11.2022
853 Drizzle 5 1012 91 10000 5.14 160 10:29 29.11.2022
854 Drizzle 4 1012 91 9000 6.17 160 09:28 29.11.2022
855 Clouds 4 1011 91 10000 4.63 150 07:27 29.11.2022
856 Clear 5 1010 86 10000 5.14 160 00:29 29.11.2022
857 Clear 5 1010 86 10000 4.12 160 23:26 28.11.2022
858 Clear 5 1010 87 10000 4.63 160 22:21 28.11.2022
859 Clear 4 1010 87 10000 4.12 170 21:43 28.11.2022
860 Rain 5 1009 87 10000 6.69 170 20:25 28.11.2022
861 Clear 5 1009 87 10000 6.17 160 19:37 28.11.2022
862 Clear 5 1009 87 10000 6.17 150 18:28 28.11.2022
863 Rain 5 1010 86 10000 5.66 150 17:23 28.11.2022
864 Clear 5 1010 85 10000 5.66 160 14:57 28.11.2022
865 Clouds 6 1008 87 10000 0.89 240 13:56 28.11.2022
866 Clear 6 1010 86 10000 5.66 160 13:32 28.11.2022
867 Clear 5 1010 85 10000 8.23 160 11:37 28.11.2022
868 Clear 4 1011 89 10000 8.23 150 08:49 28.11.2022
869 Clear 3 1012 88 10000 5.66 150 04:58 28.11.2022
870 Clear 3 1012 88 10000 5.66 150 04:39 28.11.2022
871 Clear 3 1013 90 10000 6.17 150 03:22 28.11.2022
872 Clear 3 1014 88 10000 6.17 150 00:35 28.11.2022
873 Clear 3 1016 92 10000 5.66 150 22:24 27.11.2022
874 Clear 3 1017 90 10000 4.63 150 20:49 27.11.2022
875 Clear 3 1018 88 10000 4.63 150 18:52 27.11.2022
876 Clear 5 1019 85 10000 3.6 160 16:44 27.11.2022
877 Clear 8 1020 84 10000 4.12 130 14:22 27.11.2022
878 Clear 7 1021 90 10000 3.6 150 12:27 27.11.2022
879 Clouds 4 1028 99 10000 3.09 150 10:36 27.11.2022
880 Fog 2 1028 100 8000 1.54 180 07:55 27.11.2022
881 Clouds 6 1025 92 10000 2.06 300 23:39 26.11.2022
882 Clouds 6 1025 92 10000 1.54 210 21:44 26.11.2022
883 Clouds 6 1025 92 10000 1.03 0 20:35 26.11.2022
884 Clouds 6 1025 93 10000 1.03 0 18:57 26.11.2022
885 Clouds 8 1020 86 10000 1.54 300 16:49 26.11.2022
886 Clouds 8 1024 89 10000 1.54 280 15:38 26.11.2022
887 Clouds 8 1023 92 10000 4.63 300 12:55 26.11.2022
888 Clouds 8 1023 94 10000 3.09 300 11:23 26.11.2022
889 Clouds 8 1022 95 8000 4.12 290 09:44 26.11.2022
890 Rain 7 1022 95 6000 3.6 290 08:45 26.11.2022
891 Drizzle 6 1016 96 4300 3.09 270 23:23 25.11.2022
892 Clouds 6 1011 94 9000 2.57 220 21:41 25.11.2022
893 Clouds 6 1011 94 6000 2.57 210 21:19 25.11.2022
894 Clouds 5 1010 91 10000 1.54 200 19:36 25.11.2022
895 Clouds 7 1012 90 10000 2.57 180 15:51 25.11.2022
896 Clear 9 1011 88 10000 2.57 190 13:43 25.11.2022
897 Clear 5 1017 87 10000 3.6 180 09:19 25.11.2022
898 Clear 4 1016 93 10000 2.57 180 08:38 25.11.2022
899 Clouds 4 1007 93 10000 3.6 200 06:52 25.11.2022
900 Clouds 5 1016 95 10000 2.57 220 01:54 25.11.2022
901 Clouds 6 1006 93 10000 2.57 210 23:47 24.11.2022
902 Clouds 5 1006 95 10000 2.06 220 22:42 24.11.2022
903 Clouds 5 1006 95 10000 2.06 230 21:45 24.11.2022
904 Clouds 6 1014 95 10000 2.06 220 19:49 24.11.2022
905 Clouds 6 1004 93 10000 1.03 230 17:48 24.11.2022
906 Clouds 6 1004 95 10000 1.54 240 17:24 24.11.2022
907 Clouds 6 1004 93 10000 1.03 190 16:50 24.11.2022
908 Clouds 7 1011 95 10000 2.06 210 14:27 24.11.2022
909 Clouds 6 1011 99 10000 2.57 220 13:29 24.11.2022
910 Clouds 5 1011 95 10000 2.57 210 11:46 24.11.2022
911 Clouds 6 1011 95 10000 2.57 210 11:45 24.11.2022
912 Clouds 6 1011 95 10000 2.57 210 11:45 24.11.2022
913 Clouds 4 1011 99 10000 4.12 180 10:33 24.11.2022
914 Clouds 0 1008 100 10000 1.54 150 06:25 24.11.2022
915 Clouds 1 998 90 9000 1.54 160 00:48 24.11.2022
916 Clouds 2 997 92 6000 1.03 0 23:32 23.11.2022
917 Clouds 2 1000 93 9000 2.06 180 21:55 23.11.2022
918 Clear 3 1000 91 10000 1.54 130 21:19 23.11.2022
919 Clear 3 1000 91 10000 1.54 160 19:57 23.11.2022
920 Clear 4 995 88 10000 3.09 150 18:58 23.11.2022
921 Clear 3 1000 91 10000 2.57 140 18:20 23.11.2022
922 Clouds 6 995 82 10000 3.09 140 16:22 23.11.2022
923 Clouds 8 999 85 10000 3.09 140 13:26 23.11.2022
924 Clouds 7 999 84 10000 2.06 180 12:58 23.11.2022
925 Clouds 7 999 88 10000 2.57 150 11:53 23.11.2022
926 Clear 4 999 92 10000 3.6 150 10:59 23.11.2022
927 Clear 4 999 92 10000 3.6 150 10:40 23.11.2022
928 Clouds 2 999 94 10000 3.09 150 09:41 23.11.2022
929 Clouds 2 999 94 10000 2.57 160 09:23 23.11.2022
930 Clouds 2 999 94 10000 1.54 170 08:36 23.11.2022
931 Clear 2 999 94 10000 2.57 140 05:21 23.11.2022
932 Clear 3 994 88 10000 4.63 150 02:36 23.11.2022
933 Clear 2 998 91 10000 4.12 160 22:38 22.11.2022
934 Clear 3 998 89 10000 4.12 170 21:54 22.11.2022
935 Clear 3 998 89 10000 4.12 170 21:32 22.11.2022
936 Clouds 3 997 91 10000 4.63 160 20:45 22.11.2022
937 Clouds 3 997 91 10000 4.63 160 20:45 22.11.2022
938 Clouds 3 997 91 10000 4.63 160 19:52 22.11.2022
939 Clouds 4 996 90 10000 4.12 150 17:55 22.11.2022
940 Clouds 4 996 89 10000 5.14 160 16:48 22.11.2022
941 Clouds 4 995 89 10000 5.66 170 15:24 22.11.2022
942 Clouds 5 995 87 10000 6.17 160 13:24 22.11.2022
943 Clear 4 996 90 10000 6.17 150 11:40 22.11.2022
944 Clear 2 995 94 10000 4.63 150 09:18 22.11.2022
945 Clear 1 994 94 10000 6.17 150 07:18 22.11.2022
946 Clouds 0 995 94 10000 4.63 140 01:38 22.11.2022
947 Clear 0 996 94 10000 4.12 160 23:36 21.11.2022
948 Clear -1 997 94 10000 4.12 150 22:34 21.11.2022
949 Clear -1 997 94 10000 4.63 150 21:58 21.11.2022
950 Clear 0 997 94 10000 3.09 140 20:49 21.11.2022
951 Clouds 1 994 92 10000 3.09 150 19:41 21.11.2022
952 Clouds 1 998 94 7000 2.06 130 18:54 21.11.2022
953 Clouds 0 999 94 7000 2.57 140 17:51 21.11.2022
954 Clouds 0 999 94 8000 2.06 140 16:53 21.11.2022
955 Clouds 0 999 94 8000 2.06 140 16:34 21.11.2022
956 Clouds 1 1000 93 10000 0.51 0 15:24 21.11.2022
957 Clouds 0 1000 93 10000 2.06 250 14:28 21.11.2022
958 Clouds 0 1000 94 10000 1.54 280 13:43 21.11.2022
959 Mist 0 1000 96 3900 3.6 310 10:48 21.11.2022
960 Snow 1 998 96 3500 3.6 290 08:59 21.11.2022
961 Drizzle 2 1000 94 5000 0.51 0 06:39 21.11.2022
962 Clear -2 1007 90 10000 3.09 160 22:34 20.11.2022
963 Clear -3 1007 93 10000 2.57 170 21:34 20.11.2022
964 Clear -3 999 85 10000 2.57 220 20:24 20.11.2022
965 Clear -1 999 84 10000 1.03 0 18:25 20.11.2022
966 Clouds -1 1004 87 10000 3.09 260 16:23 20.11.2022
967 Clouds 1 1004 86 10000 3.6 270 15:29 20.11.2022
968 Clouds 1 1004 85 10000 4.12 260 14:41 20.11.2022
969 Clouds 1 1004 84 10000 5.66 230 13:32 20.11.2022
970 Clouds 1 1011 86 10000 3.6 210 12:33 20.11.2022
971 Clear 0 1012 88 10000 1.54 180 11:25 20.11.2022
972 Clear -1 1010 85 10000 2.57 170 10:40 20.11.2022
973 Clear -4 1011 93 10000 3.09 170 09:23 20.11.2022
974 Clear -5 1011 93 10000 4.12 160 08:35 20.11.2022
975 Clear -7 1011 100 10000 2.06 170 07:30 20.11.2022
976 Clear -6 1012 93 10000 3.09 200 04:25 20.11.2022
977 Clear -5 1012 93 10000 1.54 200 01:21 20.11.2022
978 Clear -4 1012 93 10000 1.54 200 00:42 20.11.2022
979 Clear -5 1012 93 10000 2.06 200 00:23 20.11.2022
980 Clear -4 1012 86 10000 1.54 200 23:51 19.11.2022
981 Clear -4 1013 90 10000 2.06 190 23:24 19.11.2022
982 Clear -4 1013 93 10000 2.06 180 22:39 19.11.2022
983 Clear -4 1013 93 10000 2.57 200 21:32 19.11.2022
984 Clear -4 1012 89 10000 2.57 190 20:57 19.11.2022
985 Clear -4 1012 89 10000 2.57 190 20:33 19.11.2022
986 Clear -3 1003 83 10000 1.03 210 19:22 19.11.2022
987 Clear -2 1003 78 10000 2.57 210 17:41 19.11.2022
988 Clear -2 1003 79 10000 1.03 280 17:20 19.11.2022
989 Clear 0 1003 72 10000 1.03 0 15:59 19.11.2022
990 Clear 2 1007 64 10000 1.54 240 14:38 19.11.2022
991 Clear 0 1008 87 10000 1.54 210 12:18 19.11.2022
992 Clear 0 1008 91 10000 1.54 200 10:57 19.11.2022
993 Clear -5 1013 93 10000 1.03 220 08:43 19.11.2022
994 Clouds -5 1003 89 10000 0.51 0 04:59 19.11.2022
995 Clouds -4 1003 89 10000 1.03 350 02:56 19.11.2022
996 Clouds -3 1005 92 10000 2.06 20 23:46 18.11.2022
997 Clouds -3 1005 92 10000 2.06 20 23:19 18.11.2022
998 Clear -2 1005 90 10000 1.54 10 21:50 18.11.2022
999 Clear -2 1004 89 10000 2.06 30 21:30 18.11.2022
1000 Clear -2 1004 89 10000 3.09 50 20:38 18.11.2022
1001 Clouds -2 1004 88 10000 3.6 70 19:47 18.11.2022
1002 Snow -1 1003 89 10000 6.17 60 18:49 18.11.2022
1003 Snow -1 1002 91 10000 6.69 60 17:44 18.11.2022
1004 Mist 0 1000 95 1300 4.63 70 14:33 18.11.2022
1005 Drizzle 1 998 94 2500 7.2 80 11:41 18.11.2022
1006 Mist 3 993 94 5000 6.69 80 09:19 18.11.2022
1007 Clouds 3 996 96 7000 3.6 50 07:51 18.11.2022
1008 Clouds 5 995 94 7000 3.6 60 05:24 18.11.2022
1009 Rain 5 994 94 10000 3.6 110 01:42 18.11.2022
1010 Clouds 5 994 94 10000 3.6 130 22:28 17.11.2022
1011 Clouds 5 994 94 10000 4.63 110 20:46 17.11.2022
1012 Clouds 5 994 94 10000 4.63 120 19:51 17.11.2022
1013 Clouds 5 994 94 10000 5.14 120 18:50 17.11.2022
1014 Rain 5 994 94 10000 5.66 120 17:35 17.11.2022
1015 Drizzle 5 994 94 10000 4.63 110 16:54 17.11.2022
1016 Clouds 5 994 94 10000 4.12 110 15:20 17.11.2022
1017 Rain 6 995 92 10000 4.63 110 11:25 17.11.2022
1018 Clouds 5 995 92 10000 4.63 110 09:53 17.11.2022
1019 Clouds 4 996 94 10000 5.66 100 05:47 17.11.2022
1020 Drizzle 5 997 94 10000 5.66 80 00:48 17.11.2022
1021 Rain 5 998 94 10000 4.12 80 22:31 16.11.2022
1022 Rain 5 998 94 10000 4.12 80 21:19 16.11.2022
1023 Rain 6 998 95 10000 4.63 80 19:54 16.11.2022
1024 Rain 6 998 93 7000 4.63 90 18:47 16.11.2022
1025 Rain 7 998 94 5000 3.6 90 17:53 16.11.2022
1026 Rain 9 998 87 10000 2.57 120 14:22 16.11.2022
1027 Clouds 7 999 90 10000 4.12 140 09:57 16.11.2022
1028 Clouds 6 1000 91 10000 4.63 130 06:39 16.11.2022
1029 Clear 6 998 91 10000 6.69 150 01:31 16.11.2022
1030 Clear 6 1008 94 10000 5.66 150 22:43 15.11.2022
1031 Clear 6 1009 94 10000 3.6 140 20:55 15.11.2022
1032 Clear 6 1009 94 10000 4.63 140 19:42 15.11.2022
1033 Clear 6 1010 93 10000 3.09 150 18:50 15.11.2022
1034 Clear 7 1001 87 10000 2.57 150 17:32 15.11.2022
1035 Clear 9 1011 84 10000 3.6 130 16:20 15.11.2022
1036 Clear 12 1011 71 10000 3.09 150 15:21 15.11.2022
1037 Clear 13 1013 85 10000 2.57 150 13:39 15.11.2022
1038 Clear 12 1014 87 10000 2.57 140 11:48 15.11.2022
1039 Clear 11 1008 85 10000 4.12 150 11:21 15.11.2022
1040 Clear 8 1009 95 10000 3.6 150 09:28 15.11.2022
1041 Clear 6 1011 92 10000 4.12 160 00:40 15.11.2022
1042 Clear 6 1011 92 10000 5.14 170 00:22 15.11.2022
1043 Clear 8 1007 88 10000 4.12 130 21:51 14.11.2022
1044 Clear 7 1012 90 10000 3.6 140 20:43 14.11.2022
1045 Clear 8 1012 88 10000 6.17 160 18:58 14.11.2022
1046 Clear 8 1012 86 10000 6.17 160 18:21 14.11.2022
1047 Clear 11 1013 82 10000 11.32 170 12:55 14.11.2022
1048 Clear 11 1013 82 10000 10.29 160 11:46 14.11.2022
1049 Clear 10 1010 78 10000 7.72 170 10:57 14.11.2022
1050 Clear 7 1014 89 10000 6.69 160 08:30 14.11.2022
1051 Clear 7 1014 89 10000 6.17 150 07:52 14.11.2022
1052 Clear 7 1012 84 10000 8.23 170 02:32 14.11.2022
1053 Clear 7 1018 92 10000 4.63 140 22:50 13.11.2022
1054 Clear 7 1018 93 10000 3.09 120 21:41 13.11.2022
1055 Clear 7 1014 89 10000 4.63 130 20:46 13.11.2022
1056 Clear 6 1024 93 10000 4.63 130 18:54 13.11.2022
1057 Clear 7 1024 90 10000 5.14 130 17:49 13.11.2022
1058 Clear 9 1016 81 10000 3.6 110 15:48 13.11.2022
1059 Clear 10 1025 71 10000 4.63 130 14:31 13.11.2022
1060 Clear 10 1026 71 10000 4.12 130 12:56 13.11.2022
1061 Clear 9 1027 76 10000 1.54 50 11:43 13.11.2022
1062 Clear 7 1028 91 10000 1.03 0 10:38 13.11.2022
1063 Clear 2 1028 100 10000 1.03 0 05:53 13.11.2022
1064 Clear 3 1031 100 10000 1.03 210 23:55 12.11.2022
1065 Clear 5 1031 93 10000 1.54 170 21:41 12.11.2022
1066 Clear 6 1031 93 10000 1.03 0 20:57 12.11.2022
1067 Clear 8 1031 76 10000 1.54 160 19:28 12.11.2022
1068 Clear 10 1023 69 10000 1.03 0 16:58 12.11.2022
1069 Clear 12 1023 65 10000 1.03 60 15:59 12.11.2022
1070 Clear 14 1027 61 10000 1.03 0 14:45 12.11.2022
1071 Clear 6 1033 87 10000 1.54 180 09:43 12.11.2022
1072 Clear 4 1033 100 10000 2.06 210 07:48 12.11.2022
1073 Clear 6 1033 100 10000 2.57 200 00:40 12.11.2022
1074 Clear 8 1032 87 10000 2.57 200 21:31 11.11.2022
1075 Clear 8 1032 87 10000 3.09 200 20:44 11.11.2022
1076 Clear 8 1032 93 10000 3.09 200 19:28 11.11.2022
1077 Clear 9 1023 83 10000 2.57 190 18:40 11.11.2022
1078 Clear 10 1023 83 10000 3.6 210 17:40 11.11.2022
1079 Clear 10 1023 83 10000 3.6 210 17:40 11.11.2022
1080 Clear 12 1023 75 10000 1.54 160 15:21 11.11.2022
1081 Clear 15 1032 81 10000 2.57 220 13:57 11.11.2022
1082 Clear 14 1033 83 10000 2.57 220 12:45 11.11.2022
1083 Clear 10 1031 85 10000 2.57 200 09:32 11.11.2022
1084 Clear 10 1031 85 10000 2.57 200 09:32 11.11.2022
1085 Clear 8 1030 81 10000 3.09 210 08:27 11.11.2022
1086 Clear 8 1021 80 10000 3.09 210 00:40 11.11.2022
1087 Clear 9 1020 79 10000 3.6 220 22:54 10.11.2022
1088 Clear 10 1020 78 10000 2.57 220 21:51 10.11.2022
1089 Clear 10 1020 78 10000 3.6 230 21:30 10.11.2022
1090 Clear 9 1024 86 10000 3.6 220 20:47 10.11.2022
1091 Clear 10 1023 84 10000 3.6 230 20:20 10.11.2022
1092 Clouds 10 1023 84 10000 3.09 220 18:59 10.11.2022
1093 Clouds 11 1022 84 10000 4.12 230 17:59 10.11.2022
1094 Clouds 13 1021 79 10000 4.12 260 16:25 10.11.2022
1095 Clouds 14 1020 79 10000 4.63 260 13:41 10.11.2022
1096 Clear 13 1019 84 10000 4.12 270 11:29 10.11.2022
1097 Clouds 10 1017 86 10000 4.12 250 08:33 10.11.2022
1098 Clouds 11 1016 91 10000 3.09 220 01:29 10.11.2022
1099 Drizzle 11 1015 94 10000 5.14 180 23:30 09.11.2022
1100 Rain 11 1015 94 10000 4.63 190 22:35 09.11.2022
1101 Rain 11 1014 86 10000 4.12 170 20:48 09.11.2022
1102 Rain 10 1014 86 10000 4.63 170 20:29 09.11.2022
1103 Rain 10 1014 83 10000 4.63 170 19:41 09.11.2022
1104 Clouds 10 1014 83 10000 5.66 150 18:51 09.11.2022
1105 Clear 10 1013 83 10000 5.66 160 16:19 09.11.2022
1106 Clear 12 1013 88 10000 7.2 170 14:48 09.11.2022
1107 Clear 12 1013 88 10000 4.63 150 14:25 09.11.2022
1108 Clear 12 1012 81 10000 5.66 150 13:19 09.11.2022
1109 Rain 11 1013 81 10000 5.14 150 11:46 09.11.2022
1110 Clear 10 1014 90 10000 6.69 150 08:44 09.11.2022
1111 Clear 9 1008 88 10000 5.14 150 07:46 09.11.2022
1112 Clear 9 1008 88 10000 5.14 150 07:46 09.11.2022
1113 Clouds 10 1005 92 10000 0.45 144 00:56 09.11.2022
1114 Clear 10 1007 88 10000 4.63 160 21:46 08.11.2022
1115 Clear 10 1007 88 10000 4.12 170 21:28 08.11.2022
1116 Clear 10 1007 87 10000 4.12 160 20:41 08.11.2022
1117 Clear 10 1007 86 10000 4.12 160 19:40 08.11.2022
1118 Clear 11 1004 81 10000 4.63 170 18:50 08.11.2022
1119 Clear 11 1008 84 10000 4.12 160 17:26 08.11.2022
1120 Clear 16 1008 66 10000 5.14 170 14:56 08.11.2022
1121 Clear 16 1005 63 10000 6.17 200 13:44 08.11.2022
1122 Clear 16 1005 64 10000 4.63 180 13:25 08.11.2022
1123 Clear 11 1006 83 10000 3.6 150 09:46 08.11.2022
1124 Clear 7 1015 94 10000 3.6 200 07:25 08.11.2022
1125 Clear 10 1016 85 10000 3.6 210 01:41 08.11.2022
1126 Clear 10 1016 85 10000 3.6 210 01:41 08.11.2022
1127 Clear 11 1016 76 10000 3.09 210 22:51 07.11.2022
1128 Clear 10 1007 78 10000 2.57 200 21:39 07.11.2022
1129 Clouds 9 1007 83 10000 3.6 200 20:45 07.11.2022
1130 Clear 11 1007 82 10000 4.63 190 19:33 07.11.2022
1131 Clouds 12 1010 83 10000 4.63 200 17:41 07.11.2022
1132 Clear 14 1010 80 10000 5.14 240 15:38 07.11.2022
1133 Clear 14 1009 80 10000 3.6 230 14:55 07.11.2022
1134 Clouds 15 1009 76 10000 5.66 250 13:21 07.11.2022
1135 Clouds 15 1010 76 10000 6.69 240 12:22 07.11.2022
1136 Clear 11 1015 76 10000 5.66 220 09:50 07.11.2022
1137 Clouds 8 1014 91 10000 4.63 200 08:25 07.11.2022
1138 Clouds 8 1013 85 10000 5.14 220 06:31 07.11.2022
1139 Rain 7 1007 90 10000 4.12 160 01:45 07.11.2022
1140 Clear 7 1012 88 10000 4.12 150 23:23 06.11.2022
1141 Clear 6 1004 88 10000 7.2 150 21:22 06.11.2022
1142 Clear 6 1004 89 10000 6.17 150 20:43 06.11.2022
1143 Clear 7 1013 90 10000 6.17 160 19:56 06.11.2022
1144 Clear 6 1005 88 10000 5.66 150 19:24 06.11.2022
1145 Clear 6 1005 86 10000 4.63 160 18:20 06.11.2022
1146 Clear 7 1005 84 10000 4.63 150 17:39 06.11.2022
1147 Clear 7 1005 84 10000 4.12 160 17:18 06.11.2022
1148 Clear 8 1010 84 10000 5.14 160 16:18 06.11.2022
1149 Clear 12 1010 64 10000 4.63 200 14:52 06.11.2022
1150 Clear 11 1008 70 10000 4.12 190 12:46 06.11.2022
1151 Clear 9 1019 86 10000 5.14 170 10:56 06.11.2022
1152 Clear 7 1020 95 10000 3.6 180 09:52 06.11.2022
1153 Clear 3 1019 93 10000 2.06 160 07:44 06.11.2022
1154 Clear 4 1020 94 10000 3.09 210 23:25 05.11.2022
1155 Clear 5 1010 88 10000 2.57 210 20:46 05.11.2022
1156 Clear 7 1010 89 10000 3.09 220 18:38 05.11.2022
1157 Clear 10 1009 83 10000 1.54 230 16:35 05.11.2022
1158 Clouds 12 1012 87 10000 3.09 290 14:43 05.11.2022
1159 Clouds 12 1012 88 10000 4.12 290 13:40 05.11.2022
1160 Clouds 11 1008 89 10000 3.09 290 11:51 05.11.2022
1161 Clouds 9 1010 95 7000 2.06 290 08:59 05.11.2022
1162 Clouds 8 1009 95 7000 2.57 300 07:23 05.11.2022
1163 Clouds 8 1008 95 6000 2.57 320 06:54 05.11.2022
1164 Rain 8 1005 97 6000 3.09 290 00:45 05.11.2022
1165 Rain 8 1004 96 8000 2.57 280 23:28 04.11.2022
1166 -273 0 0 0 0 0 20:58 04.11.2022
1167 Rain 9 999 94 8000 3.09 300 19:33 04.11.2022
1168 Rain 9 1002 96 8000 1.54 290 17:44 04.11.2022
1169 Rain 10 1000 96 10000 3.6 330 14:28 04.11.2022
1170 Rain 10 1001 94 8000 3.6 320 13:18 04.11.2022
1171 Rain 11 1001 94 10000 2.57 280 11:58 04.11.2022
1172 Rain 11 1000 92 10000 2.06 250 09:30 04.11.2022
1173 Rain 11 1000 93 8000 1.54 230 08:20 04.11.2022
1174 Rain 11 1000 93 10000 4.63 180 06:40 04.11.2022
1175 Clear 11 999 89 10000 5.14 150 00:56 04.11.2022
1176 Clear 11 1001 88 10000 6.17 150 21:48 03.11.2022
1177 Clear 11 1002 87 10000 6.17 160 20:46 03.11.2022
1178 Clear 11 1003 87 10000 4.63 150 19:41 03.11.2022
1179 Clear 11 1004 86 10000 5.14 150 18:27 03.11.2022
1180 Clear 11 1005 85 10000 5.14 160 17:37 03.11.2022
1181 Clear 13 1007 77 10000 6.69 150 15:24 03.11.2022
1182 Clear 15 1009 68 10000 6.69 170 13:33 03.11.2022
1183 Clear 14 1006 64 10000 6.17 150 12:35 03.11.2022
1184 Clear 13 1008 67 10000 6.17 160 11:41 03.11.2022
1185 Clear 5 1019 95 10000 2.57 140 07:48 03.11.2022
1186 Clear 9 1023 76 10000 3.09 210 22:29 02.11.2022
1187 Clear 9 1014 74 10000 3.09 200 20:56 02.11.2022
1188 Clear 9 1014 74 10000 3.6 210 20:25 02.11.2022
1189 Clear 10 1014 70 10000 2.06 230 18:42 02.11.2022
1190 Clear 13 1016 74 10000 3.09 260 16:29 02.11.2022
1191 Clouds 14 1016 74 10000 4.12 270 15:32 02.11.2022
1192 Clouds 15 1012 65 10000 4.63 260 13:26 02.11.2022
1193 Clouds 15 1016 75 10000 5.66 250 12:28 02.11.2022
1194 Clear 14 1016 86 10000 3.6 220 10:23 02.11.2022
1195 Clear 10 1021 87 10000 5.14 180 08:38 02.11.2022
1196 Clear 10 1020 87 10000 3.09 220 02:56 02.11.2022
1197 Clear 12 1020 87 10000 3.09 220 22:41 01.11.2022
1198 Clear 12 1020 87 10000 3.6 220 22:18 01.11.2022
1199 Clear 13 1020 82 10000 1.54 210 21:20 01.11.2022
1200 Clear 11 1019 93 10000 4.12 180 20:23 01.11.2022
1201 Clouds 12 1019 93 10000 3.09 170 19:41 01.11.2022
1202 Clear 13 1019 87 10000 4.63 180 18:30 01.11.2022
1203 Clear 15 1009 80 10000 3.09 210 16:53 01.11.2022
1204 Clouds 18 1018 72 10000 3.09 230 14:45 01.11.2022
1205 Clouds 18 1017 72 10000 4.12 220 13:24 01.11.2022
1206 Rain 17 1017 77 10000 3.6 210 12:26 01.11.2022
1207 Rain 16 1017 77 10000 2.57 180 11:21 01.11.2022
1208 Clear 13 1016 87 10000 2.06 150 09:25 01.11.2022
1209 Clear 11 1015 91 10000 2.57 170 07:54 01.11.2022
1210 Clear 11 1015 91 10000 4.12 160 07:28 01.11.2022
1211 Clear 11 1015 94 10000 4.63 150 06:46 01.11.2022
1212 Clear 11 1006 89 10000 2.57 170 05:52 01.11.2022
1213 Clear 15 1017 82 10000 3.09 110 22:52 31.10.2022
1214 Clear 14 1018 88 10000 2.57 110 21:34 31.10.2022
1215 Clear 15 1018 82 10000 2.57 110 20:18 31.10.2022
1216 Clear 15 1019 77 10000 2.57 100 18:45 31.10.2022
1217 Clear 17 1010 73 10000 1.54 60 16:45 31.10.2022
1218 Clear 19 1014 79 10000 1.03 30 15:45 31.10.2022
1219 Clear 19 1012 69 10000 1.54 240 13:22 31.10.2022
1220 Clear 16 1023 92 10000 3.09 220 09:53 31.10.2022
1221 Clear 12 1022 87 10000 2.06 230 08:20 31.10.2022
1222 Clear 13 1020 87 10000 3.6 210 02:50 31.10.2022
1223 Clear 13 1020 82 10000 3.09 200 01:49 31.10.2022
1224 Clear 13 1019 94 10000 3.09 200 22:33 30.10.2022
1225 Clear 14 1019 88 10000 3.09 190 20:45 30.10.2022
1226 Clear 15 1019 88 10000 3.09 190 19:54 30.10.2022
1227 Clear 16 1010 79 10000 1.54 210 17:53 30.10.2022
1228 Clear 21 1019 73 10000 2.06 210 15:28 30.10.2022
1229 Clear 24 1019 72 10000 1.54 210 13:51 30.10.2022
1230 Clear 23 1019 73 10000 2.06 220 12:46 30.10.2022
1231 Clear 22 1020 87 10000 2.57 210 11:21 30.10.2022
1232 Clear 15 1019 88 10000 3.09 190 09:36 30.10.2022
1233 Clear 14 1019 96 10000 1.03 0 08:25 30.10.2022
1234 Clear 14 1021 88 10000 2.06 160 00:50 30.10.2022
1235 Clear 14 1021 88 10000 2.06 190 00:27 30.10.2022
1236 Clear 14 1021 88 10000 2.57 220 23:44 29.10.2022
1237 Clear 15 1021 88 10000 2.57 180 20:54 29.10.2022
1238 Clear 17 1012 79 10000 1.03 0 17:47 29.10.2022
1239 Clear 20 1021 72 10000 1.54 220 16:22 29.10.2022
1240 Clear 21 1021 86 10000 1.54 220 15:37 29.10.2022
1241 Clear 23 1022 84 10000 1.03 0 14:47 29.10.2022
1242 Clear 18 1023 72 10000 1.54 180 12:34 29.10.2022
1243 Clear 17 1024 95 10000 2.57 190 10:46 29.10.2022
1244 Clear 12 1023 100 10000 1.03 0 07:37 29.10.2022
1245 Clear 13 1013 89 10000 3.09 220 05:56 29.10.2022
1246 Clear 14 1022 92 10000 4.12 210 03:59 29.10.2022
1247 Clear 15 1016 88 10000 2.06 150 23:32 28.10.2022
1248 Clear 15 1012 83 10000 4.12 150 20:46 28.10.2022
1249 Clear 16 1012 81 10000 4.63 150 19:26 28.10.2022
1250 Clear 16 1012 81 10000 3.6 150 18:31 28.10.2022
1251 Clear 19 1021 73 10000 5.66 150 15:33 28.10.2022
1252 Clear 20 1021 64 10000 3.6 150 14:43 28.10.2022
1253 Clear 20 1023 68 10000 2.57 150 12:57 28.10.2022
1254 Clear 18 1023 82 10000 3.6 170 11:35 28.10.2022
1255 Clear 16 1024 91 10000 3.09 160 10:59 28.10.2022
1256 Clear 14 1014 88 10000 2.57 170 09:48 28.10.2022
1257 Clear 13 1024 97 10000 2.06 0 08:34 28.10.2022
1258 Clear 13 1018 95 10000 2.57 140 03:51 28.10.2022
1259 Clear 13 1018 95 10000 2.57 140 03:51 28.10.2022
1260 Clear 13 1015 88 10000 4.12 160 23:50 27.10.2022
1261 Clear 14 1025 89 10000 4.63 160 22:58 27.10.2022
1262 Clear 14 1025 86 10000 4.12 160 21:56 27.10.2022
1263 Clear 13 1016 83 10000 3.6 160 20:32 27.10.2022
1264 Clear 16 1020 81 10000 4.12 160 18:23 27.10.2022
1265 Clear 21 1017 64 10000 2.06 190 15:42 27.10.2022
1266 Clear 17 1027 84 10000 1.03 0 11:33 27.10.2022
1267 Clear 12 1026 93 10000 3.6 210 07:31 27.10.2022
1268 Clear 12 1014 88 10000 3.6 220 00:23 27.10.2022
1269 Clouds 12 1014 90 10000 3.6 210 23:51 26.10.2022
1270 Clear 12 1014 86 10000 2.06 200 22:40 26.10.2022
1271 Clear 13 1016 88 10000 2.57 200 21:22 26.10.2022
1272 Clear 16 1014 83 10000 2.57 150 17:40 26.10.2022
1273 Clear 18 1010 69 10000 3.09 210 14:54 26.10.2022
1274 Clouds 17 1019 78 10000 3.6 170 12:56 26.10.2022
1275 Clear 15 1019 85 10000 3.6 160 12:19 26.10.2022
1276 Mist 9 1019 100 10000 2.57 200 09:19 26.10.2022
1277 Clear 8 1018 100 10000 2.06 160 08:52 26.10.2022
1278 Clear 11 1019 87 10000 2.57 190 00:52 26.10.2022
1279 Clear 11 1019 87 10000 2.57 190 00:33 26.10.2022
1280 Clear 12 1018 87 10000 2.57 210 22:29 25.10.2022
1281 Clear 11 1009 83 10000 2.57 230 21:45 25.10.2022
1282 Clear 13 1009 77 10000 1.54 240 20:29 25.10.2022
1283 Clear 14 1009 82 10000 1.54 200 18:55 25.10.2022
1284 Clouds 17 1012 82 10000 2.06 250 16:45 25.10.2022
1285 Clouds 17 1011 80 10000 5.66 260 11:46 25.10.2022
1286 Clear 17 1011 83 10000 5.14 250 10:55 25.10.2022
1287 Clouds 16 1007 78 10000 5.14 240 10:34 25.10.2022
1288 Clouds 13 1010 88 10000 4.63 230 08:38 25.10.2022
1289 Clouds 13 1010 89 10000 4.63 230 08:18 25.10.2022
1290 Clouds 13 1010 88 10000 4.63 220 07:53 25.10.2022
1291 Clouds 13 1010 88 10000 4.12 220 06:48 25.10.2022
1292 Clear 13 1009 90 10000 3.6 230 03:32 25.10.2022
1293 Clear 14 1014 88 10000 1.54 170 00:32 25.10.2022
1294 Clear 14 1014 95 10000 2.57 200 22:28 24.10.2022
1295 Clear 15 1013 82 10000 3.6 180 21:50 24.10.2022
1296 Clear 15 1013 82 10000 4.63 190 21:31 24.10.2022
1297 Clear 16 1013 72 10000 4.12 190 20:29 24.10.2022
1298 Clear 16 1004 69 10000 4.63 200 18:45 24.10.2022
1299 Clear 17 1007 83 10000 4.12 210 16:59 24.10.2022
1300 Clear 18 1006 82 10000 2.57 230 15:43 24.10.2022
1301 Rain 18 1006 83 10000 4.12 200 14:20 24.10.2022
1302 Clear 19 1007 85 10000 4.12 170 12:41 24.10.2022
1303 Clear 15 1013 88 10000 4.63 170 09:42 24.10.2022
1304 Clear 14 1012 89 10000 4.63 190 07:56 24.10.2022
1305 Clear 14 1006 89 10000 6.17 150 22:50 23.10.2022
1306 Clear 13 1007 90 10000 7.72 160 20:41 23.10.2022
1307 Clear 14 1004 84 10000 6.69 150 19:29 23.10.2022
1308 Clear 15 1005 82 10000 5.66 150 17:30 23.10.2022
1309 Clear 15 1009 87 10000 6.17 150 16:37 23.10.2022
1310 Clear 17 1016 87 10000 3.6 150 15:19 23.10.2022
1311 Clear 18 1018 92 10000 3.6 150 12:21 23.10.2022
1312 Clear 15 1019 96 10000 2.57 150 10:58 23.10.2022
1313 Clear 10 1009 96 10000 2.06 170 06:56 23.10.2022
1314 Clear 12 1009 90 10000 3.6 210 23:32 22.10.2022
1315 Clear 12 1012 95 10000 3.6 210 22:30 22.10.2022
1316 Clear 12 1008 92 10000 3.09 210 21:40 22.10.2022
1317 Clear 13 1008 91 10000 3.09 220 20:29 22.10.2022
1318 Clouds 13 1011 92 10000 3.09 220 19:31 22.10.2022
1319 Clear 15 1010 88 10000 2.06 260 18:23 22.10.2022
1320 Clouds 18 1010 87 10000 4.12 270 16:50 22.10.2022
1321 Clear 18 1009 89 10000 3.09 250 15:21 22.10.2022
1322 Clouds 17 1015 92 10000 2.57 220 14:34 22.10.2022
1323 Clouds 16 1015 90 10000 3.09 250 12:35 22.10.2022
1324 Rain 12 1013 94 10000 3.09 190 09:49 22.10.2022
1325 Rain 11 1014 96 10000 1.03 0 08:37 22.10.2022
1326 Clouds 11 1007 94 9000 2.06 180 06:28 22.10.2022
1327 Clouds 11 1007 95 10000 2.57 190 01:25 22.10.2022
1328 Clear 12 1012 92 10000 2.06 150 22:53 21.10.2022
1329 Clouds 10 1003 92 10000 5.14 170 21:34 21.10.2022
1330 Clouds 11 1003 92 10000 5.66 170 20:47 21.10.2022
1331 Rain 10 1003 91 8000 5.66 150 18:30 21.10.2022
1332 Rain 14 1007 81 10000 4.63 150 14:47 21.10.2022
1333 Clear 15 1013 83 10000 5.14 150 13:43 21.10.2022
1334 Clear 13 1013 85 10000 7.72 160 11:56 21.10.2022
1335 Clear 12 1008 84 10000 7.72 160 10:27 21.10.2022
1336 Clear 11 1008 85 10000 7.72 160 09:37 21.10.2022
1337 Clear 10 1004 82 10000 8.75 160 08:26 21.10.2022
1338 Clear 10 1005 79 10000 8.75 160 05:57 21.10.2022
1339 Rain 11 1011 79 10000 7.72 160 23:59 20.10.2022
1340 Rain 11 1011 79 10000 7.72 160 23:59 20.10.2022
1341 Clear 10 1011 80 10000 7.72 150 21:23 20.10.2022
1342 Clear 10 1012 84 10000 5.66 150 20:18 20.10.2022
1343 Clear 10 1012 83 10000 5.14 140 19:30 20.10.2022
1344 Clear 12 1009 69 10000 7.72 140 17:51 20.10.2022
1345 Clear 14 1020 64 10000 7.2 140 15:46 20.10.2022
1346 Clear 14 1016 63 10000 8.75 150 12:36 20.10.2022
1347 Clear 12 1013 66 10000 7.72 150 12:18 20.10.2022
1348 Clear 12 1013 66 10000 7.72 150 12:18 20.10.2022
1349 Clear 12 1017 83 10000 6.17 140 10:56 20.10.2022
1350 Clear 9 1014 85 10000 5.14 130 10:24 20.10.2022
1351 Clear 5 1018 93 10000 4.63 130 07:45 20.10.2022
1352 Clear 5 1025 100 10000 1.54 130 04:29 20.10.2022
1353 Clear 5 1027 95 10000 1.03 130 00:20 20.10.2022
1354 Clear 6 1018 87 10000 2.06 170 22:35 19.10.2022
1355 Clear 7 1018 85 10000 0.51 110 21:48 19.10.2022
1356 Clear 8 1018 84 10000 1.03 120 20:50 19.10.2022
1357 Clouds 11 1021 83 10000 1.54 270 17:55 19.10.2022
1358 Clouds 12 1021 82 10000 1.54 290 17:24 19.10.2022
1359 Clouds 12 1022 80 10000 2.57 310 15:23 19.10.2022
1360 Clouds 13 1022 85 10000 3.6 330 12:45 19.10.2022
1361 Clouds 11 1022 94 10000 3.09 310 09:33 19.10.2022
1362 Clouds 10 1022 95 10000 2.06 280 08:26 19.10.2022
1363 Clouds 10 1021 94 7000 1.54 270 03:49 19.10.2022
1364 Clouds 12 1021 95 7000 1.54 280 00:25 19.10.2022
1365 Clear 13 1017 94 10000 2.06 250 22:53 18.10.2022
1366 Clouds 13 1021 95 10000 1.54 270 21:37 18.10.2022
1367 Clouds 13 1020 96 7000 1.54 230 20:44 18.10.2022
1368 Clouds 14 1020 94 10000 1.54 260 19:28 18.10.2022
1369 Clouds 15 1020 95 10000 2.06 310 17:34 18.10.2022
1370 Rain 15 1020 95 10000 1.03 0 16:20 18.10.2022
1371 Rain 15 1019 95 10000 2.57 350 14:19 18.10.2022
1372 Clear 17 1024 95 10000 3.09 150 12:30 18.10.2022
1373 Clouds 16 1024 89 10000 2.06 130 11:21 18.10.2022
1374 Clear 14 1019 95 10000 1.03 0 09:28 18.10.2022
1375 Mist 13 1016 93 5000 2.06 220 07:54 18.10.2022
1376 Clear 13 1016 92 10000 2.06 190 02:29 18.10.2022
1377 Clear 15 1016 85 10000 3.6 180 22:24 17.10.2022
1378 Clear 16 1015 82 10000 6.17 170 20:55 17.10.2022
1379 Clear 16 1016 81 10000 4.63 160 20:31 17.10.2022
1380 Clear 17 1019 86 10000 5.14 170 19:51 17.10.2022
1381 Clear 18 1019 83 10000 6.17 160 18:51 17.10.2022
1382 Clear 21 1018 77 10000 6.17 160 16:52 17.10.2022
1383 Clear 23 1014 63 10000 5.66 140 15:29 17.10.2022
1384 Clear 22 1015 64 10000 6.69 140 14:35 17.10.2022
1385 Clear 19 1019 84 10000 6.69 150 11:23 17.10.2022
1386 Clear 13 1017 97 10000 4.63 160 06:36 17.10.2022
1387 Clear 15 1017 92 10000 2.57 160 23:30 16.10.2022
1388 Clouds 15 1016 92 10000 1.03 0 21:56 16.10.2022
1389 Clouds 15 1016 91 10000 2.57 200 20:47 16.10.2022
1390 Clouds 16 1015 88 10000 2.06 230 19:46 16.10.2022
1391 Clear 19 1013 86 10000 0.51 0 17:57 16.10.2022
1392 Clear 21 1013 85 10000 1.03 0 17:30 16.10.2022
1393 Clouds 22 1012 79 10000 3.6 270 15:57 16.10.2022
1394 Clouds 22 1012 78 10000 6.17 250 14:33 16.10.2022
1395 Clouds 21 1011 86 10000 4.12 210 12:23 16.10.2022
1396 Clouds 17 1011 92 10000 3.09 200 10:27 16.10.2022
1397 Clear 15 1010 94 10000 3.09 160 08:47 16.10.2022
1398 Clouds 14 1008 93 10000 4.12 180 02:24 16.10.2022
1399 Clouds 13 1008 92 10000 4.63 180 23:41 15.10.2022
1400 Clear 14 1003 86 10000 4.63 180 21:29 15.10.2022
1401 Clear 13 1006 91 10000 3.6 180 20:56 15.10.2022
1402 Clouds 15 1005 89 10000 2.06 200 18:50 15.10.2022
1403 Clouds 18 1001 83 10000 2.06 160 15:49 15.10.2022
1404 Clouds 17 1001 85 10000 2.06 190 15:31 15.10.2022
1405 Clouds 16 1004 92 10000 3.6 160 11:59 15.10.2022
1406 Drizzle 16 1004 91 10000 4.12 170 11:24 15.10.2022
1407 Clouds 13 1003 93 10000 4.12 150 08:55 15.10.2022
1408 Clouds 13 1004 92 10000 3.6 160 03:53 15.10.2022
1409 Drizzle 13 1005 92 10000 4.63 160 00:39 15.10.2022
1410 Clear 13 1007 90 10000 3.6 150 22:24 14.10.2022
1411 Clear 13 1007 89 10000 4.12 160 21:37 14.10.2022
1412 Clear 13 1007 89 10000 4.12 160 21:37 14.10.2022
1413 Clouds 13 1008 89 10000 3.09 150 20:26 14.10.2022
1414 Clouds 16 1008 84 10000 2.57 170 17:21 14.10.2022
1415 Clouds 17 1009 82 10000 3.6 210 14:56 14.10.2022
1416 Clouds 17 1010 86 10000 3.09 210 12:45 14.10.2022
1417 Clouds 14 1011 91 10000 2.57 190 10:36 14.10.2022
1418 Clear 11 1011 95 10000 2.06 200 08:25 14.10.2022
1419 Clear 11 1007 91 10000 2.06 200 06:18 14.10.2022
1420 Clear 11 1007 91 10000 2.57 200 05:59 14.10.2022
1421 Clear 11 1007 91 10000 2.57 200 05:41 14.10.2022
1422 Clear 11 1017 92 10000 1.03 0 01:30 14.10.2022
1423 Clouds 11 1018 91 10000 2.06 190 23:18 13.10.2022
1424 Clouds 12 1012 90 10000 1.54 210 21:30 13.10.2022
1425 Clouds 13 1009 86 10000 2.57 220 20:20 13.10.2022
1426 Clouds 13 1009 85 10000 4.12 190 19:41 13.10.2022
1427 Clear 14 1012 86 10000 2.06 240 18:45 13.10.2022
1428 Clear 15 1012 83 10000 1.03 0 17:52 13.10.2022
1429 Clouds 18 1012 77 10000 0.51 0 15:49 13.10.2022
1430 Clear 19 1013 65 10000 1.03 0 14:30 13.10.2022
1431 Clouds 17 1010 68 10000 3.09 200 13:26 13.10.2022
1432 Clear 15 1011 74 10000 3.6 170 11:45 13.10.2022
1433 Clear 11 1015 89 10000 1.54 180 09:57 13.10.2022
1434 Clear 9 1022 96 10000 3.6 150 08:33 13.10.2022
1435 Clear 8 1016 93 10000 2.06 170 07:36 13.10.2022
1436 Clouds 8 1013 89 10000 3.09 160 03:37 13.10.2022
1437 Clear 9 1022 88 10000 3.09 160 01:38 13.10.2022
1438 Clear 9 1022 85 10000 4.12 150 23:32 12.10.2022
1439 Clear 9 1014 81 10000 3.6 150 22:44 12.10.2022
1440 Clear 9 1023 85 10000 3.09 160 21:25 12.10.2022
1441 Clear 9 1018 88 10000 2.06 130 20:55 12.10.2022
1442 Clear 9 1018 87 10000 2.06 140 20:27 12.10.2022
1443 Clear 9 1018 87 10000 2.06 140 20:27 12.10.2022
1444 Clear 11 1018 86 10000 2.57 110 19:18 12.10.2022
1445 Clear 14 1017 77 10000 2.57 100 17:54 12.10.2022
1446 Clear 17 1015 57 10000 2.06 130 16:30 12.10.2022
1447 Clear 16 1016 59 10000 2.06 90 13:58 12.10.2022
1448 Clear 16 1016 60 10000 2.06 90 13:36 12.10.2022
1449 Clear 12 1026 81 10000 1.03 0 10:57 12.10.2022
1450 Clear 7 1026 87 10000 0.51 0 09:23 12.10.2022
1451 Clear 4 1026 100 10000 1.03 140 07:41 12.10.2022
1452 Clear 5 1026 93 10000 1.54 180 06:43 12.10.2022
1453 Clear 5 1026 93 10000 1.54 150 03:59 12.10.2022
1454 Clear 7 1026 93 10000 1.54 200 23:37 11.10.2022
1455 Clear 9 1026 77 10000 0 0 20:58 11.10.2022
1456 Clear 9 1017 79 10000 0.51 200 20:19 11.10.2022
1457 Clouds 14 1020 65 10000 1.03 0 17:56 11.10.2022
1458 Clouds 15 1017 57 10000 2.57 360 15:37 11.10.2022
1459 Clouds 15 1020 60 10000 3.09 300 13:30 11.10.2022
1460 Clouds 14 1017 75 10000 2.06 330 10:47 11.10.2022
1461 Clear 13 1017 81 10000 1.54 310 10:26 11.10.2022
1462 Clear 9 1019 92 10000 1.54 280 08:32 11.10.2022
1463 Clouds 11 1012 86 10000 2.06 270 02:59 11.10.2022
1464 Clear 13 1019 82 10000 2.57 240 00:39 11.10.2022
1465 Clear 14 1019 82 10000 2.06 230 23:52 10.10.2022
1466 Clear 12 1017 85 10000 2.57 160 20:58 10.10.2022
1467 Clear 12 1008 81 10000 1.03 0 19:40 10.10.2022
1468 Clear 16 1011 79 10000 3.6 160 17:52 10.10.2022
1469 Clear 17 1007 66 10000 4.63 150 16:37 10.10.2022
1470 Clear 17 1011 65 10000 3.6 170 14:22 10.10.2022
1471 Clear 15 1009 66 10000 4.12 160 12:23 10.10.2022
1472 Clear 13 1012 78 10000 4.12 170 10:20 10.10.2022
1473 Clear 8 1012 85 10000 5.66 150 07:41 10.10.2022
1474 Clear 8 1013 87 10000 4.63 140 05:37 10.10.2022
1475 Clear 7 1015 89 10000 4.63 150 01:58 10.10.2022
1476 Clear 8 1013 85 10000 4.12 130 00:24 10.10.2022
1477 Clear 8 1014 81 10000 3.09 120 22:27 09.10.2022
1478 Clear 8 1014 81 10000 3.09 120 21:49 09.10.2022
1479 Clear 8 1014 82 10000 3.09 110 20:54 09.10.2022
1480 Clear 9 1015 78 10000 2.06 110 19:53 09.10.2022
1481 Clear 10 1015 76 10000 2.06 110 19:20 09.10.2022
1482 Clear 12 1018 78 10000 2.06 120 18:28 09.10.2022
1483 Clear 16 1015 54 10000 3.6 100 16:56 09.10.2022
1484 Clear 16 1016 54 10000 3.6 120 16:25 09.10.2022
1485 Clear 16 1016 53 10000 2.57 120 15:36 09.10.2022
1486 Clouds 15 1017 58 10000 3.09 60 14:28 09.10.2022
1487 Clouds 14 1018 70 10000 2.06 220 12:57 09.10.2022
1488 Clear 13 1019 75 10000 1.54 230 11:44 09.10.2022
1489 Clear 11 1028 89 10000 2.06 200 10:37 09.10.2022
1490 Clear 7 1027 93 10000 1.03 0 08:24 09.10.2022
1491 Clear 7 1016 88 10000 2.06 250 03:36 09.10.2022
1492 Clear 8 1016 87 10000 2.06 250 02:24 09.10.2022
1493 Clear 9 1015 85 10000 2.06 260 00:26 09.10.2022
1494 Clear 10 1018 87 10000 2.57 280 22:53 08.10.2022
1495 Clouds 11 1017 88 10000 2.57 280 21:44 08.10.2022
1496 Clear 11 1016 91 10000 2.57 250 20:26 08.10.2022
1497 Clouds 13 1015 87 10000 2.06 270 18:37 08.10.2022
1498 Clouds 17 1013 74 10000 5.14 290 16:18 08.10.2022
1499 Clouds 17 1009 64 10000 4.12 280 14:52 08.10.2022
1500 Clouds 17 1013 78 10000 6.17 270 13:20 08.10.2022
1501 Clouds 16 1012 84 10000 4.63 270 10:39 08.10.2022
1502 Clouds 15 1013 87 10000 5.14 270 10:21 08.10.2022
1503 Clouds 13 1012 92 10000 2.57 250 08:48 08.10.2022
1504 Clouds 12 1008 89 10000 3.6 180 03:53 08.10.2022
1505 Clear 12 1010 89 10000 4.12 190 00:37 08.10.2022
1506 Clear 13 1019 88 10000 3.09 180 23:21 07.10.2022
1507 Clear 12 1011 89 10000 3.09 160 22:49 07.10.2022
1508 Clear 13 1014 90 10000 2.57 150 21:29 07.10.2022
1509 Clear 15 1015 84 10000 1.03 0 19:42 07.10.2022
1510 Clear 17 1015 79 10000 1.54 280 17:48 07.10.2022
1511 Clear 19 1013 64 10000 2.06 240 16:41 07.10.2022
1512 Clear 19 1014 63 10000 2.06 250 15:00 07.10.2022
1513 Clear 18 1016 63 10000 2.57 230 13:26 07.10.2022
1514 Clear 16 1017 73 10000 5.66 170 11:19 07.10.2022
1515 Clear 10 1022 91 10000 4.63 150 09:25 07.10.2022
1516 Clear 6 1027 95 10000 4.63 160 08:19 07.10.2022
1517 Clear 8 1030 93 10000 2.57 170 02:29 07.10.2022
1518 Clear 10 1031 87 10000 2.57 200 22:53 06.10.2022
1519 Clear 11 1031 81 10000 2.06 200 21:52 06.10.2022
1520 Clear 13 1030 67 10000 1.54 190 21:30 06.10.2022
1521 Clear 11 1021 76 10000 2.06 210 20:39 06.10.2022
1522 Clear 13 1024 81 10000 2.06 240 18:56 06.10.2022
1523 Clear 14 1024 80 10000 2.57 260 18:31 06.10.2022
1524 Clouds 18 1023 60 10000 4.12 280 15:38 06.10.2022
1525 Clouds 17 1023 79 10000 4.12 270 12:49 06.10.2022
1526 Rain 14 1017 83 9000 4.63 320 09:27 06.10.2022
1527 Clear 16 1016 83 10000 4.12 240 04:42 06.10.2022
1528 Clear 16 1020 72 10000 4.12 230 00:51 06.10.2022
1529 Clear 14 1018 83 10000 5.66 200 21:54 05.10.2022
1530 Clear 14 1013 86 10000 4.63 170 19:45 05.10.2022
1531 Clear 20 1009 65 10000 2.57 180 17:37 05.10.2022
1532 Clear 20 1009 62 10000 2.06 180 16:45 05.10.2022
1533 Clear 19 1010 62 10000 2.57 190 14:59 05.10.2022
1534 Clear 19 1010 63 10000 2.57 190 14:37 05.10.2022
1535 Clear 19 1014 73 10000 3.09 150 12:45 05.10.2022
1536 Clear 16 1011 73 10000 3.6 140 11:45 05.10.2022
1537 Clear 9 1020 92 10000 2.06 170 08:25 05.10.2022
1538 Clear 9 1020 92 10000 1.03 130 07:19 05.10.2022
1539 Clear 8 1011 90 10000 1.54 170 05:31 05.10.2022
1540 Clear 11 1021 76 10000 5.14 190 02:33 05.10.2022
1541 Clear 11 1022 87 10000 1.54 190 00:28 05.10.2022
1542 Clear 10 1022 92 10000 2.57 190 23:58 04.10.2022
1543 Clear 11 1022 88 10000 2.57 160 21:25 04.10.2022
1544 Clear 12 1016 86 10000 1.54 150 19:56 04.10.2022
1545 Clear 13 1012 78 10000 2.06 200 18:56 04.10.2022
1546 Clear 13 1016 84 10000 2.06 200 18:33 04.10.2022
1547 Clouds 17 1013 66 10000 1.54 310 16:57 04.10.2022
1548 Clouds 17 1017 79 10000 2.57 290 14:31 04.10.2022
1549 Clouds 14 1017 87 10000 2.57 300 10:43 04.10.2022
1550 Clouds 12 1017 90 10000 3.09 290 08:28 04.10.2022
1551 Clouds 12 1016 90 10000 4.12 290 05:56 04.10.2022
1552 Clouds 12 1017 90 10000 4.12 290 00:25 04.10.2022
1553 Clouds 13 1017 90 10000 4.63 290 22:57 03.10.2022
1554 Clouds 13 1017 89 10000 4.12 290 21:41 03.10.2022
1555 Clouds 13 1017 87 10000 5.14 300 20:40 03.10.2022
1556 Clear 14 1017 84 10000 4.12 300 18:52 03.10.2022
1557 Clouds 14 1017 84 10000 4.63 300 17:38 03.10.2022
1558 Clouds 14 1017 82 10000 5.14 300 16:23 03.10.2022
1559 Clouds 15 1017 82 10000 7.2 300 14:37 03.10.2022
1560 Clouds 14 1017 80 10000 7.2 320 13:27 03.10.2022
1561 Clouds 13 1017 87 10000 6.69 290 11:45 03.10.2022
1562 Clouds 12 1017 90 10000 5.66 300 10:19 03.10.2022
1563 Clouds 11 1016 93 10000 4.63 300 08:56 03.10.2022
1564 Clouds 11 1014 93 10000 5.66 290 04:49 03.10.2022
1565 Clear 11 1013 91 10000 3.6 280 01:51 03.10.2022
1566 Clear 11 1012 91 10000 3.6 290 22:24 02.10.2022
1567 Clouds 12 1011 93 10000 3.6 280 20:22 02.10.2022
1568 Clear 14 1009 87 10000 3.6 270 18:27 02.10.2022
1569 Clouds 15 1009 87 10000 4.12 270 17:29 02.10.2022
1570 Clouds 16 1008 81 10000 5.66 270 16:33 02.10.2022
1571 Clouds 17 1008 81 10000 5.66 270 15:40 02.10.2022
1572 Clouds 17 1009 81 10000 6.17 280 13:51 02.10.2022
1573 Clouds 16 1009 85 10000 6.69 270 12:48 02.10.2022
1574 Clouds 16 1009 86 10000 5.66 270 12:24 02.10.2022
1575 Clouds 17 1006 72 10000 5.14 270 11:36 02.10.2022
1576 Clouds 16 1010 85 10000 6.17 260 10:36 02.10.2022
1577 Clear 12 1010 87 10000 4.63 240 08:40 02.10.2022
1578 Clear 11 1009 87 10000 4.12 250 06:38 02.10.2022
1579 Clear 11 1008 90 10000 4.12 260 02:54 02.10.2022
1580 Clear 11 1006 90 10000 5.14 270 00:45 02.10.2022
1581 Clouds 12 1005 88 10000 4.63 270 23:43 01.10.2022
1582 Clear 12 1004 89 10000 5.14 260 22:31 01.10.2022
1583 Clear 12 1003 91 10000 4.12 240 19:58 01.10.2022
1584 Clouds 12 1002 91 10000 4.63 230 17:55 01.10.2022
1585 Clouds 11 1002 94 10000 4.63 200 16:30 01.10.2022
1586 Rain 11 1002 90 10000 5.14 200 14:25 01.10.2022
1587 Rain 13 1003 82 10000 5.66 170 12:59 01.10.2022
1588 Rain 14 1003 82 10000 5.66 180 12:29 01.10.2022
1589 Rain 13 1003 85 10000 5.14 170 11:19 01.10.2022
1590 Clear 12 1010 93 10000 4.63 180 10:31 01.10.2022
1591 Clear 10 1011 91 10000 3.6 170 09:27 01.10.2022
1592 Clear 10 1010 89 10000 3.6 180 08:57 01.10.2022
1593 Clear 8 1012 92 10000 2.06 180 03:59 01.10.2022
1594 Clear 9 1012 87 10000 3.6 180 03:29 01.10.2022
1595 Clear 9 1012 88 10000 4.12 190 23:47 30.09.2022
1596 Clear 10 1003 81 10000 3.6 180 22:32 30.09.2022
1597 Clear 12 1012 76 10000 2.57 160 21:22 30.09.2022
1598 Clear 12 1003 76 10000 3.09 170 20:43 30.09.2022
1599 Clear 12 1003 80 10000 1.03 0 19:43 30.09.2022
1600 Clear 16 1006 73 10000 2.06 170 17:28 30.09.2022
1601 Clear 17 1002 54 10000 1.54 0 15:56 30.09.2022
1602 Clouds 16 1002 61 10000 1.03 0 13:30 30.09.2022
1603 Clear 14 1002 74 10000 0.51 0 11:57 30.09.2022
1604 Clear 11 1006 89 10000 1.54 210 10:30 30.09.2022
1605 Clear 7 1010 99 10000 1.03 200 08:24 30.09.2022
1606 Clear 7 1003 95 10000 0.51 0 05:54 30.09.2022
1607 Clear 8 999 94 10000 1.03 0 02:36 30.09.2022
1608 Clear 9 1001 92 10000 1.03 0 22:31 29.09.2022
1609 Clouds 10 1000 91 10000 2.06 150 21:27 29.09.2022
1610 Clear 10 1000 90 10000 1.54 140 20:44 29.09.2022
1611 Clouds 11 1000 86 10000 1.54 70 18:45 29.09.2022
1612 Clouds 14 998 77 10000 1.54 20 17:24 29.09.2022
1613 Clouds 14 994 65 10000 2.57 270 16:28 29.09.2022
1614 Clouds 15 998 74 10000 2.06 0 15:36 29.09.2022
1615 Clouds 14 998 71 10000 2.06 290 14:29 29.09.2022
1616 Clear 10 993 87 10000 2.57 210 10:29 29.09.2022
1617 Clouds 6 1001 95 10000 2.57 200 06:58 29.09.2022
1618 Clear 6 1001 93 10000 2.57 210 02:49 29.09.2022
1619 Clear 6 991 92 10000 2.57 220 23:55 28.09.2022
1620 Clear 6 990 94 10000 1.54 210 22:44 28.09.2022
1621 Clouds 8 990 92 10000 1.54 220 21:29 28.09.2022
1622 Clear 9 990 89 10000 2.06 230 20:24 28.09.2022
1623 Clouds 9 989 90 10000 2.57 260 18:41 28.09.2022
1624 Clouds 11 987 85 10000 3.6 270 15:26 28.09.2022
1625 Mist 9 986 94 4400 2.06 90 13:26 28.09.2022
1626 Rain 8 987 91 10000 3.09 170 11:18 28.09.2022
1627 Rain 9 986 90 10000 2.57 160 09:18 28.09.2022
1628 Clouds 7 987 93 10000 2.57 170 07:20 28.09.2022
1629 Clouds 8 993 90 10000 3.6 210 03:18 28.09.2022
1630 Clear 8 993 91 10000 3.09 220 01:36 28.09.2022
1631 Clouds 8 989 88 10000 3.09 220 23:27 27.09.2022
1632 Clouds 9 993 88 10000 3.09 240 21:47 27.09.2022
1633 Rain 9 993 91 10000 3.6 220 20:39 27.09.2022
1634 Clouds 9 993 90 10000 3.09 220 19:48 27.09.2022
1635 Rain 11 989 85 10000 3.09 250 18:49 27.09.2022
1636 Clouds 12 989 83 10000 4.63 250 17:46 27.09.2022
1637 Clouds 13 988 73 10000 6.69 260 15:58 27.09.2022
1638 Clouds 13 987 86 10000 4.63 260 14:58 27.09.2022
1639 Rain 12 987 86 10000 7.72 260 13:28 27.09.2022
1640 Clouds 12 986 83 10000 3.6 230 12:21 27.09.2022
1641 Clouds 12 986 90 10000 3.09 170 09:46 27.09.2022
1642 Clouds 10 986 93 10000 3.6 140 07:28 27.09.2022
1643 Clouds 12 989 85 10000 5.14 170 02:51 27.09.2022
1644 Clear 11 990 84 10000 4.12 170 01:35 27.09.2022
1645 Clear 11 1001 85 10000 3.6 170 23:38 26.09.2022
1646 Clear 10 992 85 10000 4.12 190 23:18 26.09.2022
1647 Clear 11 1003 87 10000 4.12 180 20:47 26.09.2022
1648 Clear 13 997 79 10000 3.09 200 19:34 26.09.2022
1649 Clear 14 997 76 10000 2.06 230 18:35 26.09.2022
1650 Clear 17 998 54 10000 2.57 240 16:58 26.09.2022
1651 Clouds 17 999 55 10000 3.09 240 14:46 26.09.2022
1652 Clouds 14 998 85 10000 2.57 220 11:37 26.09.2022
1653 Clouds 12 998 93 10000 3.09 170 10:41 26.09.2022
1654 Clouds 13 1001 95 10000 3.09 180 10:22 26.09.2022
1655 Clouds 12 1008 99 10000 3.09 200 09:56 26.09.2022
1656 Clouds 11 1002 97 10000 2.06 210 09:25 26.09.2022
1657 Clouds 11 998 93 10000 1.54 170 08:58 26.09.2022
1658 Clouds 13 1003 92 10000 1.54 280 02:59 26.09.2022
1659 Clouds 12 1010 95 10000 2.06 290 01:52 26.09.2022
1660 Clear 12 1000 88 10000 1.54 240 23:20 25.09.2022
1661 Clear 13 1001 84 10000 1.03 0 21:44 25.09.2022
1662 Clouds 13 1004 87 10000 1.03 160 20:57 25.09.2022
1663 Clouds 13 1004 84 10000 0.51 190 20:32 25.09.2022
1664 Clear 16 1004 80 10000 1.54 360 18:44 25.09.2022
1665 Clear 16 1004 79 10000 2.06 360 18:24 25.09.2022
1666 Clear 19 1001 60 10000 2.06 320 16:59 25.09.2022
1667 Clouds 19 1001 57 10000 1.54 50 15:48 25.09.2022
1668 Clear 19 1002 56 10000 1.54 10 14:35 25.09.2022
1669 Clouds 18 1002 60 10000 1.03 0 13:45 25.09.2022
1670 Clear 16 1013 87 10000 2.06 200 10:37 25.09.2022
1671 Clear 13 1012 88 10000 1.54 220 09:37 25.09.2022
1672 Clear 10 1006 92 10000 1.03 190 06:53 25.09.2022
1673 Clear 10 1003 89 10000 1.03 0 05:19 25.09.2022
1674 Clear 13 1012 76 10000 3.6 160 23:36 24.09.2022
1675 Clear 12 1012 82 10000 3.09 160 21:19 24.09.2022
1676 Clear 14 1007 83 10000 2.06 150 19:33 24.09.2022
1677 Clouds 16 1006 78 10000 2.06 100 18:44 24.09.2022
1678 Clear 19 1003 52 10000 2.57 350 16:50 24.09.2022
1679 Clouds 19 1003 52 10000 1.54 0 15:23 24.09.2022
1680 Clear 18 1004 54 10000 2.06 320 14:27 24.09.2022
1681 Clear 18 1003 56 10000 1.54 0 13:18 24.09.2022
1682 Clear 17 1003 62 10000 1.54 220 12:22 24.09.2022
1683 Clear 12 1004 76 10000 2.06 160 09:58 24.09.2022
1684 Clear 10 1014 94 10000 1.54 170 08:56 24.09.2022
1685 Clear 8 1013 95 10000 2.57 150 07:41 24.09.2022
1686 Clear 9 1005 85 10000 3.09 150 04:53 24.09.2022
1687 Clear 9 1005 88 10000 2.57 160 04:19 24.09.2022
1688 Clear 10 1007 83 10000 3.09 150 22:54 23.09.2022
1689 Clear 10 1007 81 10000 3.09 160 21:37 23.09.2022
1690 Clear 11 1016 79 10000 2.57 160 21:19 23.09.2022
1691 Clear 11 1007 80 10000 2.57 160 20:43 23.09.2022
1692 Clear 12 1010 83 10000 1.54 150 19:20 23.09.2022
1693 Clear 17 1008 54 10000 1.03 0 16:23 23.09.2022
1694 Clear 16 1010 57 10000 2.06 230 12:52 23.09.2022
1695 Clear 9 1011 85 10000 1.54 150 09:36 23.09.2022
1696 Mist 4 1020 99 3500 0.51 0 07:29 23.09.2022
1697 Clear 7 1022 93 10000 2.57 160 01:21 23.09.2022
1698 Clear 8 1022 87 10000 1.54 160 23:29 22.09.2022
1699 Clear 10 1022 76 10000 1.03 0 22:27 22.09.2022
1700 Clear 10 1023 71 10000 0.51 0 21:30 22.09.2022
1701 Clear 12 1022 62 10000 0.51 0 20:21 22.09.2022
1702 Clear 13 1017 77 10000 1.54 50 18:44 22.09.2022
1703 Clouds 16 1017 67 10000 2.57 60 15:23 22.09.2022
1704 Clouds 12 1015 85 10000 1.54 0 10:48 22.09.2022
1705 Clouds 12 1015 85 10000 1.03 0 10:19 22.09.2022
1706 Clouds 8 1024 93 8000 0.51 0 07:55 22.09.2022
1707 Clear 8 1024 100 10000 1.03 230 04:56 22.09.2022
1708 Clear 9 1025 100 10000 1.54 240 00:37 22.09.2022
1709 Clear 11 1025 87 10000 1.54 260 22:29 21.09.2022
1710 Clear 9 1016 88 10000 1.03 0 21:18 21.09.2022
1711 Clouds 12 1019 88 10000 1.54 220 18:51 21.09.2022
1712 Clouds 13 1019 89 10000 1.03 210 17:44 21.09.2022
1713 Clouds 16 1019 79 10000 2.57 310 15:47 21.09.2022
1714 Clouds 14 1017 73 10000 3.09 300 13:54 21.09.2022
1715 Clouds 14 1020 85 10000 3.6 270 11:43 21.09.2022
1716 Clouds 12 1017 83 10000 2.57 270 10:59 21.09.2022
1717 Clouds 11 1020 92 10000 3.6 270 09:40 21.09.2022
1718 Clear 9 1020 94 10000 2.57 270 08:43 21.09.2022
1719 Clouds 8 1015 92 10000 2.06 280 04:57 21.09.2022
1720 Clouds 9 1018 93 10000 2.06 270 02:40 21.09.2022
1721 Clouds 9 1018 92 10000 2.06 260 01:58 21.09.2022
1722 Clouds 9 1018 92 10000 1.03 280 00:20 21.09.2022
1723 Clear 9 1017 92 10000 1.54 260 21:53 20.09.2022
1724 Clouds 10 1016 91 10000 1.03 310 20:33 20.09.2022
1725 Rain 10 1016 87 10000 1.03 0 19:18 20.09.2022
1726 Clouds 14 1011 71 10000 4.63 320 15:57 20.09.2022
1727 Clouds 13 1011 79 10000 4.12 310 14:29 20.09.2022
1728 Clouds 13 1014 91 10000 3.6 310 12:32 20.09.2022
1729 Clouds 10 1013 95 10000 2.57 280 08:51 20.09.2022
1730 Clouds 9 1013 95 10000 2.06 280 08:24 20.09.2022
1731 Clouds 10 1008 93 10000 3.09 290 04:40 20.09.2022
1732 Rain 10 1008 93 8000 3.09 270 02:34 20.09.2022
1733 Clear 9 1011 95 10000 2.57 250 22:50 19.09.2022
1734 Clouds 9 1011 94 10000 1.54 220 21:38 19.09.2022
1735 Clouds 10 1006 92 10000 2.57 270 20:45 19.09.2022
1736 Rain 11 1006 88 10000 2.57 340 19:27 19.09.2022
1737 Clouds 14 1005 76 10000 4.63 290 17:37 19.09.2022
1738 Clouds 13 1008 91 10000 4.63 300 13:56 19.09.2022
1739 Clouds 11 1008 94 10000 4.63 300 12:48 19.09.2022
1740 Rain 10 1007 95 10000 4.63 310 10:31 19.09.2022
1741 Clouds 9 1005 95 10000 3.09 290 08:42 19.09.2022
1742 Clouds 8 1004 95 10000 4.12 320 05:42 19.09.2022
1743 Drizzle 9 999 91 8000 3.6 270 01:53 19.09.2022
1744 Clear 8 1002 90 10000 3.09 260 23:22 18.09.2022
1745 Clouds 9 1003 90 10000 4.12 260 21:33 18.09.2022
1746 Clouds 9 1003 92 10000 4.63 270 20:23 18.09.2022
1747 Rain 10 1003 91 10000 4.63 270 17:54 18.09.2022
1748 Rain 11 1003 85 10000 6.17 280 17:19 18.09.2022
1749 Rain 14 999 69 10000 7.72 260 15:34 18.09.2022
1750 Clouds 14 1003 77 10000 5.14 320 13:47 18.09.2022
1751 Clouds 14 1004 80 10000 5.66 290 12:34 18.09.2022
1752 Clouds 13 1004 88 10000 6.17 270 10:55 18.09.2022
1753 Rain 9 1001 94 10000 5.66 280 03:42 18.09.2022
1754 Clouds 9 1001 90 10000 5.66 270 01:24 18.09.2022
1755 Clouds 9 1002 89 10000 6.17 260 00:23 18.09.2022
1756 Clouds 10 1002 84 10000 3.6 270 21:39 17.09.2022
1757 Clouds 12 1001 80 10000 3.6 270 19:43 17.09.2022
1758 Clouds 12 1001 80 10000 3.6 270 19:43 17.09.2022
1759 Clear 13 1001 75 10000 4.12 280 18:57 17.09.2022
1760 Clouds 15 1001 71 10000 4.63 290 16:18 17.09.2022
1761 Rain 14 998 75 10000 5.66 290 13:56 17.09.2022
1762 Clouds 13 1002 91 10000 4.63 280 10:57 17.09.2022
1763 Drizzle 11 1001 91 3600 4.63 260 08:55 17.09.2022
1764 Clouds 11 1000 84 10000 5.14 260 06:25 17.09.2022
1765 Clear 11 1001 81 10000 4.63 250 00:20 17.09.2022
1766 Clear 12 1000 84 10000 4.12 240 22:52 16.09.2022
1767 Clear 12 1000 84 10000 3.6 230 21:22 16.09.2022
1768 Clear 13 1000 82 10000 3.09 250 19:50 16.09.2022
1769 Clouds 15 997 70 10000 5.14 300 16:56 16.09.2022
1770 Clouds 17 997 67 10000 3.09 260 15:26 16.09.2022
1771 Clouds 16 1001 84 10000 4.12 230 13:57 16.09.2022
1772 Clouds 15 1002 81 10000 4.63 280 11:31 16.09.2022
1773 Clouds 13 1002 89 10000 4.12 280 08:26 16.09.2022
1774 Clouds 12 1002 90 10000 4.12 270 07:19 16.09.2022
1775 Clouds 12 1001 90 10000 3.09 260 06:47 16.09.2022
1776 Clear 13 1001 90 10000 2.57 240 02:40 16.09.2022
1777 Clouds 14 1001 86 10000 2.57 270 22:56 15.09.2022
1778 Clear 14 1000 87 10000 3.09 260 21:18 15.09.2022
1779 Clear 15 1000 88 10000 1.54 250 19:49 15.09.2022
1780 Clear 15 999 86 10000 3.09 260 18:29 15.09.2022
1781 Clear 15 999 86 10000 3.09 250 17:32 15.09.2022
1782 Clouds 15 1000 86 10000 2.57 270 16:43 15.09.2022
1783 Clouds 17 999 84 10000 5.14 270 14:36 15.09.2022
1784 Clouds 16 1000 87 10000 3.09 260 12:21 15.09.2022
1785 Clouds 16 999 94 10000 2.57 290 09:54 15.09.2022
1786 Clouds 14 999 96 10000 2.06 280 07:51 15.09.2022
1787 Clouds 14 999 97 10000 2.57 320 03:56 15.09.2022
1788 Rain 15 998 97 6000 3.09 350 01:20 15.09.2022
1789 Rain 16 997 96 3800 2.57 10 21:39 14.09.2022
1790 Rain 16 998 97 4900 1.54 10 19:55 14.09.2022
1791 Rain 16 998 97 3900 1.54 340 19:20 14.09.2022
1792 Clouds 17 999 95 10000 1.54 20 16:57 14.09.2022
1793 Clouds 18 999 94 9000 1.54 360 15:49 14.09.2022
1794 Rain 18 1000 93 10000 0 0 14:33 14.09.2022
1795 Drizzle 17 1001 93 10000 1.03 0 11:39 14.09.2022
1796 Rain 16 1001 93 10000 0.51 0 09:48 14.09.2022
1797 Clouds 16 1001 93 10000 1.03 0 07:38 14.09.2022
1798 Clouds 15 1001 93 10000 1.03 160 06:47 14.09.2022
1799 Clouds 15 998 92 10000 1.03 0 04:33 14.09.2022
1800 Clouds 16 999 88 10000 1.54 240 01:48 14.09.2022
1801 Clouds 16 999 87 10000 1.54 240 01:27 14.09.2022
1802 Clouds 15 1003 91 10000 1.54 270 00:48 14.09.2022
1803 Clear 15 1003 90 10000 1.03 300 23:54 13.09.2022
1804 Clear 15 1003 90 10000 1.03 300 23:36 13.09.2022
1805 Clear 16 999 83 10000 1.54 310 23:18 13.09.2022
1806 Clear 19 1002 80 10000 2.57 300 21:50 13.09.2022
1807 Clear 20 1002 80 10000 2.06 250 19:52 13.09.2022
1808 Clear 22 1002 78 10000 3.09 250 18:18 13.09.2022
1809 Clear 24 1003 62 10000 4.63 270 15:55 13.09.2022
1810 Clear 24 1003 60 10000 5.14 270 14:36 13.09.2022
1811 Clouds 23 1000 60 10000 5.14 240 14:36 13.09.2022
1812 Clear 20 1001 76 10000 4.12 200 12:40 13.09.2022
1813 Clear 16 1005 89 10000 3.6 200 09:23 13.09.2022
1814 Clear 12 1002 91 10000 3.09 180 06:24 13.09.2022
1815 Clear 13 1006 90 10000 2.57 160 00:22 13.09.2022
1816 Clear 13 1010 91 10000 2.06 150 22:50 12.09.2022
1817 Clear 14 1010 89 10000 2.06 150 21:55 12.09.2022
1818 Clear 16 1010 88 10000 1.54 90 20:25 12.09.2022
1819 Clear 18 1010 82 10000 1.03 50 18:51 12.09.2022
1820 Clear 20 1010 73 10000 1.54 20 17:25 12.09.2022
1821 Clouds 20 1012 78 10000 3.09 0 14:39 12.09.2022
1822 Clouds 18 1009 80 10000 1.03 0 11:31 12.09.2022
1823 Clouds 15 1013 95 8000 2.57 310 09:56 12.09.2022
1824 Clouds 13 1013 96 8000 1.03 0 04:54 12.09.2022
1825 Clouds 13 1013 96 8000 1.54 290 04:27 12.09.2022
1826 Clouds 15 1012 94 10000 1.54 260 23:47 11.09.2022
1827 Clouds 15 1013 92 10000 1.54 250 22:43 11.09.2022
1828 Mist 16 1012 91 2800 3.6 20 20:51 11.09.2022
1829 Clouds 16 1012 89 10000 2.57 250 20:21 11.09.2022
1830 Clouds 17 1011 86 10000 3.09 270 19:26 11.09.2022
1831 Clouds 18 1011 84 10000 2.57 260 18:37 11.09.2022
1832 Clouds 19 1008 76 10000 2.57 310 16:56 11.09.2022
1833 Clouds 16 1018 89 10000 3.09 320 14:56 11.09.2022
1834 Clouds 16 1017 96 6000 4.63 330 12:54 11.09.2022
1835 Clouds 16 1010 94 10000 3.09 310 09:45 11.09.2022
1836 Clouds 14 1009 95 10000 2.06 270 07:43 11.09.2022
1837 Clear 13 1008 94 10000 2.57 240 02:55 11.09.2022
1838 Rain 15 1007 90 10000 2.57 250 23:45 10.09.2022
1839 Clear 14 1008 93 10000 2.06 200 21:35 10.09.2022
1840 Clear 16 1007 85 10000 1.03 0 19:56 10.09.2022
1841 Clear 17 1007 84 10000 1.03 0 19:37 10.09.2022
1842 Clear 17 1013 86 10000 2.06 260 19:19 10.09.2022
1843 Clear 20 1012 80 10000 3.09 290 16:58 10.09.2022
1844 Clouds 21 1012 78 10000 3.09 270 15:32 10.09.2022
1845 Clouds 19 1013 69 10000 3.6 290 12:55 10.09.2022
1846 Clouds 19 1013 69 10000 3.6 290 12:55 10.09.2022
1847 Clouds 18 1013 73 10000 3.6 270 11:36 10.09.2022
1848 Clouds 18 1013 78 10000 3.6 280 10:26 10.09.2022
1849 Clear 15 1013 87 10000 3.09 220 08:37 10.09.2022
1850 Clear 14 1014 92 10000 3.09 220 08:18 10.09.2022
1851 Clear 14 1014 92 10000 3.09 220 08:18 10.09.2022
1852 Clear 14 1014 93 10000 2.57 210 03:42 10.09.2022
1853 Clear 16 1014 93 10000 1.54 180 23:35 09.09.2022
1854 Clear 16 1014 90 10000 1.54 190 22:22 09.09.2022
1855 Clear 17 1013 90 10000 3.6 180 20:49 09.09.2022
1856 Clear 18 1013 89 10000 4.12 180 19:52 09.09.2022
1857 Rain 19 1012 89 10000 2.06 170 19:22 09.09.2022
1858 Clouds 22 1012 70 10000 1.54 30 16:34 09.09.2022
1859 Clouds 22 1012 85 10000 3.09 120 14:42 09.09.2022
1860 Clear 22 1013 75 10000 3.09 90 13:18 09.09.2022
1861 Clouds 20 1013 84 10000 5.14 200 10:37 09.09.2022
1862 Clear 13 1013 92 10000 1.54 170 07:24 09.09.2022
1863 Clear 13 1013 92 10000 1.54 170 07:24 09.09.2022
1864 Clear 13 1013 92 10000 1.54 170 07:24 09.09.2022
1865 Clear 13 1013 92 10000 3.09 220 03:31 09.09.2022
1866 Clouds 15 1012 95 10000 2.06 210 22:33 08.09.2022
1867 Clear 15 1012 93 10000 5.14 190 21:51 08.09.2022
1868 Clear 17 1011 87 10000 3.6 220 20:46 08.09.2022
1869 Clear 17 1011 92 10000 2.57 230 20:24 08.09.2022
1870 Clouds 20 1010 86 10000 3.09 260 18:34 08.09.2022
1871 Clouds 20 1009 85 10000 3.6 230 16:49 08.09.2022
1872 Rain 19 1010 97 10000 2.57 230 14:50 08.09.2022
1873 Rain 18 1010 97 6000 1.03 0 13:28 08.09.2022
1874 Rain 19 1010 95 10000 1.03 0 12:39 08.09.2022
1875 Rain 20 1009 87 10000 2.06 300 11:22 08.09.2022
1876 Clear 20 1010 92 10000 1.54 0 09:26 08.09.2022
1877 Clear 17 1010 93 10000 3.6 160 06:53 08.09.2022
1878 Fog 18 1011 95 6000 1.54 70 03:37 08.09.2022
1879 Clouds 18 1011 99 7000 0.51 0 02:36 08.09.2022
1880 Mist 17 1012 97 4000 1.03 0 02:18 08.09.2022
1881 Clear 19 1013 93 10000 2.57 160 22:58 07.09.2022
1882 Clear 20 1013 91 10000 3.6 160 21:44 07.09.2022
1883 Clear 20 1013 91 10000 3.6 150 21:21 07.09.2022
1884 Rain 21 1013 89 10000 3.09 170 20:25 07.09.2022
1885 Clear 22 1013 91 10000 3.09 170 18:54 07.09.2022
1886 Clear 25 1013 87 10000 3.6 170 16:18 07.09.2022
1887 Clear 22 1014 77 10000 4.12 140 10:52 07.09.2022
1888 Clear 22 1014 78 10000 4.12 140 10:32 07.09.2022
1889 Clear 18 1015 94 10000 4.12 150 08:26 07.09.2022
1890 Clear 16 1015 92 10000 3.6 150 05:46 07.09.2022
1891 Clear 16 1016 93 10000 2.57 120 00:31 07.09.2022
1892 Clear 16 1018 97 10000 3.09 110 21:51 06.09.2022
1893 Clear 16 1018 97 10000 3.09 110 21:51 06.09.2022
1894 Clear 17 1017 95 10000 3.09 110 21:32 06.09.2022
1895 Clear 19 1017 95 10000 3.09 90 19:39 06.09.2022
1896 Rain 19 1018 94 10000 2.06 40 18:39 06.09.2022
1897 Rain 19 1018 95 10000 2.06 90 17:39 06.09.2022
1898 Thunderstorm 22 1000 80 6000 6.17 220 16:47 06.09.2022
1899 Rain 24 1000 67 10000 5.66 190 16:24 06.09.2022
1900 Clear 25 999 59 10000 4.63 120 14:27 06.09.2022
1901 Clear 25 1018 54 10000 5.14 110 13:44 06.09.2022
1902 Clear 24 1000 67 10000 4.63 110 13:18 06.09.2022
1903 Clear 22 1008 68 10000 3.09 140 10:55 06.09.2022
1904 Clear 20 1008 79 10000 2.06 90 09:22 06.09.2022
1905 Clear 16 1008 93 10000 1.54 70 07:53 06.09.2022
1906 Clear 15 1008 92 10000 1.54 90 06:20 06.09.2022
1907 Clear 16 1009 94 10000 2.57 100 01:20 06.09.2022
1908 Clear 18 1010 92 10000 2.06 100 22:54 05.09.2022
1909 Clear 18 1010 90 10000 2.57 80 21:38 05.09.2022
1910 Clear 20 1010 89 10000 3.6 110 20:30 05.09.2022
1911 Clouds 22 1010 78 10000 4.12 120 18:53 05.09.2022
1912 Clouds 23 1010 72 10000 3.6 110 18:26 05.09.2022
1913 Clouds 23 1022 70 10000 4.12 100 17:53 05.09.2022
1914 Clouds 25 1010 63 10000 4.12 90 15:54 05.09.2022
1915 Clouds 24 1004 66 10000 3.6 80 14:48 05.09.2022
1916 Clouds 25 1023 62 10000 2.57 100 12:53 05.09.2022
1917 Clear 22 1024 70 10000 3.09 110 11:21 05.09.2022
1918 Clear 20 1012 81 10000 3.09 100 08:52 05.09.2022
1919 Clear 16 1004 86 10000 2.57 70 05:20 05.09.2022
1920 Clear 17 1004 84 10000 2.06 110 01:19 05.09.2022
1921 Clear 18 1011 82 10000 2.57 70 22:29 04.09.2022
1922 Clear 18 1011 77 10000 3.09 80 21:59 04.09.2022
1923 Clear 20 1010 64 10000 3.09 60 20:35 04.09.2022
1924 Clear 23 1009 56 10000 3.6 60 18:39 04.09.2022
1925 Clear 25 1021 50 10000 3.09 60 17:43 04.09.2022
1926 Clear 25 1021 48 10000 3.6 100 16:28 04.09.2022
1927 Clear 24 1021 58 10000 2.57 70 14:25 04.09.2022
1928 Clear 24 1001 56 10000 3.6 0 12:52 04.09.2022
1929 Clear 22 1001 64 10000 3.6 90 11:28 04.09.2022
1930 Clear 19 1001 71 10000 1.54 90 09:39 04.09.2022
1931 Clear 14 1006 90 10000 1.03 110 06:40 04.09.2022
1932 Clear 15 1006 86 10000 2.57 80 03:18 04.09.2022
1933 Clear 16 1005 80 10000 2.57 90 22:56 03.09.2022
1934 Clear 17 997 73 10000 2.57 80 22:18 03.09.2022
1935 Clear 17 1005 73 10000 3.09 70 21:22 03.09.2022
1936 Clear 22 1016 41 10000 3.09 140 18:57 03.09.2022
1937 Clear 23 1004 42 10000 3.6 140 17:25 03.09.2022
1938 Clear 23 997 45 10000 4.12 110 16:20 03.09.2022
1939 Clear 23 1004 45 10000 5.14 90 14:43 03.09.2022
1940 Clear 22 997 48 10000 4.63 60 13:50 03.09.2022
1941 Clear 21 998 51 10000 4.12 70 11:37 03.09.2022
1942 Clear 18 998 65 10000 2.57 90 09:51 03.09.2022
1943 Clear 13 998 74 10000 1.54 150 07:57 03.09.2022
1944 Clear 13 998 79 10000 0.51 0 04:57 03.09.2022
1945 Clear 13 999 79 10000 1.54 80 03:57 03.09.2022
1946 Clear 14 1007 72 10000 2.06 110 23:49 02.09.2022
1947 Clear 15 1006 68 10000 3.6 110 22:39 02.09.2022
1948 Clear 17 1006 61 10000 3.09 100 20:59 02.09.2022
1949 Clear 17 1006 59 10000 4.12 90 20:27 02.09.2022
1950 Clear 20 1006 52 10000 4.12 80 18:59 02.09.2022
1951 Clear 20 1006 50 10000 4.63 80 18:28 02.09.2022
1952 Clear 20 1007 50 10000 4.63 90 17:36 02.09.2022
1953 Clear 20 1000 53 10000 5.14 90 16:46 02.09.2022
1954 Clouds 22 1008 45 10000 4.12 110 13:55 02.09.2022
1955 Clouds 20 1020 55 10000 3.6 90 12:24 02.09.2022
1956 Clear 18 1001 69 10000 2.57 90 09:50 02.09.2022
1957 Clear 18 1009 71 10000 1.03 0 08:56 02.09.2022
1958 Clear 13 1001 85 10000 2.57 160 07:30 02.09.2022
1959 Clear 13 1001 85 10000 2.57 160 07:30 02.09.2022
1960 Clear 13 1001 85 10000 1.54 150 06:36 02.09.2022
1961 Clear 14 1002 80 10000 1.54 130 02:37 02.09.2022
1962 Clear 16 1003 74 10000 1.54 100 22:30 01.09.2022
1963 Clear 17 1002 70 10000 1.54 100 21:43 01.09.2022
1964 Clear 16 1002 75 10000 1.54 80 21:25 01.09.2022
1965 Clear 17 1002 67 10000 1.54 70 20:43 01.09.2022
1966 Clear 19 1009 62 10000 3.6 60 18:54 01.09.2022
1967 Clouds 20 1009 56 10000 3.09 60 17:22 01.09.2022
1968 Clear 21 1021 56 10000 3.09 120 15:56 01.09.2022
1969 Clouds 21 1022 54 10000 3.6 90 14:22 01.09.2022
1970 Clear 20 1022 65 10000 3.09 70 12:58 01.09.2022
1971 Clear 19 1022 71 10000 2.57 60 11:53 01.09.2022
1972 Clear 18 1022 72 10000 2.57 60 11:31 01.09.2022
1973 Clear 18 1003 78 10000 1.54 50 10:38 01.09.2022
1974 Clear 14 1010 96 10000 0.51 0 08:30 01.09.2022
1975 Clear 12 1010 94 10000 0.51 0 06:22 01.09.2022
1976 Clear 14 1003 92 10000 1.54 30 01:32 01.09.2022
1977 Clear 16 1003 84 10000 0.51 20 00:18 01.09.2022
1978 Clear 17 1010 82 10000 0.51 350 21:33 31.08.2022
1979 Clear 19 1010 74 10000 1.03 40 19:50 31.08.2022
1980 Clear 20 1010 65 10000 2.57 50 18:18 31.08.2022
1981 Clear 22 1010 59 10000 3.6 30 16:23 31.08.2022
1982 Clouds 23 1010 57 10000 3.6 90 14:32 31.08.2022
1983 Clouds 20 1003 74 10000 3.6 30 12:23 31.08.2022
1984 Clear 20 1014 74 10000 3.6 40 11:26 31.08.2022
1985 Clear 16 1013 93 10000 1.54 40 08:54 31.08.2022
1986 Clear 13 1009 95 10000 1.54 20 05:26 31.08.2022
1987 Clear 16 1012 88 10000 1.03 40 23:20 30.08.2022
1988 Clear 18 1009 76 10000 2.06 40 21:43 30.08.2022
1989 Clear 18 1012 78 10000 2.06 20 20:57 30.08.2022
1990 Clear 21 1020 63 10000 3.6 30 18:49 30.08.2022
1991 Clear 23 1009 60 10000 4.63 40 15:29 30.08.2022
1992 Clouds 23 1009 62 10000 2.57 30 13:25 30.08.2022
1993 Clear 22 1010 66 10000 2.57 40 11:22 30.08.2022
1994 Clear 21 1021 67 10000 1.54 70 10:57 30.08.2022
1995 Clear 15 1002 92 10000 1.54 120 07:50 30.08.2022
1996 Clear 13 1009 92 10000 2.06 200 02:55 30.08.2022
1997 Clear 15 1012 88 10000 0.51 0 23:28 29.08.2022
1998 Clear 16 1009 82 10000 1.03 150 22:32 29.08.2022
1999 Clear 17 1012 83 10000 1.03 40 21:27 29.08.2022
2000 Clear 18 1011 75 10000 1.54 350 20:26 29.08.2022
2001 Clear 22 1020 56 10000 2.06 310 17:58 29.08.2022
2002 Clear 22 1020 57 10000 2.57 270 17:25 29.08.2022
2003 Clear 22 1020 55 10000 2.57 310 16:50 29.08.2022
2004 Clear 23 1009 56 10000 2.57 290 15:18 29.08.2022
2005 Clear 22 1009 59 10000 3.6 270 13:34 29.08.2022
2006 Clouds 21 1012 60 10000 4.63 280 11:33 29.08.2022
2007 Clear 19 1002 70 10000 3.09 290 10:39 29.08.2022
2008 Clear 16 1009 76 10000 3.09 260 08:39 29.08.2022
2009 Clear 12 1011 92 10000 1.03 260 06:25 29.08.2022
2010 Clear 15 1007 86 10000 1.54 270 01:53 29.08.2022
2011 Clear 17 1006 82 10000 1.03 270 22:55 28.08.2022
2012 Clear 18 1006 80 10000 1.54 290 21:46 28.08.2022
2013 Clear 18 1009 78 10000 1.03 0 20:59 28.08.2022
2014 Clouds 20 1008 71 10000 1.54 320 19:59 28.08.2022
2015 Clouds 23 1008 62 10000 2.57 340 18:22 28.08.2022
2016 Clouds 22 1008 63 10000 3.6 290 17:50 28.08.2022
2017 Clouds 23 1005 66 10000 3.6 310 16:44 28.08.2022
2018 Clouds 22 1008 67 10000 4.63 320 15:00 28.08.2022
2019 Clouds 21 1008 73 10000 4.12 300 12:57 28.08.2022
2020 Clouds 19 1008 83 10000 3.6 290 11:25 28.08.2022
2021 Clouds 17 1004 90 10000 4.63 300 10:20 28.08.2022
2022 Clouds 17 1007 97 10000 4.12 310 08:52 28.08.2022
2023 Clouds 17 1007 97 10000 4.12 310 07:53 28.08.2022
2024 Clouds 17 1007 97 9000 4.12 300 07:26 28.08.2022
2025 Rain 19 1005 96 9000 4.63 320 00:37 28.08.2022
2026 Rain 20 1002 95 10000 2.57 330 23:20 27.08.2022
2027 Clouds 20 1005 96 10000 2.57 290 22:27 27.08.2022
2028 Clouds 20 1005 96 9000 2.57 270 20:35 27.08.2022
2029 Clouds 21 1004 96 10000 2.06 260 19:26 27.08.2022
2030 Clouds 21 1004 95 10000 3.09 320 16:29 27.08.2022
2031 Clouds 21 1004 96 9000 2.57 320 15:31 27.08.2022
2032 Rain 20 1004 96 4300 2.57 300 13:22 27.08.2022
2033 Rain 20 1004 96 2500 2.06 270 12:20 27.08.2022
2034 Rain 20 1004 96 5000 2.57 310 10:30 27.08.2022
2035 Mist 20 1003 96 3500 2.57 320 09:36 27.08.2022
2036 Mist 20 1003 96 3800 1.03 260 06:54 27.08.2022
2037 Rain 20 1003 96 10000 1.03 0 01:21 27.08.2022
2038 Rain 21 1003 94 10000 3.58 286 23:49 26.08.2022
2039 Clouds 22 1003 91 10000 1.54 120 21:49 26.08.2022
2040 Clear 22 1003 90 10000 1.54 40 20:22 26.08.2022
2041 Clear 27 1011 62 10000 3.09 40 18:19 26.08.2022
2042 Rain 28 1002 60 10000 5.66 300 16:36 26.08.2022
2043 Clear 29 1000 58 10000 2.06 90 15:25 26.08.2022
2044 Thunderstorm 27 995 66 10000 3.6 70 13:20 26.08.2022
2045 Rain 26 995 78 10000 3.6 70 12:34 26.08.2022
2046 Clear 28 1002 71 10000 1.79 133 11:22 26.08.2022
2047 Clear 25 1006 81 10000 1.03 0 09:53 26.08.2022
2048 Mist 19 1006 95 4500 1.03 0 04:56 26.08.2022
2049 Clear 21 1007 93 10000 0.51 0 00:55 26.08.2022
2050 Clear 21 1007 90 10000 1.54 50 22:57 25.08.2022
2051 Clear 24 1007 84 10000 3.6 80 20:59 25.08.2022
2052 Clear 25 1015 68 10000 5.14 80 19:54 25.08.2022
2053 Clear 27 1015 65 10000 5.66 60 18:47 25.08.2022
2054 Clouds 29 1015 55 10000 5.66 60 17:32 25.08.2022
2055 Clouds 29 1015 58 10000 4.63 60 16:49 25.08.2022
2056 Clouds 29 1016 57 10000 5.66 50 15:37 25.08.2022
2057 Clouds 28 1017 61 10000 4.63 70 14:30 25.08.2022
2058 Clouds 26 1007 75 10000 3.6 60 11:34 25.08.2022
2059 Clouds 25 1007 78 10000 1.54 0 10:46 25.08.2022
2060 Clouds 22 1008 86 9000 0.51 0 08:52 25.08.2022
2061 Clouds 17 1011 95 10000 0 0 04:59 25.08.2022
2062 Clear 19 1012 93 10000 1.03 80 00:26 25.08.2022
2063 Clear 20 1020 86 10000 1.54 90 23:25 24.08.2022
2064 Clear 20 1012 88 10000 1.03 80 22:21 24.08.2022
2065 Clear 22 1009 81 10000 1.03 70 21:33 24.08.2022
2066 Clear 23 1011 81 10000 2.06 60 20:24 24.08.2022
2067 Clouds 25 1019 69 10000 2.06 40 18:46 24.08.2022
2068 Clouds 26 1020 67 10000 3.09 350 16:28 24.08.2022
2069 Clear 26 1008 67 10000 2.06 0 15:51 24.08.2022
2070 Clouds 25 1012 72 10000 2.06 30 13:33 24.08.2022
2071 Clouds 22 1021 82 10000 1.54 350 11:24 24.08.2022
2072 Clouds 20 1021 88 10000 1.03 0 09:33 24.08.2022
2073 Clear 19 1012 94 10000 2.06 310 07:47 24.08.2022
2074 Clouds 18 1019 94 10000 1.03 270 02:25 24.08.2022
2075 Clouds 19 1020 93 10000 1.03 250 23:26 23.08.2022
2076 Clouds 19 1020 93 10000 1.03 300 22:30 23.08.2022
2077 Clouds 19 1019 93 10000 1.03 330 21:28 23.08.2022
2078 Clouds 19 1019 91 10000 1.03 0 20:20 23.08.2022
2079 Clouds 21 1018 82 10000 1.54 310 18:44 23.08.2022
2080 Clouds 20 1018 84 10000 1.54 330 17:48 23.08.2022
2081 Clouds 20 1018 85 10000 1.54 320 16:53 23.08.2022
2082 Clouds 20 1019 90 10000 2.57 360 15:37 23.08.2022
2083 Clouds 19 1010 92 10000 3.09 320 13:26 23.08.2022
2084 Clouds 18 1006 95 10000 2.06 340 11:32 23.08.2022
2085 Clouds 18 1010 97 9000 2.57 330 10:36 23.08.2022
2086 Clouds 17 1009 96 9000 3.09 320 09:54 23.08.2022
2087 Clouds 17 1009 96 7000 3.09 340 08:51 23.08.2022
2088 Clouds 17 1009 96 8000 3.09 340 08:20 23.08.2022
2089 Clouds 17 1009 96 8000 3.09 340 08:20 23.08.2022
2090 Clouds 16 1009 97 8000 2.06 330 07:34 23.08.2022
2091 Rain 16 1008 97 10000 1.54 340 06:28 23.08.2022
2092 Rain 16 1005 96 9000 2.06 330 04:38 23.08.2022
2093 Rain 16 1009 95 10000 2.06 320 00:28 23.08.2022
2094 Rain 16 1009 91 10000 1.54 70 23:37 22.08.2022
2095 Rain 17 1009 86 10000 1.03 0 22:44 22.08.2022
2096 Rain 18 1017 78 10000 1.03 60 21:45 22.08.2022
2097 Clear 19 1017 64 10000 2.06 30 19:48 22.08.2022
2098 Rain 19 1017 62 10000 2.57 40 19:18 22.08.2022
2099 Rain 19 1017 76 10000 2.59 99 17:37 22.08.2022
2100 Clear 21 1017 54 10000 4.12 60 15:39 22.08.2022
2101 Rain 21 1017 62 10000 3.6 50 14:32 22.08.2022
2102 Clear 20 1008 74 10000 2.06 360 10:43 22.08.2022
2103 Clear 15 1009 88 10000 0.51 0 08:21 22.08.2022
2104 Clear 15 997 90 10000 1.03 190 04:30 22.08.2022
2105 Clear 16 997 80 10000 0.51 200 00:49 22.08.2022
2106 Clear 16 997 80 10000 0.51 180 00:26 22.08.2022
2107 Clear 17 1004 77 10000 0.51 230 22:54 21.08.2022
2108 Clear 18 997 74 10000 1.03 310 21:36 21.08.2022
2109 Clear 19 997 68 10000 1.54 330 20:57 21.08.2022
2110 Clear 21 1007 58 10000 2.57 320 19:28 21.08.2022
2111 Clear 23 1004 55 10000 3.6 320 17:59 21.08.2022
2112 Clear 22 1004 59 10000 5.14 320 15:59 21.08.2022
2113 Clouds 22 1004 62 10000 5.14 330 15:28 21.08.2022
2114 Clouds 21 1004 69 10000 3.6 330 13:58 21.08.2022
2115 Clouds 21 1004 69 10000 3.6 330 13:40 21.08.2022
2116 Clouds 20 1007 76 10000 3.09 310 12:37 21.08.2022
2117 Clouds 19 1007 97 10000 1.54 300 09:32 21.08.2022
2118 Rain 19 1007 97 5000 2.57 340 08:56 21.08.2022
2119 Mist 18 1008 97 5000 2.57 340 08:38 21.08.2022
2120 Mist 18 1007 98 5000 1.03 230 07:28 21.08.2022
2121 Rain 18 1004 96 9000 1.54 10 04:26 21.08.2022
2122 Drizzle 18 1004 96 5000 2.57 310 00:53 21.08.2022
2123 Rain 18 1004 96 7000 1.54 260 22:59 20.08.2022
2124 Clouds 19 1005 95 6000 1.54 250 21:45 20.08.2022
2125 Rain 18 1008 97 7000 0.51 0 20:48 20.08.2022
2126 Rain 18 1007 96 10000 2.57 310 19:42 20.08.2022
2127 Rain 19 1007 97 8000 3.09 330 18:44 20.08.2022
2128 Rain 18 1007 97 6000 2.06 340 18:25 20.08.2022
2129 Rain 19 1003 93 10000 2.06 320 17:20 20.08.2022
2130 Rain 19 1007 98 3800 3.09 300 15:52 20.08.2022
2131 Rain 19 1006 96 6000 3.6 310 13:39 20.08.2022
2132 Rain 19 1006 97 4200 3.6 320 11:53 20.08.2022
2133 Mist 19 1006 98 4700 4.12 310 11:24 20.08.2022
2134 Rain 18 1005 97 2900 3.6 320 09:20 20.08.2022
2135 Rain 19 1001 94 4700 2.57 290 06:40 20.08.2022
2136 Mist 19 1004 95 4300 3.09 300 04:42 20.08.2022
2137 Clouds 20 1005 90 10000 2.06 300 00:55 20.08.2022
2138 Clouds 21 1005 89 10000 1.03 0 23:25 19.08.2022
2139 Rain 20 1004 89 10000 2.06 300 22:36 19.08.2022
2140 Clouds 21 1004 88 10000 2.06 300 20:41 19.08.2022
2141 Clouds 22 1003 84 10000 2.57 310 18:55 19.08.2022
2142 Clouds 22 1003 87 10000 3.6 310 15:55 19.08.2022
2143 Clouds 22 1012 83 10000 3.6 270 13:42 19.08.2022
2144 Clouds 21 1002 92 9000 2.57 270 11:46 19.08.2022
2145 Clouds 20 1002 96 7000 3.6 260 10:31 19.08.2022
2146 Clouds 20 1002 92 10000 3.09 280 08:31 19.08.2022
2147 Clouds 21 1000 91 10000 4.12 300 03:39 19.08.2022
2148 Clear 22 1000 87 10000 3.09 320 00:40 19.08.2022
2149 Clouds 22 1000 86 10000 3.6 290 00:19 19.08.2022
2150 Clear 23 1000 76 10000 4.12 290 22:56 18.08.2022
2151 Clear 24 1000 72 10000 3.6 270 22:23 18.08.2022
2152 Clouds 24 997 72 10000 3.6 310 21:47 18.08.2022
2153 Clear 24 1009 71 10000 2.57 320 20:45 18.08.2022
2154 Clear 27 1008 57 10000 2.06 310 19:34 18.08.2022
2155 Clear 28 1001 56 10000 3.6 310 18:43 18.08.2022
2156 Clear 29 1009 50 10000 4.12 310 17:32 18.08.2022
2157 Clear 28 1009 51 10000 3.09 280 15:51 18.08.2022
2158 Clear 28 1002 49 10000 4.12 270 14:21 18.08.2022
2159 Clear 29 1000 49 10000 4.12 270 13:44 18.08.2022
2160 Clear 30 1002 45 10000 2.06 0 12:28 18.08.2022
2161 Clear 29 1010 51 10000 1.54 220 11:19 18.08.2022
2162 Clear 28 1000 46 10000 1.03 0 09:43 18.08.2022
2163 Clear 21 993 66 10000 1.54 220 07:27 18.08.2022
2164 Clear 20 993 69 10000 1.54 0 06:18 18.08.2022
2165 Clear 23 993 57 10000 2.57 150 01:43 18.08.2022
2166 Clear 25 993 52 10000 1.54 150 22:45 17.08.2022
2167 Clear 29 1000 39 10000 1.54 90 20:21 17.08.2022
2168 Clear 28 1002 44 10000 2.57 80 19:55 17.08.2022
2169 Clear 32 1009 33 10000 3.6 80 18:33 17.08.2022
2170 Clear 33 999 33 10000 2.57 0 16:52 17.08.2022
2171 Clear 33 999 33 10000 3.09 60 15:46 17.08.2022
2172 Clear 33 999 34 10000 4.12 90 14:40 17.08.2022
2173 Clear 31 1000 39 10000 2.06 0 12:29 17.08.2022
2174 Clear 30 1000 44 10000 1.03 0 11:23 17.08.2022
2175 Clear 25 1000 54 10000 1.03 0 09:22 17.08.2022
2176 Clear 20 993 75 10000 0.51 190 06:34 17.08.2022
2177 Clear 22 1000 68 10000 0.51 0 01:22 17.08.2022
2178 Clear 24 1003 61 10000 1.03 0 23:27 16.08.2022
2179 Clear 24 1002 58 10000 0.51 110 21:33 16.08.2022
2180 Clear 26 1002 51 10000 1.54 310 20:22 16.08.2022
2181 Clear 29 1001 43 10000 2.57 300 19:27 16.08.2022
2182 Clear 30 1009 38 10000 3.6 280 17:56 16.08.2022
2183 Clear 30 1009 40 10000 1.54 0 16:55 16.08.2022
2184 Clear 31 998 41 10000 1.03 0 15:45 16.08.2022
2185 Clear 30 998 43 10000 2.06 0 14:54 16.08.2022
2186 Clear 30 998 43 10000 2.06 0 14:36 16.08.2022
2187 Clear 28 999 48 10000 2.57 190 12:39 16.08.2022
2188 Clear 25 992 61 10000 3.09 230 10:23 16.08.2022
2189 Clear 24 992 64 10000 3.09 240 09:29 16.08.2022
2190 Clear 20 998 79 10000 3.09 220 08:26 16.08.2022
2191 Clear 18 1001 89 10000 3.09 210 07:20 16.08.2022
2192 Clear 19 999 94 10000 1.03 0 01:23 16.08.2022
2193 Clear 20 998 89 10000 1.03 0 22:29 15.08.2022
2194 Clear 21 998 90 10000 2.06 60 21:51 15.08.2022
2195 Clear 22 997 87 10000 1.03 0 20:39 15.08.2022
2196 Rain 22 996 88 10000 3.09 180 20:00 15.08.2022
2197 Rain 23 994 92 10000 9.77 210 18:20 15.08.2022
2198 Clear 28 1004 50 10000 4.63 210 16:40 15.08.2022
2199 Clear 28 1004 50 10000 4.63 210 16:40 15.08.2022
2200 Clouds 28 993 51 10000 4.12 210 16:20 15.08.2022
2201 Rain 28 1004 52 10000 2.57 150 13:55 15.08.2022
2202 Clear 29 996 51 10000 1.54 0 12:24 15.08.2022
2203 Clear 26 997 64 10000 1.03 0 09:57 15.08.2022
2204 Clear 21 998 83 10000 2.06 150 08:22 15.08.2022
2205 Clear 17 994 89 10000 1.03 160 04:55 15.08.2022
2206 Clear 19 998 88 10000 2.06 120 01:35 15.08.2022
2207 Clear 21 999 80 10000 1.54 130 22:39 14.08.2022
2208 Clear 22 999 75 10000 2.06 80 21:39 14.08.2022
2209 Clear 25 999 62 10000 4.12 50 20:21 14.08.2022
2210 Clear 27 996 56 10000 2.06 70 19:31 14.08.2022
2211 Clear 28 997 53 10000 2.57 100 18:19 14.08.2022
2212 Clear 29 1000 49 10000 4.63 30 16:55 14.08.2022
2213 Clear 29 998 51 10000 3.09 80 15:51 14.08.2022
2214 Clouds 29 999 49 10000 4.12 110 14:36 14.08.2022
2215 Clear 29 999 50 10000 6.17 90 13:50 14.08.2022
2216 Clouds 29 999 49 10000 6.69 70 13:22 14.08.2022
2217 Clouds 29 1003 50 10000 4.63 60 12:34 14.08.2022
2218 Clouds 29 1003 50 10000 4.63 60 12:34 14.08.2022
2219 Clear 26 1001 63 10000 1.54 60 11:18 14.08.2022
2220 Clear 21 1013 75 10000 1.03 0 08:53 14.08.2022
2221 Clear 16 1002 93 10000 0.51 0 06:23 14.08.2022
2222 Clear 17 1003 91 10000 1.03 60 03:48 14.08.2022
2223 Clear 19 1007 88 10000 0.51 80 00:39 14.08.2022
2224 Clouds 21 1005 79 10000 1.54 160 22:56 13.08.2022
2225 Clear 21 1005 78 10000 0.51 260 21:55 13.08.2022
2226 Clear 21 1008 77 10000 0.51 80 20:49 13.08.2022
2227 Clouds 23 1008 70 10000 2.57 60 19:46 13.08.2022
2228 Clouds 25 1016 64 10000 4.63 80 18:19 13.08.2022
2229 Clouds 25 1016 63 10000 3.6 50 16:23 13.08.2022
2230 Clouds 24 1009 66 10000 4.63 40 14:41 13.08.2022
2231 Clouds 24 1017 63 10000 4.63 30 13:48 13.08.2022
2232 Clouds 24 1009 65 10000 4.63 70 13:23 13.08.2022
2233 Clouds 20 1007 64 10000 1.03 0 10:44 13.08.2022
2234 Clouds 21 982 67 10000 2.54 55 09:22 13.08.2022
2235 Clear 16 999 76 10000 0.51 0 06:26 13.08.2022
2236 Clear 19 1001 60 10000 1.54 180 01:36 13.08.2022
2237 Clear 22 1001 50 10000 2.57 50 23:25 12.08.2022
2238 Clear 21 1011 53 10000 2.06 110 21:35 12.08.2022
2239 Clear 27 1018 36 10000 5.14 80 19:47 12.08.2022
2240 Clear 27 1018 38 10000 5.14 70 19:22 12.08.2022
2241 Clear 27 1018 36 10000 6.17 80 18:21 12.08.2022
2242 Clear 28 1019 35 10000 5.66 70 16:26 12.08.2022
2243 Clear 28 1019 38 10000 5.66 80 15:19 12.08.2022
2244 Clear 26 1009 44 10000 5.66 70 13:43 12.08.2022
2245 Clear 26 1013 42 10000 6.17 90 12:32 12.08.2022
2246 Clear 22 1013 47 10000 1.03 0 08:52 12.08.2022
2247 Clear 18 1011 58 10000 2.06 110 07:45 12.08.2022
2248 Clear 16 1003 68 10000 2.06 180 06:21 12.08.2022
2249 Clear 18 1010 58 10000 1.03 110 00:32 12.08.2022
2250 Clear 19 1010 56 10000 0.51 120 23:58 11.08.2022
2251 Clear 19 1010 55 10000 2.06 110 23:22 11.08.2022
2252 Clear 21 1013 45 10000 1.54 120 21:53 11.08.2022
2253 Clear 21 1013 46 10000 2.57 120 21:28 11.08.2022
2254 Clear 21 1013 46 10000 2.57 120 21:28 11.08.2022
2255 Clear 24 1013 39 10000 3.6 110 20:31 11.08.2022
2256 Clear 27 1021 31 10000 4.63 110 19:34 11.08.2022
2257 Clear 28 1009 33 10000 5.14 90 18:57 11.08.2022
2258 Clear 28 1021 30 10000 4.12 80 17:22 11.08.2022
2259 Clear 28 1021 29 10000 5.14 70 15:48 11.08.2022
2260 Clear 28 1022 29 10000 6.69 80 14:46 11.08.2022
2261 Clear 26 1012 41 10000 6.17 50 11:59 11.08.2022
2262 Clear 23 1024 48 10000 1.03 0 09:22 11.08.2022
2263 Clear 16 1005 70 10000 1.54 170 06:58 11.08.2022
2264 Clear 19 1005 59 10000 1.54 120 03:23 11.08.2022
2265 Clear 20 1005 57 10000 1.03 0 00:19 11.08.2022
2266 Clear 21 1013 55 10000 1.54 90 22:18 10.08.2022
2267 Clear 22 1013 50 10000 1.54 60 21:19 10.08.2022
2268 Clear 23 1015 46 10000 2.57 70 20:42 10.08.2022
2269 Clear 28 1012 33 10000 4.12 60 18:53 10.08.2022
2270 Clear 28 1016 32 10000 2.06 60 17:31 10.08.2022
2271 Clear 29 1025 31 10000 3.09 180 15:53 10.08.2022
2272 Clear 28 1017 34 10000 1.54 0 13:34 10.08.2022
2273 Clear 26 1026 43 10000 2.06 0 12:24 10.08.2022
2274 Clear 20 1008 58 10000 0.51 0 08:45 10.08.2022
2275 Clear 18 1015 63 10000 0.51 0 07:44 10.08.2022
2276 Clear 15 1007 70 10000 1.03 180 05:53 10.08.2022
2277 Clear 17 1008 63 10000 0.51 0 02:45 10.08.2022
2278 Clear 19 1018 57 10000 1.54 50 23:34 09.08.2022
2279 Clear 20 1018 54 10000 2.06 60 22:55 09.08.2022
2280 Clear 22 1017 47 10000 2.06 20 21:34 09.08.2022
2281 Clear 25 1025 36 10000 1.03 0 19:34 09.08.2022
2282 Clear 27 1014 36 10000 4.63 40 18:29 09.08.2022
2283 Clear 28 1014 34 10000 3.6 50 17:27 09.08.2022
2284 Clear 28 1025 32 10000 1.54 0 16:40 09.08.2022
2285 Clear 28 1025 32 10000 1.54 0 16:40 09.08.2022
2286 Clear 27 1025 33 10000 3.09 20 15:46 09.08.2022
2287 Clear 26 1026 37 10000 2.57 30 12:48 09.08.2022
2288 Clear 22 1018 48 10000 1.54 210 09:30 09.08.2022
2289 Clear 20 1008 55 10000 1.54 220 08:39 09.08.2022
2290 Clear 19 1015 56 10000 0.51 160 07:52 09.08.2022
2291 Clear 16 1006 63 10000 1.54 150 04:22 09.08.2022
2292 Clear 18 1017 57 10000 2.06 110 23:27 08.08.2022
2293 Clear 18 1016 55 10000 1.54 100 22:54 08.08.2022
2294 Clear 20 1013 54 10000 2.06 100 22:18 08.08.2022
2295 Clear 20 1016 48 10000 1.54 80 21:18 08.08.2022
2296 Clear 24 1015 38 10000 2.57 40 19:51 08.08.2022
2297 Clear 26 1012 36 10000 4.12 90 18:50 08.08.2022
2298 Clear 27 1023 32 10000 4.12 80 16:44 08.08.2022
2299 Clear 28 1012 32 10000 4.12 70 15:40 08.08.2022
2300 Clear 26 1012 34 10000 3.09 0 13:55 08.08.2022
2301 Clear 26 1012 35 10000 4.63 60 12:27 08.08.2022
2302 Clear 23 1012 47 10000 1.03 0 09:48 08.08.2022
2303 Clear 14 1005 70 10000 0.51 200 06:51 08.08.2022
2304 Clear 16 1004 58 10000 1.54 140 03:31 08.08.2022
2305 Clear 17 1014 52 10000 2.06 90 22:42 07.08.2022
2306 Clear 19 1014 49 10000 1.54 70 21:40 07.08.2022
2307 Clear 22 1013 39 10000 2.57 90 20:26 07.08.2022
2308 Clear 22 1013 39 10000 2.57 90 20:26 07.08.2022
2309 Clear 23 1010 38 10000 3.09 70 19:57 07.08.2022
2310 Clear 23 1021 37 10000 3.09 70 19:39 07.08.2022
2311 Clear 25 1021 32 10000 2.57 0 18:36 07.08.2022
2312 Clear 25 1022 31 10000 3.09 30 16:55 07.08.2022
2313 Clear 25 1022 30 10000 3.09 30 16:35 07.08.2022
2314 Clear 26 1011 33 10000 2.57 70 15:24 07.08.2022
2315 Clear 25 1012 34 10000 3.6 110 13:37 07.08.2022
2316 Clear 24 1016 34 10000 3.6 90 12:18 07.08.2022
2317 Clear 22 1025 44 10000 3.09 0 10:35 07.08.2022
2318 Clear 15 1007 66 10000 0.51 0 07:59 07.08.2022
2319 Clear 13 1014 66 10000 0.51 0 04:26 07.08.2022
2320 Clear 13 1018 66 10000 1.03 80 01:50 07.08.2022
2321 Clear 17 1017 48 10000 2.06 360 22:28 06.08.2022
2322 Clear 19 1016 48 10000 2.06 350 21:28 06.08.2022
2323 Clear 22 1024 38 10000 3.09 360 19:42 06.08.2022
2324 Clear 23 1024 36 10000 4.12 360 18:33 06.08.2022
2325 Clear 24 1013 35 10000 3.6 30 17:39 06.08.2022
2326 Clear 24 1013 40 10000 4.12 360 15:21 06.08.2022
2327 Clouds 23 1014 46 10000 4.63 340 13:50 06.08.2022
2328 Clouds 21 1017 49 10000 3.6 330 12:21 06.08.2022
2329 Clouds 19 1014 62 10000 3.09 0 10:37 06.08.2022
2330 Clouds 17 1017 67 10000 4.12 320 09:23 06.08.2022
2331 Clouds 16 1014 94 10000 2.06 270 03:56 06.08.2022
2332 Rain 19 1012 75 10000 4.63 300 00:27 06.08.2022
2333 Clouds 21 1010 79 10000 4.63 320 22:34 05.08.2022
2334 Clear 27 1008 56 10000 6.69 310 20:37 05.08.2022
2335 Clear 32 1013 35 10000 5.14 310 18:55 05.08.2022
2336 Clear 33 1012 31 10000 5.14 310 18:36 05.08.2022
2337 Clear 34 1002 38 10000 3.09 0 16:52 05.08.2022
2338 Clear 33 1002 40 10000 1.54 0 15:24 05.08.2022
2339 Clear 33 1002 42 10000 1.54 0 14:35 05.08.2022
2340 Clear 32 996 46 10000 2.57 0 13:36 05.08.2022
2341 Clear 31 1002 49 10000 3.6 310 13:18 05.08.2022
2342 Clear 28 1013 52 10000 3.6 280 11:29 05.08.2022
2343 Clear 28 1001 48 10000 2.06 210 08:57 05.08.2022
2344 Clear 25 994 54 10000 1.54 130 07:53 05.08.2022
2345 Clear 23 1012 57 10000 4.63 150 04:19 05.08.2022
2346 Clear 26 1005 49 10000 3.6 160 23:36 04.08.2022
2347 Clear 29 1004 39 10000 3.6 170 21:28 04.08.2022
2348 Clear 31 1004 35 10000 4.12 170 20:57 04.08.2022
2349 Clear 31 1005 34 10000 4.12 170 20:37 04.08.2022
2350 Clear 34 1012 28 10000 3.6 170 18:59 04.08.2022
2351 Clear 34 1012 30 10000 3.6 170 18:34 04.08.2022
2352 Clear 36 1002 29 10000 4.12 0 15:59 04.08.2022
2353 Clear 35 1003 31 10000 2.06 0 13:32 04.08.2022
2354 Clear 34 1003 36 10000 1.54 0 11:40 04.08.2022
2355 Clear 31 1015 42 10000 2.57 140 10:24 04.08.2022
2356 Clear 26 1004 47 10000 4.63 150 07:49 04.08.2022
2357 Clear 25 998 51 10000 3.6 160 03:29 04.08.2022
2358 Clear 24 1007 56 10000 3.6 160 00:52 04.08.2022
2359 Clear 25 1007 53 10000 3.09 150 23:41 03.08.2022
2360 Clear 27 1007 42 10000 1.54 120 21:34 03.08.2022
2361 Clear 29 1014 39 10000 2.57 360 20:21 03.08.2022
2362 Clear 29 1014 39 10000 2.57 360 20:21 03.08.2022
2363 Clear 33 1003 34 10000 2.06 0 19:27 03.08.2022
2364 Clear 34 1003 30 10000 1.54 0 17:20 03.08.2022
2365 Clear 33 1015 30 10000 2.06 0 16:23 03.08.2022
2366 Clear 33 1004 33 10000 3.58 217 14:23 03.08.2022
2367 Clear 31 1005 42 10000 1.34 215 11:47 03.08.2022
2368 Clear 23 1006 60 10000 2.06 160 07:55 03.08.2022
2369 Clear 18 1005 80 10000 1.03 180 04:46 03.08.2022
2370 Clear 19 1006 73 10000 1.03 0 03:27 03.08.2022
2371 Clear 20 1006 71 10000 0.51 0 01:18 03.08.2022
2372 Clear 22 1009 64 10000 0.51 0 22:59 02.08.2022
2373 Clear 23 1009 60 10000 1.03 20 21:53 02.08.2022
2374 Clear 25 1008 55 10000 1.54 330 20:58 02.08.2022
2375 Clear 28 1016 46 10000 3.09 310 18:52 02.08.2022
2376 Clear 30 1008 40 10000 3.09 0 16:24 02.08.2022
2377 Clouds 27 1007 52 10000 1.54 0 12:34 02.08.2022
2378 Clear 23 1008 68 10000 1.03 0 09:40 02.08.2022
2379 Clouds 18 1011 84 10000 1.03 0 07:56 02.08.2022
2380 Clear 16 1010 93 10000 2.06 230 06:43 02.08.2022
2381 Clouds 15 1010 91 10000 1.03 260 04:55 02.08.2022
2382 Clouds 18 1009 82 10000 0.51 30 23:52 01.08.2022
2383 Clouds 19 1009 77 10000 1.03 0 22:50 01.08.2022
2384 Clouds 23 1008 60 10000 3.09 360 20:53 01.08.2022
2385 Clouds 25 1007 56 10000 3.09 330 19:34 01.08.2022
2386 Clouds 25 1007 56 10000 3.6 340 18:42 01.08.2022
2387 Clouds 27 1015 53 10000 5.14 320 16:54 01.08.2022
2388 Clouds 26 1015 55 10000 5.66 320 16:28 01.08.2022
2389 Clouds 26 1006 59 10000 5.14 310 15:31 01.08.2022
2390 Clouds 24 1003 75 10000 3.6 340 14:43 01.08.2022
2391 Rain 24 1003 72 10000 4.63 290 12:52 01.08.2022
2392 Clouds 21 1006 87 10000 3.6 260 10:30 01.08.2022
2393 Clouds 21 1006 77 10000 4.12 290 08:41 01.08.2022
2394 Clouds 20 1005 69 10000 1.54 230 06:50 01.08.2022
2395 Clear 19 1005 72 10000 2.57 220 04:24 01.08.2022
2396 Rain 22 1006 60 10000 2.57 260 00:56 01.08.2022
2397 Clear 23 1006 58 10000 2.06 240 22:42 31.07.2022
2398 Rain 23 1006 53 10000 1.54 250 21:46 31.07.2022
2399 Clear 25 1005 46 10000 2.06 270 20:18 31.07.2022
2400 Clear 27 1014 39 10000 3.6 280 18:38 31.07.2022
2401 Clear 28 1003 42 10000 5.66 280 16:22 31.07.2022
2402 Clouds 27 1004 51 10000 5.14 300 13:59 31.07.2022
2403 Clouds 27 1008 49 10000 4.12 300 12:43 31.07.2022
2404 Clear 23 998 65 10000 4.63 300 10:22 31.07.2022
2405 Clear 19 1005 81 10000 3.6 270 08:19 31.07.2022
2406 Clear 14 1009 92 10000 2.06 240 04:46 31.07.2022
2407 Clear 16 1010 93 10000 1.54 250 00:56 31.07.2022
2408 Clear 17 1010 90 10000 1.54 280 22:20 30.07.2022
2409 Clear 18 1010 87 10000 1.54 270 21:50 30.07.2022
2410 Clear 18 1009 85 10000 2.06 300 21:24 30.07.2022
2411 Clear 20 1009 73 10000 2.06 40 20:24 30.07.2022
2412 Clear 21 1017 57 10000 3.09 50 19:27 30.07.2022
2413 Clouds 23 1017 46 10000 4.63 30 17:52 30.07.2022
2414 Clouds 22 1017 53 10000 4.63 30 16:37 30.07.2022
2415 Clouds 21 1016 64 10000 3.09 350 15:29 30.07.2022
2416 Clouds 19 997 84 10000 1.54 290 13:23 30.07.2022
2417 Clouds 18 1008 85 10000 1.34 237 12:22 30.07.2022
2418 Clouds 19 1007 81 10000 2.06 50 10:45 30.07.2022
2419 Clear 19 1007 83 10000 1.54 10 09:59 30.07.2022
2420 Clouds 18 1007 88 10000 2.06 340 08:54 30.07.2022
2421 Rain 18 1006 92 10000 1.54 260 06:58 30.07.2022
2422 Rain 20 1007 76 10000 2.06 280 02:33 30.07.2022
2423 Clear 21 1015 61 10000 3.09 90 23:57 29.07.2022
2424 Clear 24 1006 48 10000 2.06 90 21:37 29.07.2022
2425 Clear 25 1006 48 10000 2.57 90 20:50 29.07.2022
2426 Clear 26 1015 45 10000 2.06 100 19:45 29.07.2022
2427 Clear 29 1015 36 10000 3.6 110 17:25 29.07.2022
2428 Clear 29 1004 40 10000 5.14 90 14:48 29.07.2022
2429 Clear 28 1004 40 10000 3.6 130 12:42 29.07.2022
2430 Clear 19 1008 60 10000 1.54 110 08:52 29.07.2022
2431 Clear 19 1005 59 10000 0.51 0 08:24 29.07.2022
2432 Clear 16 998 66 10000 1.03 0 05:22 29.07.2022
2433 Clear 16 1010 59 10000 1.54 60 01:19 29.07.2022
2434 Clear 20 1009 42 10000 2.06 40 21:41 28.07.2022
2435 Clear 22 1017 35 10000 2.57 50 20:54 28.07.2022
2436 Clear 24 1008 34 10000 3.6 60 20:20 28.07.2022
2437 Clear 24 1016 34 10000 4.12 50 19:40 28.07.2022
2438 Clear 26 1016 31 10000 4.63 70 18:25 28.07.2022
2439 Clear 26 1017 30 10000 4.63 60 17:42 28.07.2022
2440 Clear 26 1017 30 10000 4.12 80 16:41 28.07.2022
2441 Clear 25 1018 32 10000 4.63 110 14:30 28.07.2022
2442 Clear 24 1007 37 10000 2.06 0 12:41 28.07.2022
2443 Clear 19 1008 54 10000 1.03 0 09:34 28.07.2022
2444 Clear 11 1000 75 10000 1.03 110 05:45 28.07.2022
2445 Clear 11 1000 78 10000 1.54 360 05:24 28.07.2022
2446 Clear 14 1007 62 10000 1.03 110 00:29 28.07.2022
2447 Clear 15 1010 58 10000 1.03 300 22:25 27.07.2022
2448 Clear 20 1009 44 10000 3.09 310 20:20 27.07.2022
2449 Clear 21 1006 44 10000 3.6 330 19:32 27.07.2022
2450 Clear 22 1006 46 10000 3.6 0 16:54 27.07.2022
2451 Clear 23 1009 43 10000 3.09 290 15:51 27.07.2022
2452 Clear 22 1006 47 10000 3.6 0 14:46 27.07.2022
2453 Clear 20 1018 48 10000 3.6 0 14:27 27.07.2022
2454 Clouds 20 1010 50 10000 2.57 320 12:48 27.07.2022
2455 Clouds 16 1009 67 10000 1.54 360 07:53 27.07.2022
2456 Clouds 16 1008 76 10000 2.57 10 06:18 27.07.2022
2457 Clear 19 1008 72 10000 1.54 330 00:46 27.07.2022
2458 Clear 19 1004 70 10000 1.03 310 22:25 26.07.2022
2459 Clear 21 1006 63 10000 2.57 320 21:20 26.07.2022
2460 Clear 22 1015 57 10000 3.6 330 19:59 26.07.2022
2461 Clear 24 1014 53 10000 4.63 330 18:41 26.07.2022
2462 Clear 25 1005 47 10000 5.66 290 17:57 26.07.2022
2463 Clear 26 1005 42 10000 5.14 310 15:50 26.07.2022
2464 Clear 26 1013 38 10000 4.63 280 14:57 26.07.2022
2465 Clouds 25 1002 46 10000 4.12 290 12:59 26.07.2022
2466 Clouds 23 1005 53 10000 5.14 260 10:59 26.07.2022
2467 Clear 22 1004 69 10000 4.12 250 08:46 26.07.2022
2468 Clouds 20 1004 81 10000 1.03 0 05:49 26.07.2022
2469 Clear 22 1009 83 10000 2.57 280 00:28 26.07.2022
2470 Clouds 24 1000 74 4400 1.54 260 22:53 25.07.2022
2471 Rain 26 1000 60 5000 1.03 0 22:22 25.07.2022
2472 Clouds 26 1008 53 4600 2.57 320 21:38 25.07.2022
2473 Clouds 29 1007 39 10000 6.17 310 20:40 25.07.2022
2474 Clear 33 1006 32 10000 5.14 140 19:33 25.07.2022
2475 Clear 34 999 29 10000 3.6 180 18:18 25.07.2022
2476 Clear 35 997 31 10000 5.14 210 17:27 25.07.2022
2477 Clear 34 999 31 10000 5.66 210 14:59 25.07.2022
2478 Clear 33 1001 34 10000 5.14 170 12:22 25.07.2022
2479 Clear 30 1001 43 10000 5.66 160 09:50 25.07.2022
2480 Clear 19 1007 64 10000 3.6 150 04:25 25.07.2022
2481 Clear 20 1017 56 10000 2.06 130 23:54 24.07.2022
2482 Clear 21 1009 53 10000 2.57 120 23:18 24.07.2022
2483 Clear 22 1009 49 10000 1.03 120 22:29 24.07.2022
2484 Clear 24 1009 44 10000 1.03 30 21:23 24.07.2022
2485 Clear 25 1017 40 10000 1.03 40 20:50 24.07.2022
2486 Clear 27 1017 33 10000 1.54 50 20:26 24.07.2022
2487 Clear 29 1017 31 10000 2.06 330 18:48 24.07.2022
2488 Clear 29 1018 32 10000 2.06 0 16:32 24.07.2022
2489 Clear 30 1007 34 10000 2.57 330 15:50 24.07.2022
2490 Clear 29 1008 36 10000 3.09 290 14:38 24.07.2022
2491 Clear 27 1009 41 10000 3.09 340 12:55 24.07.2022
2492 Clear 25 1020 44 10000 1.54 0 11:40 24.07.2022
2493 Clear 25 1009 45 10000 2.68 293 11:18 24.07.2022
2494 Clear 21 1009 61 10000 2.06 220 08:56 24.07.2022
2495 Clear 17 1009 75 10000 1.54 210 07:52 24.07.2022
2496 Clear 14 1013 87 10000 1.54 220 06:27 24.07.2022
2497 Clear 15 1012 84 10000 2.57 340 01:50 24.07.2022
2498 Clear 19 1011 76 10000 1.54 250 22:25 23.07.2022
2499 Clear 22 1010 63 10000 2.06 300 20:35 23.07.2022
2500 Clouds 24 1009 60 10000 2.57 340 18:51 23.07.2022
2501 Clouds 24 1009 60 10000 4.12 330 17:41 23.07.2022
2502 Clouds 24 1009 61 10000 3.6 320 17:23 23.07.2022
2503 Clouds 25 1009 62 10000 4.63 330 15:42 23.07.2022
2504 Clouds 23 1009 66 10000 4.63 320 14:59 23.07.2022
2505 Clouds 23 1009 66 10000 4.63 320 14:35 23.07.2022
2506 Clouds 25 1009 56 10000 4.12 320 13:50 23.07.2022
2507 Clear 23 1005 67 10000 1.54 0 11:19 23.07.2022
2508 Clear 22 1005 71 10000 3.09 10 10:23 23.07.2022
2509 Clouds 19 1008 83 10000 4.12 330 08:55 23.07.2022
2510 Clear 18 1007 88 10000 1.54 40 04:59 23.07.2022
2511 Clear 18 1008 83 10000 2.57 40 02:30 23.07.2022
2512 Clear 21 1009 70 10000 1.03 360 23:39 22.07.2022
2513 Clear 26 1008 53 10000 2.06 10 20:57 22.07.2022
2514 Clear 28 1016 45 10000 2.57 10 19:55 22.07.2022
2515 Clear 29 1016 44 10000 3.91 7 18:36 22.07.2022
2516 Clear 29 1016 42 10000 3.09 330 17:37 22.07.2022
2517 Clear 30 1006 45 10000 4.12 280 15:26 22.07.2022
2518 Clouds 27 1007 53 10000 4.12 300 12:33 22.07.2022
2519 Clouds 24 1008 64 10000 3.09 0 09:45 22.07.2022
2520 Clouds 23 1008 69 10000 2.57 300 09:19 22.07.2022
2521 Clear 19 1008 82 10000 1.54 210 07:23 22.07.2022
2522 Clear 17 1010 90 10000 2.06 230 04:18 22.07.2022
2523 Clear 22 1000 77 10000 2.57 230 23:27 21.07.2022
2524 Clear 22 1009 79 10000 3.09 180 21:37 21.07.2022
2525 Clear 25 1006 68 10000 3.09 180 19:35 21.07.2022
2526 Clouds 24 1007 74 10000 5.14 200 18:29 21.07.2022
2527 Rain 24 1019 69 10000 3.09 230 17:20 21.07.2022
2528 Rain 25 1001 66 10000 4.63 250 15:49 21.07.2022
2529 Rain 26 1011 57 10000 7.2 270 14:46 21.07.2022
2530 Rain 29 1018 44 10000 4.63 270 13:49 21.07.2022
2531 Clear 31 1007 44 10000 3.6 280 11:48 21.07.2022
2532 Clear 29 1001 47 10000 2.68 264 09:51 21.07.2022
2533 Clear 27 1007 52 10000 2.06 270 08:53 21.07.2022
2534 Clear 25 1006 57 10000 2.06 270 07:50 21.07.2022
2535 Clear 23 1009 60 10000 2.57 240 06:27 21.07.2022
2536 Clear 23 1015 58 10000 3.6 160 02:35 21.07.2022
2537 Clear 26 1008 48 10000 2.57 120 22:47 20.07.2022
2538 Clear 27 1008 47 10000 2.57 120 22:19 20.07.2022
2539 Clear 31 1015 33 10000 2.57 120 20:46 20.07.2022
2540 Clear 34 1005 31 10000 5.14 140 19:46 20.07.2022
2541 Clear 35 1005 29 10000 6.17 140 18:54 20.07.2022
2542 Clear 35 1005 27 10000 5.66 120 18:31 20.07.2022
2543 Clear 36 1005 27 10000 4.12 120 17:28 20.07.2022
2544 Clear 35 1007 26 10000 3.6 170 15:33 20.07.2022
2545 Clear 36 1007 26 10000 4.63 140 14:49 20.07.2022
2546 Clear 35 1007 26 10000 6.17 140 13:21 20.07.2022
2547 Clear 33 1007 33 10000 3.6 170 10:59 20.07.2022
2548 Clear 21 1013 55 10000 3.09 160 06:49 20.07.2022
2549 Clear 23 1010 51 10000 3.6 150 01:56 20.07.2022
2550 Clear 24 1008 45 10000 4.12 180 00:42 20.07.2022
2551 Clear 26 1010 43 10000 3.09 160 22:38 19.07.2022
2552 Clear 26 1010 42 10000 3.09 160 22:20 19.07.2022
2553 Clear 30 1018 36 10000 1.03 50 20:50 19.07.2022
2554 Clear 32 1017 30 10000 1.54 60 19:38 19.07.2022
2555 Clear 34 1017 25 10000 0.51 0 18:43 19.07.2022
2556 Clear 35 1018 23 10000 1.54 0 17:56 19.07.2022
2557 Clear 35 1018 22 10000 1.54 0 15:50 19.07.2022
2558 Clear 35 1003 26 10000 0.6 263 14:20 19.07.2022
2559 Clear 32 1020 28 10000 2.06 0 11:35 19.07.2022
2560 Clear 27 1020 44 10000 2.06 210 09:58 19.07.2022
2561 Clear 26 1009 44 10000 2.57 170 08:48 19.07.2022
2562 Clear 22 1021 53 10000 2.06 180 08:22 19.07.2022
2563 Clear 20 1021 55 10000 2.06 170 07:18 19.07.2022
2564 Clear 18 1002 62 10000 2.57 170 05:26 19.07.2022
2565 Clear 19 1002 60 10000 2.57 160 04:41 19.07.2022
2566 Clear 19 1013 55 10000 3.09 160 00:34 19.07.2022
2567 Clear 20 1013 54 10000 2.57 170 23:22 18.07.2022
2568 Clouds 21 1011 55 10000 2.43 174 22:56 18.07.2022
2569 Clear 22 1013 48 10000 1.03 130 21:53 18.07.2022
2570 Clear 24 1013 43 10000 1.03 0 20:50 18.07.2022
2571 Clear 28 1011 37 10000 1.03 0 19:25 18.07.2022
2572 Clear 29 1011 32 10000 2.57 290 17:22 18.07.2022
2573 Clear 29 1011 32 10000 2.57 350 15:46 18.07.2022
2574 Clear 28 1012 32 10000 3.09 330 14:24 18.07.2022
2575 Clear 28 1013 31 10000 2.57 0 12:45 18.07.2022
2576 Clear 26 1025 32 10000 2.57 0 11:29 18.07.2022
2577 Clear 20 1013 48 10000 2.06 210 08:51 18.07.2022
2578 Clear 16 1006 58 10000 1.54 210 07:28 18.07.2022
2579 Clear 15 1014 59 10000 2.06 210 00:42 18.07.2022
2580 Clear 17 1014 54 10000 0.51 130 22:37 17.07.2022
2581 Clear 18 1017 48 10000 1.03 10 21:57 17.07.2022
2582 Clear 19 1025 43 10000 1.54 350 21:21 17.07.2022
2583 Clear 21 1025 37 10000 1.54 340 20:44 17.07.2022
2584 Clear 23 1025 33 10000 3.09 300 19:32 17.07.2022
2585 Clear 24 1025 30 10000 3.6 360 18:30 17.07.2022
2586 Clear 25 1025 31 10000 3.09 0 17:38 17.07.2022
2587 Clear 25 1014 32 10000 3.09 330 16:51 17.07.2022
2588 Clear 25 1014 34 10000 2.57 0 16:26 17.07.2022
2589 Clear 24 1014 38 10000 3.09 0 14:58 17.07.2022
2590 Clear 22 1015 43 10000 3.6 0 13:32 17.07.2022
2591 Clear 21 1015 49 10000 3.09 280 11:50 17.07.2022
2592 Clear 18 1015 58 10000 2.57 320 09:30 17.07.2022
2593 Clear 9 1018 81 10000 2.57 240 05:54 17.07.2022
2594 Clear 12 1014 66 10000 2.06 280 02:33 17.07.2022
2595 Clear 14 1015 56 10000 1.54 320 23:21 16.07.2022
2596 Clear 17 1023 46 10000 2.57 320 21:47 16.07.2022
2597 Clear 22 1009 39 10000 5.66 320 19:53 16.07.2022
2598 Clear 22 1009 42 10000 7.2 330 18:41 16.07.2022
2599 Clouds 23 1011 45 10000 7.72 320 17:19 16.07.2022
2600 Clouds 22 1007 50 10000 6.69 270 15:23 16.07.2022
2601 Clouds 19 1011 61 10000 5.14 270 11:54 16.07.2022
2602 Clouds 18 1011 57 10000 3.09 280 09:37 16.07.2022
2603 Clouds 20 1010 51 10000 3.6 240 08:48 16.07.2022
2604 Clear 19 1010 54 10000 4.63 220 08:29 16.07.2022
2605 Clear 13 1012 72 10000 3.09 230 04:28 16.07.2022
2606 Clear 13 1012 70 10000 2.57 230 03:29 16.07.2022
2607 Clear 14 1012 62 10000 2.06 250 23:38 15.07.2022
2608 Clear 15 1012 59 10000 1.54 270 22:43 15.07.2022
2609 Clear 18 1012 48 10000 2.57 330 21:29 15.07.2022
2610 Clear 19 1011 46 10000 3.09 330 20:31 15.07.2022
2611 Clear 21 1011 41 10000 4.12 330 18:44 15.07.2022
2612 Clear 23 1011 39 10000 4.12 320 17:48 15.07.2022
2613 Clear 22 1012 42 10000 4.63 300 15:41 15.07.2022
2614 Clear 20 1012 48 10000 5.66 300 13:22 15.07.2022
2615 Clouds 19 1012 52 10000 5.14 300 11:48 15.07.2022
2616 Clouds 19 1009 55 10000 5.14 310 10:42 15.07.2022
2617 Clouds 15 1008 73 10000 4.92 228 07:47 15.07.2022
2618 Clear 15 1010 64 10000 3.09 310 02:39 15.07.2022
2619 Clear 17 1018 58 10000 3.09 320 00:38 15.07.2022
2620 Clear 19 1008 50 10000 4.12 340 22:54 14.07.2022
2621 Clear 20 1007 65 10000 3.09 320 21:57 14.07.2022
2622 Clear 20 1007 71 10000 2.57 250 21:33 14.07.2022
2623 Clear 21 1006 72 10000 2.06 250 20:57 14.07.2022
2624 Clear 21 1006 72 10000 2.06 250 20:37 14.07.2022
2625 Clear 21 1006 70 10000 2.06 250 20:18 14.07.2022
2626 Clouds 23 1006 62 10000 1.03 0 17:25 14.07.2022
2627 Rain 24 1007 55 10000 2.57 310 16:18 14.07.2022
2628 Rain 26 1007 50 10000 2.06 330 14:44 14.07.2022
2629 Clouds 26 1005 53 10000 2.57 0 13:39 14.07.2022
2630 Clear 24 1006 58 10000 2.57 300 12:34 14.07.2022
2631 Rain 23 1006 62 10000 1.54 0 11:26 14.07.2022
2632 Clear 22 1009 59 10000 2.57 350 10:51 14.07.2022
2633 Clear 21 1010 65 10000 2.57 330 08:45 14.07.2022
2634 Clear 20 1018 66 10000 2.57 330 04:18 14.07.2022
2635 Clear 24 1009 47 10000 3.09 270 01:18 14.07.2022
2636 Clear 24 1008 50 10000 3.09 260 00:50 14.07.2022
2637 Clear 26 1017 41 10000 4.12 260 22:30 13.07.2022
2638 Clear 27 1016 39 10000 4.63 270 21:38 13.07.2022
2639 Clear 28 1016 36 10000 2.57 250 20:38 13.07.2022
2640 Clear 30 1008 30 10000 4.12 280 18:36 13.07.2022
2641 Clear 30 1006 31 10000 4.12 280 17:31 13.07.2022
2642 Clear 30 1018 29 10000 4.12 280 17:31 13.07.2022
2643 Clear 30 1006 31 10000 4.12 280 17:31 13.07.2022
2644 Clear 29 1010 30 10000 5.66 290 16:19 13.07.2022
2645 Clear 29 1018 35 10000 4.12 290 14:46 13.07.2022
2646 Clear 29 1018 34 10000 4.12 290 14:46 13.07.2022
2647 Clear 28 1008 39 10000 3.6 270 11:54 13.07.2022
2648 Clear 24 1009 50 10000 3.09 230 10:45 13.07.2022
2649 Clear 23 1009 52 10000 2.57 230 09:54 13.07.2022
2650 Clear 22 1010 57 10000 2.06 230 09:20 13.07.2022
2651 Clear 15 1013 80 10000 2.06 230 05:22 13.07.2022
2652 Clear 17 1010 63 10000 2.06 270 01:22 13.07.2022
2653 Clear 19 1014 58 10000 2.06 250 23:35 12.07.2022
2654 Clear 21 1013 50 10000 2.06 270 21:53 12.07.2022
2655 Clear 23 1021 46 10000 2.06 300 20:58 12.07.2022
2656 Clear 24 1022 41 10000 2.06 300 20:37 12.07.2022
2657 Clear 26 1010 38 10000 3.6 350 18:56 12.07.2022
2658 Clear 26 1010 36 10000 4.63 340 17:38 12.07.2022
2659 Clear 26 1011 36 10000 4.12 310 15:43 12.07.2022
2660 Clear 25 1014 36 10000 4.63 340 14:23 12.07.2022
2661 Clear 24 1012 45 10000 3.09 0 12:29 12.07.2022
2662 Clouds 22 1011 51 10000 3.6 310 11:22 12.07.2022
2663 Clear 20 1012 67 10000 3.09 310 09:38 12.07.2022
2664 Clouds 18 1015 77 10000 3.6 270 08:19 12.07.2022
2665 Clear 12 1015 88 10000 2.06 230 06:29 12.07.2022
2666 Clear 13 1014 88 10000 2.06 240 05:39 12.07.2022
2667 Clear 13 1010 70 10000 1.54 250 02:21 12.07.2022
2668 Clear 16 1010 57 10000 2.06 280 23:28 11.07.2022
2669 Clear 17 1009 55 10000 1.54 290 22:30 11.07.2022
2670 Clear 21 1012 42 10000 2.06 330 20:41 11.07.2022
2671 Clear 22 1020 42 10000 1.54 350 19:36 11.07.2022
2672 Clear 22 1009 42 10000 2.57 330 18:32 11.07.2022
2673 Clear 22 1009 41 10000 4.12 270 17:49 11.07.2022
2674 Clear 23 1009 41 10000 2.57 0 16:20 11.07.2022
2675 Clear 23 1012 41 10000 4.12 300 14:49 11.07.2022
2676 Clouds 19 1009 54 10000 3.6 260 11:59 11.07.2022
2677 Clouds 18 1013 57 10000 3.6 280 10:37 11.07.2022
2678 Clouds 17 1013 63 10000 3.09 310 09:49 11.07.2022
2679 Clouds 16 1009 72 10000 3.6 310 08:35 11.07.2022
2680 Clear 14 1009 79 10000 4.12 300 07:24 11.07.2022
2681 Clear 16 1012 66 10000 3.6 290 00:47 11.07.2022
2682 Clear 16 1021 59 10000 3.6 300 23:48 10.07.2022
2683 Clear 17 1020 66 10000 2.06 270 22:26 10.07.2022
2684 Clear 17 1011 59 10000 2.57 290 20:55 10.07.2022
2685 Clear 18 1011 54 10000 3.6 300 19:59 10.07.2022
2686 Clear 19 1011 52 10000 4.12 300 19:21 10.07.2022
2687 Clouds 19 1011 52 10000 4.12 300 17:51 10.07.2022
2688 Clouds 18 1012 54 10000 4.63 310 16:59 10.07.2022
2689 Clouds 18 1012 54 10000 4.12 310 16:20 10.07.2022
2690 Clouds 16 1012 59 10000 6.69 300 14:43 10.07.2022
2691 Clouds 17 1012 59 10000 6.17 300 13:18 10.07.2022
2692 Clouds 16 1008 69 10000 4.12 300 11:36 10.07.2022
2693 Clouds 14 1012 76 10000 5.14 280 09:44 10.07.2022
2694 Clouds 14 1012 78 10000 5.14 290 08:43 10.07.2022
2695 Clear 13 1011 76 10000 3.6 290 06:36 10.07.2022
2696 Rain 17 1012 79 10000 2.57 300 23:47 09.07.2022
2697 Clouds 17 1020 74 10000 2.57 350 22:26 09.07.2022
2698 Clouds 18 1020 72 10000 4.12 260 21:41 09.07.2022
2699 Clear 20 1011 62 10000 4.12 250 19:44 09.07.2022
2700 Clear 20 1011 62 10000 4.12 250 19:44 09.07.2022
2701 Clouds 21 1012 62 10000 4.63 260 18:26 09.07.2022
2702 Clouds 21 1012 62 10000 4.63 260 18:26 09.07.2022
2703 Clouds 21 1013 62 10000 3.6 290 17:27 09.07.2022
2704 Clouds 21 1009 62 10000 4.63 300 16:34 09.07.2022
2705 Clouds 20 1014 63 10000 4.63 330 15:39 09.07.2022
2706 Rain 20 1011 66 10000 4.63 300 14:23 09.07.2022
2707 Clouds 21 1015 66 10000 4.63 300 13:48 09.07.2022
2708 Clouds 19 1015 71 10000 3.09 310 12:22 09.07.2022
2709 Rain 18 1016 75 10000 4.63 310 10:27 09.07.2022
2710 Clouds 17 1016 80 10000 4.12 310 09:57 09.07.2022
2711 Clouds 16 1016 84 10000 3.09 270 07:44 09.07.2022
2712 Clouds 14 1016 92 10000 2.06 250 04:49 09.07.2022
2713 Clear 15 1018 85 10000 2.06 250 00:38 09.07.2022
2714 Clear 16 1018 80 10000 1.54 250 22:41 08.07.2022
2715 Clouds 18 1018 69 10000 3.09 300 21:27 08.07.2022
2716 Clouds 19 1018 63 10000 3.6 310 20:40 08.07.2022
2717 Clouds 19 1018 60 10000 4.12 310 19:48 08.07.2022
2718 Clouds 19 1018 60 10000 4.12 310 19:48 08.07.2022
2719 Clouds 20 1018 52 10000 6.17 310 17:57 08.07.2022
2720 Clouds 21 1014 58 10000 5.66 290 16:37 08.07.2022
2721 Clouds 17 1019 70 10000 4.12 300 14:51 08.07.2022
2722 Clouds 17 1019 71 10000 3.6 300 13:24 08.07.2022
2723 Clouds 17 1019 71 10000 3.6 300 13:24 08.07.2022
2724 Clouds 17 1019 78 10000 3.6 290 11:25 08.07.2022
2725 Clouds 15 1018 85 10000 4.12 310 10:26 08.07.2022
2726 Clouds 14 1017 90 10000 3.09 290 08:26 08.07.2022
2727 Clouds 14 1016 90 10000 4.02 285 06:47 08.07.2022
2728 Clouds 14 1014 87 10000 3.6 290 01:19 08.07.2022
2729 Rain 15 1012 94 10000 7.2 310 22:57 07.07.2022
2730 Rain 16 1011 94 10000 5.14 300 22:27 07.07.2022
2731 Clouds 18 1010 86 10000 4.12 270 19:53 07.07.2022
2732 Clouds 20 1009 71 10000 3.6 270 18:20 07.07.2022
2733 Clouds 19 1009 77 10000 4.63 250 16:46 07.07.2022
2734 Clouds 17 999 87 10000 4.12 260 14:32 07.07.2022
2735 Drizzle 16 1009 86 10000 4.63 220 13:18 07.07.2022
2736 Drizzle 16 1009 86 10000 4.12 250 12:24 07.07.2022
2737 Drizzle 16 1009 86 10000 4.12 250 12:24 07.07.2022
2738 Drizzle 17 1009 81 10000 4.63 230 11:44 07.07.2022
2739 Clouds 17 1009 82 10000 4.12 230 11:24 07.07.2022
2740 Rain 15 1009 88 10000 3.6 230 10:40 07.07.2022
2741 Rain 15 1010 90 10000 4.12 230 10:22 07.07.2022
2742 Rain 12 1011 89 10000 3.6 260 06:40 07.07.2022
2743 Clear 14 1012 67 10000 2.06 260 01:43 07.07.2022
2744 Clouds 16 1022 58 10000 1.52 218 23:36 06.07.2022
2745 Clear 17 1013 55 10000 1.03 300 23:18 06.07.2022
2746 Clear 17 1021 53 10000 1.03 300 22:52 06.07.2022
2747 Clear 17 1009 55 10000 1.03 300 22:52 06.07.2022
2748 Clear 17 1022 52 10000 1.03 300 22:34 06.07.2022
2749 Clear 20 1012 45 10000 4.63 340 20:33 06.07.2022
2750 Clear 21 1020 42 10000 4.63 340 19:34 06.07.2022
2751 Clear 23 1012 40 10000 5.14 320 17:22 06.07.2022
2752 Clear 22 1021 44 10000 3.6 310 15:59 06.07.2022
2753 Clouds 22 1013 48 10000 3.6 290 13:56 06.07.2022
2754 Clouds 20 1010 55 10000 4.63 280 12:31 06.07.2022
2755 Clouds 20 1014 53 10000 3.6 300 11:45 06.07.2022
2756 Clouds 18 1010 69 10000 3.09 330 10:18 06.07.2022
2757 Clear 15 1009 91 10000 2.57 300 07:44 06.07.2022
2758 Clear 15 1009 91 10000 2.57 300 07:44 06.07.2022
2759 Clear 15 1013 90 10000 3.09 280 07:20 06.07.2022
2760 Rain 16 1013 86 7000 6.17 310 01:42 06.07.2022
2761 Clear 21 1011 54 10000 2.06 350 22:45 05.07.2022
2762 Clear 22 1010 48 10000 2.06 350 21:32 05.07.2022
2763 Clear 22 1010 48 10000 2.06 350 21:32 05.07.2022
2764 Clear 24 1019 38 10000 3.6 360 20:38 05.07.2022
2765 Clear 25 1019 41 10000 3.09 360 19:41 05.07.2022
2766 Clear 26 1007 37 10000 2.06 330 19:21 05.07.2022
2767 Clear 27 1018 34 10000 3.6 300 17:46 05.07.2022
2768 Clear 26 1018 34 10000 3.09 360 16:39 05.07.2022
2769 Clear 27 1007 36 10000 4.63 350 15:24 05.07.2022
2770 Clear 26 1008 37 10000 3.6 310 13:47 05.07.2022
2771 Clear 27 1008 38 10000 3.6 340 12:42 05.07.2022
2772 Clear 25 1001 42 10000 3.09 0 11:24 05.07.2022
2773 Clear 24 1019 44 10000 3.09 340 10:31 05.07.2022
2774 Clear 20 1008 66 10000 1.03 0 08:25 05.07.2022
2775 Clear 17 1008 73 10000 1.54 300 07:31 05.07.2022
2776 Clear 16 1010 77 10000 1.03 0 04:47 05.07.2022
2777 Clear 16 1010 76 10000 1.54 300 04:20 05.07.2022
2778 Clear 20 1010 58 10000 1.54 50 23:45 04.07.2022
2779 Clear 20 1010 53 10000 2.06 30 23:25 04.07.2022
2780 Clear 21 1010 55 10000 2.57 10 22:21 04.07.2022
2781 Clear 24 1009 47 10000 2.06 360 21:20 04.07.2022
2782 Clear 24 1009 48 10000 2.57 360 20:52 04.07.2022
2783 Clear 25 1009 47 10000 2.57 360 20:33 04.07.2022
2784 Clear 26 1009 41 10000 2.57 350 19:51 04.07.2022
2785 Clear 26 1017 38 10000 2.57 350 19:33 04.07.2022
2786 Clear 27 1005 42 10000 5.14 340 17:57 04.07.2022
2787 Clear 28 1006 45 10000 4.63 350 15:50 04.07.2022
2788 Clear 27 1017 47 10000 3.09 310 14:54 04.07.2022
2789 Clouds 27 1006 49 10000 2.06 0 13:29 04.07.2022
2790 Clear 26 1007 53 10000 2.57 320 12:20 04.07.2022
2791 Clear 24 1007 58 10000 3.6 330 10:34 04.07.2022
2792 Clear 23 1018 61 10000 2.57 300 09:40 04.07.2022
2793 Clear 19 1010 74 10000 3.6 280 07:21 04.07.2022
2794 Clear 20 1007 65 10000 3.58 275 03:36 04.07.2022
2795 Clear 21 1007 70 10000 4.63 160 00:35 04.07.2022
2796 Clear 23 1007 61 10000 3.09 160 22:58 03.07.2022
2797 Clear 27 1015 47 10000 1.03 0 20:58 03.07.2022
2798 Clear 28 1004 46 10000 1.54 360 20:26 03.07.2022
2799 Clear 29 1015 42 10000 1.03 0 19:27 03.07.2022
2800 Clear 29 1015 39 10000 2.06 310 18:35 03.07.2022
2801 Clear 30 1015 36 10000 3.09 310 17:43 03.07.2022
2802 Clear 28 1016 39 10000 4.63 220 15:51 03.07.2022
2803 Clear 29 1005 42 10000 3.09 250 14:59 03.07.2022
2804 Clear 29 1006 41 10000 2.68 166 14:18 03.07.2022
2805 Clear 29 1006 42 10000 2.57 250 13:48 03.07.2022
2806 Clear 28 1006 44 10000 3.09 170 12:33 03.07.2022
2807 Clear 27 1007 47 10000 2.57 170 11:20 03.07.2022
2808 Clear 26 1007 50 10000 3.6 180 10:38 03.07.2022
2809 Clear 24 1007 56 10000 4.63 160 09:31 03.07.2022
2810 Clear 18 1007 73 10000 4.63 140 07:35 03.07.2022
2811 Clear 15 1013 79 10000 2.57 160 02:49 03.07.2022
2812 Clear 16 1013 73 10000 2.57 130 00:21 03.07.2022
2813 Clear 18 1013 65 10000 2.57 110 22:33 02.07.2022
2814 Clear 22 1010 50 10000 2.06 130 20:58 02.07.2022
2815 Clear 24 1021 42 10000 3.09 120 19:52 02.07.2022
2816 Clear 25 1010 40 10000 2.57 140 19:20 02.07.2022
2817 Clear 26 1022 36 10000 1.54 0 17:41 02.07.2022
2818 Clear 25 1023 37 10000 2.06 0 16:53 02.07.2022
2819 Clear 25 1012 43 10000 3.09 230 14:40 02.07.2022
2820 Clear 23 1013 49 10000 1.79 71 12:21 02.07.2022
2821 Clouds 23 1013 52 10000 2.57 0 11:27 02.07.2022
2822 Clouds 22 1013 57 10000 1.03 0 10:43 02.07.2022
2823 Clear 20 1013 71 10000 1.54 260 09:25 02.07.2022
2824 Clear 18 1013 79 10000 2.57 220 08:20 02.07.2022
2825 Clear 16 1013 85 10000 2.57 210 07:48 02.07.2022
2826 Clear 12 1015 94 10000 1.54 240 02:50 02.07.2022
2827 Clear 14 1014 93 10000 2.57 250 00:26 02.07.2022
2828 Clouds 15 1014 93 10000 2.06 250 22:58 01.07.2022
2829 Clouds 16 1013 91 10000 2.57 280 21:49 01.07.2022
2830 Rain 16 1013 91 10000 3.09 270 21:29 01.07.2022
2831 Rain 16 1012 90 10000 3.6 260 20:56 01.07.2022
2832 Clouds 16 1011 89 10000 2.57 290 19:47 01.07.2022
2833 Clouds 16 1011 92 10000 4.12 290 17:58 01.07.2022
2834 Clouds 17 1009 90 10000 5.14 270 16:24 01.07.2022
2835 Rain 19 1008 86 10000 5.14 300 13:55 01.07.2022
2836 Rain 20 1007 78 10000 5.14 280 12:59 01.07.2022
2837 Clouds 22 1014 77 10000 6.69 260 10:46 01.07.2022
2838 Clouds 22 1006 79 10000 6.17 270 10:18 01.07.2022
2839 Clear 18 1011 94 10000 1.54 220 05:27 01.07.2022
2840 Clear 20 1003 89 10000 1.54 150 01:27 01.07.2022
2841 Clear 22 1003 85 10000 2.06 130 23:28 30.06.2022
2842 Clear 23 1004 80 10000 2.57 110 22:45 30.06.2022
2843 Clear 23 1004 79 10000 2.06 120 22:27 30.06.2022
2844 Clear 24 1003 75 10000 2.06 130 21:50 30.06.2022
2845 Clear 27 1003 63 10000 3.6 140 20:31 30.06.2022
2846 Clear 28 1000 62 10000 3.6 120 19:55 30.06.2022
2847 Clear 28 999 59 10000 3.6 120 19:35 30.06.2022
2848 Clear 29 1000 56 10000 4.12 110 18:43 30.06.2022
2849 Clouds 29 1000 58 10000 3.6 110 17:49 30.06.2022
2850 Clouds 29 1001 61 10000 3.6 150 16:55 30.06.2022
2851 Clouds 29 1001 62 10000 3.6 150 15:52 30.06.2022
2852 Clouds 27 1001 69 10000 2.57 120 13:51 30.06.2022
2853 Clouds 27 1001 69 10000 1.54 0 13:18 30.06.2022
2854 Clouds 26 1001 73 10000 1.03 0 12:32 30.06.2022
2855 Clouds 24 1005 77 10000 1.03 0 10:19 30.06.2022
2856 Clouds 23 1005 83 8000 1.54 300 09:40 30.06.2022
2857 Clouds 21 1002 90 6000 2.06 230 08:26 30.06.2022
2858 Rain 20 1005 93 10000 1.54 240 07:40 30.06.2022
2859 Clouds 19 1005 96 10000 1.03 0 03:53 30.06.2022
2860 Clouds 19 1014 95 10000 2.57 40 23:39 29.06.2022
2861 Clouds 20 1005 93 10000 2.57 70 22:41 29.06.2022
2862 Clouds 20 1005 93 10000 2.57 40 22:19 29.06.2022
2863 Clouds 21 1006 94 10000 3.09 50 20:35 29.06.2022
2864 Clouds 21 1006 93 10000 4.12 60 19:56 29.06.2022
2865 Clouds 21 1006 93 10000 4.12 70 18:46 29.06.2022
2866 Rain 21 1006 88 10000 3.6 70 17:38 29.06.2022
2867 Clouds 21 997 93 7000 5.66 50 16:24 29.06.2022
2868 Clouds 23 1005 79 10000 6.17 70 13:45 29.06.2022
2869 Clouds 23 1005 80 10000 3.6 40 12:38 29.06.2022
2870 Clouds 20 1008 87 10000 4.12 80 10:18 29.06.2022
2871 Clouds 19 1008 88 10000 5.14 90 09:27 29.06.2022
2872 Clouds 19 1009 91 10000 5.66 80 06:32 29.06.2022
2873 Rain 19 1006 85 10000 3.09 80 04:44 29.06.2022
2874 Clear 19 1010 76 10000 2.06 60 00:54 29.06.2022
2875 Clear 19 1010 77 10000 2.06 60 00:35 29.06.2022
2876 Clear 20 1011 75 10000 2.06 110 22:52 28.06.2022
2877 Clear 20 1011 71 10000 2.57 120 22:18 28.06.2022
2878 Clear 21 1011 67 10000 2.57 100 21:49 28.06.2022
2879 Clear 22 1011 64 10000 2.06 110 21:29 28.06.2022
2880 Clear 24 1018 53 10000 2.06 220 19:56 28.06.2022
2881 Clear 25 1019 52 10000 1.54 0 19:31 28.06.2022
2882 Clear 25 1019 48 10000 2.06 300 18:40 28.06.2022
2883 Clear 25 1019 49 10000 1.54 0 17:36 28.06.2022
2884 Clouds 25 1009 54 10000 2.06 350 15:55 28.06.2022
2885 Clouds 24 1010 59 10000 2.57 0 14:54 28.06.2022
2886 Clouds 25 1010 57 10000 2.57 310 14:19 28.06.2022
2887 Clouds 24 1010 63 10000 3.09 290 13:45 28.06.2022
2888 Clouds 22 1010 71 10000 2.06 0 12:47 28.06.2022
2889 Clouds 20 1014 83 10000 3.09 320 10:44 28.06.2022
2890 Clouds 19 1012 88 10000 4.63 290 08:56 28.06.2022
2891 Clouds 19 1012 89 10000 4.63 290 08:38 28.06.2022
2892 Clouds 17 1011 96 7000 3.6 280 07:20 28.06.2022
2893 Rain 18 1012 95 8000 2.06 320 04:56 28.06.2022
2894 Clear 23 1010 68 10000 3.09 290 23:56 27.06.2022
2895 Clear 23 1017 63 10000 2.57 300 23:28 27.06.2022
2896 Clear 24 1016 60 10000 3.09 280 22:42 27.06.2022
2897 Clear 27 1015 57 10000 3.6 280 21:30 27.06.2022
2898 Clear 28 1014 57 10000 2.06 240 20:38 27.06.2022
2899 Rain 27 1005 67 10000 3.6 230 18:55 27.06.2022
2900 Rain 29 1013 54 10000 4.63 260 17:45 27.06.2022
2901 Rain 32 1004 42 10000 5.14 180 16:18 27.06.2022
2902 Clear 34 1002 38 10000 5.14 150 14:44 27.06.2022
2903 Clear 34 1002 39 10000 6.17 160 13:24 27.06.2022
2904 Clear 33 1002 40 10000 5.66 150 12:49 27.06.2022
2905 Clear 30 1013 46 10000 5.14 160 10:22 27.06.2022
2906 Clear 27 1002 62 10000 2.57 120 08:47 27.06.2022
2907 Clear 24 1002 68 10000 3.09 140 07:59 27.06.2022
2908 Clear 21 1006 76 10000 3.6 160 06:38 27.06.2022
2909 Clear 21 1005 78 10000 3.09 170 02:23 27.06.2022
2910 Clear 22 1006 71 10000 2.57 160 23:49 26.06.2022
2911 Clear 25 1006 63 10000 1.54 120 21:58 26.06.2022
2912 Clear 27 1014 59 10000 1.54 130 20:34 26.06.2022
2913 Clear 29 1013 48 10000 2.57 120 19:27 26.06.2022
2914 Clear 30 1014 45 10000 3.09 160 18:28 26.06.2022
2915 Clouds 30 1006 49 10000 4.12 130 16:21 26.06.2022
2916 Clear 30 1003 47 10000 1.34 156 14:34 26.06.2022
2917 Clear 30 1003 51 10000 2.57 0 13:30 26.06.2022
2918 Clear 30 1004 49 10000 2.06 270 12:52 26.06.2022
2919 Clouds 28 1014 54 10000 1.54 0 11:21 26.06.2022
2920 Clear 27 1015 57 10000 1.03 0 10:23 26.06.2022
2921 Clear 24 1004 75 10000 2.06 170 08:46 26.06.2022
2922 Clear 21 1006 88 10000 2.06 180 07:23 26.06.2022
2923 Clear 19 1013 92 10000 1.54 130 00:48 26.06.2022
2924 Clear 19 1013 91 10000 1.54 130 00:20 26.06.2022
2925 Clear 19 1013 90 10000 2.06 140 23:33 25.06.2022
2926 Clear 20 1013 89 10000 2.57 160 22:55 25.06.2022
2927 Clear 21 1013 85 10000 2.06 170 22:27 25.06.2022
2928 Clear 22 1013 80 10000 1.54 160 21:37 25.06.2022
2929 Clear 22 1013 78 10000 1.54 120 21:18 25.06.2022
2930 Clouds 23 1013 73 10000 1.03 0 20:25 25.06.2022
2931 Clouds 24 1012 62 10000 0.51 0 19:19 25.06.2022
2932 Clouds 25 1012 67 10000 3.6 210 17:53 25.06.2022
2933 Clouds 26 1012 61 10000 1.03 0 17:19 25.06.2022
2934 Clouds 25 1012 66 10000 2.57 310 14:59 25.06.2022
2935 Clouds 23 1013 70 10000 3.09 310 12:57 25.06.2022
2936 Rain 23 1013 69 10000 3.09 310 12:37 25.06.2022
2937 Clouds 22 1012 76 10000 3.6 290 10:32 25.06.2022
2938 Clouds 20 1012 83 10000 2.57 270 08:57 25.06.2022
2939 Clouds 20 1012 86 10000 2.57 270 08:35 25.06.2022
2940 Rain 19 1012 90 10000 2.06 260 07:45 25.06.2022
2941 Rain 18 1001 92 10000 1.54 190 03:30 25.06.2022
2942 Clear 18 1001 92 10000 4.12 170 00:33 25.06.2022
2943 Clear 19 1001 91 10000 3.6 150 22:53 24.06.2022
2944 Clear 20 1000 89 10000 4.12 150 21:34 24.06.2022
2945 Clear 21 1000 85 10000 3.09 140 20:44 24.06.2022
2946 Clear 22 1000 80 10000 4.12 150 20:18 24.06.2022
2947 Clear 22 1000 84 10000 1.54 0 19:20 24.06.2022
2948 Clear 21 1000 91 10000 4.63 150 18:48 24.06.2022
2949 Clouds 21 1000 92 10000 3.6 150 18:30 24.06.2022
2950 Rain 21 1009 77 10000 5.66 200 17:19 24.06.2022
2951 Rain 28 1008 43 10000 4.12 190 15:29 24.06.2022
2952 Clear 29 997 44 10000 6.17 180 14:26 24.06.2022
2953 Rain 29 1000 42 10000 5.66 160 13:54 24.06.2022
2954 Clear 30 998 39 10000 6.17 130 11:43 24.06.2022
2955 Clear 29 998 39 10000 5.66 140 10:47 24.06.2022
2956 Clear 27 999 44 10000 5.14 140 09:49 24.06.2022
2957 Clear 26 1010 45 10000 5.66 140 09:27 24.06.2022
2958 Clear 25 999 49 10000 6.17 150 08:51 24.06.2022
2959 Clear 20 1003 62 10000 3.6 150 06:48 24.06.2022
2960 Clear 19 1003 64 10000 2.57 150 06:30 24.06.2022
2961 Clear 18 1004 68 10000 3.09 140 05:52 24.06.2022
2962 Clear 20 1012 55 10000 3.6 170 01:21 24.06.2022
2963 Clear 22 1012 48 10000 2.57 110 22:44 23.06.2022
2964 Clear 24 1012 38 10000 3.09 100 21:52 23.06.2022
2965 Clear 27 1012 40 10000 4.12 80 20:54 23.06.2022
2966 Clear 28 1011 33 10000 4.12 80 20:32 23.06.2022
2967 Clear 31 1011 25 10000 4.12 80 18:44 23.06.2022
2968 Clear 31 1011 26 10000 4.12 90 17:45 23.06.2022
2969 Clear 32 1012 21 10000 3.09 0 16:36 23.06.2022
2970 Clear 32 1002 24 10000 3.6 90 15:29 23.06.2022
2971 Clear 31 1013 25 10000 4.12 90 14:59 23.06.2022
2972 Clear 30 1003 33 10000 1.54 0 12:43 23.06.2022
2973 Clear 28 1014 37 10000 3.09 60 11:20 23.06.2022
2974 Clear 24 1004 51 10000 1.03 0 09:30 23.06.2022
2975 Clouds 19 996 64 10000 1.54 220 07:51 23.06.2022
2976 Clear 17 1001 67 10000 0.51 360 02:19 23.06.2022
2977 Clear 19 1004 57 10000 1.03 30 00:25 23.06.2022
2978 Clear 20 1004 52 10000 1.54 30 23:27 22.06.2022
2979 Clear 22 1003 51 10000 3.09 20 22:24 22.06.2022
2980 Clear 25 999 47 10000 1.54 330 20:57 22.06.2022
2981 Clear 26 1010 41 10000 1.54 300 20:21 22.06.2022
2982 Clear 27 1010 33 10000 1.54 300 19:50 22.06.2022
2983 Clear 28 1010 34 10000 3.09 330 18:21 22.06.2022
2984 Clear 28 1010 33 10000 3.09 260 17:24 22.06.2022
2985 Clear 28 1010 33 10000 1.54 0 16:18 22.06.2022
2986 Clear 28 1011 34 10000 2.57 0 15:25 22.06.2022
2987 Clear 28 1000 37 10000 1.54 0 14:18 22.06.2022
2988 Clear 27 1012 34 10000 1.54 0 13:37 22.06.2022
2989 Clear 27 1012 34 10000 3.6 0 13:18 22.06.2022
2990 Clear 26 1001 41 10000 3.6 50 11:48 22.06.2022
2991 Clear 24 1012 45 10000 2.06 170 10:54 22.06.2022
2992 Clear 22 1001 53 10000 3.09 170 09:54 22.06.2022
2993 Clear 18 1004 63 10000 2.57 150 07:58 22.06.2022
2994 Clear 14 1013 74 10000 1.54 80 03:40 22.06.2022
2995 Clear 13 1006 75 10000 1.03 150 01:23 22.06.2022
2996 Clear 15 1013 68 10000 1.03 0 23:42 21.06.2022
2997 Clear 17 1014 59 10000 0.51 0 21:49 21.06.2022
2998 Clear 22 1013 45 10000 2.06 290 19:50 21.06.2022
2999 Clear 22 1013 44 10000 1.54 0 18:35 21.06.2022
3000 Clear 22 1014 42 10000 2.06 0 17:31 21.06.2022
3001 Clouds 21 1004 50 10000 4.12 290 13:45 21.06.2022
3002 Clouds 19 1004 59 10000 4.63 270 11:37 21.06.2022
3003 Clouds 16 1008 67 10000 4.12 310 09:54 21.06.2022
3004 Clouds 15 1004 77 10000 4.63 290 08:47 21.06.2022
3005 Clouds 11 1007 87 10000 4.12 270 06:36 21.06.2022
3006 Clouds 12 1006 84 10000 3.09 250 01:31 21.06.2022
3007 Clear 12 1006 90 10000 3.6 240 23:24 20.06.2022
3008 Clear 13 1005 88 10000 2.24 224 21:54 20.06.2022
3009 Clear 14 1005 82 10000 2.57 270 20:50 20.06.2022
3010 Clouds 14 1002 79 10000 3.6 270 19:40 20.06.2022
3011 Clouds 13 1005 87 10000 4.12 290 18:46 20.06.2022
3012 Clouds 13 1005 91 10000 4.92 302 18:00 20.06.2022
3013 Clouds 13 1004 93 10000 4.63 280 17:35 20.06.2022
3014 Rain 15 1005 93 6000 4.12 340 15:57 20.06.2022
3015 Clouds 20 1010 67 10000 5.66 340 12:56 20.06.2022
3016 Clouds 21 1009 67 10000 1.54 0 11:18 20.06.2022
3017 Clouds 19 998 76 10000 4.12 10 09:47 20.06.2022
3018 Clouds 20 1009 71 10000 6.17 320 08:44 20.06.2022
3019 Clear 19 1001 78 10000 2.57 20 06:37 20.06.2022
3020 Clouds 19 1003 74 10000 4.63 10 03:20 20.06.2022
3021 Clear 22 1011 62 10000 4.63 40 00:37 20.06.2022
3022 Clear 24 1010 56 10000 2.57 320 23:24 19.06.2022
3023 Clear 27 1010 47 10000 4.12 330 22:18 19.06.2022
3024 Clear 28 1008 44 10000 5.66 360 21:41 19.06.2022
3025 Clear 30 1008 42 10000 6.17 350 20:46 19.06.2022
3026 Clear 33 1006 37 10000 4.63 330 19:48 19.06.2022
3027 Clear 34 995 41 10000 4.63 320 19:23 19.06.2022
3028 Clear 36 1004 31 10000 3.6 270 18:31 19.06.2022
3029 Clear 37 1004 28 10000 5.66 290 17:39 19.06.2022
3030 Clear 38 1004 25 10000 5.66 280 16:38 19.06.2022
3031 Clear 38 1005 24 10000 6.17 190 15:44 19.06.2022
3032 Clear 37 1005 24 10000 7.2 180 15:26 19.06.2022
3033 Clear 37 995 28 10000 9.77 190 14:30 19.06.2022
3034 Clear 36 995 28 10000 8.75 180 13:43 19.06.2022
3035 Clear 34 997 36 10000 8.75 170 11:53 19.06.2022
3036 Clear 33 997 36 10000 8.75 180 10:52 19.06.2022
3037 Clear 26 1009 56 10000 5.66 150 08:55 19.06.2022
3038 Clear 26 998 56 10000 6.17 160 08:30 19.06.2022
3039 Clear 22 1002 64 10000 4.63 150 06:48 19.06.2022
3040 Clear 22 1001 64 10000 3.09 160 03:38 19.06.2022
3041 Clear 24 1002 57 10000 1.54 180 00:28 19.06.2022
3042 Clear 23 1005 58 10000 2.57 190 23:59 18.06.2022
3043 Clear 24 1005 56 10000 2.57 190 23:34 18.06.2022
3044 Clear 26 1006 52 10000 2.06 200 22:23 18.06.2022
3045 Clear 28 1014 45 10000 1.54 290 20:51 18.06.2022
3046 Clear 31 1006 36 10000 2.06 270 20:18 18.06.2022
3047 Clear 33 1003 35 10000 5.14 300 18:57 18.06.2022
3048 Clear 33 1003 34 10000 5.14 300 18:38 18.06.2022
3049 Clear 34 1014 29 10000 4.63 270 17:29 18.06.2022
3050 Clear 34 1015 28 10000 4.63 250 15:57 18.06.2022
3051 Clear 34 1004 30 10000 5.14 250 14:58 18.06.2022
3052 Clear 34 1016 29 10000 5.14 250 14:37 18.06.2022
3053 Clear 32 1017 30 10000 4.63 270 12:31 18.06.2022
3054 Clear 30 1018 32 10000 5.66 240 11:25 18.06.2022
3055 Clear 29 1007 37 10000 4.63 230 09:46 18.06.2022
3056 Clear 25 1008 46 10000 4.63 200 08:59 18.06.2022
3057 Clear 22 1001 52 10000 4.12 190 07:34 18.06.2022
3058 Clear 22 1001 52 10000 4.12 190 07:34 18.06.2022
3059 Clear 19 1001 60 10000 2.06 170 05:58 18.06.2022
3060 Clear 17 1013 66 10000 3.6 180 02:51 18.06.2022
3061 Clear 19 1014 61 10000 3.09 180 01:21 18.06.2022
3062 Clear 20 1014 59 10000 2.57 180 00:39 18.06.2022
3063 Clear 21 1014 53 10000 2.06 210 23:40 17.06.2022
3064 Clear 21 1014 49 10000 1.54 230 22:49 17.06.2022
3065 Clear 24 1014 41 10000 2.06 270 20:33 17.06.2022
3066 Clear 25 1011 41 10000 2.06 260 19:24 17.06.2022
3067 Clear 25 1022 37 10000 3.09 300 18:24 17.06.2022
3068 Clear 26 1022 36 10000 2.06 0 17:22 17.06.2022
3069 Clear 25 1023 38 10000 3.6 310 16:38 17.06.2022
3070 Clear 25 1023 39 10000 3.09 260 15:41 17.06.2022
3071 Clear 25 1023 40 10000 2.57 230 14:37 17.06.2022
3072 Clear 25 1024 42 10000 2.57 0 14:18 17.06.2022
3073 Clear 25 1013 45 10000 3.09 0 13:41 17.06.2022
3074 Clouds 24 1013 47 10000 3.6 250 12:42 17.06.2022
3075 Clouds 23 1013 50 10000 3.09 300 11:56 17.06.2022
3076 Clouds 22 1013 49 10000 3.09 300 11:35 17.06.2022
3077 Clear 21 1013 52 10000 1.54 330 09:59 17.06.2022
3078 Clear 18 1012 62 10000 1.54 310 08:27 17.06.2022
3079 Clear 14 1015 70 10000 1.54 270 06:57 17.06.2022
3080 Clear 13 1015 74 10000 1.54 310 04:52 17.06.2022
3081 Clear 16 1014 66 10000 1.54 340 02:41 17.06.2022
3082 Clear 16 1014 65 10000 2.06 350 00:33 17.06.2022
3083 Clear 19 1014 52 10000 3.09 360 22:44 16.06.2022
3084 Clear 22 1011 46 10000 4.12 360 21:26 16.06.2022
3085 Clear 23 1011 44 10000 5.66 350 20:59 16.06.2022
3086 Clear 23 1019 40 10000 5.66 350 20:36 16.06.2022
3087 Clear 25 1018 41 10000 5.66 340 19:55 16.06.2022
3088 Clear 26 1006 41 10000 6.17 330 18:28 16.06.2022
3089 Clear 27 1009 40 10000 4.12 330 17:43 16.06.2022
3090 Clear 27 1006 44 10000 4.63 300 16:40 16.06.2022
3091 Clear 26 1006 45 10000 4.12 330 15:24 16.06.2022
3092 Clear 25 1006 50 10000 4.12 310 14:46 16.06.2022
3093 Clear 24 1006 53 10000 3.09 330 13:45 16.06.2022
3094 Rain 23 1018 54 10000 3.6 340 12:37 16.06.2022
3095 Clear 23 1018 60 10000 3.09 310 11:53 16.06.2022
3096 Clear 22 1017 60 10000 1.54 310 11:18 16.06.2022
3097 Clouds 21 1017 65 10000 1.54 20 10:33 16.06.2022
3098 Clouds 20 1008 69 10000 2.57 260 09:25 16.06.2022
3099 Rain 20 1008 66 10000 2.06 220 08:46 16.06.2022
3100 Clear 18 1016 71 10000 1.03 0 07:29 16.06.2022
3101 Clear 17 996 73 10000 1.03 150 05:42 16.06.2022
3102 Clear 16 1004 72 10000 2.06 150 02:54 16.06.2022
3103 Clear 17 1004 68 10000 1.03 0 01:51 16.06.2022
3104 Clear 17 1008 70 10000 2.06 210 01:21 16.06.2022
3105 Clear 17 1008 70 10000 2.06 210 01:21 16.06.2022
3106 Clear 18 1008 65 10000 1.03 170 23:56 15.06.2022
3107 Clear 18 1008 65 10000 1.03 170 23:56 15.06.2022
3108 Clear 19 1017 58 10000 1.03 0 22:45 15.06.2022
3109 Clear 22 1008 50 10000 1.03 280 21:29 15.06.2022
3110 Clear 24 1016 43 10000 1.54 320 20:57 15.06.2022
3111 Clear 25 1016 36 10000 1.54 320 20:35 15.06.2022
3112 Clear 26 1016 39 10000 3.09 330 19:49 15.06.2022
3113 Clear 28 1016 35 10000 3.09 330 18:30 15.06.2022
3114 Clear 28 1016 33 10000 2.57 340 17:42 15.06.2022
3115 Clear 28 1006 35 10000 3.09 310 16:21 15.06.2022
3116 Clear 27 1018 35 10000 1.54 0 14:37 15.06.2022
3117 Clear 27 1007 38 10000 1.54 0 13:20 15.06.2022
3118 Clear 26 1007 39 10000 2.06 0 12:39 15.06.2022
3119 Clear 24 1019 40 10000 2.06 0 11:24 15.06.2022
3120 Clear 23 1020 47 10000 1.54 70 10:21 15.06.2022
3121 Clear 18 1020 59 10000 1.54 150 08:59 15.06.2022
3122 Clear 15 1001 70 10000 0.51 0 07:32 15.06.2022
3123 Clear 12 1001 77 10000 1.03 0 05:36 15.06.2022
3124 Clear 12 1009 77 10000 2.06 170 02:47 15.06.2022
3125 Clear 11 1013 78 10000 1.54 120 01:36 15.06.2022
3126 Clear 13 1013 73 10000 1.03 0 00:19 15.06.2022
3127 Clear 13 1013 72 10000 0.51 0 23:38 14.06.2022
3128 Clear 14 1013 67 10000 0.51 0 22:47 14.06.2022
3129 Clear 16 1021 58 10000 1.54 240 21:43 14.06.2022
3130 Clear 17 1021 52 10000 1.54 240 21:20 14.06.2022
3131 Clear 19 1021 47 10000 2.06 250 20:40 14.06.2022
3132 Clear 20 1020 46 10000 3.09 270 19:47 14.06.2022
3133 Clear 21 1021 44 10000 3.09 0 18:40 14.06.2022
3134 Clear 21 1021 43 10000 3.6 300 17:19 14.06.2022
3135 Clear 22 1010 45 10000 3.6 320 16:42 14.06.2022
3136 Clear 22 1010 45 10000 4.63 290 15:43 14.06.2022
3137 Clear 21 1010 47 10000 4.12 310 14:56 14.06.2022
3138 Clouds 19 1022 44 10000 5.14 320 14:18 14.06.2022
3139 Clouds 20 1014 48 10000 4.63 280 13:28 14.06.2022
3140 Clouds 18 1011 56 10000 4.12 300 12:19 14.06.2022
3141 Clouds 17 1011 59 10000 3.6 300 10:55 14.06.2022
3142 Clouds 17 1015 56 10000 3.6 280 10:29 14.06.2022
3143 Clouds 15 1011 67 10000 2.57 260 09:26 14.06.2022
3144 Clouds 14 1011 70 10000 2.57 300 08:40 14.06.2022
3145 Clouds 12 1015 78 10000 2.06 290 06:53 14.06.2022
3146 Clear 11 1014 80 10000 2.06 290 04:27 14.06.2022
3147 Clear 13 1013 74 10000 1.54 260 01:50 14.06.2022
3148 Clouds 14 1013 73 10000 2.06 290 00:27 14.06.2022
3149 Clear 15 1013 66 10000 1.79 302 23:18 13.06.2022
3150 Clear 15 1013 64 10000 2.06 260 22:24 13.06.2022
3151 Clear 15 1013 67 10000 3.09 270 21:41 13.06.2022
3152 Clear 17 1008 71 10000 3.09 310 19:59 13.06.2022
3153 Clouds 18 1011 71 10000 2.57 330 19:25 13.06.2022
3154 Clouds 20 1019 48 10000 7.72 330 17:57 13.06.2022
3155 Clouds 20 1018 51 10000 7.72 330 17:35 13.06.2022
3156 Clear 21 1018 45 10000 5.66 290 16:32 13.06.2022
3157 Rain 20 1010 48 10000 8.75 300 14:53 13.06.2022
3158 Rain 20 1009 49 10000 8.75 300 14:33 13.06.2022
3159 Clouds 20 1006 54 10000 5.66 330 13:39 13.06.2022
3160 Clouds 20 1018 57 10000 4.63 320 12:25 13.06.2022
3161 Clouds 19 1006 66 10000 3.09 340 11:18 13.06.2022
3162 Clouds 19 1009 64 10000 4.12 340 10:26 13.06.2022
3163 Clouds 18 1017 63 10000 3.6 330 09:23 13.06.2022
3164 Clouds 16 1005 71 10000 3.6 330 07:34 13.06.2022
3165 Clear 16 1008 68 10000 3.6 310 05:39 13.06.2022
3166 Clear 16 1008 72 10000 1.54 300 02:47 13.06.2022
3167 Clear 18 1008 66 10000 2.06 330 01:37 13.06.2022
3168 Clear 18 1008 69 10000 2.57 330 00:18 13.06.2022
3169 Clear 19 1008 67 10000 2.06 300 23:24 12.06.2022
3170 Clear 20 1008 64 10000 1.54 270 22:22 12.06.2022
3171 Clear 22 1008 57 10000 1.03 300 21:22 12.06.2022
3172 Clear 25 1016 49 10000 3.09 300 20:29 12.06.2022
3173 Clear 26 1017 42 10000 3.6 320 19:30 12.06.2022
3174 Clear 28 1006 42 10000 5.14 270 17:53 12.06.2022
3175 Clear 28 1007 49 10000 5.66 310 16:24 12.06.2022
3176 Clear 29 1007 48 10000 5.66 290 14:58 12.06.2022
3177 Clear 28 1007 48 10000 6.17 310 14:23 12.06.2022
3178 Clear 29 1007 45 10000 5.14 300 13:55 12.06.2022
3179 Clear 28 1008 43 10000 4.63 260 12:43 12.06.2022
3180 Clear 28 1008 48 10000 3.6 270 11:40 12.06.2022
3181 Clouds 26 1009 55 10000 4.12 210 10:38 12.06.2022
3182 Clear 23 1012 64 10000 3.09 180 09:25 12.06.2022
3183 Clear 21 1010 68 10000 3.09 190 08:46 12.06.2022
3184 Clear 19 1002 73 10000 3.09 160 07:38 12.06.2022
3185 Clear 16 1002 83 10000 2.57 180 05:29 12.06.2022
3186 Clear 16 1003 79 10000 2.57 210 03:29 12.06.2022
3187 Clear 16 1014 82 10000 1.03 200 01:43 12.06.2022
3188 Clear 16 1014 80 10000 1.54 240 00:58 12.06.2022
3189 Clear 17 1014 75 10000 1.54 280 00:25 12.06.2022
3190 Clear 18 1014 72 10000 1.54 260 23:47 11.06.2022
3191 Clear 18 1014 72 10000 1.54 260 23:47 11.06.2022
3192 Clear 19 1013 67 10000 1.54 280 22:39 11.06.2022
3193 Clear 20 1013 65 10000 1.03 280 22:18 11.06.2022
3194 Clear 23 1022 50 10000 3.09 300 20:50 11.06.2022
3195 Clear 24 1021 50 10000 3.09 300 20:21 11.06.2022
3196 Clear 26 1021 42 10000 3.6 270 19:26 11.06.2022
3197 Clear 26 1021 38 10000 3.09 280 18:36 11.06.2022
3198 Clear 26 1021 36 10000 3.6 300 17:52 11.06.2022
3199 Clear 26 1022 34 10000 4.12 260 17:29 11.06.2022
3200 Clear 26 1022 41 10000 4.12 310 16:58 11.06.2022
3201 Clear 27 1010 44 10000 4.63 300 16:30 11.06.2022
3202 Clear 27 1010 43 10000 3.6 270 15:45 11.06.2022
3203 Clear 26 1010 43 10000 3.6 270 13:54 11.06.2022
3204 Clear 27 1013 40 10000 2.57 0 13:24 11.06.2022
3205 Clear 26 1014 41 10000 2.06 0 10:58 11.06.2022
3206 Clouds 24 1004 51 10000 2.57 300 10:20 11.06.2022
3207 Clouds 22 1022 57 10000 2.06 240 09:29 11.06.2022
3208 Clear 17 1011 72 10000 3.09 200 07:52 11.06.2022
3209 Clear 15 1003 81 10000 1.03 0 06:31 11.06.2022
3210 Clear 14 1003 83 10000 3.09 200 05:21 11.06.2022
3211 Clear 15 1003 80 10000 2.57 200 01:53 11.06.2022
3212 Clear 15 1003 80 10000 2.57 200 01:53 11.06.2022
3213 Clear 14 1010 82 10000 2.57 200 01:34 11.06.2022
3214 Clear 15 1010 78 10000 1.54 200 00:34 11.06.2022
3215 Clear 17 1022 68 10000 1.03 190 22:35 10.06.2022
3216 Clear 18 1022 64 10000 1.03 290 21:54 10.06.2022
3217 Clear 21 1022 60 10000 2.06 310 20:43 10.06.2022
3218 Clear 22 1021 52 10000 2.57 320 20:23 10.06.2022
3219 Clear 23 1021 45 10000 3.6 330 19:48 10.06.2022
3220 Clear 23 1021 46 10000 3.09 350 19:18 10.06.2022
3221 Clear 24 1021 44 10000 3.6 320 18:20 10.06.2022
3222 Clear 24 1021 44 10000 3.09 340 17:36 10.06.2022
3223 Clear 23 1022 50 10000 4.63 330 16:58 10.06.2022
3224 Clouds 23 1022 50 10000 4.12 300 15:50 10.06.2022
3225 Clouds 22 1023 49 10000 2.57 0 15:30 10.06.2022
3226 Clouds 23 1022 52 10000 3.09 280 13:52 10.06.2022
3227 Clouds 22 1011 59 10000 4.12 290 12:41 10.06.2022
3228 Clouds 22 1011 62 10000 3.09 290 11:40 10.06.2022
3229 Clouds 20 1011 66 10000 3.6 320 10:44 10.06.2022
3230 Clouds 20 1014 64 10000 3.09 350 09:44 10.06.2022
3231 Clouds 17 1003 75 10000 3.09 310 08:30 10.06.2022
3232 Clouds 15 1010 84 10000 2.06 280 07:20 10.06.2022
3233 Clouds 15 1013 86 10000 1.54 270 06:43 10.06.2022
3234 Clouds 14 1013 88 10000 2.57 290 06:24 10.06.2022
3235 Clouds 15 1020 82 10000 3.09 300 03:52 10.06.2022
3236 Clouds 15 1018 81 10000 2.57 280 01:41 10.06.2022
3237 Clear 15 1018 87 10000 1.54 250 00:28 10.06.2022
3238 Clear 16 1009 87 10000 2.06 260 23:29 09.06.2022
3239 Clear 17 1008 84 10000 2.06 260 22:18 09.06.2022
3240 Clear 17 1008 83 10000 1.54 260 21:33 09.06.2022
3241 Clear 17 1008 83 10000 1.54 240 20:54 09.06.2022
3242 Clouds 18 1007 79 10000 1.54 300 19:59 09.06.2022
3243 Clouds 18 1006 78 10000 2.57 310 19:19 09.06.2022
3244 Clouds 18 1003 76 10000 2.06 290 18:21 09.06.2022
3245 Clouds 20 1005 70 10000 3.6 290 16:51 09.06.2022
3246 Clouds 19 1005 75 10000 3.09 300 15:48 09.06.2022
3247 Clouds 19 1005 75 10000 3.09 300 15:48 09.06.2022
3248 Clouds 18 1005 83 10000 3.09 310 14:35 09.06.2022
3249 Clouds 17 1004 89 10000 2.57 270 13:54 09.06.2022
3250 Clouds 16 1004 93 10000 3.6 270 13:28 09.06.2022
3251 Rain 16 1004 86 10000 3.6 280 11:54 09.06.2022
3252 Clouds 16 1003 87 10000 3.6 290 11:18 09.06.2022
3253 Clouds 17 1002 81 10000 3.6 270 09:44 09.06.2022
3254 Clouds 17 1002 82 10000 3.09 260 09:23 09.06.2022
3255 Clouds 16 1001 81 10000 3.6 290 07:45 09.06.2022
3256 Clear 16 1001 82 10000 2.06 280 06:33 09.06.2022
3257 Clear 17 1007 79 10000 2.06 270 02:52 09.06.2022
3258 Clear 19 999 70 10000 2.06 230 23:39 08.06.2022
3259 Clouds 20 999 68 10000 3.09 160 22:58 08.06.2022
3260 Clouds 19 1007 69 10000 1.54 150 22:27 08.06.2022
3261 Clouds 19 1007 69 10000 2.57 170 21:55 08.06.2022
3262 Clouds 21 999 65 10000 2.06 170 21:21 08.06.2022
3263 Clear 23 1007 60 10000 2.57 150 20:21 08.06.2022
3264 Clear 24 1007 49 10000 2.57 200 19:38 08.06.2022
3265 Clouds 24 1007 54 10000 1.54 300 18:45 08.06.2022
3266 Clouds 24 1007 53 10000 1.03 0 17:18 08.06.2022
3267 Clouds 24 997 55 10000 3.09 240 15:48 08.06.2022
3268 Clouds 25 998 54 10000 2.06 280 13:52 08.06.2022
3269 Clouds 23 999 58 10000 2.57 260 12:20 08.06.2022
3270 Rain 23 1002 58 10000 2.06 0 11:33 08.06.2022
3271 Clouds 23 999 61 10000 3.09 230 10:20 08.06.2022
3272 Clouds 21 999 68 10000 2.57 250 09:22 08.06.2022
3273 Clear 20 999 69 10000 2.57 230 08:40 08.06.2022
3274 Clear 13 1000 89 10000 2.57 200 05:55 08.06.2022
3275 Clear 14 1004 92 10000 2.57 200 03:58 08.06.2022
3276 Clear 15 1004 92 10000 3.09 180 00:45 08.06.2022
3277 Clear 16 1005 90 10000 3.09 160 23:29 07.06.2022
3278 Clear 16 1005 89 10000 3.09 160 22:45 07.06.2022
3279 Clear 17 1005 89 10000 3.6 160 22:26 07.06.2022
3280 Clear 18 1013 84 10000 3.6 170 21:35 07.06.2022
3281 Clear 19 1004 73 10000 2.06 230 20:59 07.06.2022
3282 Clear 20 1012 68 10000 2.06 230 20:33 07.06.2022
3283 Clear 21 1012 63 10000 2.06 260 19:45 07.06.2022
3284 Clouds 22 1013 57 10000 3.09 250 18:24 07.06.2022
3285 Clouds 21 1012 65 10000 1.03 0 17:27 07.06.2022
3286 Clouds 20 1013 66 10000 0.51 0 16:43 07.06.2022
3287 Clouds 20 1005 62 10000 2.06 0 15:56 07.06.2022
3288 Clouds 21 1005 60 10000 2.57 300 15:26 07.06.2022
3289 Clouds 21 1002 66 10000 2.06 0 14:52 07.06.2022
3290 Clouds 21 1002 66 10000 2.06 0 14:32 07.06.2022
3291 Clouds 20 1002 68 10000 3.09 250 13:32 07.06.2022
3292 Clouds 20 1005 66 10000 3.09 270 12:52 07.06.2022
3293 Clouds 20 1014 72 10000 3.09 310 11:48 07.06.2022
3294 Clouds 19 1014 75 10000 1.03 0 10:27 07.06.2022
3295 Rain 19 1006 77 10000 2.06 260 08:51 07.06.2022
3296 Clouds 17 1006 81 10000 2.57 210 07:35 07.06.2022
3297 Clear 16 1006 87 10000 1.03 0 06:38 07.06.2022
3298 Clear 16 1006 87 10000 1.03 0 06:38 07.06.2022
3299 Clear 16 1005 88 10000 1.54 190 04:20 07.06.2022
3300 Clear 16 1007 88 10000 1.54 90 01:27 07.06.2022
3301 Clear 18 1006 81 10000 1.03 70 23:52 06.06.2022
3302 Clear 18 1006 79 10000 2.06 200 22:54 06.06.2022
3303 Clear 18 1007 75 10000 2.06 180 22:29 06.06.2022
3304 Clouds 19 1007 71 10000 1.54 220 20:43 06.06.2022
3305 Clouds 21 1007 66 10000 5.66 310 19:24 06.06.2022
3306 Clouds 21 1007 66 10000 6.17 280 18:48 06.06.2022
3307 Clouds 22 1006 60 10000 2.06 270 18:21 06.06.2022
3308 Clear 25 1003 51 10000 3.6 310 17:24 06.06.2022
3309 Clear 25 1014 46 10000 2.06 0 16:18 06.06.2022
3310 Clouds 25 1014 53 10000 3.6 280 14:59 06.06.2022
3311 Clouds 25 1015 52 10000 3.09 300 14:29 06.06.2022
3312 Clouds 24 1016 55 10000 3.6 280 13:21 06.06.2022
3313 Clouds 24 1004 58 10000 4.63 270 12:35 06.06.2022
3314 Clouds 23 1004 63 10000 3.09 260 11:50 06.06.2022
3315 Clouds 22 1004 70 10000 4.12 280 10:21 06.06.2022
3316 Clouds 20 1004 78 10000 4.12 280 09:24 06.06.2022
3317 Clouds 20 1004 84 10000 4.02 230 08:31 06.06.2022
3318 Clouds 18 1007 95 10000 1.54 240 07:28 06.06.2022
3319 Rain 18 1006 91 10000 4.63 260 05:18 06.06.2022
3320 Clear 20 1014 69 10000 3.6 210 02:42 06.06.2022
3321 Clear 21 1005 64 10000 2.57 160 00:57 06.06.2022
3322 Clear 21 1005 64 10000 2.57 160 00:37 06.06.2022
3323 Clear 22 1005 61 10000 3.09 130 23:28 05.06.2022
3324 Clear 22 1005 61 10000 2.57 110 22:33 05.06.2022
3325 Clear 24 1014 62 10000 3.6 90 20:46 05.06.2022
3326 Rain 25 1014 56 10000 5.14 90 19:38 05.06.2022
3327 Clear 27 1002 48 10000 4.63 120 18:26 05.06.2022
3328 Clear 28 1003 45 10000 5.14 100 17:51 05.06.2022
3329 Clear 27 1003 42 10000 5.66 170 17:24 05.06.2022
3330 Clear 27 1003 42 10000 5.14 130 16:49 05.06.2022
3331 Clear 28 1003 41 10000 3.09 140 16:30 05.06.2022
3332 Clear 28 1005 45 10000 5.14 140 14:24 05.06.2022
3333 Clouds 27 1006 51 10000 4.12 150 12:49 05.06.2022
3334 Clouds 26 1006 54 10000 4.63 130 11:43 05.06.2022
3335 Clouds 24 1007 62 10000 5.14 140 10:33 05.06.2022
3336 Clear 23 1007 65 10000 3.09 110 09:59 05.06.2022
3337 Clear 19 1008 77 10000 1.54 130 08:32 05.06.2022
3338 Clear 18 1008 80 10000 2.57 100 07:43 05.06.2022
3339 Fog 12 1012 96 10000 0.51 0 05:22 05.06.2022
3340 Clear 13 1012 95 10000 1.03 120 03:46 05.06.2022
3341 Clear 14 1012 93 10000 0.51 0 01:32 05.06.2022
3342 Clear 14 1012 91 10000 1.03 200 00:33 05.06.2022
3343 Clear 17 1012 87 10000 0 0 22:22 04.06.2022
3344 Clear 20 1020 70 10000 1.54 360 20:31 04.06.2022
3345 Clear 22 1011 66 10000 1.54 50 18:45 04.06.2022
3346 Clear 22 1019 67 10000 3.09 360 16:44 04.06.2022
3347 Clouds 22 1011 66 10000 3.09 10 16:18 04.06.2022
3348 Clouds 21 1019 73 10000 2.06 360 14:53 04.06.2022
3349 Clouds 21 1019 74 10000 2.06 360 14:53 04.06.2022
3350 Clouds 21 1019 73 10000 2.06 340 12:38 04.06.2022
3351 Clouds 18 1018 90 10000 2.06 350 11:19 04.06.2022
3352 Clouds 18 1018 93 10000 1.54 350 10:44 04.06.2022
3353 Clear 17 1018 93 10000 1.54 300 09:44 04.06.2022
3354 Clouds 18 1009 95 10000 1.54 270 08:43 04.06.2022
3355 Clouds 17 1008 96 6000 2.57 300 07:41 04.06.2022
3356 Clouds 16 1008 96 9000 1.03 0 05:30 04.06.2022
3357 Rain 18 1009 82 10000 3.6 280 01:42 04.06.2022
3358 Rain 19 1008 64 10000 3.09 110 00:19 04.06.2022
3359 Clear 21 1016 57 10000 3.09 90 22:40 03.06.2022
3360 Clear 22 1017 47 10000 3.6 80 21:39 03.06.2022
3361 Clear 23 1016 56 10000 4.12 80 20:38 03.06.2022
3362 Clear 26 1004 45 10000 3.6 120 18:54 03.06.2022
3363 Clear 27 1005 41 10000 3.09 0 16:52 03.06.2022
3364 Clear 27 1006 42 10000 4.12 150 15:37 03.06.2022
3365 Clear 26 1007 42 10000 4.63 170 13:49 03.06.2022
3366 Clear 25 1008 44 10000 5.14 110 11:51 03.06.2022
3367 Clear 21 1008 54 10000 4.63 110 09:53 03.06.2022
3368 Clear 20 1009 56 10000 4.12 110 09:28 03.06.2022
3369 Clear 14 1002 70 10000 1.03 0 07:27 03.06.2022
3370 Clear 11 1003 79 10000 1.03 0 06:45 03.06.2022
3371 Clear 11 1002 78 10000 0.51 0 06:27 03.06.2022
3372 Clear 10 1010 78 10000 1.03 160 02:24 03.06.2022
3373 Clear 12 1014 74 10000 1.03 140 23:36 02.06.2022
3374 Clear 14 1022 62 10000 1.03 330 21:58 02.06.2022
3375 Clear 18 1012 51 10000 1.54 330 20:26 02.06.2022
3376 Clear 18 1021 45 10000 2.57 320 19:54 02.06.2022
3377 Clear 19 1021 45 10000 2.57 320 19:36 02.06.2022
3378 Clear 19 1020 46 10000 3.09 360 18:34 02.06.2022
3379 Clouds 20 1021 47 10000 3.6 0 16:28 02.06.2022
3380 Clouds 20 1009 50 10000 4.12 300 15:30 02.06.2022
3381 Clouds 19 1009 55 10000 4.12 250 13:30 02.06.2022
3382 Clouds 18 1009 55 10000 3.13 227 12:46 02.06.2022
3383 Clouds 16 1009 63 10000 3.09 300 10:34 02.06.2022
3384 Clouds 15 1008 71 10000 3.09 300 09:29 02.06.2022
3385 Clouds 13 1000 80 10000 3.6 300 08:39 02.06.2022
3386 Clouds 12 1000 86 10000 3.09 300 08:19 02.06.2022
3387 Clear 10 1011 90 10000 1.54 270 06:20 02.06.2022
3388 Rain 11 1010 87 10000 2.06 220 03:50 02.06.2022
3389 Clear 12 1008 78 10000 1.03 0 00:47 02.06.2022
3390 Clear 14 1007 74 10000 3.09 290 22:57 01.06.2022
3391 Clear 15 1006 74 10000 2.06 240 21:59 01.06.2022
3392 Clouds 16 1006 69 10000 2.06 220 21:24 01.06.2022
3393 Clouds 17 1015 60 10000 1.54 270 20:38 01.06.2022
3394 Clouds 18 1006 60 10000 1.54 270 19:51 01.06.2022
3395 Clear 20 1005 55 10000 4.63 320 18:37 01.06.2022
3396 Clouds 20 1013 56 10000 3.6 340 16:58 01.06.2022
3397 Clouds 21 1002 52 10000 4.12 290 15:43 01.06.2022
3398 Clouds 21 1002 50 10000 2.68 300 14:49 01.06.2022
3399 Clouds 20 1002 55 10000 2.06 280 13:23 01.06.2022
3400 Clouds 19 1002 58 10000 3.09 290 10:48 01.06.2022
3401 Clouds 17 1002 72 10000 3.09 240 09:29 01.06.2022
3402 Clouds 13 1002 88 10000 2.57 200 08:18 01.06.2022
3403 Mist 12 1005 90 5000 3.09 210 07:20 01.06.2022
3404 Clear 9 1006 97 7000 1.54 260 04:41 01.06.2022
3405 Clear 12 1005 95 10000 2.06 260 23:50 31.05.2022
3406 Clouds 13 1007 93 10000 1.03 0 22:43 31.05.2022
3407 Clouds 13 1004 93 10000 2.57 330 22:24 31.05.2022
3408 Clouds 13 1004 90 10000 2.57 310 21:44 31.05.2022
3409 Rain 15 1001 72 10000 1.54 130 20:44 31.05.2022
3410 Rain 19 992 50 10000 3.09 150 19:46 31.05.2022
3411 Clear 21 999 42 10000 3.09 160 18:32 31.05.2022
3412 Clear 22 1000 40 10000 3.13 121 17:38 31.05.2022
3413 Clear 21 1001 41 10000 2.06 70 16:21 31.05.2022
3414 Clear 21 1001 42 10000 3.09 10 15:37 31.05.2022
3415 Clear 21 1001 46 10000 4.63 180 13:22 31.05.2022
3416 Clouds 20 1002 52 10000 2.06 140 12:19 31.05.2022
3417 Clouds 18 1003 61 10000 3.09 150 10:52 31.05.2022
3418 Clear 12 996 83 10000 1.54 110 08:35 31.05.2022
3419 Fog 7 1004 94 800 1.03 0 06:38 31.05.2022
3420 Clear 6 1008 94 10000 1.03 0 04:34 31.05.2022
3421 Clear 9 1007 84 10000 0.51 290 23:49 30.05.2022
3422 Clear 9 1007 82 10000 0.51 310 23:25 30.05.2022
3423 Clear 10 1007 77 10000 1.03 310 22:42 30.05.2022
3424 Clear 12 1015 65 10000 1.03 0 21:42 30.05.2022
3425 Clouds 13 1005 64 10000 1.54 300 21:21 30.05.2022
3426 Clouds 15 1001 66 10000 3.6 320 19:45 30.05.2022
3427 Clouds 15 1004 59 10000 4.12 310 18:26 30.05.2022
3428 Clouds 15 1000 63 10000 4.12 320 17:23 30.05.2022
3429 Clouds 15 1000 63 10000 4.12 320 17:23 30.05.2022
3430 Clouds 16 1000 61 10000 3.09 290 16:30 30.05.2022
3431 Rain 15 1003 65 10000 5.14 320 13:44 30.05.2022
3432 Clouds 15 1000 66 10000 2.57 250 11:54 30.05.2022
3433 Clouds 13 1000 73 10000 2.57 0 10:20 30.05.2022
3434 Clouds 12 1003 78 10000 2.57 290 09:19 30.05.2022
3435 Clear 8 1002 93 10000 2.06 290 06:28 30.05.2022
3436 Clouds 7 1002 94 10000 1.54 320 05:38 30.05.2022
3437 Clouds 9 1003 83 10000 2.06 230 01:31 30.05.2022
3438 Clear 10 1000 75 10000 1.51 230 22:49 29.05.2022
3439 Clear 10 1000 77 10000 0.45 192 22:31 29.05.2022
3440 Clouds 13 1002 65 10000 2.57 150 20:51 29.05.2022
3441 Clouds 15 998 58 10000 2.06 170 19:30 29.05.2022
3442 Clouds 15 1010 57 10000 0.51 0 18:35 29.05.2022
3443 Clouds 15 1003 56 10000 3.09 310 16:51 29.05.2022
3444 Clouds 17 1002 47 10000 3.09 330 15:47 29.05.2022
3445 Clear 17 1002 45 10000 3.09 360 14:57 29.05.2022
3446 Clear 17 999 47 10000 3.09 310 13:46 29.05.2022
3447 Clouds 16 1001 51 10000 3.09 0 11:34 29.05.2022
3448 Clouds 14 1001 58 10000 4.92 207 10:38 29.05.2022
3449 Clouds 11 993 72 10000 3.09 280 08:47 29.05.2022
3450 Clear 6 1005 85 10000 1.54 250 05:48 29.05.2022
3451 Clear 7 1005 85 10000 2.57 240 04:43 29.05.2022
3452 Clear 8 1006 83 10000 2.06 270 03:41 29.05.2022
3453 Clear 11 1007 73 10000 2.06 250 23:49 28.05.2022
3454 Clouds 11 1007 75 10000 2.06 250 23:26 28.05.2022
3455 Clouds 11 1007 72 10000 2.57 250 22:33 28.05.2022
3456 Clouds 12 1006 68 10000 3.6 270 21:34 28.05.2022
3457 Clouds 14 1006 56 10000 4.63 290 19:41 28.05.2022
3458 Clouds 14 1006 58 10000 4.63 280 18:47 28.05.2022
3459 Clouds 16 1002 53 10000 6.17 300 17:36 28.05.2022
3460 Clouds 15 1006 50 10000 5.66 280 16:38 28.05.2022
3461 Clear 16 1015 46 10000 7.72 300 15:43 28.05.2022
3462 Clouds 16 1003 54 10000 8.23 280 14:23 28.05.2022
3463 Clouds 14 1007 55 10000 7.72 280 12:51 28.05.2022
3464 Clouds 14 1003 62 10000 7.72 280 12:33 28.05.2022
3465 Clouds 12 1003 66 10000 7.2 290 11:21 28.05.2022
3466 Clouds 12 1007 71 10000 6.69 280 09:58 28.05.2022
3467 Clouds 10 995 86 10000 5.66 270 08:45 28.05.2022
3468 Rain 9 1007 82 10000 6.17 300 07:23 28.05.2022
3469 Clouds 9 1006 76 10000 4.02 256 05:36 28.05.2022
3470 Clear 10 1007 68 10000 2.57 250 02:44 28.05.2022
3471 Clear 11 1008 66 10000 4.63 290 00:32 28.05.2022
3472 Clear 12 1008 65 10000 2.57 270 23:20 27.05.2022
3473 Clear 14 1007 59 10000 4.63 300 21:46 27.05.2022
3474 Clouds 15 1005 57 10000 1.34 303 20:56 27.05.2022
3475 Clear 16 1006 53 10000 7.2 310 20:25 27.05.2022
3476 Clear 17 1003 54 10000 7.72 310 19:42 27.05.2022
3477 Clear 17 1003 54 10000 7.72 310 19:24 27.05.2022
3478 Clouds 19 1002 56 10000 7.2 300 17:58 27.05.2022
3479 Clouds 18 1002 64 10000 5.66 290 16:39 27.05.2022
3480 Clouds 17 1003 79 10000 5.66 260 15:22 27.05.2022
3481 Clouds 15 1007 82 10000 4.12 260 14:25 27.05.2022
3482 Rain 14 1008 90 10000 4.12 260 13:18 27.05.2022
3483 Rain 13 1008 92 10000 3.09 260 11:34 27.05.2022
3484 Rain 12 1008 92 7000 3.6 300 10:56 27.05.2022
3485 Rain 12 1008 93 7000 3.6 300 10:31 27.05.2022
3486 Drizzle 15 1008 86 3500 6.17 280 09:37 27.05.2022
3487 Rain 16 1007 79 10000 2.68 230 07:55 27.05.2022
3488 Clouds 18 1007 62 10000 6.17 260 05:47 27.05.2022
3489 Clouds 18 1008 62 10000 4.63 240 02:47 27.05.2022
3490 Clear 17 1009 63 10000 3.6 230 00:29 27.05.2022
3491 Clear 18 1009 58 10000 3.09 250 22:43 26.05.2022
3492 Clouds 18 1010 60 10000 3.09 250 21:42 26.05.2022
3493 Clouds 18 1019 52 10000 2.57 270 20:59 26.05.2022
3494 Clouds 20 1010 51 10000 6.17 270 19:24 26.05.2022
3495 Clouds 20 1007 57 10000 5.14 270 18:18 26.05.2022
3496 Clouds 20 1019 53 10000 7.72 270 16:55 26.05.2022
3497 Clouds 21 1010 51 10000 6.17 290 15:46 26.05.2022
3498 Clouds 21 1007 55 10000 6.17 270 14:46 26.05.2022
3499 Clouds 21 1007 55 10000 6.69 260 12:50 26.05.2022
3500 Clouds 20 1010 55 10000 7.2 270 11:36 26.05.2022
3501 Clouds 18 1007 60 10000 7.2 260 10:24 26.05.2022
3502 Clouds 18 1010 56 10000 5.66 260 09:35 26.05.2022
3503 Clouds 17 1010 59 10000 4.63 270 08:37 26.05.2022
3504 Clear 15 1008 57 10000 3.6 240 05:22 26.05.2022
3505 Clear 14 1009 69 10000 2.06 240 00:57 26.05.2022
3506 Clear 15 1009 66 10000 2.06 250 23:40 25.05.2022
3507 Clear 16 1008 64 10000 2.06 260 22:29 25.05.2022
3508 Clear 15 1008 65 10000 1.54 250 21:33 25.05.2022
3509 Clear 19 1016 43 10000 2.57 250 20:38 25.05.2022
3510 Clear 20 1015 42 10000 4.63 290 19:31 25.05.2022
3511 Clear 21 1003 49 10000 3.09 290 17:46 25.05.2022
3512 Clear 22 1003 46 10000 3.6 280 16:40 25.05.2022
3513 Clear 21 1015 45 10000 3.6 300 15:58 25.05.2022
3514 Clouds 21 1003 50 10000 3.09 260 14:56 25.05.2022
3515 Clouds 20 1003 51 10000 3.09 260 14:33 25.05.2022
3516 Clouds 20 1007 52 10000 2.57 0 13:58 25.05.2022
3517 Clouds 18 1004 62 10000 4.12 250 12:48 25.05.2022
3518 Rain 16 1007 71 10000 2.57 270 10:58 25.05.2022
3519 Rain 15 1007 73 10000 3.09 270 10:20 25.05.2022
3520 Clouds 16 1004 70 10000 0.45 198 08:45 25.05.2022
3521 Clouds 14 996 83 10000 0.89 199 07:23 25.05.2022
3522 Clear 12 1004 83 10000 1.54 210 05:18 25.05.2022
3523 Clear 15 1012 66 10000 1.03 0 00:31 25.05.2022
3524 Clear 15 1004 73 10000 1.03 260 23:47 24.05.2022
3525 Clear 16 1000 68 10000 2.57 290 22:52 24.05.2022
3526 Clear 18 1010 63 10000 2.06 310 21:46 24.05.2022
3527 Clear 18 1010 67 10000 3.09 300 21:21 24.05.2022
3528 Clouds 19 1010 54 10000 2.57 300 20:44 24.05.2022
3529 Clouds 21 1009 48 10000 4.63 280 18:59 24.05.2022
3530 Clouds 21 1008 56 10000 5.66 280 17:19 24.05.2022
3531 Clear 21 1007 57 10000 5.14 260 16:29 24.05.2022
3532 Clouds 21 988 58 10000 5.66 260 15:27 24.05.2022
3533 Clouds 22 1006 46 10000 4.63 250 14:36 24.05.2022
3534 Clouds 23 994 63 10000 4.63 280 13:35 24.05.2022
3535 Clouds 22 997 66 10000 3.6 270 12:18 24.05.2022
3536 Clouds 22 993 69 10000 4.63 280 09:50 24.05.2022
3537 Clouds 21 993 71 10000 3.09 260 08:51 24.05.2022
3538 Clouds 19 992 77 10000 3.09 230 07:44 24.05.2022
3539 Clouds 18 995 76 10000 3.6 240 06:34 24.05.2022
3540 Clear 18 994 69 10000 5.14 170 03:32 24.05.2022
3541 Clear 19 1002 62 10000 6.17 160 01:46 24.05.2022
3542 Clear 19 994 60 10000 5.14 160 00:30 24.05.2022
3543 Clear 19 995 59 10000 5.14 160 22:24 23.05.2022
3544 Clear 19 995 59 10000 4.63 150 21:50 23.05.2022
3545 Clear 20 994 57 10000 4.63 140 20:46 23.05.2022
3546 Clear 21 992 58 10000 6.17 130 19:51 23.05.2022
3547 Clear 21 995 55 10000 5.14 130 19:24 23.05.2022
3548 Clear 21 993 60 10000 4.63 130 18:41 23.05.2022
3549 Clear 21 997 55 10000 4.63 150 17:56 23.05.2022
3550 Rain 21 1007 51 10000 5.14 160 16:29 23.05.2022
3551 Clear 22 996 50 10000 5.14 150 14:20 23.05.2022
3552 Clear 20 998 54 10000 5.66 140 11:57 23.05.2022
3553 Clear 19 998 58 10000 4.12 140 10:58 23.05.2022
3554 Clear 17 999 64 10000 5.66 140 09:48 23.05.2022
3555 Clear 17 999 65 10000 5.14 130 08:47 23.05.2022
3556 Clear 14 999 74 10000 3.09 120 07:37 23.05.2022
3557 Clear 11 1004 81 10000 2.06 130 06:41 23.05.2022
3558 Clear 10 1004 83 10000 2.06 170 04:40 23.05.2022
3559 Clear 11 1005 83 10000 3.09 160 02:19 23.05.2022
3560 Clear 10 1014 83 10000 3.09 180 01:33 23.05.2022
3561 Clear 12 1006 76 10000 1.54 90 23:22 22.05.2022
3562 Clear 13 1006 72 10000 1.03 60 22:34 22.05.2022
3563 Clear 13 1014 66 10000 1.54 330 21:54 22.05.2022
3564 Clear 16 1014 54 10000 1.54 320 20:51 22.05.2022
3565 Clear 17 1014 52 10000 2.06 310 20:23 22.05.2022
3566 Clear 18 1014 53 10000 2.57 330 19:54 22.05.2022
3567 Clear 19 1014 46 10000 3.09 310 18:53 22.05.2022
3568 Clear 20 1014 46 10000 3.09 330 18:24 22.05.2022
3569 Clear 20 1015 47 10000 3.6 290 17:28 22.05.2022
3570 Clouds 20 1015 46 10000 3.6 330 15:59 22.05.2022
3571 Clouds 20 1004 52 10000 3.09 0 14:48 22.05.2022
3572 Clouds 20 1004 53 10000 5.14 320 13:38 22.05.2022
3573 Clouds 18 1004 58 10000 5.14 320 12:50 22.05.2022
3574 Clouds 18 1008 57 10000 3.6 280 11:37 22.05.2022
3575 Clouds 17 1005 70 10000 2.57 340 09:43 22.05.2022
3576 Clouds 14 1006 79 10000 2.57 300 08:34 22.05.2022
3577 Clouds 12 1009 84 10000 1.54 290 07:21 22.05.2022
3578 Clouds 11 1009 88 10000 2.06 290 05:44 22.05.2022
3579 Clear 12 1010 79 10000 1.54 260 01:43 22.05.2022
3580 Clear 12 1010 79 10000 2.57 290 00:43 22.05.2022
3581 Clouds 13 1010 78 10000 2.06 280 23:55 21.05.2022
3582 Clouds 14 1010 76 10000 1.54 270 23:20 21.05.2022
3583 Clouds 15 1019 67 10000 3.09 290 21:43 21.05.2022
3584 Clear 15 1010 69 10000 2.57 290 21:23 21.05.2022
3585 Clouds 16 1010 67 10000 2.57 280 20:24 21.05.2022
3586 Clouds 17 1010 59 10000 7.2 290 19:35 21.05.2022
3587 Clouds 19 1010 52 10000 5.66 290 17:51 21.05.2022
3588 Clouds 19 1010 55 10000 7.2 270 16:46 21.05.2022
3589 Clouds 19 1006 59 10000 6.71 272 14:38 21.05.2022
3590 Clouds 19 1006 58 10000 8.23 280 13:53 21.05.2022
3591 Clouds 18 999 62 10000 6.69 270 12:57 21.05.2022
3592 Clouds 18 999 61 10000 6.69 270 12:37 21.05.2022
3593 Clouds 17 1007 64 10000 5.14 300 10:44 21.05.2022
3594 Clouds 16 1007 66 10000 8.23 310 09:48 21.05.2022
3595 Clouds 14 1007 76 10000 6.17 290 08:58 21.05.2022
3596 Clouds 14 1010 73 10000 6.17 290 08:33 21.05.2022
3597 Clouds 15 1006 77 10000 3.58 272 05:28 21.05.2022
3598 Rain 18 1004 93 10000 3.09 230 00:58 21.05.2022
3599 Clouds 18 1003 91 10000 4.12 260 23:22 20.05.2022
3600 Rain 20 1003 90 10000 6.71 145 22:24 20.05.2022
3601 Rain 20 1003 91 10000 4.12 160 21:49 20.05.2022
3602 Clouds 21 1003 90 10000 2.57 120 20:58 20.05.2022
3603 Clouds 22 1003 87 10000 2.06 160 20:29 20.05.2022
3604 Rain 26 1001 67 10000 2.06 120 19:29 20.05.2022
3605 Clouds 27 1013 58 10000 2.57 80 18:47 20.05.2022
3606 Clouds 27 1014 54 10000 1.03 0 17:47 20.05.2022
3607 Clouds 27 1016 56 10000 2.57 250 16:21 20.05.2022
3608 Clouds 27 1005 57 10000 2.57 0 15:53 20.05.2022
3609 Clouds 26 1007 61 10000 1.54 0 14:31 20.05.2022
3610 Clear 25 1007 65 10000 1.54 0 13:56 20.05.2022
3611 Clouds 23 1010 71 10000 3.6 250 11:49 20.05.2022
3612 Clouds 22 1010 72 10000 2.57 260 10:30 20.05.2022
3613 Clouds 19 1010 79 10000 3.6 290 08:58 20.05.2022
3614 Clouds 18 1010 85 10000 3.09 270 07:40 20.05.2022
3615 Clear 17 1013 83 10000 2.57 250 06:38 20.05.2022
3616 Clear 16 1013 91 10000 1.54 240 05:28 20.05.2022
3617 Clouds 19 1000 84 10000 4.12 200 01:18 20.05.2022
3618 Rain 23 1019 40 10000 5.66 180 23:28 19.05.2022
3619 Clear 19 1019 54 10000 5.66 170 22:33 19.05.2022
3620 Clear 20 1019 46 10000 4.63 170 21:49 19.05.2022
3621 Clear 21 1012 44 10000 4.63 160 21:23 19.05.2022
3622 Clear 22 1008 48 10000 5.14 170 20:40 19.05.2022
3623 Clear 23 1000 54 10000 4.12 160 19:54 19.05.2022
3624 Clear 25 1007 45 10000 5.66 170 18:58 19.05.2022
3625 Clear 26 1019 32 10000 6.17 160 17:35 19.05.2022
3626 Clear 26 1019 32 10000 6.17 160 17:35 19.05.2022
3627 Clear 26 1020 30 10000 6.17 160 15:34 19.05.2022
3628 Clear 26 1009 31 10000 5.14 160 14:35 19.05.2022
3629 Clear 26 1010 33 10000 6.17 170 13:59 19.05.2022
3630 Clear 25 1011 38 10000 7.72 170 11:52 19.05.2022
3631 Clear 23 1023 42 10000 5.66 160 10:25 19.05.2022
3632 Clear 18 1012 60 10000 3.09 150 08:31 19.05.2022
3633 Clear 14 1015 68 10000 3.6 150 06:57 19.05.2022
3634 Clear 14 1024 66 10000 5.66 150 02:59 19.05.2022
3635 Clear 15 1024 67 10000 4.63 150 00:56 19.05.2022
3636 Clear 17 1016 63 10000 3.6 160 23:21 18.05.2022
3637 Clear 17 1016 67 10000 3.6 150 22:41 18.05.2022
3638 Clear 18 1024 64 10000 2.57 150 21:33 18.05.2022
3639 Clear 19 1013 62 10000 2.57 140 20:55 18.05.2022
3640 Clear 21 1016 57 10000 3.6 150 20:19 18.05.2022
3641 Clear 23 1013 52 10000 3.6 160 18:53 18.05.2022
3642 Clear 24 1012 52 10000 4.12 170 17:42 18.05.2022
3643 Clear 24 1013 53 10000 3.6 160 17:23 18.05.2022
3644 Clear 24 1012 52 10000 3.6 120 16:52 18.05.2022
3645 Clear 24 1013 54 10000 4.12 140 15:45 18.05.2022
3646 Clear 24 1013 53 10000 3.09 140 15:20 18.05.2022
3647 Clouds 23 1013 54 10000 3.6 140 13:59 18.05.2022
3648 Clouds 23 1014 53 10000 4.12 0 12:54 18.05.2022
3649 Clouds 23 1014 57 10000 3.6 130 11:48 18.05.2022
3650 Clouds 22 1026 60 10000 3.09 170 11:30 18.05.2022
3651 Clouds 21 1026 63 10000 3.09 170 10:43 18.05.2022
3652 Clear 16 1017 78 10000 2.57 150 07:59 18.05.2022
3653 Clouds 14 1025 83 10000 2.06 130 07:27 18.05.2022
3654 Clear 13 1024 96 10000 0.51 0 03:40 18.05.2022
3655 Clear 15 1023 93 10000 2.06 150 00:51 18.05.2022
3656 Clear 16 1023 87 10000 1.54 190 23:33 17.05.2022
3657 Clear 17 1014 85 10000 1.54 150 21:21 17.05.2022
3658 Clouds 17 1022 81 10000 2.06 140 20:43 17.05.2022
3659 Clouds 19 1022 71 10000 1.54 120 19:41 17.05.2022
3660 Clouds 19 1009 77 10000 1.54 120 19:20 17.05.2022
3661 Clouds 19 1020 73 10000 1.03 0 17:34 17.05.2022
3662 Rain 18 1009 78 10000 1.03 0 16:57 17.05.2022
3663 Clouds 19 1009 80 10000 1.54 340 15:58 17.05.2022
3664 Clouds 18 1009 80 10000 2.06 360 14:55 17.05.2022
3665 Clouds 18 1009 84 10000 2.57 350 14:28 17.05.2022
3666 Clouds 16 1013 93 10000 3.09 330 12:39 17.05.2022
3667 Clouds 15 1012 96 10000 3.09 310 10:42 17.05.2022
3668 Drizzle 14 1011 97 7000 2.57 330 08:51 17.05.2022
3669 Clouds 15 1010 97 8000 4.12 330 07:55 17.05.2022
3670 Rain 15 1009 97 6000 3.6 300 06:26 17.05.2022
3671 Clear 17 1005 95 10000 4.12 200 01:34 17.05.2022
3672 Rain 17 1009 95 10000 3.6 260 23:46 16.05.2022
3673 Rain 19 1008 78 10000 2.06 150 22:39 16.05.2022
3674 Clear 20 1010 69 10000 1.79 125 21:24 16.05.2022
3675 Clear 19 1007 69 10000 2.57 140 20:43 16.05.2022
3676 Clear 22 997 64 10000 4.12 260 18:53 16.05.2022
3677 Clear 26 1004 44 10000 2.68 229 17:26 16.05.2022
3678 Clear 28 1005 37 10000 2.06 310 15:36 16.05.2022
3679 Clear 27 1017 35 10000 1.03 0 13:48 16.05.2022
3680 Clear 26 1017 40 10000 2.06 0 12:44 16.05.2022
3681 Clear 24 1006 50 10000 2.57 150 10:47 16.05.2022
3682 Clear 17 1019 58 10000 3.09 130 08:37 16.05.2022
3683 Clear 13 999 73 10000 1.54 140 06:32 16.05.2022
3684 Clear 12 1008 71 10000 1.03 0 02:33 16.05.2022
3685 Clear 13 1020 65 10000 1.54 80 22:52 15.05.2022
3686 Clear 14 1020 62 10000 1.54 100 22:28 15.05.2022
3687 Clear 16 1020 57 10000 2.06 70 21:38 15.05.2022
3688 Clear 18 1020 48 10000 2.57 80 20:53 15.05.2022
3689 Clear 22 1019 43 10000 3.09 340 18:53 15.05.2022
3690 Clear 22 1019 38 10000 3.09 10 17:45 15.05.2022
3691 Clear 22 1020 41 10000 3.6 350 15:44 15.05.2022
3692 Clear 21 1009 49 10000 3.09 360 13:49 15.05.2022
3693 Clouds 20 1010 51 10000 3.09 10 12:22 15.05.2022
3694 Clouds 20 1010 54 10000 2.57 0 11:38 15.05.2022
3695 Clouds 20 1010 54 10000 2.57 0 11:38 15.05.2022
3696 Clouds 18 1022 57 10000 2.06 280 10:20 15.05.2022
3697 Clear 12 1010 79 10000 1.03 0 07:36 15.05.2022
3698 Clear 10 1014 86 10000 1.54 230 06:57 15.05.2022
3699 Clear 9 1013 88 10000 1.03 0 04:44 15.05.2022
3700 Clear 12 1015 73 10000 2.57 320 00:48 15.05.2022
3701 Clear 13 1013 70 10000 1.54 290 23:38 14.05.2022
3702 Clear 14 1012 68 10000 1.03 320 22:45 14.05.2022
3703 Clear 17 1014 56 10000 2.57 330 21:27 14.05.2022
3704 Clear 19 1019 50 10000 2.57 310 20:32 14.05.2022
3705 Clear 20 1019 44 10000 3.6 310 19:21 14.05.2022
3706 Clear 20 1019 44 10000 3.6 310 19:21 14.05.2022
3707 Clear 21 1019 45 10000 5.14 300 18:59 14.05.2022
3708 Clear 21 1019 45 10000 5.66 300 17:54 14.05.2022
3709 Clear 21 1019 45 10000 4.63 270 16:32 14.05.2022
3710 Clouds 21 1019 47 10000 5.66 300 14:58 14.05.2022
3711 Clouds 21 1008 49 10000 5.66 280 14:30 14.05.2022
3712 Clouds 20 1008 52 10000 4.12 260 12:23 14.05.2022
3713 Clouds 19 1008 55 10000 5.14 300 10:53 14.05.2022
3714 Clouds 19 1008 58 10000 4.63 280 10:20 14.05.2022
3715 Clear 18 1008 59 10000 4.12 300 09:53 14.05.2022
3716 Clear 16 1008 66 10000 2.57 240 08:46 14.05.2022
3717 Clear 9 1008 80 10000 3.09 210 05:43 14.05.2022
3718 Clear 10 1012 76 10000 2.57 220 01:58 14.05.2022
3719 Clear 12 1011 67 10000 2.06 240 23:36 13.05.2022
3720 Clear 13 1011 61 10000 2.57 250 22:57 13.05.2022
3721 Clear 13 1011 63 10000 1.54 250 22:23 13.05.2022
3722 Clear 14 1011 60 10000 2.06 270 21:39 13.05.2022
3723 Clear 16 1008 52 10000 3.09 280 20:44 13.05.2022
3724 Clear 16 1010 51 10000 4.63 300 20:24 13.05.2022
3725 Clear 18 1010 47 10000 7.2 310 19:25 13.05.2022
3726 Clear 19 1006 46 10000 9.26 310 17:50 13.05.2022
3727 Clear 20 1006 44 10000 7.72 310 17:27 13.05.2022
3728 Clear 21 1005 45 10000 8.23 280 16:18 13.05.2022
3729 Clear 21 1004 49 10000 5.66 300 15:28 13.05.2022
3730 Clear 21 1004 47 10000 6.17 280 13:41 13.05.2022
3731 Clear 20 998 52 10000 6.69 270 12:28 13.05.2022
3732 Clear 21 998 51 10000 5.66 290 11:22 13.05.2022
3733 Clear 19 1005 58 10000 3.09 270 09:34 13.05.2022
3734 Clear 17 1005 67 10000 2.57 250 08:44 13.05.2022
3735 Clear 14 1005 74 10000 1.54 210 07:48 13.05.2022
3736 Clear 12 1005 81 10000 1.03 0 06:33 13.05.2022
3737 Clear 12 1005 81 10000 1.03 0 06:33 13.05.2022
3738 Clear 12 1005 81 10000 1.03 0 06:33 13.05.2022
3739 Clear 12 1009 78 10000 1.03 180 03:29 13.05.2022
3740 Clear 14 1009 70 10000 0.51 0 00:24 13.05.2022
3741 Clear 15 1009 63 10000 0.51 0 22:45 12.05.2022
3742 Clear 15 1009 60 10000 1.03 0 21:56 12.05.2022
3743 Clear 18 1008 50 10000 2.57 310 20:29 12.05.2022
3744 Clear 20 1016 45 10000 3.09 310 18:59 12.05.2022
3745 Clear 20 1017 46 10000 4.12 290 17:24 12.05.2022
3746 Clear 21 1017 42 10000 4.12 280 16:18 12.05.2022
3747 Clear 21 1006 49 10000 3.6 300 14:41 12.05.2022
3748 Clear 21 1006 50 10000 5.14 300 13:41 12.05.2022
3749 Clouds 19 1005 58 10000 7.72 320 10:52 12.05.2022
3750 Clouds 18 1004 63 10000 5.14 290 09:30 12.05.2022
3751 Clear 18 1007 63 10000 5.14 280 08:51 12.05.2022
3752 Clear 19 1005 64 10000 5.14 310 07:40 12.05.2022
3753 Clear 21 1011 48 10000 5.14 260 06:34 12.05.2022
3754 Clear 22 1001 46 10000 6.17 230 02:58 12.05.2022
3755 Clear 21 1002 52 10000 4.63 210 00:36 12.05.2022
3756 Clear 21 1001 52 10000 4.63 200 22:39 11.05.2022
3757 Clear 22 1002 49 10000 4.12 220 21:52 11.05.2022
3758 Clear 23 1002 47 10000 4.12 220 21:24 11.05.2022
3759 Clear 28 1010 32 10000 5.14 250 18:58 11.05.2022
3760 Clear 29 1010 34 10000 6.17 250 16:55 11.05.2022
3761 Clear 28 1000 40 10000 7.2 240 15:50 11.05.2022
3762 Clear 28 1001 40 10000 6.69 230 14:39 11.05.2022
3763 Clear 28 994 42 10000 6.69 230 14:19 11.05.2022
3764 Clear 26 1002 46 10000 6.17 240 11:54 11.05.2022
3765 Clouds 26 1003 48 10000 5.14 240 11:30 11.05.2022
3766 Rain 21 1003 64 10000 4.12 210 08:55 11.05.2022
3767 Clear 17 1006 67 10000 3.6 220 05:45 11.05.2022
3768 Clear 17 1007 65 10000 4.12 200 01:28 11.05.2022
3769 Clear 18 1008 63 10000 2.57 190 22:53 10.05.2022
3770 Clear 19 1008 60 10000 2.06 190 22:19 10.05.2022
3771 Clear 20 1008 60 10000 2.06 170 20:59 10.05.2022
3772 Clear 22 1005 58 10000 1.03 0 20:21 10.05.2022
3773 Clear 24 1005 50 10000 1.54 260 18:36 10.05.2022
3774 Clear 24 1016 41 10000 3.09 250 17:37 10.05.2022
3775 Clear 25 1018 42 10000 4.12 280 15:49 10.05.2022
3776 Clear 24 1009 49 10000 2.06 0 12:51 10.05.2022
3777 Clouds 24 1009 50 10000 2.57 310 11:53 10.05.2022
3778 Clouds 23 1009 53 10000 2.06 0 11:28 10.05.2022
3779 Clouds 22 1021 51 10000 2.57 300 10:55 10.05.2022
3780 Clouds 18 1021 57 10000 2.06 180 09:28 10.05.2022
3781 Clear 15 1013 64 10000 0.51 0 07:51 10.05.2022
3782 Clear 11 1010 80 10000 1.03 0 05:43 10.05.2022
3783 Clear 11 1016 76 10000 1.54 140 01:37 10.05.2022
3784 Clear 13 1016 66 10000 2.57 60 23:43 09.05.2022
3785 Clear 13 1025 63 10000 1.54 120 22:33 09.05.2022
3786 Clear 14 1025 57 10000 1.03 70 21:36 09.05.2022
3787 Clear 20 1024 44 10000 3.09 70 19:52 09.05.2022
3788 Clear 21 1024 36 10000 2.06 30 18:25 09.05.2022
3789 Clear 22 1024 37 10000 1.54 0 17:25 09.05.2022
3790 Clear 22 1025 38 10000 1.54 0 16:18 09.05.2022
3791 Clear 22 1025 38 10000 2.57 0 15:47 09.05.2022
3792 Clear 22 1026 39 10000 3.6 50 14:33 09.05.2022
3793 Clear 22 1026 42 10000 3.6 70 13:56 09.05.2022
3794 Clear 21 1027 46 10000 3.6 60 12:55 09.05.2022
3795 Clouds 21 1015 50 10000 2.57 0 11:52 09.05.2022
3796 Clouds 19 1028 54 10000 1.54 0 10:47 09.05.2022
3797 Clouds 18 1028 57 10000 1.54 0 10:23 09.05.2022
3798 Clear 11 1015 74 10000 0.51 0 07:57 09.05.2022
3799 Clear 8 1019 84 10000 1.03 330 04:52 09.05.2022
3800 Clear 11 1018 70 10000 1.03 360 00:30 09.05.2022
3801 Clear 13 1017 68 10000 2.06 30 23:28 08.05.2022
3802 Clear 13 1027 67 10000 2.06 360 22:29 08.05.2022
3803 Clear 17 1025 59 10000 1.54 340 20:54 08.05.2022
3804 Clear 17 1013 60 10000 2.57 340 20:22 08.05.2022
3805 Clouds 19 1025 45 10000 3.6 350 19:33 08.05.2022
3806 Clouds 19 1024 59 10000 4.63 350 18:35 08.05.2022
3807 Clouds 20 1024 58 10000 4.63 350 17:36 08.05.2022
3808 Clouds 21 1024 59 10000 4.63 360 15:46 08.05.2022
3809 Clouds 20 1024 59 10000 4.63 340 15:22 08.05.2022
3810 Clouds 19 1025 67 10000 4.63 360 12:46 08.05.2022
3811 Clouds 18 1025 68 10000 3.09 0 11:45 08.05.2022
3812 Clear 16 1024 72 10000 2.06 330 10:25 08.05.2022
3813 Clear 16 1024 77 10000 1.54 320 09:52 08.05.2022
3814 Clear 13 1012 74 10000 1.54 220 07:44 08.05.2022
3815 Clear 10 1004 85 10000 2.06 220 05:57 08.05.2022
3816 Clear 11 1003 79 10000 1.54 220 03:22 08.05.2022
3817 Clear 13 1014 74 10000 0.51 0 00:48 08.05.2022
3818 Clear 14 1014 68 10000 0.51 0 23:56 07.05.2022
3819 Clear 14 1013 64 10000 1.54 10 23:32 07.05.2022
3820 Clear 16 1013 58 10000 2.06 30 22:42 07.05.2022
3821 Clear 16 1022 53 10000 2.06 340 21:56 07.05.2022
3822 Clear 15 1022 59 10000 1.03 330 21:28 07.05.2022
3823 Clear 18 1021 44 10000 0.51 360 20:25 07.05.2022
3824 Clear 18 1021 44 10000 0.51 360 20:25 07.05.2022
3825 Clear 21 1020 39 10000 2.06 360 18:52 07.05.2022
3826 Clear 22 1009 40 10000 1.03 0 16:50 07.05.2022
3827 Clear 21 1010 43 10000 1.54 90 14:54 07.05.2022
3828 Clouds 20 1023 43 10000 2.06 330 11:51 07.05.2022
3829 Clouds 18 1011 59 10000 1.03 0 09:55 07.05.2022
3830 Clear 14 1004 70 10000 2.06 210 08:33 07.05.2022
3831 Clear 12 1011 76 10000 2.06 220 07:30 07.05.2022
3832 Clear 9 1003 85 10000 2.06 210 06:42 07.05.2022
3833 Clear 9 1011 83 10000 1.54 0 04:19 07.05.2022
3834 Clear 13 1015 71 10000 1.03 0 00:45 07.05.2022
3835 Clear 14 1015 61 10000 1.54 360 22:41 06.05.2022
3836 Clear 14 1014 61 10000 1.03 0 22:21 06.05.2022
3837 Clear 16 1023 51 10000 1.54 330 21:32 06.05.2022
3838 Clear 18 1023 55 10000 2.06 360 19:49 06.05.2022
3839 Clear 18 1022 52 10000 2.57 10 19:27 06.05.2022
3840 Clear 19 1022 48 10000 3.09 30 18:43 06.05.2022
3841 Clear 19 1023 46 10000 2.57 30 17:38 06.05.2022
3842 Clear 20 1023 46 10000 4.12 340 15:55 06.05.2022
3843 Clear 20 1023 44 10000 4.12 340 15:32 06.05.2022
3844 Clouds 19 1023 48 10000 3.09 360 14:22 06.05.2022
3845 Clouds 19 1012 55 10000 2.57 0 12:52 06.05.2022
3846 Clouds 18 1024 55 10000 2.06 110 12:20 06.05.2022
3847 Clouds 16 1025 61 10000 1.54 0 11:31 06.05.2022
3848 Clouds 14 1013 65 10000 1.54 330 09:48 06.05.2022
3849 Clouds 14 1013 65 10000 1.54 330 09:48 06.05.2022
3850 Clouds 13 1012 67 10000 1.54 350 09:18 06.05.2022
3851 Clouds 11 1016 68 10000 1.03 0 07:55 06.05.2022
3852 Clear 8 1015 79 10000 0.51 0 06:28 06.05.2022
3853 Clear 10 1015 73 10000 0.51 0 04:29 06.05.2022
3854 Clouds 10 1014 74 10000 0.51 0 02:38 06.05.2022
3855 Clear 11 1014 71 10000 1.54 290 23:25 05.05.2022
3856 Clear 13 1022 58 10000 1.54 300 21:51 05.05.2022
3857 Clear 15 1021 67 10000 2.06 300 20:37 05.05.2022
3858 Clear 18 1021 48 10000 2.06 330 19:42 05.05.2022
3859 Clouds 19 1020 54 10000 4.63 300 16:51 05.05.2022
3860 Clouds 19 1020 55 10000 4.63 320 15:48 05.05.2022
3861 Clouds 19 1020 55 10000 3.6 340 14:37 05.05.2022
3862 Clouds 18 1020 67 10000 3.09 360 13:18 05.05.2022
3863 Clouds 17 1020 69 10000 2.57 0 11:48 05.05.2022
3864 Clouds 15 1007 82 10000 2.06 270 10:28 05.05.2022
3865 Clouds 14 1008 82 10000 0.89 232 09:32 05.05.2022
3866 Clear 12 1010 87 10000 1.03 250 06:49 05.05.2022
3867 Clear 13 1008 79 10000 2.06 260 02:30 05.05.2022
3868 Clear 13 1008 78 10000 1.54 230 01:47 05.05.2022
3869 Clear 14 1008 76 10000 1.03 210 01:20 05.05.2022
3870 Clear 15 1009 63 10000 1.54 260 23:28 04.05.2022
3871 Clear 15 1008 63 10000 2.57 110 22:25 04.05.2022
3872 Clear 16 1016 58 10000 2.57 90 21:48 04.05.2022
3873 Clear 16 1016 57 10000 2.57 90 21:26 04.05.2022
3874 Clear 18 1007 52 10000 3.09 90 20:22 04.05.2022
3875 Clear 18 1015 56 10000 4.12 90 19:51 04.05.2022
3876 Clear 20 1003 50 10000 4.63 80 18:45 04.05.2022
3877 Clear 21 1007 45 10000 4.12 70 18:20 04.05.2022
3878 Clear 21 1007 41 10000 4.12 60 17:28 04.05.2022
3879 Clear 21 1004 43 10000 4.12 40 15:38 04.05.2022
3880 Clear 22 1004 42 10000 4.12 40 15:38 04.05.2022
3881 Clear 21 1016 43 10000 4.63 40 14:59 04.05.2022
3882 Clear 21 1016 41 10000 1.54 0 14:20 04.05.2022
3883 Clear 20 1017 40 10000 3.6 70 13:18 04.05.2022
3884 Clear 20 1017 42 10000 1.03 0 12:29 04.05.2022
3885 Clear 18 1006 53 10000 1.54 50 10:40 04.05.2022
3886 Clear 16 1018 58 10000 1.03 0 09:38 04.05.2022
3887 Clear 13 998 78 10000 1.54 200 08:33 04.05.2022
3888 Clear 7 1005 86 10000 0.51 40 05:53 04.05.2022
3889 Clear 8 1009 88 10000 1.03 0 02:49 04.05.2022
3890 Clear 11 1009 75 10000 1.54 50 23:41 03.05.2022
3891 Clear 12 1017 71 10000 1.54 60 22:30 03.05.2022
3892 Clear 14 1016 58 10000 1.54 330 21:36 03.05.2022
3893 Clear 15 1016 67 10000 1.54 330 20:53 03.05.2022
3894 Clear 18 1015 48 10000 2.57 340 19:49 03.05.2022
3895 Clear 18 1014 47 10000 4.12 310 18:50 03.05.2022
3896 Clear 19 1015 46 10000 4.12 320 18:20 03.05.2022
3897 Clear 19 1015 49 10000 3.6 320 16:37 03.05.2022
3898 Clear 19 1015 46 10000 4.63 340 15:35 03.05.2022
3899 Clouds 19 1016 51 10000 3.6 360 12:47 03.05.2022
3900 Clouds 19 1016 49 10000 3.6 360 12:27 03.05.2022
3901 Clear 18 1016 54 10000 2.57 350 10:57 03.05.2022
3902 Clear 16 1016 62 10000 1.03 0 09:29 03.05.2022
3903 Clear 10 996 79 10000 1.03 0 06:46 03.05.2022
3904 Clear 9 1003 83 10000 1.03 0 05:58 03.05.2022
3905 Clear 12 1008 73 10000 2.06 10 00:54 03.05.2022
3906 Clear 14 1016 63 10000 1.03 20 22:38 02.05.2022
3907 Clear 13 1016 62 10000 2.06 30 21:52 02.05.2022
3908 Clear 15 1016 54 10000 2.06 340 20:51 02.05.2022
3909 Clear 20 1015 44 10000 1.54 0 18:44 02.05.2022
3910 Clear 20 1003 46 10000 1.54 0 18:25 02.05.2022
3911 Clear 20 1016 43 10000 1.54 70 17:37 02.05.2022
3912 Clear 20 1004 46 10000 1.54 210 16:23 02.05.2022
3913 Clear 20 1005 48 10000 2.57 70 15:31 02.05.2022
3914 Clear 20 1017 46 10000 2.06 50 13:52 02.05.2022
3915 Clear 18 1018 48 10000 4.63 60 12:20 02.05.2022
3916 Clear 16 1019 57 10000 3.09 40 10:51 02.05.2022
3917 Clear 13 1019 64 10000 1.54 90 09:29 02.05.2022
3918 Clear 10 1020 76 10000 0.51 0 07:52 02.05.2022
3919 Clear 8 1012 81 10000 2.06 10 04:36 02.05.2022
3920 Clear 11 1021 66 10000 1.03 20 00:25 02.05.2022
3921 Clear 12 1021 63 10000 2.06 10 23:52 01.05.2022
3922 Clear 12 1009 64 10000 3.6 20 22:39 01.05.2022
3923 Clear 14 1011 61 10000 4.63 20 21:26 01.05.2022
3924 Clear 16 1010 55 10000 3.09 330 20:19 01.05.2022
3925 Clear 18 1011 44 10000 4.63 330 19:18 01.05.2022
3926 Clear 18 1019 40 10000 4.63 340 18:46 01.05.2022
3927 Clear 19 1019 38 10000 3.09 360 17:46 01.05.2022
3928 Clear 20 1011 37 10000 3.09 20 16:24 01.05.2022
3929 Clear 20 1008 41 10000 1.03 0 15:38 01.05.2022
3930 Clouds 19 1020 44 10000 4.12 310 14:22 01.05.2022
3931 Clear 17 1021 50 10000 1.54 0 11:41 01.05.2022
3932 Clear 12 1022 71 10000 1.54 320 09:32 01.05.2022
3933 Clear 11 1010 75 10000 3.09 280 08:47 01.05.2022
3934 Clear 7 1001 83 10000 1.03 0 05:31 01.05.2022
3935 Clear 10 1009 72 10000 3.09 160 00:43 01.05.2022
3936 Clear 11 1021 67 10000 1.03 100 21:52 30.04.2022
3937 Clear 12 1021 65 10000 2.06 100 21:30 30.04.2022
3938 Clear 12 1021 65 10000 2.06 100 21:30 30.04.2022
3939 Clear 16 1020 47 10000 2.06 40 19:47 30.04.2022
3940 Clear 17 1020 45 10000 1.54 40 18:50 30.04.2022
3941 Clear 18 1020 43 10000 2.06 50 17:20 30.04.2022
3942 Clear 19 1012 40 10000 2.06 30 15:51 30.04.2022
3943 Clouds 19 1009 44 10000 2.57 360 14:54 30.04.2022
3944 Clouds 19 1010 49 10000 2.06 340 13:41 30.04.2022
3945 Clear 17 1014 51 10000 1.03 0 11:39 30.04.2022
3946 Clear 16 1011 55 10000 2.57 320 10:55 30.04.2022
3947 Clear 14 1011 62 10000 1.03 0 09:54 30.04.2022
3948 Clear 9 1011 76 10000 2.06 150 07:35 30.04.2022
3949 Clear 9 1023 71 10000 3.09 150 03:53 30.04.2022
3950 Clear 10 1016 70 10000 0.51 0 23:54 29.04.2022
3951 Clear 11 1016 63 10000 1.54 110 22:36 29.04.2022
3952 Clear 10 1025 63 10000 1.54 100 21:55 29.04.2022
3953 Clear 11 1025 58 10000 2.06 90 21:21 29.04.2022
3954 Clear 16 1025 43 10000 3.09 90 19:52 29.04.2022
3955 Clear 17 1016 42 10000 1.03 0 18:58 29.04.2022
3956 Clear 18 1013 42 10000 2.57 0 17:34 29.04.2022
3957 Clear 18 1014 41 10000 2.06 0 16:30 29.04.2022
3958 Clear 18 1027 43 10000 3.09 50 14:34 29.04.2022
3959 Clouds 17 1015 46 10000 3.09 360 13:27 29.04.2022
3960 Clouds 17 1028 48 10000 1.54 0 12:33 29.04.2022
3961 Clear 14 1016 67 10000 1.03 0 09:52 29.04.2022
3962 Clear 8 1017 84 10000 2.06 220 07:52 29.04.2022
3963 Clear 6 1029 90 10000 1.54 220 07:25 29.04.2022
3964 Clear 5 1016 89 10000 1.54 210 06:29 29.04.2022
3965 Clear 9 1017 77 10000 0.51 0 00:52 29.04.2022
3966 Clear 10 1016 73 10000 1.54 340 23:55 28.04.2022
3967 Clear 10 1016 73 10000 2.06 320 23:25 28.04.2022
3968 Clear 10 1020 74 10000 1.54 320 22:19 28.04.2022
3969 Clear 11 1020 68 10000 2.06 290 21:41 28.04.2022
3970 Clear 13 1028 57 10000 1.54 290 20:45 28.04.2022
3971 Clear 15 1027 56 10000 2.57 330 19:52 28.04.2022
3972 Clear 16 1027 47 10000 3.09 320 19:24 28.04.2022
3973 Clear 16 1027 49 10000 2.57 300 18:51 28.04.2022
3974 Clear 17 1027 48 10000 4.63 310 17:42 28.04.2022
3975 Clear 16 1027 47 10000 4.63 330 16:52 28.04.2022
3976 Clouds 16 1027 47 10000 4.12 310 16:20 28.04.2022
3977 Clouds 17 1027 43 10000 4.63 310 15:48 28.04.2022
3978 Clouds 17 1028 51 10000 4.63 300 14:58 28.04.2022
3979 Clouds 17 1028 52 10000 2.57 0 13:37 28.04.2022
3980 Clouds 16 1009 58 10000 3.09 320 12:29 28.04.2022
3981 Clouds 16 1028 52 10000 3.09 350 11:37 28.04.2022
3982 Clear 14 1028 62 10000 2.06 340 10:26 28.04.2022
3983 Clear 12 1028 69 10000 1.54 0 09:50 28.04.2022
3984 Clear 8 1016 83 10000 1.79 197 07:41 28.04.2022
3985 Clear 7 1006 85 10000 1.54 220 06:51 28.04.2022
3986 Clear 6 1006 88 10000 2.06 230 05:53 28.04.2022
3987 Clear 6 1014 86 10000 2.57 230 04:43 28.04.2022
3988 Clear 6 1026 86 10000 2.06 220 02:41 28.04.2022
3989 Clear 8 1013 79 10000 1.54 300 23:32 27.04.2022
3990 Clear 9 1017 75 10000 2.06 290 22:22 27.04.2022
3991 Clear 9 1026 71 10000 1.54 300 21:46 27.04.2022
3992 Clear 11 1025 64 10000 1.54 270 20:46 27.04.2022
3993 Clear 13 1024 57 10000 2.06 300 19:57 27.04.2022
3994 Clear 14 1024 56 10000 2.06 300 19:36 27.04.2022
3995 Clear 15 1015 49 10000 3.6 300 18:42 27.04.2022
3996 Clear 16 1015 49 10000 2.06 320 18:21 27.04.2022
3997 Clouds 15 1015 53 10000 3.09 10 16:20 27.04.2022
3998 Clouds 16 1023 53 10000 2.57 0 13:21 27.04.2022
3999 Clouds 15 1015 63 10000 2.57 350 11:37 27.04.2022
4000 Clouds 13 1015 70 10000 1.03 0 10:51 27.04.2022
4001 Clear 9 1010 89 10000 1.54 210 08:31 27.04.2022
4002 Clear 6 1001 94 10000 1.03 340 06:44 27.04.2022
4003 Clear 7 1007 86 10000 1.03 90 02:40 27.04.2022
4004 Clear 8 1007 82 10000 0.51 0 01:24 27.04.2022
4005 Clear 8 1019 82 10000 1.03 150 00:35 27.04.2022
4006 Clear 8 1019 84 10000 1.03 70 23:24 26.04.2022
4007 Clear 8 1019 83 10000 1.54 70 22:52 26.04.2022
4008 Clear 9 1019 81 10000 1.54 80 22:32 26.04.2022
4009 Clouds 10 1009 73 10000 1.54 110 21:26 26.04.2022
4010 Clear 12 1017 64 10000 2.06 150 20:40 26.04.2022
4011 Clear 12 1017 64 10000 2.06 150 20:40 26.04.2022
4012 Clear 13 1008 61 10000 2.06 50 19:48 26.04.2022
4013 Clear 15 1007 58 10000 1.54 70 19:26 26.04.2022
4014 Clear 14 1007 57 10000 2.57 100 18:42 26.04.2022
4015 Clouds 15 1007 56 10000 4.12 130 17:50 26.04.2022
4016 Clouds 15 1006 54 10000 3.6 100 16:26 26.04.2022
4017 Clouds 16 1004 58 10000 2.06 0 13:58 26.04.2022
4018 Clouds 16 1004 59 10000 3.6 80 13:29 26.04.2022
4019 Clouds 14 1004 64 10000 2.57 70 11:48 26.04.2022
4020 Clouds 13 1003 72 10000 1.54 0 10:31 26.04.2022
4021 Fog 9 1004 77 10000 1.03 0 08:47 26.04.2022
4022 Clear 4 995 97 10000 1.03 140 06:57 26.04.2022
4023 Clear 4 995 97 10000 1.54 170 04:23 26.04.2022
4024 Clear 4 1006 94 10000 1.03 0 00:57 26.04.2022
4025 Clear 5 1006 93 10000 1.03 180 00:20 26.04.2022
4026 Clear 6 1005 88 10000 1.54 160 22:21 25.04.2022
4027 Clear 7 1014 85 10000 0.51 130 21:34 25.04.2022
4028 Clear 8 1014 76 10000 1.03 100 20:35 25.04.2022
4029 Clouds 12 1012 62 10000 4.12 20 18:54 25.04.2022
4030 Clouds 12 999 71 10000 4.12 10 17:43 25.04.2022
4031 Clouds 12 1003 72 10000 4.63 20 16:52 25.04.2022
4032 Clouds 11 999 80 10000 4.12 320 15:24 25.04.2022
4033 Clouds 11 1002 77 10000 3.09 300 14:34 25.04.2022
4034 Clouds 10 1002 82 10000 3.6 320 13:30 25.04.2022
4035 Clouds 9 1001 90 10000 3.6 350 11:37 25.04.2022
4036 Clouds 8 1000 93 9000 3.6 350 10:20 25.04.2022
4037 Clouds 8 999 98 6000 3.09 10 08:35 25.04.2022
4038 Drizzle 8 998 97 3500 4.12 360 06:38 25.04.2022
4039 Rain 8 997 97 7000 3.6 360 03:44 25.04.2022
4040 Rain 8 996 97 4500 2.57 350 00:43 25.04.2022
4041 Mist 8 996 97 4500 2.57 350 23:51 24.04.2022
4042 Clouds 8 996 97 4000 3.09 350 22:41 24.04.2022
4043 Clouds 8 996 97 8000 2.57 350 22:18 24.04.2022
4044 Rain 8 996 95 10000 2.06 20 21:24 24.04.2022
4045 Rain 8 995 94 10000 3.09 70 20:48 24.04.2022
4046 Rain 8 991 91 10000 3.09 80 20:29 24.04.2022
4047 Rain 8 995 92 10000 4.63 100 19:45 24.04.2022
4048 Rain 9 995 90 10000 1.03 0 18:20 24.04.2022
4049 Rain 9 994 89 10000 3.6 120 17:27 24.04.2022
4050 Rain 9 994 88 10000 4.12 120 16:58 24.04.2022
4051 Rain 9 994 83 10000 4.12 120 16:32 24.04.2022
4052 Rain 10 994 80 10000 8.23 80 15:54 24.04.2022
4053 Rain 11 993 79 10000 5.14 70 15:29 24.04.2022
4054 Rain 11 993 73 10000 9.26 80 13:56 24.04.2022
4055 Rain 12 1002 56 10000 9.26 90 13:25 24.04.2022
4056 Clear 13 1001 54 10000 9.26 80 11:56 24.04.2022
4057 Clear 14 1001 54 10000 8.75 90 11:28 24.04.2022
4058 Clear 12 1002 61 10000 5.66 80 10:24 24.04.2022
4059 Clear 11 1002 66 10000 6.17 80 09:23 24.04.2022
4060 Clear 7 984 79 10000 2.06 40 06:34 24.04.2022
4061 Clear 7 992 75 10000 2.06 80 03:43 24.04.2022
4062 Clear 8 993 74 10000 2.57 80 01:38 24.04.2022
4063 Clear 9 994 71 10000 2.57 90 00:22 24.04.2022
4064 Clear 8 998 71 10000 2.57 110 23:44 23.04.2022
4065 Clear 9 998 68 10000 3.6 80 23:21 23.04.2022
4066 Clear 11 998 59 10000 3.6 90 21:51 23.04.2022
4067 Clear 12 998 58 10000 3.6 90 21:32 23.04.2022
4068 Clear 13 998 55 10000 4.63 80 20:45 23.04.2022
4069 Clear 15 998 49 10000 6.17 90 19:46 23.04.2022
4070 Clear 16 998 46 10000 7.2 90 19:19 23.04.2022
4071 Clear 16 1006 46 10000 8.23 90 18:49 23.04.2022
4072 Clear 17 1006 46 10000 7.2 80 17:50 23.04.2022
4073 Clear 17 1007 42 10000 7.2 80 17:20 23.04.2022
4074 Clear 17 1007 44 10000 7.72 100 16:40 23.04.2022
4075 Clouds 16 1008 48 10000 7.72 80 14:57 23.04.2022
4076 Clouds 16 997 47 10000 6.17 100 12:35 23.04.2022
4077 Clouds 13 1009 50 10000 7.2 90 10:43 23.04.2022
4078 Clear 11 997 63 10000 5.66 90 09:30 23.04.2022
4079 Clear 4 997 90 10000 2.57 50 06:29 23.04.2022
4080 Clear 5 997 88 10000 1.03 0 03:54 23.04.2022
4081 Clear 9 1001 80 10000 4.63 80 00:57 23.04.2022
4082 Clouds 10 1000 80 10000 7.2 90 23:29 22.04.2022
4083 Clouds 10 1000 79 10000 6.69 80 22:20 22.04.2022
4084 Clouds 11 1000 78 10000 7.2 80 21:42 22.04.2022
4085 Clear 11 1000 75 10000 8.23 80 20:46 22.04.2022
4086 Clear 12 1000 74 10000 7.72 80 20:26 22.04.2022
4087 Clear 13 999 68 10000 8.23 90 19:18 22.04.2022
4088 Clear 13 999 67 10000 8.23 90 18:41 22.04.2022
4089 Clouds 14 999 68 10000 9.26 80 17:40 22.04.2022
4090 Clouds 14 999 69 10000 9.26 90 16:46 22.04.2022
4091 Clouds 14 998 65 10000 8.75 60 15:42 22.04.2022
4092 Clouds 15 998 65 10000 8.23 80 14:46 22.04.2022
4093 Clouds 16 998 62 10000 7.2 70 13:49 22.04.2022
4094 Clouds 16 995 66 10000 5.14 60 12:58 22.04.2022
4095 Clouds 15 995 70 10000 4.63 110 11:50 22.04.2022
4096 Clouds 14 996 71 10000 5.66 80 11:21 22.04.2022
4097 Clouds 13 996 78 10000 4.63 60 10:50 22.04.2022
4098 Clouds 12 996 79 10000 4.63 80 10:30 22.04.2022
4099 Clouds 11 1000 78 8000 2.06 50 09:50 22.04.2022
4100 Mist 8 1000 90 5000 2.06 120 08:50 22.04.2022
4101 Fog 5 1001 96 3200 1.54 150 06:58 22.04.2022
4102 Clouds 7 1011 94 7000 2.57 70 03:30 22.04.2022
4103 Clouds 8 1012 93 10000 2.57 50 00:51 22.04.2022
4104 Clouds 8 1003 94 10000 2.57 70 23:24 21.04.2022
4105 Drizzle 9 1003 94 8000 3.09 70 22:29 21.04.2022
4106 Drizzle 9 1004 95 7000 2.06 40 20:37 21.04.2022
4107 Drizzle 9 1004 95 7000 2.57 60 20:18 21.04.2022
4108 Drizzle 10 1004 89 10000 3.09 70 18:42 21.04.2022
4109 Clouds 10 1004 87 10000 3.6 60 18:18 21.04.2022
4110 Clouds 10 1004 87 10000 2.06 60 16:44 21.04.2022
4111 Clouds 11 1004 83 10000 1.54 40 15:22 21.04.2022
4112 Clouds 9 1004 90 10000 1.54 70 14:49 21.04.2022
4113 Mist 9 1005 93 4500 1.03 0 13:23 21.04.2022
4114 Drizzle 9 1001 96 6000 1.03 0 12:59 21.04.2022
4115 Drizzle 8 1005 96 1500 1.54 330 10:57 21.04.2022
4116 Drizzle 7 1004 96 500 2.57 350 08:57 21.04.2022
4117 Fog 7 1004 96 800 1.54 330 07:32 21.04.2022
4118 Fog 7 1004 96 600 1.54 330 05:44 21.04.2022
4119 Clouds 7 1004 94 6000 1.03 0 03:33 21.04.2022
4120 Clouds 7 1005 93 10000 2.06 340 02:48 21.04.2022
4121 Clouds 7 1005 93 10000 2.06 340 02:48 21.04.2022
4122 Clouds 7 1005 92 10000 1.54 280 01:41 21.04.2022
4123 Clouds 7 1005 93 10000 1.03 0 23:51 20.04.2022
4124 Clouds 7 1005 92 10000 1.54 260 23:23 20.04.2022
4125 Clouds 7 1005 93 10000 1.54 250 22:51 20.04.2022
4126 Clouds 7 1005 93 10000 1.54 250 22:32 20.04.2022
4127 Clouds 7 1001 93 10000 2.06 250 21:33 20.04.2022
4128 Clouds 7 1006 92 10000 1.54 240 20:41 20.04.2022
4129 Clouds 7 1006 91 10000 1.54 270 19:53 20.04.2022
4130 Clouds 7 1006 90 10000 1.54 330 19:25 20.04.2022
4131 Rain 8 1006 87 10000 3.6 360 18:26 20.04.2022
4132 Rain 8 1006 86 10000 4.12 350 16:57 20.04.2022
4133 Clouds 8 1006 86 10000 4.12 350 16:38 20.04.2022
4134 Clouds 8 1007 79 10000 2.57 310 14:48 20.04.2022
4135 Clouds 9 1004 62 10000 3.09 300 11:56 20.04.2022
4136 Clouds 8 1008 65 10000 3.09 270 11:29 20.04.2022
4137 Clouds 7 1008 70 10000 3.6 250 10:29 20.04.2022
4138 Clear 5 1005 78 10000 2.57 210 09:27 20.04.2022
4139 Clear 4 997 86 10000 2.06 190 08:24 20.04.2022
4140 Clear 3 997 87 10000 1.54 190 07:43 20.04.2022
4141 Clear 1 997 88 10000 2.06 190 04:49 20.04.2022
4142 Clear 2 1004 82 10000 1.03 0 01:20 20.04.2022
4143 Clear 3 1004 77 10000 1.03 210 00:20 20.04.2022
4144 Clear 4 1004 76 10000 2.06 170 22:40 19.04.2022
4145 Clear 5 1004 72 10000 2.06 170 22:19 19.04.2022
4146 Clear 5 1008 72 10000 1.03 170 21:38 19.04.2022
4147 Clear 6 1007 65 10000 1.54 0 20:56 19.04.2022
4148 Clear 7 1007 66 10000 1.54 0 20:36 19.04.2022
4149 Clear 8 1007 58 10000 4.12 100 19:32 19.04.2022
4150 Clouds 11 1006 51 10000 5.14 80 18:26 19.04.2022
4151 Clear 10 1005 55 10000 6.69 90 16:47 19.04.2022
4152 Clouds 11 1014 53 10000 5.66 50 16:25 19.04.2022
4153 Clouds 11 1014 44 10000 5.66 20 15:23 19.04.2022
4154 Clouds 11 1014 41 10000 6.69 30 14:40 19.04.2022
4155 Clear 12 1013 44 10000 6.69 30 12:52 19.04.2022
4156 Clouds 12 1001 46 10000 6.17 30 12:29 19.04.2022
4157 Clouds 11 1001 53 10000 4.12 30 11:23 19.04.2022
4158 Clear 8 1005 66 10000 4.63 360 09:31 19.04.2022
4159 Clouds 6 1005 74 10000 2.57 330 07:37 19.04.2022
4160 Rain 5 1005 74 10000 1.03 0 04:24 19.04.2022
4161 Clear 6 1003 69 10000 0.51 0 01:24 19.04.2022
4162 Clear 6 1007 63 10000 0.51 320 23:44 18.04.2022
4163 Clear 8 1008 54 10000 1.54 30 21:57 18.04.2022
4164 Clear 9 1017 44 10000 2.06 30 21:25 18.04.2022
4165 Clear 10 1017 47 10000 2.06 30 20:39 18.04.2022
4166 Clear 12 1016 53 10000 4.12 360 19:59 18.04.2022
4167 Clear 13 1017 38 10000 4.12 360 19:32 18.04.2022
4168 Clear 13 1016 42 10000 4.12 10 18:43 18.04.2022
4169 Clear 15 1008 39 10000 4.12 340 17:40 18.04.2022
4170 Clear 15 1008 39 10000 5.14 350 17:19 18.04.2022
4171 Clear 15 1005 42 10000 4.63 330 16:38 18.04.2022
4172 Clear 14 1018 42 10000 4.63 10 15:30 18.04.2022
4173 Clouds 14 1007 49 10000 4.63 10 14:27 18.04.2022
4174 Clouds 13 1020 49 10000 3.6 360 12:56 18.04.2022
4175 Clouds 13 1020 56 10000 4.12 330 12:24 18.04.2022
4176 Clouds 11 1021 58 10000 2.57 360 10:47 18.04.2022
4177 Clear 10 1021 58 10000 2.06 360 09:53 18.04.2022
4178 Clear 9 1022 62 10000 1.54 320 09:27 18.04.2022
4179 Clear 3 1009 81 10000 1.03 0 07:25 18.04.2022
4180 Clear 4 1010 77 10000 0 0 02:45 18.04.2022
4181 Clear 6 1012 73 10000 0.51 0 23:23 17.04.2022
4182 Clear 6 1012 72 10000 0.51 280 22:37 17.04.2022
4183 Clear 7 1016 66 10000 1.54 310 21:34 17.04.2022
4184 Clear 8 1017 62 10000 1.03 350 20:53 17.04.2022
4185 Clear 9 1017 58 10000 1.03 0 20:19 17.04.2022
4186 Clear 12 1025 45 10000 3.09 40 19:20 17.04.2022
4187 Clear 13 1017 45 10000 3.6 60 17:34 17.04.2022
4188 Clear 13 1027 46 10000 3.6 50 15:37 17.04.2022
4189 Clear 14 1028 42 10000 4.12 30 14:53 17.04.2022
4190 Clouds 13 1029 41 10000 3.09 0 13:41 17.04.2022
4191 Clear 12 1030 47 10000 3.6 70 12:52 17.04.2022
4192 Clear 10 1031 53 10000 3.09 20 11:22 17.04.2022
4193 Clear 9 1031 58 10000 1.54 310 10:30 17.04.2022
4194 Clear 8 1018 60 10000 1.03 0 09:57 17.04.2022
4195 Clear 7 1019 65 10000 1.03 0 09:23 17.04.2022
4196 Clear 5 1019 74 10000 1.54 170 08:41 17.04.2022
4197 Clear 1 1019 83 10000 1.54 340 06:52 17.04.2022
4198 Clear 2 1024 81 10000 0.51 0 02:56 17.04.2022
4199 Clear 4 1033 69 10000 1.03 60 00:43 17.04.2022
4200 Clear 4 1033 74 10000 1.54 30 23:48 16.04.2022
4201 Clear 5 1033 68 10000 1.54 10 21:55 16.04.2022
4202 Clear 6 1024 64 10000 2.57 20 21:23 16.04.2022
4203 Clear 9 1032 51 10000 3.6 20 19:54 16.04.2022
4204 Clear 11 1032 47 10000 5.66 10 18:54 16.04.2022
4205 Clear 11 1032 47 10000 5.14 20 17:38 16.04.2022
4206 Clouds 11 1032 49 10000 4.63 0 16:31 16.04.2022
4207 Clouds 11 1020 52 10000 4.63 360 15:26 16.04.2022
4208 Clouds 11 1020 58 10000 3.09 0 14:47 16.04.2022
4209 Clouds 10 1020 59 10000 3.6 0 13:56 16.04.2022
4210 Clouds 10 1024 56 10000 4.63 350 13:25 16.04.2022
4211 Clouds 7 1021 67 10000 3.6 10 11:58 16.04.2022
4212 Clouds 6 1024 67 10000 4.63 50 10:42 16.04.2022
4213 Clouds 4 1024 74 10000 4.12 40 09:41 16.04.2022
4214 Clouds 3 1024 75 10000 4.12 30 08:56 16.04.2022
4215 Clouds 3 1023 78 10000 5.14 10 07:31 16.04.2022
4216 Clouds 3 1022 82 10000 4.12 10 06:22 16.04.2022
4217 Clouds 6 1020 89 10000 4.12 10 01:53 16.04.2022
4218 Clouds 7 1019 91 10000 3.6 360 00:21 16.04.2022
4219 Drizzle 7 1018 94 8000 4.12 360 22:54 15.04.2022
4220 Drizzle 7 1018 94 7000 6.17 350 22:31 15.04.2022
4221 Clouds 8 1027 93 10000 6.17 350 21:44 15.04.2022
4222 Drizzle 9 1017 94 8000 4.12 320 20:56 15.04.2022
4223 Clouds 9 1017 93 10000 4.12 320 19:59 15.04.2022
4224 Clouds 9 1017 93 10000 4.12 320 19:38 15.04.2022
4225 Clouds 9 1016 93 10000 4.12 320 18:46 15.04.2022
4226 Clouds 9 1016 95 8000 4.12 320 18:24 15.04.2022
4227 Drizzle 9 1016 93 6000 4.63 310 17:30 15.04.2022
4228 Clouds 10 1016 79 10000 6.17 320 16:26 15.04.2022
4229 Clouds 10 1016 76 10000 5.66 310 15:59 15.04.2022
4230 Drizzle 10 1016 76 10000 4.63 310 14:41 15.04.2022
4231 Clouds 9 1016 79 10000 4.63 310 13:33 15.04.2022
4232 Clouds 9 1016 79 10000 5.66 310 12:40 15.04.2022
4233 Clouds 9 1015 81 10000 5.14 320 11:54 15.04.2022
4234 Clouds 9 1015 83 10000 5.66 310 10:58 15.04.2022
4235 Clouds 9 1015 84 10000 5.66 310 10:40 15.04.2022
4236 Clouds 10 1014 87 10000 4.63 320 09:41 15.04.2022
4237 Clouds 10 1014 89 10000 4.63 330 09:19 15.04.2022
4238 Mist 11 1022 92 3800 3.09 290 07:28 15.04.2022
4239 Mist 10 1021 95 5000 2.57 280 05:58 15.04.2022
4240 Clear 11 1012 94 10000 2.68 234 02:39 15.04.2022
4241 Fog 12 1013 96 10000 1.54 240 23:31 14.04.2022
4242 Clear 12 1013 95 10000 1.03 240 22:49 14.04.2022
4243 Clouds 12 1013 96 10000 1.54 280 22:29 14.04.2022
4244 Rain 12 1013 96 10000 1.54 220 21:59 14.04.2022
4245 Rain 12 1012 93 10000 1.54 320 20:37 14.04.2022
4246 Rain 15 1012 73 10000 4.63 350 19:23 14.04.2022
4247 Clouds 17 1011 66 10000 5.66 340 18:22 14.04.2022
4248 Clouds 18 1019 58 10000 5.14 320 17:38 14.04.2022
4249 Clouds 19 1018 57 10000 4.63 350 16:36 14.04.2022
4250 Clouds 20 1006 59 10000 5.66 310 15:24 14.04.2022
4251 Clouds 19 1010 53 10000 4.12 340 13:46 14.04.2022
4252 Clouds 19 1009 54 10000 3.6 330 12:56 14.04.2022
4253 Clouds 19 1006 59 10000 3.09 300 12:31 14.04.2022
4254 Clear 18 1009 58 10000 2.57 290 11:29 14.04.2022
4255 Clear 18 1010 57 10000 2.57 260 10:52 14.04.2022
4256 Clear 17 1006 61 10000 2.57 270 10:26 14.04.2022
4257 Clear 16 1009 55 10000 3.09 210 09:24 14.04.2022
4258 Clear 10 1009 72 10000 3.09 160 07:27 14.04.2022
4259 Clear 11 1009 67 10000 3.6 150 03:32 14.04.2022
4260 Clear 13 1018 60 10000 2.06 150 23:26 13.04.2022
4261 Clear 14 1009 59 10000 3.58 132 22:23 13.04.2022
4262 Clear 15 1009 57 10000 2.68 119 21:37 13.04.2022
4263 Clear 16 1009 55 10000 2.57 160 20:23 13.04.2022
4264 Clear 18 1009 48 10000 4.63 170 19:37 13.04.2022
4265 Clear 20 1017 40 10000 4.63 170 18:36 13.04.2022
4266 Clear 21 1008 39 10000 5.14 160 17:24 13.04.2022
4267 Clear 21 1005 40 10000 5.14 160 16:41 13.04.2022
4268 Clear 21 1017 34 10000 4.12 130 15:43 13.04.2022
4269 Clear 21 1017 34 10000 4.12 150 14:53 13.04.2022
4270 Clear 21 1017 35 10000 3.09 170 14:30 13.04.2022
4271 Clear 21 1017 34 10000 4.12 150 13:29 13.04.2022
4272 Clear 20 1017 39 10000 4.12 160 12:38 13.04.2022
4273 Clear 17 1017 44 10000 7.72 160 10:58 13.04.2022
4274 Clear 15 1017 43 10000 6.69 150 09:45 13.04.2022
4275 Clear 13 1005 54 10000 7.72 150 08:43 13.04.2022
4276 Clear 9 1008 59 10000 7.72 150 07:23 13.04.2022
4277 Clear 8 1008 61 10000 6.17 150 06:46 13.04.2022
4278 Clear 8 1008 61 10000 5.14 150 06:18 13.04.2022
4279 Clear 9 1008 58 10000 4.63 140 00:25 13.04.2022
4280 Clear 9 1008 58 10000 3.6 130 23:46 12.04.2022
4281 Clear 10 1008 55 10000 3.58 99 22:31 12.04.2022
4282 Clear 10 1017 52 10000 3.09 130 21:42 12.04.2022
4283 Clear 12 1017 44 10000 4.12 130 20:44 12.04.2022
4284 Clear 14 1005 43 10000 4.12 120 19:54 12.04.2022
4285 Clear 14 1005 43 10000 4.12 120 19:54 12.04.2022
4286 Clear 15 1018 31 10000 4.12 120 19:35 12.04.2022
4287 Clear 17 1017 33 10000 4.63 120 18:52 12.04.2022
4288 Clear 17 1005 34 10000 4.63 160 17:37 12.04.2022
4289 Clear 18 1005 36 10000 3.6 160 16:34 12.04.2022
4290 Clear 17 1005 35 10000 5.14 160 15:33 12.04.2022
4291 Clear 16 1006 37 10000 6.17 160 14:33 12.04.2022
4292 Clear 16 1006 37 10000 5.14 140 13:45 12.04.2022
4293 Clear 15 1018 34 10000 5.66 150 13:23 12.04.2022
4294 Clear 15 1006 43 10000 5.66 140 11:49 12.04.2022
4295 Clear 14 998 46 10000 4.63 150 11:28 12.04.2022
4296 Clear 10 1019 56 10000 3.6 140 09:32 12.04.2022
4297 Clear 6 1019 66 10000 3.6 150 08:32 12.04.2022
4298 Clear 2 1018 78 10000 1.03 0 06:33 12.04.2022
4299 Clear 2 1006 80 10000 2.06 140 05:38 12.04.2022
4300 Clear 3 1006 71 10000 1.54 140 01:48 12.04.2022
4301 Clear 5 1006 68 10000 2.57 110 23:20 11.04.2022
4302 Clear 6 1010 63 10000 1.54 70 21:51 11.04.2022
4303 Clear 6 1010 61 10000 2.06 60 21:18 11.04.2022
4304 Clear 8 1018 47 10000 2.06 20 20:30 11.04.2022
4305 Clear 10 1018 48 10000 2.06 10 19:58 11.04.2022
4306 Clouds 10 1018 45 10000 3.09 10 19:26 11.04.2022
4307 Clear 11 1018 42 10000 3.09 20 18:53 11.04.2022
4308 Clear 13 1018 38 10000 3.6 10 17:58 11.04.2022
4309 Clear 13 1018 38 10000 3.6 10 17:33 11.04.2022
4310 Clear 13 1019 41 10000 3.6 310 16:25 11.04.2022
4311 Clear 13 1007 41 10000 2.06 0 14:42 11.04.2022
4312 Clear 12 1008 40 10000 2.06 0 13:34 11.04.2022
4313 Clear 12 1008 43 10000 3.13 230 12:38 11.04.2022
4314 Clouds 11 1009 48 10000 3.6 230 11:54 11.04.2022
4315 Clouds 10 1009 57 10000 3.09 270 10:36 11.04.2022
4316 Clear 8 1009 68 10000 3.09 230 09:41 11.04.2022
4317 Clear 2 1012 83 10000 3.09 220 07:54 11.04.2022
4318 Clouds 2 1012 82 10000 2.68 226 03:19 11.04.2022
4319 Clouds 3 1012 82 10000 2.24 227 23:27 10.04.2022
4320 Clear 4 1007 82 10000 3.6 300 22:26 10.04.2022
4321 Clouds 4 1011 78 10000 4.12 300 21:43 10.04.2022
4322 Clouds 5 1010 78 10000 4.92 224 20:50 10.04.2022
4323 Clouds 6 1018 70 10000 3.6 250 19:54 10.04.2022
4324 Clouds 5 1009 73 10000 3.6 250 19:33 10.04.2022
4325 Clouds 6 1009 72 10000 2.57 260 18:46 10.04.2022
4326 Clouds 6 1009 76 10000 3.58 229 18:20 10.04.2022
4327 Clouds 8 1009 63 10000 5.66 290 17:41 10.04.2022
4328 Clouds 7 1018 61 10000 6.69 290 16:51 10.04.2022
4329 Clouds 9 1004 65 10000 4.63 320 15:38 10.04.2022
4330 Clouds 8 1004 66 10000 5.14 280 14:40 10.04.2022
4331 Clouds 7 1005 76 10000 5.66 280 12:58 10.04.2022
4332 Clouds 5 1009 76 10000 5.66 290 12:26 10.04.2022
4333 Clouds 6 1005 74 10000 5.66 300 11:35 10.04.2022
4334 Clouds 5 1008 72 10000 6.17 280 10:58 10.04.2022
4335 Clouds 5 1008 73 10000 5.66 260 10:22 10.04.2022
4336 Clouds 5 1008 74 10000 5.66 270 09:41 10.04.2022
4337 Clouds 4 1007 75 10000 4.63 260 08:26 10.04.2022
4338 Clouds 4 1007 77 10000 4.63 270 07:47 10.04.2022
4339 Clouds 3 1006 79 10000 5.14 270 06:48 10.04.2022
4340 Clouds 3 1005 82 10000 5.14 260 03:36 10.04.2022
4341 Clear 3 1004 85 10000 4.02 233 01:29 10.04.2022
4342 Clouds 3 1004 84 10000 4.12 260 23:52 09.04.2022
4343 Clouds 3 1003 85 10000 4.12 260 22:52 09.04.2022
4344 Clear 4 1003 84 10000 3.13 232 21:51 09.04.2022
4345 Clouds 4 998 84 10000 4.92 215 20:58 09.04.2022
4346 Clouds 4 1001 81 10000 4.47 229 20:26 09.04.2022
4347 Clouds 5 1001 80 10000 3.09 290 19:43 09.04.2022
4348 Clouds 5 1001 81 10000 6.17 280 19:21 09.04.2022
4349 Clouds 7 1000 79 10000 7.2 270 18:22 09.04.2022
4350 Rain 7 996 73 10000 6.69 270 17:43 09.04.2022
4351 Clouds 9 995 68 10000 7.2 270 16:55 09.04.2022
4352 Clouds 10 995 62 10000 6.69 290 16:28 09.04.2022
4353 Clouds 10 998 60 10000 8.23 290 15:48 09.04.2022
4354 Clouds 9 998 64 10000 7.2 290 15:25 09.04.2022
4355 Clouds 7 999 75 10000 6.17 280 14:25 09.04.2022
4356 Clouds 5 998 83 10000 5.14 290 13:24 09.04.2022
4357 Clouds 6 994 76 5000 6.69 310 12:53 09.04.2022
4358 Clouds 7 997 69 10000 4.63 280 11:44 09.04.2022
4359 Clouds 5 997 83 10000 5.66 280 10:41 09.04.2022
4360 Rain 5 997 84 10000 6.69 290 10:18 09.04.2022
4361 Clouds 6 992 78 10000 6.17 290 09:22 09.04.2022
4362 Clouds 4 994 84 10000 6.17 300 07:49 09.04.2022
4363 Clouds 3 985 90 10000 1.79 213 03:57 09.04.2022
4364 Clouds 4 983 88 10000 2.24 198 00:33 09.04.2022
4365 Clouds 4 983 87 10000 4.12 220 23:22 08.04.2022
4366 Clouds 5 984 89 10000 5.14 190 21:43 08.04.2022
4367 Clouds 5 985 89 10000 5.14 200 20:43 08.04.2022
4368 Clouds 4 985 88 10000 5.66 200 19:46 08.04.2022
4369 Clouds 6 985 82 10000 6.69 220 18:42 08.04.2022
4370 Clouds 6 985 82 10000 7.72 210 18:20 08.04.2022
4371 Clouds 7 985 70 10000 5.66 230 17:28 08.04.2022
4372 Clouds 9 984 60 10000 5.66 250 16:55 08.04.2022
4373 Clouds 9 984 62 10000 5.36 214 16:27 08.04.2022
4374 Clouds 10 985 56 10000 5.81 230 15:33 08.04.2022
4375 Clouds 11 985 52 10000 5.66 240 14:45 08.04.2022
4376 Clouds 11 986 52 10000 6.69 270 13:59 08.04.2022
4377 Clouds 11 990 52 10000 7.2 270 13:31 08.04.2022
4378 Clouds 10 990 52 10000 7.72 280 12:49 08.04.2022
4379 Clouds 10 990 53 10000 7.72 270 11:26 08.04.2022
4380 Clouds 9 986 63 10000 9.26 260 09:59 08.04.2022
4381 Clouds 9 985 61 10000 10.73 232 09:19 08.04.2022
4382 Clouds 7 984 65 10000 8.75 260 07:44 08.04.2022
4383 Clouds 7 983 65 10000 8.75 250 06:45 08.04.2022
4384 Clear 8 979 62 10000 8.75 240 02:55 08.04.2022
4385 Clouds 7 979 82 10000 6.69 260 00:31 08.04.2022
4386 Clouds 7 978 81 10000 5.66 250 23:52 07.04.2022
4387 Clouds 8 977 77 10000 9.26 280 22:55 07.04.2022
4388 Rain 8 977 73 10000 9.26 280 22:36 07.04.2022
4389 Clouds 9 976 76 10000 6.17 270 22:18 07.04.2022
4390 Rain 10 975 72 10000 6.17 240 21:30 07.04.2022
4391 Clouds 10 975 73 10000 6.26 241 20:55 07.04.2022
4392 Clouds 10 975 73 10000 6.26 234 20:21 07.04.2022
4393 Rain 13 966 69 10000 13.38 220 17:45 07.04.2022
4394 Rain 15 973 58 10000 13.41 219 17:23 07.04.2022
4395 Clouds 15 985 52 10000 13.89 220 16:42 07.04.2022
4396 Clouds 15 987 51 10000 12.35 220 15:56 07.04.2022
4397 Clouds 16 977 53 10000 11.32 220 13:59 07.04.2022
4398 Clouds 16 977 53 10000 11.32 220 13:41 07.04.2022
4399 Clouds 15 991 51 10000 9.77 240 12:28 07.04.2022
4400 Clouds 14 974 66 10000 9.77 220 10:56 07.04.2022
4401 Clouds 12 982 64 10000 8.75 230 09:34 07.04.2022
4402 Clear 11 983 70 10000 6.71 211 08:27 07.04.2022
4403 Clear 9 984 72 10000 5.66 220 06:18 07.04.2022
4404 Clear 10 985 71 10000 5.14 230 02:40 07.04.2022
4405 Clear 10 990 67 10000 6.17 240 01:27 07.04.2022
4406 Clouds 11 990 63 10000 4.92 225 23:53 06.04.2022
4407 Clear 10 991 71 10000 4.02 228 22:45 06.04.2022
4408 Clouds 10 991 70 10000 4.12 210 22:24 06.04.2022
4409 Clear 11 991 67 10000 3.09 220 21:31 06.04.2022
4410 Clouds 12 991 60 10000 4.63 240 20:27 06.04.2022
4411 Clouds 13 991 58 10000 4.12 240 19:53 06.04.2022
4412 Clouds 14 991 56 10000 5.14 240 18:50 06.04.2022
4413 Clouds 15 992 55 10000 6.26 233 17:57 06.04.2022
4414 Clouds 15 992 54 10000 4.63 250 17:35 06.04.2022
4415 Clouds 16 992 55 10000 7.72 240 16:36 06.04.2022
4416 Clouds 15 993 57 10000 5.66 250 15:48 06.04.2022
4417 Clouds 15 993 59 10000 6.69 240 14:35 06.04.2022
4418 Clouds 14 994 61 10000 7.15 228 12:58 06.04.2022
4419 Clouds 13 992 71 10000 6.17 250 11:55 06.04.2022
4420 Clouds 12 995 70 10000 5.36 215 10:47 06.04.2022
4421 Clouds 11 995 75 10000 4.47 224 10:24 06.04.2022
4422 Clouds 11 995 86 10000 4.92 227 09:40 06.04.2022
4423 Clouds 10 996 86 10000 5.81 224 08:32 06.04.2022
4424 Clouds 10 995 81 10000 5.81 226 07:49 06.04.2022
4425 Rain 9 995 89 10000 6.71 202 03:53 06.04.2022
4426 Clouds 9 995 84 10000 5.81 224 23:52 05.04.2022
4427 Clouds 9 995 87 10000 5.66 240 22:31 05.04.2022
4428 Clouds 9 992 91 10000 5.36 228 21:20 05.04.2022
4429 Rain 9 995 88 10000 6.71 223 20:25 05.04.2022
4430 Rain 10 995 82 10000 6.26 216 19:42 05.04.2022
4431 Clouds 9 1003 87 10000 4.12 250 18:18 05.04.2022
4432 Clouds 9 1003 86 10000 2.57 240 16:54 05.04.2022
4433 Rain 8 996 87 10000 4.12 250 15:57 05.04.2022
4434 Clouds 8 992 88 10000 4.12 250 15:34 05.04.2022
4435 Rain 8 996 86 10000 2.57 260 14:36 05.04.2022
4436 Rain 8 992 90 10000 2.68 226 13:35 05.04.2022
4437 Drizzle 7 1005 84 10000 4.12 330 11:51 05.04.2022
4438 Drizzle 7 1005 84 10000 4.12 330 11:51 05.04.2022
4439 Drizzle 8 995 83 10000 6.71 220 11:32 05.04.2022
4440 Clouds 7 995 85 10000 5.66 270 09:59 05.04.2022
4441 Clouds 6 995 87 10000 6.69 260 08:55 05.04.2022
4442 Clouds 5 994 88 10000 7.15 228 07:22 05.04.2022
4443 Snow 6 993 77 10000 7.72 250 01:58 05.04.2022
4444 Snow 4 994 83 10000 8.23 240 22:48 04.04.2022
4445 Snow 4 994 81 10000 9.83 234 22:29 04.04.2022
4446 Clouds 4 995 82 10000 8.23 230 21:22 04.04.2022
4447 Clouds 3 995 82 10000 9.26 230 20:50 04.04.2022
4448 Clouds 3 995 81 10000 8.94 213 20:22 04.04.2022
4449 Clouds 4 996 74 10000 9.26 220 19:26 04.04.2022
4450 Snow 4 997 76 10000 8.23 230 18:37 04.04.2022
4451 Clouds 8 1007 38 10000 9.26 240 16:41 04.04.2022
4452 Clouds 8 998 44 10000 7.72 240 16:23 04.04.2022
4453 Clouds 9 999 42 10000 10.29 230 15:33 04.04.2022
4454 Clouds 9 996 46 10000 10.29 230 14:46 04.04.2022
4455 Clouds 9 1002 44 10000 10.29 240 13:40 04.04.2022
4456 Clouds 8 999 48 10000 9.26 240 12:26 04.04.2022
4457 Clouds 7 993 55 10000 7.72 250 11:29 04.04.2022
4458 Clouds 5 994 64 10000 6.69 240 09:53 04.04.2022
4459 Clouds 2 1007 71 10000 4.92 219 05:33 04.04.2022
4460 Clouds 3 1008 65 10000 4.63 260 02:47 04.04.2022
4461 Clouds 3 1009 60 10000 4.47 228 22:49 03.04.2022
4462 Clouds 3 1009 58 10000 3.13 235 21:59 03.04.2022
4463 Clouds 3 1009 57 10000 3.6 270 21:25 03.04.2022
4464 Clouds 4 1009 52 10000 2.68 230 20:21 03.04.2022
4465 Clouds 5 1009 45 10000 5.36 278 18:46 03.04.2022
4466 Clouds 6 1009 43 10000 4.63 290 17:55 03.04.2022
4467 Clouds 6 1009 43 10000 4.63 290 17:35 03.04.2022
4468 Clouds 5 1005 48 10000 3.09 320 16:49 03.04.2022
4469 Clouds 5 1010 44 10000 3.09 290 15:46 03.04.2022
4470 Clouds 5 1010 44 10000 5.14 320 14:20 03.04.2022
4471 Clouds 4 1007 49 10000 3.6 310 12:59 03.04.2022
4472 Clouds 3 1011 50 10000 4.63 310 11:50 03.04.2022
4473 Clear 2 1007 65 10000 2.57 350 09:57 03.04.2022
4474 Clouds 0 1007 72 10000 2.57 320 08:57 03.04.2022
4475 Clouds -1 1009 74 10000 3.09 350 05:45 03.04.2022
4476 Clouds 1 1008 67 10000 4.12 360 02:55 03.04.2022
4477 Clouds 1 1007 70 10000 5.14 360 23:48 02.04.2022
4478 Clear 2 1007 68 10000 4.63 360 22:51 02.04.2022
4479 Clear 3 1006 63 10000 4.63 360 21:56 02.04.2022
4480 Clear 3 1005 61 10000 5.66 360 21:21 02.04.2022
4481 Clear 3 1005 57 10000 5.66 360 20:36 02.04.2022
4482 Clear 3 1005 57 10000 5.66 360 20:36 02.04.2022
4483 Clear 5 1003 51 10000 6.69 360 18:49 02.04.2022
4484 Clear 6 1003 48 10000 7.72 10 18:20 02.04.2022
4485 Clear 7 1002 43 10000 6.69 10 17:23 02.04.2022
4486 Clear 7 1002 43 10000 6.69 10 15:58 02.04.2022
4487 Clear 7 1002 44 10000 6.17 360 15:20 02.04.2022
4488 Clouds 6 1002 44 10000 7.2 10 14:32 02.04.2022
4489 Clouds 6 998 50 10000 6.69 30 13:34 02.04.2022
4490 Clouds 5 1002 53 10000 7.2 20 12:32 02.04.2022
4491 Clouds 3 1002 64 10000 5.66 30 10:50 02.04.2022
4492 Clouds 0 1001 75 10000 3.6 10 08:44 02.04.2022
4493 Clear -1 1000 71 10000 4.63 30 06:43 02.04.2022
4494 Clear 2 998 55 10000 5.66 30 03:31 02.04.2022
4495 Rain 4 997 46 10000 5.14 40 23:55 01.04.2022
4496 Clear 4 997 49 10000 6.17 40 22:55 01.04.2022
4497 Clear 4 997 50 10000 2.57 30 21:32 01.04.2022
4498 Rain 4 996 51 10000 3.6 60 20:50 01.04.2022
4499 Rain 4 996 57 10000 4.12 50 19:51 01.04.2022
4500 Clear 5 992 59 10000 6.69 50 19:30 01.04.2022
4501 Clear 5 995 58 10000 4.12 70 18:44 01.04.2022
4502 Rain 5 995 57 10000 3.09 60 17:46 01.04.2022
4503 Clouds 5 994 59 10000 2.57 90 16:48 01.04.2022
4504 Rain 5 991 62 10000 3.09 60 15:36 01.04.2022
4505 Rain 3 991 70 10000 5.14 70 14:20 01.04.2022
4506 Clouds 3 983 77 10000 7.2 60 13:33 01.04.2022
4507 Clouds 2 994 75 10000 4.12 50 12:32 01.04.2022
4508 Clouds 2 991 80 5000 4.12 50 11:37 01.04.2022
4509 Clouds 1 993 82 10000 4.63 50 10:18 01.04.2022
4510 Clouds 1 993 83 10000 7.72 60 08:47 01.04.2022
4511 Clouds 2 1001 66 10000 7.2 60 06:54 01.04.2022
4512 Clouds 3 991 70 10000 4.63 60 04:49 01.04.2022
4513 Clouds 3 991 72 10000 3.6 60 04:30 01.04.2022
4514 Clouds 3 992 77 10000 5.66 70 01:56 01.04.2022
4515 Clouds 4 992 82 10000 9.26 80 22:58 31.03.2022
4516 Clouds 4 992 83 10000 8.23 80 21:51 31.03.2022
4517 Clouds 4 992 84 10000 9.26 70 21:32 31.03.2022
4518 Rain 4 992 84 10000 5.66 60 20:29 31.03.2022
4519 Snow 4 992 83 10000 5.66 60 19:49 31.03.2022
4520 Snow 3 992 84 10000 6.17 80 18:46 31.03.2022
4521 Snow 3 991 86 7000 7.2 80 17:50 31.03.2022
4522 Snow 3 992 85 8000 8.23 80 16:38 31.03.2022
4523 Clouds 3 992 84 10000 6.17 80 15:45 31.03.2022
4524 Clouds 3 992 84 10000 6.17 80 15:19 31.03.2022
4525 Clouds 3 993 84 10000 7.2 70 14:37 31.03.2022
4526 Clouds 3 993 86 10000 6.17 80 12:19 31.03.2022
4527 Clouds 3 994 86 10000 6.17 90 11:26 31.03.2022
4528 Clouds 2 993 90 10000 5.66 90 09:47 31.03.2022
4529 Clouds 2 994 91 8000 6.17 90 08:23 31.03.2022
4530 Clouds 3 993 91 10000 5.14 70 05:42 31.03.2022
4531 Clouds 3 1003 92 10000 4.12 60 00:32 31.03.2022
4532 Clouds 4 994 92 10000 3.6 40 23:23 30.03.2022
4533 Clouds 4 994 95 8000 3.09 40 21:41 30.03.2022
4534 Clouds 4 994 95 9000 2.57 30 20:55 30.03.2022
4535 Clouds 4 994 94 8000 2.57 30 20:20 30.03.2022
4536 Clouds 4 994 94 8000 3.09 40 19:36 30.03.2022
4537 Rain 5 990 92 7000 3.6 60 18:29 30.03.2022
4538 Rain 4 994 92 8000 3.09 50 17:48 30.03.2022
4539 Rain 5 991 92 8000 3.09 50 16:57 30.03.2022
4540 Rain 5 995 91 8000 3.09 50 16:38 30.03.2022
4541 Rain 6 995 90 9000 3.6 50 15:24 30.03.2022
4542 Rain 6 992 87 10000 1.03 0 13:44 30.03.2022
4543 Rain 6 996 85 10000 1.54 130 12:58 30.03.2022
4544 Rain 6 997 83 10000 1.03 0 11:36 30.03.2022
4545 Rain 6 994 81 10000 1.03 0 10:31 30.03.2022
4546 Clouds 6 997 81 10000 0.51 0 09:27 30.03.2022
4547 Rain 4 998 87 9000 0.51 0 07:41 30.03.2022
4548 Clouds 4 997 90 9000 1.54 300 05:41 30.03.2022
4549 Clear 3 998 88 10000 1.54 290 04:19 30.03.2022
4550 Clouds 5 999 85 10000 2.57 220 00:42 30.03.2022
4551 Clouds 6 999 80 10000 1.54 250 22:34 29.03.2022
4552 Clouds 6 1000 81 10000 1.03 0 21:46 29.03.2022
4553 Clear 7 1000 77 10000 0.51 0 20:54 29.03.2022
4554 Clear 7 1000 75 10000 1.03 0 20:20 29.03.2022
4555 Clouds 10 999 67 10000 3.09 280 18:56 29.03.2022
4556 Clouds 10 1000 66 10000 3.09 280 18:36 29.03.2022
4557 Clouds 11 1000 63 10000 3.6 310 17:37 29.03.2022
4558 Clouds 11 1000 63 10000 4.12 290 16:58 29.03.2022
4559 Clouds 11 1001 66 10000 4.12 310 15:58 29.03.2022
4560 Clouds 10 1002 70 10000 3.09 310 14:53 29.03.2022
4561 Clouds 10 1000 70 10000 4.63 300 14:22 29.03.2022
4562 Clouds 9 1000 77 10000 3.09 290 12:57 29.03.2022
4563 Clouds 7 993 90 8000 3.6 310 11:45 29.03.2022
4564 Clouds 7 1004 85 7000 3.09 330 10:58 29.03.2022
4565 Clouds 7 1004 86 10000 3.6 290 09:49 29.03.2022
4566 Clouds 6 1004 87 10000 2.06 300 08:20 29.03.2022
4567 Clear 6 1005 88 10000 2.06 310 05:35 29.03.2022
4568 Rain 10 1006 82 10000 2.57 300 01:25 29.03.2022
4569 Clear 10 1006 75 10000 2.06 280 23:25 28.03.2022
4570 Clear 11 1006 71 10000 2.06 280 22:54 28.03.2022
4571 Clear 11 1007 72 10000 1.54 250 22:28 28.03.2022
4572 Clear 13 1003 67 10000 1.03 250 20:59 28.03.2022
4573 Clear 14 1003 64 10000 1.03 280 20:31 28.03.2022
4574 Clear 15 1007 58 10000 2.06 300 19:46 28.03.2022
4575 Clear 16 1007 56 10000 3.6 320 19:28 28.03.2022
4576 Clear 17 1016 47 10000 4.12 310 18:40 28.03.2022
4577 Clear 18 1016 49 10000 5.14 280 17:39 28.03.2022
4578 Clear 20 1005 49 10000 4.02 276 16:38 28.03.2022
4579 Clear 19 1007 44 10000 3.6 300 14:49 28.03.2022
4580 Clear 19 1020 44 10000 3.6 270 14:22 28.03.2022
4581 Clear 18 1012 49 10000 3.6 280 12:41 28.03.2022
4582 Clear 16 1010 59 10000 2.68 230 11:32 28.03.2022
4583 Clear 12 1012 61 10000 3.09 210 09:43 28.03.2022
4584 Clear 9 1025 65 10000 4.12 200 09:19 28.03.2022
4585 Clear 8 1004 79 10000 4.12 200 08:23 28.03.2022
4586 Clear 6 1004 85 10000 3.09 200 07:56 28.03.2022
4587 Clear 6 1006 82 10000 3.09 200 04:27 28.03.2022
4588 Clear 9 1008 71 10000 2.06 230 23:43 27.03.2022
4589 Clear 9 1016 67 10000 1.03 250 22:25 27.03.2022
4590 Clear 9 1016 67 10000 1.03 250 22:25 27.03.2022
4591 Clear 10 1016 66 10000 0.51 0 21:42 27.03.2022
4592 Clear 10 1016 66 10000 0.51 0 21:42 27.03.2022
4593 Clear 10 1016 65 10000 0.51 310 20:58 27.03.2022
4594 Clear 12 1019 57 10000 1.54 330 19:53 27.03.2022
4595 Clear 13 1019 52 10000 2.57 340 19:30 27.03.2022
4596 Clear 15 1028 42 10000 3.09 340 18:28 27.03.2022
4597 Clear 16 1028 43 10000 3.09 340 17:42 27.03.2022
4598 Clear 17 1016 42 10000 2.06 350 17:23 27.03.2022
4599 Clear 16 1029 38 10000 1.54 0 15:39 27.03.2022
4600 Clear 16 1017 44 10000 2.57 70 13:56 27.03.2022
4601 Clouds 15 1019 53 10000 2.06 0 12:50 27.03.2022
4602 Clear 14 1019 61 10000 2.57 50 11:30 27.03.2022
4603 Clear 10 1022 74 10000 2.06 180 09:32 27.03.2022
4604 Fog 5 1011 91 10000 0.51 0 06:44 27.03.2022
4605 Clouds 8 1022 82 10000 1.03 30 01:55 27.03.2022
4606 Clouds 9 1018 79 10000 1.03 10 00:25 27.03.2022
4607 Clouds 11 1022 74 10000 3.09 50 22:45 26.03.2022
4608 Clouds 12 1021 72 10000 2.57 10 21:50 26.03.2022
4609 Clouds 12 1021 72 10000 4.12 360 21:26 26.03.2022
4610 Clouds 14 1028 64 10000 4.63 10 19:31 26.03.2022
4611 Clouds 15 1019 52 10000 3.6 320 18:25 26.03.2022
4612 Clouds 16 1027 46 10000 4.63 300 17:33 26.03.2022
4613 Clouds 17 1019 48 10000 5.66 280 16:30 26.03.2022
4614 Clear 18 1015 49 10000 6.69 300 15:35 26.03.2022
4615 Clouds 17 1028 47 10000 6.69 290 13:55 26.03.2022
4616 Clouds 17 1016 52 10000 5.66 310 13:19 26.03.2022
4617 Clear 16 1020 48 10000 5.14 290 11:42 26.03.2022
4618 Clear 15 1017 55 10000 4.63 280 10:32 26.03.2022
4619 Clear 11 1021 59 10000 4.12 260 08:46 26.03.2022
4620 Clear 5 1009 79 10000 3.6 220 06:37 26.03.2022
4621 Clear 5 1008 79 10000 2.57 230 05:29 26.03.2022
4622 Clear 6 1009 74 10000 2.06 230 00:41 26.03.2022
4623 Clear 8 1017 65 10000 1.54 280 21:58 25.03.2022
4624 Clear 9 1016 64 10000 1.54 310 20:47 25.03.2022
4625 Clear 9 1016 62 10000 2.06 310 20:24 25.03.2022
4626 Clear 11 1020 51 10000 1.03 320 18:59 25.03.2022
4627 Clear 13 1019 47 10000 2.06 330 18:22 25.03.2022
4628 Clear 14 1019 43 10000 3.6 340 17:28 25.03.2022
4629 Clear 16 1019 41 10000 4.12 330 16:21 25.03.2022
4630 Clear 16 1016 43 10000 4.63 350 15:26 25.03.2022
4631 Clear 15 1017 40 10000 2.57 50 13:28 25.03.2022
4632 Clear 13 1017 46 10000 2.06 50 10:49 25.03.2022
4633 Clear 9 1017 59 10000 1.03 0 09:28 25.03.2022
4634 Clear 9 1017 55 10000 1.54 200 08:43 25.03.2022
4635 Clear 5 1009 71 10000 1.03 0 07:32 25.03.2022
4636 Clear 3 1008 74 10000 1.54 210 06:29 25.03.2022
4637 Clear 5 1008 69 10000 2.06 220 02:28 25.03.2022
4638 Clear 8 1008 57 10000 0.51 150 22:56 24.03.2022
4639 Clear 9 1008 55 10000 1.03 110 21:56 24.03.2022
4640 Clear 9 1016 57 10000 1.03 0 20:51 24.03.2022
4641 Clear 9 1019 51 10000 2.06 320 19:49 24.03.2022
4642 Clear 12 1019 41 10000 1.54 320 18:34 24.03.2022
4643 Clear 15 1027 34 10000 3.09 310 17:32 24.03.2022
4644 Clear 17 1018 31 10000 3.09 350 16:24 24.03.2022
4645 Clear 17 1028 34 10000 3.09 10 14:51 24.03.2022
4646 Clear 17 1016 34 10000 3.6 340 14:21 24.03.2022
4647 Clear 16 1016 35 10000 2.57 10 13:31 24.03.2022
4648 Clear 15 1017 42 10000 2.57 360 12:24 24.03.2022
4649 Clear 14 1021 46 10000 2.06 310 10:48 24.03.2022
4650 Clear 10 1020 55 10000 2.06 320 09:24 24.03.2022
4651 Clear 8 1017 62 10000 1.54 210 08:32 24.03.2022
4652 Clear 4 1008 77 10000 1.54 220 04:52 24.03.2022
4653 Clear 9 1010 56 10000 0.51 0 23:59 23.03.2022
4654 Clear 10 1009 50 10000 1.03 0 22:19 23.03.2022
4655 Clear 11 1009 51 10000 1.03 0 21:21 23.03.2022
4656 Clear 11 1016 48 10000 1.54 320 19:56 23.03.2022
4657 Clear 12 1020 43 10000 2.06 330 19:25 23.03.2022
4658 Clear 16 1028 33 10000 2.57 330 17:52 23.03.2022
4659 Clear 18 1020 31 10000 3.09 330 17:24 23.03.2022
4660 Clear 19 1029 31 10000 3.09 330 15:43 23.03.2022
4661 Clear 18 1029 33 10000 3.09 310 14:47 23.03.2022
4662 Clear 18 1029 26 10000 2.57 340 13:31 23.03.2022
4663 Clear 16 1031 31 10000 2.06 180 11:24 23.03.2022
4664 Clear 11 1018 45 10000 2.57 190 08:41 23.03.2022
4665 Clear 4 1022 52 10000 2.06 160 05:50 23.03.2022
4666 Clear 6 1022 51 10000 1.54 210 02:50 23.03.2022
4667 Clear 7 1023 44 10000 4.12 190 00:27 23.03.2022
4668 Clear 7 1033 44 10000 3.6 140 21:52 22.03.2022
4669 Clear 9 1023 42 10000 2.68 103 21:23 22.03.2022
4670 Clear 9 1033 37 10000 2.06 70 20:23 22.03.2022
4671 Clear 12 1023 35 10000 2.57 90 19:27 22.03.2022
4672 Clear 12 1032 34 10000 3.6 140 18:49 22.03.2022
4673 Clear 17 1032 23 10000 4.63 140 17:44 22.03.2022
4674 Clear 17 1032 23 10000 4.63 120 16:58 22.03.2022
4675 Clear 18 1033 21 10000 5.14 120 15:43 22.03.2022
4676 Clear 17 1033 22 10000 4.12 130 15:20 22.03.2022
4677 Clear 17 1033 21 10000 4.12 170 14:44 22.03.2022
4678 Clear 16 1034 23 10000 4.12 140 13:52 22.03.2022
4679 Clear 15 1022 25 10000 5.14 170 12:34 22.03.2022
4680 Clear 14 1035 26 10000 6.17 170 11:24 22.03.2022
4681 Clear 12 1027 30 10000 6.69 150 09:42 22.03.2022
4682 Clear 5 1023 47 10000 3.6 150 07:44 22.03.2022
4683 Clear 3 1022 51 10000 3.6 140 04:29 22.03.2022
4684 Clear 2 1035 52 10000 2.06 130 02:52 22.03.2022
4685 Clear 4 1027 47 10000 2.24 94 23:19 21.03.2022
4686 Clear 6 1022 42 10000 3.58 94 21:47 21.03.2022
4687 Clear 6 1026 43 10000 2.57 140 20:45 21.03.2022
4688 Clear 7 1026 34 10000 3.58 102 20:24 21.03.2022
4689 Clear 8 1026 39 10000 4.02 124 19:53 21.03.2022
4690 Clear 8 1026 33 10000 2.68 109 19:22 21.03.2022
4691 Clear 12 1035 20 10000 4.12 150 17:43 21.03.2022
4692 Clear 14 1021 27 10000 4.63 160 17:00 21.03.2022
4693 Clear 14 1021 26 10000 4.63 160 16:36 21.03.2022
4694 Clear 14 1022 26 10000 5.81 164 15:46 21.03.2022
4695 Clear 14 1022 28 10000 4.92 105 14:48 21.03.2022
4696 Clear 12 1022 30 10000 5.14 150 13:35 21.03.2022
4697 Clear 11 1023 30 10000 5.66 150 12:31 21.03.2022
4698 Clear 11 1023 32 10000 5.66 150 11:43 21.03.2022
4699 Clear 9 1024 34 10000 6.17 170 10:20 21.03.2022
4700 Clear 6 1028 42 10000 4.63 140 08:26 21.03.2022
4701 Clear 2 1015 56 10000 2.57 130 06:36 21.03.2022
4702 Clear 2 1027 52 10000 3.09 110 02:40 21.03.2022
4703 Clear 5 1027 42 10000 5.66 140 23:40 20.03.2022
4704 Clear 6 1027 42 10000 4.63 140 22:43 20.03.2022
4705 Clear 6 1027 41 10000 4.63 130 21:50 20.03.2022
4706 Clear 6 1027 40 10000 4.63 140 21:20 20.03.2022
4707 Clear 7 1027 38 10000 4.63 150 20:43 20.03.2022
4708 Clear 7 1028 35 10000 4.12 140 19:57 20.03.2022
4709 Clear 8 1027 34 10000 7.2 140 19:26 20.03.2022
4710 Clear 10 1027 30 10000 6.69 140 18:19 20.03.2022
4711 Clear 11 1027 28 10000 6.69 140 17:33 20.03.2022
4712 Clear 12 1027 26 10000 6.17 130 16:57 20.03.2022
4713 Clear 13 1027 23 10000 8.75 120 15:28 20.03.2022
4714 Clear 13 1023 27 10000 8.75 150 14:34 20.03.2022
4715 Clear 12 1024 28 10000 9.77 130 12:30 20.03.2022
4716 Clear 11 1024 33 10000 8.23 120 11:22 20.03.2022
4717 Clear 8 1029 38 10000 6.17 130 08:59 20.03.2022
4718 Clear 2 1029 58 10000 5.14 120 07:28 20.03.2022
4719 Clear 2 1016 61 10000 2.06 100 05:40 20.03.2022
4720 Clear 1 1024 63 10000 2.06 80 01:50 20.03.2022
4721 Clear 2 1025 61 10000 3.09 90 00:39 20.03.2022
4722 Clear 3 1029 51 10000 5.14 90 23:19 19.03.2022
4723 Clear 5 1030 42 10000 5.14 90 21:27 19.03.2022
4724 Clear 5 1030 44 10000 5.66 90 20:49 19.03.2022
4725 Clear 7 1030 38 10000 7.72 90 18:58 19.03.2022
4726 Clear 7 1030 37 10000 7.72 90 18:23 19.03.2022
4727 Clear 8 1030 35 10000 8.23 90 17:35 19.03.2022
4728 Clear 10 1030 35 10000 8.75 80 15:44 19.03.2022
4729 Clouds 10 1030 41 10000 8.75 80 14:57 19.03.2022
4730 Clouds 9 1031 54 10000 5.66 60 13:19 19.03.2022
4731 Clouds 8 1032 62 10000 5.66 60 12:40 19.03.2022
4732 Clouds 6 1032 76 10000 4.63 50 11:54 19.03.2022
4733 Clouds 5 1028 84 10000 3.09 50 10:53 19.03.2022
4734 Clouds 3 1034 88 10000 2.06 340 07:59 19.03.2022
4735 Clear 4 1034 89 10000 1.54 10 03:53 19.03.2022
4736 Clear 3 1044 94 10000 1.03 360 02:30 19.03.2022
4737 Clear 4 1035 87 10000 1.54 40 23:46 18.03.2022
4738 Clear 5 1035 82 10000 2.57 30 22:29 18.03.2022
4739 Clear 6 1035 82 10000 2.57 30 21:55 18.03.2022
4740 Clear 8 1034 73 10000 2.57 360 19:54 18.03.2022
4741 Clear 8 1034 72 10000 2.06 360 19:22 18.03.2022
4742 Clouds 9 1033 68 10000 4.12 10 18:27 18.03.2022
4743 Clouds 12 1032 59 10000 4.12 350 16:52 18.03.2022
4744 Clouds 13 1032 57 10000 4.12 350 15:43 18.03.2022
4745 Clouds 12 1032 59 10000 3.6 350 14:25 18.03.2022
4746 Clouds 12 1032 62 10000 4.12 350 12:39 18.03.2022
4747 Clouds 11 1032 66 10000 4.12 340 11:21 18.03.2022
4748 Clouds 8 1031 77 10000 4.12 340 09:34 18.03.2022
4749 Clouds 7 1031 80 9000 3.6 350 08:45 18.03.2022
4750 Clouds 6 1029 88 8000 2.57 330 06:42 18.03.2022
4751 Clouds 7 1028 87 10000 3.09 320 04:38 18.03.2022
4752 Clouds 8 1026 87 7000 3.09 300 00:54 18.03.2022
4753 Clouds 8 1025 85 9000 3.09 290 23:52 17.03.2022
4754 Clouds 8 1025 85 9000 3.09 290 23:52 17.03.2022
4755 Clear 9 1025 81 10000 3.6 280 22:43 17.03.2022
4756 Clear 9 1024 76 10000 4.63 270 22:18 17.03.2022
4757 Clear 9 1023 71 10000 3.09 210 21:27 17.03.2022
4758 Clear 9 1023 69 10000 1.34 204 20:52 17.03.2022
4759 Clear 9 1023 67 10000 1.54 170 20:18 17.03.2022
4760 Clear 10 1022 65 10000 2.06 180 19:37 17.03.2022
4761 Rain 10 1022 62 10000 2.06 160 18:51 17.03.2022
4762 Clear 12 1020 55 10000 2.57 190 17:27 17.03.2022
4763 Clear 13 1020 49 10000 5.14 170 16:19 17.03.2022
4764 Clear 13 1020 49 10000 5.14 170 16:19 17.03.2022
4765 Clear 13 1020 47 10000 5.14 160 15:42 17.03.2022
4766 Clear 14 1019 45 10000 5.14 150 14:58 17.03.2022
4767 Clear 13 1016 52 10000 6.69 150 13:28 17.03.2022
4768 Clear 13 1020 52 10000 7.2 150 12:44 17.03.2022
4769 Clear 12 1020 56 10000 5.66 160 11:32 17.03.2022
4770 Clear 10 1020 61 10000 4.63 150 10:41 17.03.2022
4771 Clear 7 1019 74 10000 3.09 140 08:46 17.03.2022
4772 Clear 7 1019 76 10000 3.6 140 08:18 17.03.2022
4773 Clear 4 1019 85 10000 3.6 140 05:49 17.03.2022
4774 Clear 4 1019 85 10000 2.06 90 04:24 17.03.2022
4775 Clear 5 1019 88 10000 1.79 115 00:25 17.03.2022
4776 Clear 6 1015 85 10000 2.06 120 22:52 16.03.2022
4777 Clear 6 1015 85 10000 2.06 120 22:34 16.03.2022
4778 Clear 6 1019 82 10000 3.09 110 21:55 16.03.2022
4779 Clouds 7 1019 79 10000 3.6 100 20:40 16.03.2022
4780 Clouds 9 1019 70 10000 2.57 100 19:23 16.03.2022
4781 Clouds 10 1019 64 10000 3.09 80 18:42 16.03.2022
4782 Clouds 11 1028 58 10000 3.09 100 17:46 16.03.2022
4783 Clouds 12 1019 59 10000 4.12 70 17:28 16.03.2022
4784 Clouds 12 1027 56 10000 3.6 60 16:21 16.03.2022
4785 Clouds 12 1019 59 10000 2.06 90 14:50 16.03.2022
4786 Clouds 13 1019 59 10000 2.57 30 13:36 16.03.2022
4787 Clouds 12 1019 64 10000 2.57 70 12:55 16.03.2022
4788 Clouds 11 1019 73 10000 3.6 60 11:23 16.03.2022
4789 Clouds 10 1019 78 9000 2.57 40 10:32 16.03.2022
4790 Clouds 9 1019 83 9000 1.54 30 09:56 16.03.2022
4791 Mist 6 1018 92 4000 2.06 320 07:43 16.03.2022
4792 Mist 6 1014 96 2800 2.06 330 02:45 16.03.2022
4793 Rain 7 1012 96 9000 2.57 350 22:56 15.03.2022
4794 Rain 7 1012 95 9000 2.57 350 22:35 15.03.2022
4795 Rain 8 1013 92 10000 3.09 360 20:59 15.03.2022
4796 Rain 8 1013 87 10000 1.54 30 19:46 15.03.2022
4797 Rain 10 1014 68 10000 1.54 70 17:47 15.03.2022
4798 Rain 11 1014 65 10000 2.57 130 16:41 15.03.2022
4799 Clear 12 1015 61 10000 3.09 120 15:38 15.03.2022
4800 Clear 12 1016 60 10000 2.57 130 14:54 15.03.2022
4801 Clouds 13 1017 58 10000 3.09 120 13:56 15.03.2022
4802 Clouds 13 1018 58 10000 4.12 130 13:23 15.03.2022
4803 Clear 11 1015 71 10000 4.12 170 11:34 15.03.2022
4804 Clear 10 1016 76 10000 2.57 160 10:53 15.03.2022
4805 Clear 8 1017 83 10000 1.79 94 09:24 15.03.2022
4806 Clear 6 1009 91 10000 2.06 160 08:27 15.03.2022
4807 Clear 5 1009 93 10000 2.06 160 07:38 15.03.2022
4808 Clear 4 1009 86 10000 1.79 188 06:32 15.03.2022
4809 Clouds 7 1021 83 10000 3.6 220 00:58 15.03.2022
4810 Clouds 6 1021 91 10000 4.02 221 23:30 14.03.2022
4811 Clouds 6 1021 92 10000 3.13 210 22:50 14.03.2022
4812 Clouds 7 1021 92 10000 3.09 230 21:55 14.03.2022
4813 Clouds 7 1021 93 10000 5.14 200 20:59 14.03.2022
4814 Clouds 6 1021 92 10000 3.6 210 20:28 14.03.2022
4815 Rain 6 1021 91 10000 4.12 220 19:32 14.03.2022
4816 Rain 8 1020 79 10000 5.66 260 17:58 14.03.2022
4817 Rain 8 1020 79 10000 5.66 260 17:58 14.03.2022
4818 Clouds 8 1020 75 10000 5.66 260 17:40 14.03.2022
4819 Clouds 11 1018 60 10000 6.69 260 16:33 14.03.2022
4820 Clear 13 1018 41 10000 5.14 240 14:52 14.03.2022
4821 Clear 13 1017 30 10000 5.14 200 13:57 14.03.2022
4822 Clear 11 1026 29 10000 5.14 180 11:27 14.03.2022
4823 Clear 9 1025 31 10000 7.72 180 09:57 14.03.2022
4824 Clear 9 1025 31 10000 7.72 180 09:38 14.03.2022
4825 Clear 8 1024 34 10000 8.23 160 08:58 14.03.2022
4826 Clear 6 1023 34 10000 7.72 160 08:30 14.03.2022
4827 Clear 4 1014 39 10000 6.69 160 06:47 14.03.2022
4828 Clear 5 1013 33 10000 4.63 140 03:36 14.03.2022
4829 Clear 5 1013 32 10000 4.12 140 01:42 14.03.2022
4830 Clear 6 1013 30 10000 5.66 150 00:29 14.03.2022
4831 Clear 8 1012 30 10000 7.2 150 21:55 13.03.2022
4832 Clear 8 1012 31 10000 6.69 140 21:26 13.03.2022
4833 Clear 8 1012 30 10000 5.66 140 20:46 13.03.2022
4834 Clear 8 1012 31 10000 4.12 120 20:23 13.03.2022
4835 Clear 8 1012 30 10000 5.14 120 19:42 13.03.2022
4836 Clear 8 1012 29 10000 4.63 130 19:23 13.03.2022
4837 Clear 9 1012 26 10000 4.63 140 18:45 13.03.2022
4838 Clear 10 1012 27 10000 5.14 140 18:26 13.03.2022
4839 Clear 11 1021 20 10000 4.63 150 17:39 13.03.2022
4840 Clear 12 1021 22 10000 6.17 140 16:46 13.03.2022
4841 Clear 13 1021 22 10000 5.14 130 16:25 13.03.2022
4842 Clear 13 1008 22 10000 6.69 140 15:42 13.03.2022
4843 Clear 12 1008 23 10000 8.23 130 14:49 13.03.2022
4844 Clear 11 1009 24 10000 7.72 140 13:29 13.03.2022
4845 Clear 11 1009 24 10000 6.69 130 12:25 13.03.2022
4846 Clear 11 1013 21 10000 6.69 130 11:45 13.03.2022
4847 Clear 9 1009 25 10000 6.69 160 10:51 13.03.2022
4848 Clear 8 1009 28 10000 7.72 160 10:30 13.03.2022
4849 Clear 7 1013 27 10000 7.72 160 09:43 13.03.2022
4850 Clear 5 1009 34 10000 9.77 160 08:51 13.03.2022
4851 Clear 4 1013 33 10000 9.26 160 08:31 13.03.2022
4852 Clear 2 1013 37 10000 8.23 160 07:37 13.03.2022
4853 Clear 1 1013 41 10000 6.69 140 05:39 13.03.2022
4854 Clear 2 1013 35 10000 6.17 140 01:48 13.03.2022
4855 Clear 3 1014 32 10000 8.23 150 23:30 12.03.2022
4856 Clear 4 1014 29 10000 6.69 160 21:48 12.03.2022
4857 Clear 5 1014 32 10000 5.14 140 20:27 12.03.2022
4858 Clear 5 1014 32 10000 4.92 109 19:46 12.03.2022
4859 Clear 6 1015 30 10000 4.12 130 18:44 12.03.2022
4860 Clear 6 1014 28 10000 5.14 140 18:20 12.03.2022
4861 Clear 10 1011 24 10000 6.17 130 16:32 12.03.2022
4862 Clear 10 1011 25 10000 7.2 140 15:55 12.03.2022
4863 Clear 10 1011 24 10000 7.2 130 15:22 12.03.2022
4864 Clear 10 1011 24 10000 7.2 130 15:22 12.03.2022
4865 Clear 9 1012 25 10000 6.69 150 13:54 12.03.2022
4866 Clear 9 1012 25 10000 8.23 150 12:33 12.03.2022
4867 Clear 8 1012 26 10000 7.72 160 11:55 12.03.2022
4868 Clear 8 1012 26 10000 7.72 160 11:34 12.03.2022
4869 Clear 7 1013 27 10000 8.23 160 10:43 12.03.2022
4870 Clear 6 1017 28 10000 7.72 160 09:44 12.03.2022
4871 Clear 4 1017 31 10000 7.72 160 08:41 12.03.2022
4872 Clear 1 1016 32 10000 6.69 150 06:44 12.03.2022
4873 Clear 2 1017 38 10000 6.17 140 01:44 12.03.2022
4874 Clear 3 1017 35 10000 5.66 140 23:46 11.03.2022
4875 Clear 3 1017 36 10000 6.71 105 22:36 11.03.2022
4876 Clear 3 1017 36 10000 5.66 130 21:26 11.03.2022
4877 Clear 3 1017 38 10000 5.66 130 20:51 11.03.2022
4878 Clear 4 1017 39 10000 5.66 130 20:26 11.03.2022
4879 Clear 4 1017 39 10000 5.36 108 19:36 11.03.2022
4880 Clear 4 1018 39 10000 4.12 120 18:43 11.03.2022
4881 Clear 6 1018 34 10000 7.72 140 17:26 11.03.2022
4882 Clear 8 1018 31 10000 8.23 130 16:26 11.03.2022
4883 Clear 8 1008 34 10000 3.58 161 15:51 11.03.2022
4884 Clear 8 1019 31 10000 8.75 130 14:18 11.03.2022
4885 Clear 6 1015 38 10000 1.34 130 12:43 11.03.2022
4886 Clear 6 1016 39 10000 8.75 140 12:20 11.03.2022
4887 Clear 6 1020 37 10000 8.23 130 11:28 11.03.2022
4888 Clear 3 1019 44 10000 8.23 130 09:37 11.03.2022
4889 Clear 0 1019 48 10000 7.72 140 08:29 11.03.2022
4890 Clear -1 1019 49 10000 6.69 140 07:48 11.03.2022
4891 Clear -1 1019 51 10000 6.17 130 06:55 11.03.2022
4892 Clear -1 1019 47 10000 6.69 130 04:44 11.03.2022
4893 Clear 0 1020 53 10000 6.69 140 01:51 11.03.2022
4894 Clear 2 1021 54 10000 3.09 110 22:51 10.03.2022
4895 Clear 2 1021 54 10000 4.63 110 22:27 10.03.2022
4896 Clear 2 1021 58 10000 4.12 110 21:26 10.03.2022
4897 Clear 3 1021 54 10000 4.12 110 20:39 10.03.2022
4898 Clear 4 1021 54 10000 5.66 100 19:22 10.03.2022
4899 Clear 6 1020 54 10000 6.17 80 18:30 10.03.2022
4900 Clear 8 1029 50 10000 7.2 80 16:53 10.03.2022
4901 Clear 9 1029 50 10000 7.72 90 15:36 10.03.2022
4902 Clear 11 1029 46 10000 7.72 80 14:23 10.03.2022
4903 Clear 11 1017 50 10000 5.66 90 12:46 10.03.2022
4904 Clouds 10 1021 46 10000 4.63 130 11:37 10.03.2022
4905 Clear 7 1017 58 10000 3.6 100 10:19 10.03.2022
4906 Clear 4 1017 66 10000 1.03 0 08:48 10.03.2022
4907 Clear -1 1029 80 10000 0.51 0 05:50 10.03.2022
4908 Clear -1 1028 86 10000 2.57 160 03:33 10.03.2022
4909 Clear 2 1027 75 10000 0.51 130 00:23 10.03.2022
4910 Clear 3 1026 65 10000 2.06 110 22:45 09.03.2022
4911 Clear 4 1026 65 10000 1.54 80 21:48 09.03.2022
4912 Clear 6 1026 56 10000 0 0 20:59 09.03.2022
4913 Clear 4 1026 64 10000 0.82 58 19:28 09.03.2022
4914 Clear 8 1026 55 10000 2.57 300 17:57 09.03.2022
4915 Clear 9 1025 51 10000 2.57 340 17:23 09.03.2022
4916 Clear 10 1025 48 10000 3.6 320 16:23 09.03.2022
4917 Clear 11 1026 47 10000 1.54 0 14:27 09.03.2022
4918 Clear 10 1026 49 10000 2.57 320 13:51 09.03.2022
4919 Clear 9 1026 52 10000 2.06 0 12:36 09.03.2022
4920 Clear 8 1027 52 10000 1.54 0 11:48 09.03.2022
4921 Clear 8 1027 52 10000 1.54 0 11:18 09.03.2022
4922 Clear 4 1026 70 10000 2.06 210 09:41 09.03.2022
4923 Clear 1 1026 74 10000 2.57 210 08:47 09.03.2022
4924 Clear -2 1025 80 10000 1.54 170 06:51 09.03.2022
4925 Clear 1 1005 73 10000 1.03 180 01:54 09.03.2022
4926 Clear 2 1004 66 10000 1.54 140 00:26 09.03.2022
4927 Clear 1 1012 75 10000 1.54 210 22:46 08.03.2022
4928 Clear 2 1012 67 10000 1.54 90 21:52 08.03.2022
4929 Clear 2 1016 67 10000 0.51 110 21:22 08.03.2022
4930 Clouds 1 1025 74 10000 1.52 106 20:24 08.03.2022
4931 Clouds 2 1025 71 10000 1.48 92 19:24 08.03.2022
4932 Clear 5 1025 50 10000 1.54 120 18:23 08.03.2022
4933 Clear 8 1025 45 10000 3.09 70 16:56 08.03.2022
4934 Clear 8 1025 41 10000 3.09 50 14:58 08.03.2022
4935 Clouds 8 1025 41 10000 3.09 80 13:54 08.03.2022
4936 Clear 7 1013 57 10000 3.6 50 12:28 08.03.2022
4937 Clear 6 1013 61 10000 3.6 70 11:43 08.03.2022
4938 Clear 5 1013 68 10000 1.03 0 10:37 08.03.2022
4939 Clear 1 1017 78 10000 0 0 08:58 08.03.2022
4940 Clear -1 1004 85 10000 0.51 0 06:31 08.03.2022
4941 Clear -1 1011 82 10000 1.03 0 04:25 08.03.2022
4942 Clear 1 1026 71 10000 2.57 300 22:57 07.03.2022
4943 Clouds 2 1025 69 10000 2.57 310 21:46 07.03.2022
4944 Clouds 2 1025 68 10000 2.06 300 21:27 07.03.2022
4945 Clouds 2 1025 67 10000 2.06 290 20:39 07.03.2022
4946 Clear 3 1025 64 10000 2.06 310 19:55 07.03.2022
4947 Clear 3 1025 64 10000 2.57 320 19:29 07.03.2022
4948 Clear 4 1025 61 10000 2.57 320 18:40 07.03.2022
4949 Clouds 5 1025 51 10000 2.57 330 17:41 07.03.2022
4950 Clouds 6 1024 55 10000 4.12 340 16:55 07.03.2022
4951 Clouds 7 1015 57 10000 4.63 320 15:27 07.03.2022
4952 Clouds 5 1012 66 10000 5.66 310 12:54 07.03.2022
4953 Clouds 5 1016 62 10000 5.14 310 12:21 07.03.2022
4954 Clouds 3 1013 64 10000 3.6 320 10:36 07.03.2022
4955 Clouds 1 1017 74 10000 2.06 300 08:39 07.03.2022
4956 Clouds -1 1025 73 10000 2.57 320 03:41 07.03.2022
4957 Clouds -1 1016 69 10000 1.54 340 00:22 07.03.2022
4958 Clouds -1 1016 69 10000 1.54 330 23:31 06.03.2022
4959 Clouds 0 1016 69 10000 1.54 340 22:37 06.03.2022
4960 Clouds -1 1016 69 10000 2.57 340 21:46 06.03.2022
4961 Clouds 0 1016 67 10000 2.06 360 20:30 06.03.2022
4962 Clouds 0 1015 65 10000 2.57 10 19:51 06.03.2022
4963 Clouds 0 1015 63 10000 2.06 360 18:51 06.03.2022
4964 Clouds 1 1015 61 10000 3.09 360 17:57 06.03.2022
4965 Clouds 1 1015 61 10000 3.09 350 17:21 06.03.2022
4966 Clouds 1 1015 59 10000 3.6 340 16:41 06.03.2022
4967 Clouds 1 1010 62 10000 3.09 360 15:45 06.03.2022
4968 Clouds 2 1003 61 10000 3.09 320 14:49 06.03.2022
4969 Clouds 2 1010 61 10000 3.6 350 14:30 06.03.2022
4970 Clouds 1 1015 62 10000 3.09 340 12:50 06.03.2022
4971 Clouds 2 1015 62 10000 3.6 340 11:56 06.03.2022
4972 Clouds 2 1015 62 10000 3.09 350 10:52 06.03.2022
4973 Clouds 1 1015 72 10000 2.57 330 09:54 06.03.2022
4974 Clouds -1 1025 78 10000 2.06 10 08:29 06.03.2022
4975 Clouds -1 1024 82 10000 1.54 350 07:34 06.03.2022
4976 Clouds -1 1015 83 10000 1.54 330 04:46 06.03.2022
4977 Clouds -1 1010 80 10000 2.06 40 00:44 06.03.2022
4978 Clear -1 1010 80 10000 1.03 130 00:25 06.03.2022
4979 Clear -1 1015 80 10000 2.06 120 23:20 05.03.2022
4980 Clouds -1 1024 77 10000 2.06 80 22:43 05.03.2022
4981 Clouds -1 1025 80 10000 2.06 130 21:45 05.03.2022
4982 Clear 0 1025 79 10000 2.57 130 21:20 05.03.2022
4983 Clouds 1 1024 71 10000 1.03 330 19:24 05.03.2022
4984 Clear 1 1023 69 10000 0.51 330 18:53 05.03.2022
4985 Clouds 3 1023 63 10000 1.03 50 17:53 05.03.2022
4986 Clouds 4 1014 63 10000 1.54 70 16:32 05.03.2022
4987 Clouds 5 1014 58 10000 2.06 40 15:31 05.03.2022
4988 Clouds 5 1010 62 10000 2.06 60 14:45 05.03.2022
4989 Clouds 5 1010 61 10000 2.57 120 14:26 05.03.2022
4990 Clouds 5 1011 69 10000 4.12 80 13:21 05.03.2022
4991 Clouds 3 1011 79 10000 1.54 50 11:48 05.03.2022
4992 Clear 3 1025 82 10000 1.54 50 11:18 05.03.2022
4993 Clear 2 1015 87 10000 0.51 0 09:59 05.03.2022
4994 Fog 0 1015 91 7000 0.51 0 08:59 05.03.2022
4995 Fog 0 1011 90 6000 0.51 0 07:38 05.03.2022
4996 Clouds -1 1024 91 10000 0.51 170 05:43 05.03.2022
4997 Clear -1 1015 91 10000 0.51 0 02:27 05.03.2022
4998 Clouds 0 1024 86 10000 1.03 50 23:37 04.03.2022
4999 Clouds 1 1025 84 10000 1.03 360 22:42 04.03.2022
5000 Clouds 1 1024 84 10000 0.51 0 21:49 04.03.2022
5001 Clouds 1 1024 82 10000 1.03 10 20:54 04.03.2022
5002 Clouds 1 1015 84 10000 1.54 20 20:27 04.03.2022
5003 Clouds 1 1011 85 10000 1.54 360 19:36 04.03.2022
5004 Clouds 2 1015 83 10000 1.54 340 18:45 04.03.2022
5005 Clouds 2 1015 83 10000 2.06 360 17:39 04.03.2022
5006 Clouds 2 1015 84 10000 2.57 10 16:54 04.03.2022
5007 Clouds 2 1014 87 10000 1.54 350 15:30 04.03.2022
5008 Clouds 2 1014 89 10000 1.03 0 14:33 04.03.2022
5009 Mist 1 1015 92 1600 2.06 340 13:26 04.03.2022
5010 Fog 1 1014 93 700 3.09 340 11:54 04.03.2022
5011 Fog 1 1014 93 550 3.09 340 10:54 04.03.2022
5012 Fog 1 1014 93 400 2.57 340 09:58 04.03.2022
5013 Fog 0 1014 93 300 2.57 330 08:40 04.03.2022
5014 Fog 0 1013 93 550 2.57 330 07:38 04.03.2022
5015 Clouds 0 1013 90 10000 2.06 320 04:31 04.03.2022
5016 Clouds 0 1013 90 8000 1.54 290 00:41 04.03.2022
5017 Clouds 0 1013 88 8000 1.54 320 22:39 03.03.2022
5018 Clear -1 1022 88 10000 1.03 0 21:50 03.03.2022
5019 Clear 0 1022 85 10000 1.03 0 21:29 03.03.2022
5020 Clear 1 1012 83 10000 2.57 20 20:21 03.03.2022
5021 Clear 2 1011 72 10000 2.57 20 18:57 03.03.2022
5022 Clear 3 1011 66 10000 3.6 50 18:24 03.03.2022
5023 Clear 5 1019 56 10000 4.12 20 17:31 03.03.2022
5024 Clear 7 1019 45 10000 3.09 350 16:26 03.03.2022
5025 Clear 8 1010 44 10000 4.12 340 15:41 03.03.2022
5026 Clear 8 1019 43 10000 2.57 340 14:44 03.03.2022
5027 Clear 8 1010 44 10000 3.6 320 14:25 03.03.2022
5028 Clear 6 1007 51 10000 2.57 350 12:28 03.03.2022
5029 Clear 4 1020 67 10000 2.57 300 10:56 03.03.2022
5030 Clear 2 1021 70 10000 1.03 0 09:58 03.03.2022
5031 Clear 0 999 77 10000 1.54 220 08:42 03.03.2022
5032 Clear -2 999 79 10000 1.54 200 06:54 03.03.2022
5033 Clear -1 1000 77 10000 2.06 220 05:22 03.03.2022
5034 Clear -1 1009 73 10000 2.57 220 23:48 02.03.2022
5035 Clear 0 1002 71 10000 1.03 0 22:54 02.03.2022
5036 Clear 0 1002 70 10000 1.03 0 22:33 02.03.2022
5037 Clear 1 1010 69 10000 0.51 30 20:59 02.03.2022
5038 Clear 1 1010 68 10000 0.51 0 20:25 02.03.2022
5039 Clear 1 1023 64 10000 1.54 40 19:41 02.03.2022
5040 Clear 2 1023 64 10000 1.03 90 19:23 02.03.2022
5041 Clear 3 1023 56 10000 2.06 90 18:35 02.03.2022
5042 Clear 6 1023 47 10000 3.09 50 17:45 02.03.2022
5043 Clear 7 1023 38 10000 0.51 0 16:53 02.03.2022
5044 Clear 8 1023 35 10000 1.54 130 16:18 02.03.2022
5045 Clear 8 1024 42 10000 1.03 0 14:32 02.03.2022
5046 Clear 8 1011 47 10000 1.54 0 13:18 02.03.2022
5047 Clear 7 1016 46 10000 1.54 40 12:39 02.03.2022
5048 Clear 5 1026 61 10000 1.03 0 11:28 02.03.2022
5049 Clear 4 1012 63 10000 1.03 0 10:58 02.03.2022
5050 Clouds 4 1009 54 10000 0.89 190 09:40 02.03.2022
5051 Clear 1 1006 72 10000 0.51 0 08:50 02.03.2022
5052 Clear -1 1006 75 10000 1.03 140 07:25 02.03.2022
5053 Clear -1 1006 74 10000 1.54 170 05:43 02.03.2022
5054 Clear 0 1008 71 10000 1.79 171 00:57 02.03.2022
5055 Clear -1 1015 72 10000 1.79 117 23:45 01.03.2022
5056 Clear -1 1015 75 10000 2.06 150 22:42 01.03.2022
5057 Clear -1 1016 74 10000 2.57 90 21:56 01.03.2022
5058 Clear 0 1016 74 10000 2.06 120 21:21 01.03.2022
5059 Clear 1 1016 68 10000 1.03 0 20:24 01.03.2022
5060 Clear 1 1018 61 10000 0.89 186 19:23 01.03.2022
5061 Clear 2 1021 61 10000 1.54 150 18:35 01.03.2022
5062 Clear 4 1021 54 10000 2.06 150 17:55 01.03.2022
5063 Clear 7 1030 41 10000 3.6 140 16:54 01.03.2022
5064 Clear 7 1016 45 10000 3.09 170 16:30 01.03.2022
5065 Clear 8 1017 40 10000 2.57 140 15:32 01.03.2022
5066 Clear 8 1017 43 10000 3.09 110 14:34 01.03.2022
5067 Clear 7 1018 44 10000 3.6 150 13:45 01.03.2022
5068 Clear 7 1018 44 10000 2.24 125 13:22 01.03.2022
5069 Clear 7 1019 46 10000 3.6 190 12:27 01.03.2022
5070 Clear 4 1020 53 10000 5.14 160 10:32 01.03.2022
5071 Clear 1 1021 65 10000 3.09 160 08:41 01.03.2022
5072 Clear -1 1012 72 10000 4.12 160 07:40 01.03.2022
5073 Clear -3 1020 76 10000 5.36 107 05:49 01.03.2022
5074 Clear -2 1021 74 10000 3.09 150 01:48 01.03.2022
5075 Clear -2 1022 74 10000 2.06 140 00:24 01.03.2022
5076 Clear -1 1022 72 10000 2.57 150 23:19 28.02.2022
5077 Clear -1 1022 71 10000 3.6 140 21:59 28.02.2022
5078 Clear 0 1022 70 10000 3.6 130 21:24 28.02.2022
5079 Clear 1 1022 63 10000 3.6 100 19:53 28.02.2022
5080 Clear 1 1036 58 10000 3.6 100 19:33 28.02.2022
5081 Clear 1 1026 56 10000 4.63 110 18:40 28.02.2022
5082 Clear 3 1026 49 10000 4.63 90 17:30 28.02.2022
5083 Clear 5 1026 48 10000 6.17 90 16:33 28.02.2022
5084 Clouds 6 1025 44 10000 6.17 80 15:23 28.02.2022
5085 Clouds 6 1035 43 10000 6.17 80 14:31 28.02.2022
5086 Clouds 6 1026 48 10000 6.17 80 13:47 28.02.2022
5087 Clouds 5 1022 59 10000 4.63 80 12:47 28.02.2022
5088 Clouds 4 1022 70 10000 3.6 70 11:57 28.02.2022
5089 Clouds 3 1026 70 10000 2.57 60 10:48 28.02.2022
5090 Clouds 2 1022 78 10000 2.57 90 10:20 28.02.2022
5091 Clouds 1 1026 79 10000 3.09 100 09:33 28.02.2022
5092 Clouds 0 1026 88 10000 2.06 60 08:32 28.02.2022
5093 Clouds -1 1021 90 7000 2.06 70 07:35 28.02.2022
5094 Clouds -1 1021 91 8000 0.51 0 05:21 28.02.2022
5095 Clouds -1 1021 88 8000 1.54 50 04:27 28.02.2022
5096 Mist 0 1026 91 3000 1.34 98 23:45 27.02.2022
5097 Mist 0 1022 90 3800 3.6 80 22:36 27.02.2022
5098 Clouds 0 1036 88 6000 3.09 70 21:52 27.02.2022
5099 Clear 1 1036 86 8000 4.12 80 21:27 27.02.2022
5100 Clouds 2 1026 78 10000 3.6 80 20:37 27.02.2022
5101 Clouds 2 1026 74 10000 3.09 70 19:59 27.02.2022
5102 Clear 3 1026 70 10000 2.57 70 19:27 27.02.2022
5103 Clear 3 1026 70 10000 2.57 70 19:27 27.02.2022
5104 Clear 4 1026 69 10000 3.09 90 18:48 27.02.2022
5105 Clear 5 1026 62 10000 3.6 70 17:57 27.02.2022
5106 Clouds 6 1035 58 10000 4.63 70 17:26 27.02.2022
5107 Clouds 7 1035 50 10000 4.63 70 16:22 27.02.2022
5108 Clouds 8 1022 50 10000 4.63 50 13:49 27.02.2022
5109 Clear 8 1023 50 10000 4.12 100 12:35 27.02.2022
5110 Clouds 7 1027 51 10000 5.14 110 11:28 27.02.2022
5111 Clouds 6 1023 63 10000 4.12 130 10:36 27.02.2022
5112 Clear 5 1024 81 10000 2.57 100 09:52 27.02.2022
5113 Mist 3 1027 88 3300 1.54 90 09:21 27.02.2022
5114 Fog 2 1027 91 200 2.24 102 08:38 27.02.2022
5115 Clear 1 1036 90 8000 0 0 05:41 27.02.2022
5116 Clear 2 1036 88 10000 0.51 0 02:57 27.02.2022
5117 Clouds 3 1026 84 10000 1.54 320 23:51 26.02.2022
5118 Clouds 3 1036 83 10000 1.54 290 22:42 26.02.2022
5119 Clouds 3 1026 83 10000 1.54 280 21:26 26.02.2022
5120 Clouds 3 1026 83 10000 1.03 0 20:41 26.02.2022
5121 Clouds 4 1025 79 10000 0.51 0 19:55 26.02.2022
5122 Clouds 4 1025 79 10000 0.51 0 19:33 26.02.2022
5123 Clouds 4 1025 77 10000 1.54 330 18:33 26.02.2022
5124 Clouds 5 1024 75 10000 1.54 340 17:34 26.02.2022
5125 Clouds 5 1024 73 10000 3.09 340 16:39 26.02.2022
5126 Clouds 6 1024 74 10000 3.6 320 15:37 26.02.2022
5127 Clouds 6 1024 75 10000 4.63 320 15:18 26.02.2022
5128 Clouds 6 1024 74 10000 4.63 330 14:41 26.02.2022
5129 Clouds 5 1024 76 10000 4.12 340 13:53 26.02.2022
5130 Clouds 6 1023 76 10000 4.12 340 12:53 26.02.2022
5131 Clouds 5 1023 79 10000 4.63 330 11:52 26.02.2022
5132 Clouds 5 1023 82 10000 3.6 320 11:25 26.02.2022
5133 Clouds 4 1022 87 10000 3.09 330 10:19 26.02.2022
5134 Clouds 3 1021 88 10000 5.14 310 08:35 26.02.2022
5135 Clouds 3 1020 84 10000 4.63 290 06:40 26.02.2022
5136 Clouds 3 1015 88 10000 5.66 290 00:25 26.02.2022
5137 Clouds 4 1014 84 10000 5.14 260 22:43 25.02.2022
5138 Clouds 3 1014 81 10000 5.81 236 21:33 25.02.2022
5139 Clouds 4 1013 80 10000 6.26 231 20:57 25.02.2022
5140 Clear 4 1013 81 10000 4.63 250 20:28 25.02.2022
5141 Clouds 3 1012 85 10000 4.12 230 18:18 25.02.2022
5142 Clouds 3 1012 86 10000 6.17 260 17:20 25.02.2022
5143 Clouds 7 1011 54 10000 5.81 218 16:19 25.02.2022
5144 Clouds 7 1011 53 10000 5.66 250 15:42 25.02.2022
5145 Clouds 7 1011 53 10000 8.05 227 15:18 25.02.2022
5146 Clouds 7 1007 55 10000 7.72 240 14:39 25.02.2022
5147 Clouds 7 1011 54 10000 6.69 250 13:36 25.02.2022
5148 Clouds 7 1011 56 10000 7.72 250 12:42 25.02.2022
5149 Clouds 6 1011 58 10000 7.2 260 11:23 25.02.2022
5150 Clouds 6 1011 62 10000 6.71 237 10:28 25.02.2022
5151 Clouds 5 1011 66 10000 6.69 250 09:53 25.02.2022
5152 Clouds 3 1010 76 10000 6.26 240 08:44 25.02.2022
5153 Clouds 3 1010 82 10000 5.14 250 07:37 25.02.2022
5154 Clouds 3 1008 81 10000 4.12 250 05:47 25.02.2022
5155 Clouds 3 1006 86 10000 4.92 239 02:58 25.02.2022
5156 Rain 5 1003 81 10000 7.2 280 23:42 24.02.2022
5157 Clouds 9 1000 65 10000 6.17 230 21:56 24.02.2022
5158 Clouds 9 1000 66 10000 7.15 239 21:37 24.02.2022
5159 Clouds 9 999 65 10000 6.69 210 21:18 24.02.2022
5160 Clear 9 1000 67 10000 8.75 190 19:38 24.02.2022
5161 Clear 9 1000 67 10000 6.69 180 18:43 24.02.2022
5162 Clouds 9 1000 65 10000 7.72 180 18:18 24.02.2022
5163 Clouds 9 1001 64 10000 7.2 180 17:33 24.02.2022
5164 Clouds 9 1001 64 10000 7.2 180 17:33 24.02.2022
5165 Clear 9 1001 61 10000 7.2 180 16:49 24.02.2022
5166 Clear 9 1002 61 10000 5.66 180 16:23 24.02.2022
5167 Clouds 11 1002 54 10000 5.14 220 14:54 24.02.2022
5168 Clouds 11 999 58 10000 5.14 220 14:35 24.02.2022
5169 Clouds 11 1004 54 10000 5.14 230 13:39 24.02.2022
5170 Clouds 11 1005 51 10000 5.36 204 12:54 24.02.2022
5171 Clear 10 1007 55 10000 6.17 180 10:41 24.02.2022
5172 Clear 10 1007 55 10000 6.17 180 10:41 24.02.2022
5173 Clear 5 1017 70 10000 6.17 160 09:24 24.02.2022
5174 Clear 4 997 77 10000 5.14 160 08:41 24.02.2022
5175 Clear 1 999 88 10000 4.12 160 05:58 24.02.2022
5176 Clear 2 1009 78 10000 0.51 0 01:58 24.02.2022
5177 Clear 4 1002 67 10000 3.6 160 23:40 23.02.2022
5178 Clear 4 1011 75 10000 4.12 170 21:53 23.02.2022
5179 Clear 4 1012 75 10000 3.6 210 20:32 23.02.2022
5180 Clear 5 1012 72 10000 2.57 220 19:49 23.02.2022
5181 Clear 7 1012 66 10000 1.54 250 18:42 23.02.2022
5182 Clouds 8 1012 65 10000 3.6 280 17:46 23.02.2022
5183 Clouds 10 1016 54 10000 7.2 290 15:28 23.02.2022
5184 Clouds 10 1012 59 10000 7.2 290 13:34 23.02.2022
5185 Clouds 9 1016 61 10000 6.69 300 12:26 23.02.2022
5186 Clouds 8 1015 69 10000 10.29 300 10:45 23.02.2022
5187 Clouds 7 1014 73 10000 6.17 280 09:31 23.02.2022
5188 Clouds 6 1013 76 10000 6.17 280 08:28 23.02.2022
5189 Clouds 6 1012 77 10000 1.79 92 07:19 23.02.2022
5190 Clouds 6 1012 77 10000 6.17 280 07:19 23.02.2022
5191 Clouds 7 1006 81 10000 6.17 280 02:22 23.02.2022
5192 Rain 7 1004 84 10000 8.94 235 23:46 22.02.2022
5193 Clouds 7 1003 84 10000 7.2 240 23:28 22.02.2022
5194 Clouds 7 1004 76 10000 6.26 228 22:28 22.02.2022
5195 Clouds 6 1004 77 10000 6.26 226 21:40 22.02.2022
5196 Clouds 6 1005 80 10000 5.66 230 21:19 22.02.2022
5197 Rain 6 1005 76 10000 6.26 218 20:31 22.02.2022
5198 Rain 6 1006 72 10000 5.14 230 19:56 22.02.2022
5199 Clouds 6 1006 69 10000 5.14 230 19:33 22.02.2022
5200 Clouds 6 1006 66 10000 4.12 230 18:35 22.02.2022
5201 Clouds 6 1007 63 10000 3.6 260 17:27 22.02.2022
5202 Clouds 7 1007 63 10000 5.66 270 16:55 22.02.2022
5203 Clouds 7 1007 61 10000 5.66 280 16:20 22.02.2022
5204 Clouds 7 1008 59 10000 5.81 241 15:22 22.02.2022
5205 Clouds 7 1008 60 10000 6.69 290 14:28 22.02.2022
5206 Clouds 6 1006 72 10000 7.2 290 11:38 22.02.2022
5207 Clouds 4 1005 78 10000 6.69 300 09:45 22.02.2022
5208 Clouds 4 1003 83 10000 0.45 290 07:30 22.02.2022
5209 Clouds 4 1002 84 10000 9.26 300 06:54 22.02.2022
5210 Clouds 4 998 87 10000 5.66 270 02:51 22.02.2022
5211 Clouds 4 995 85 10000 7.2 300 23:42 21.02.2022
5212 Clouds 4 994 89 10000 8.75 300 22:37 21.02.2022
5213 Clouds 5 987 87 9000 7.72 270 21:21 21.02.2022
5214 Clouds 6 984 65 10000 8.23 240 18:58 21.02.2022
5215 Clear 7 984 59 10000 9.77 240 18:39 21.02.2022
5216 Clouds 7 985 51 10000 7.2 240 16:30 21.02.2022
5217 Clouds 8 999 48 10000 10.29 260 14:23 21.02.2022
5218 Clouds 8 1000 55 10000 8.75 260 13:40 21.02.2022
5219 Clouds 8 1000 53 10000 1.79 294 12:46 21.02.2022
5220 Clouds 7 1000 55 10000 9.77 260 12:21 21.02.2022
5221 Clouds 6 999 68 10000 7.2 260 10:31 21.02.2022
5222 Clouds 6 983 77 10000 8.94 234 07:51 21.02.2022
5223 Rain 10 989 73 10000 11.83 220 00:36 21.02.2022
5224 Rain 9 992 76 10000 9.26 230 22:37 20.02.2022
5225 Rain 9 993 78 10000 9.26 230 21:44 20.02.2022
5226 Rain 9 994 77 10000 8.75 230 21:25 20.02.2022
5227 Rain 9 995 78 10000 9.83 225 20:45 20.02.2022
5228 Clouds 9 995 73 10000 8.75 230 19:51 20.02.2022
5229 Clouds 9 996 72 10000 8.23 230 18:57 20.02.2022
5230 Clouds 9 996 72 10000 8.23 230 18:37 20.02.2022
5231 Clouds 9 997 73 10000 9.77 240 17:56 20.02.2022
5232 Clouds 9 997 74 10000 8.75 240 17:24 20.02.2022
5233 Clouds 8 999 81 10000 8.49 224 15:28 20.02.2022
5234 Rain 7 1000 83 10000 7.15 227 13:59 20.02.2022
5235 Rain 8 1001 73 10000 7.72 260 12:49 20.02.2022
5236 Clouds 9 1002 62 10000 7.2 270 11:56 20.02.2022
5237 Clouds 7 1002 69 10000 7.72 280 10:21 20.02.2022
5238 Clouds 6 1002 74 10000 7.2 270 09:51 20.02.2022
5239 Rain 6 999 77 10000 1.34 265 06:30 20.02.2022
5240 Rain 5 1003 58 10000 4.63 210 00:33 20.02.2022
5241 Clear 5 1004 59 10000 6.17 210 23:39 19.02.2022
5242 Clear 4 1005 60 10000 5.14 220 22:25 19.02.2022
5243 Clear 4 1005 61 10000 4.63 220 21:52 19.02.2022
5244 Clear 5 1005 57 10000 4.63 220 20:45 19.02.2022
5245 Clear 4 1005 58 10000 4.12 220 19:36 19.02.2022
5246 Clear 5 1006 59 10000 4.12 220 18:41 19.02.2022
5247 Clear 6 1002 59 10000 5.66 270 17:59 19.02.2022
5248 Clear 6 1001 56 10000 5.66 270 17:33 19.02.2022
5249 Clouds 8 1005 49 10000 9.26 270 15:59 19.02.2022
5250 Clouds 8 1005 47 10000 9.77 270 14:56 19.02.2022
5251 Clouds 8 1004 49 10000 9.26 270 13:58 19.02.2022
5252 Clouds 8 1003 47 10000 12.35 270 11:59 19.02.2022
5253 Clouds 8 1003 47 10000 12.35 270 11:36 19.02.2022
5254 Clouds 7 1000 53 10000 10.8 260 09:27 19.02.2022
5255 Clear 6 996 55 10000 10.29 260 06:51 19.02.2022
5256 Clear 8 992 48 10000 10.29 260 01:39 19.02.2022
5257 Clear 10 985 53 10000 10.29 260 22:54 18.02.2022
5258 Clouds 11 978 67 10000 9.83 242 21:28 18.02.2022
5259 Clouds 12 982 70 10000 9.39 218 20:31 18.02.2022
5260 Clouds 11 982 76 10000 8.49 196 19:51 18.02.2022
5261 Clouds 10 983 80 10000 10.8 190 18:49 18.02.2022
5262 Clouds 10 983 83 10000 9.26 180 18:19 18.02.2022
5263 Clouds 9 978 86 10000 8.05 218 17:21 18.02.2022
5264 Rain 7 993 88 10000 6.17 160 14:47 18.02.2022
5265 Rain 7 995 85 10000 5.66 180 13:54 18.02.2022
5266 Rain 9 997 67 10000 4.63 190 12:51 18.02.2022
5267 Rain 9 999 63 10000 4.12 220 11:58 18.02.2022
5268 Rain 9 999 63 10000 4.12 220 11:58 18.02.2022
5269 Rain 9 999 62 10000 4.63 230 11:21 18.02.2022
5270 Clear 8 1001 66 10000 4.63 230 09:33 18.02.2022
5271 Clear 6 1001 72 10000 4.12 260 06:52 18.02.2022
5272 Clouds 5 997 71 10000 5.81 242 05:38 18.02.2022
5273 Clear 6 999 70 10000 7.72 290 22:47 17.02.2022
5274 Clouds 7 998 68 10000 10.28 243 21:44 17.02.2022
5275 Clear 7 997 64 10000 8.23 290 20:59 17.02.2022
5276 Clear 7 997 62 10000 8.23 290 20:34 17.02.2022
5277 Clear 7 995 59 10000 10.29 290 19:48 17.02.2022
5278 Clear 8 994 54 10000 7.72 280 18:38 17.02.2022
5279 Clear 8 993 55 10000 8.23 270 17:50 17.02.2022
5280 Clouds 9 992 56 10000 11.32 280 16:20 17.02.2022
5281 Clouds 9 992 57 10000 11.32 280 16:20 17.02.2022
5282 Clouds 10 991 55 10000 11.83 280 15:30 17.02.2022
5283 Clouds 10 986 61 10000 11.32 280 14:25 17.02.2022
5284 Clouds 9 984 62 10000 12.86 280 12:35 17.02.2022
5285 Clouds 9 983 66 10000 12.86 270 11:21 17.02.2022
5286 Clouds 8 981 83 10000 10.8 280 08:43 17.02.2022
5287 Rain 13 978 71 10000 9.77 230 00:31 17.02.2022
5288 Rain 12 981 75 10000 11.32 230 22:59 16.02.2022
5289 Rain 11 984 74 10000 9.39 202 21:25 16.02.2022
5290 Clouds 11 985 76 10000 8.23 220 19:46 16.02.2022
5291 Rain 10 990 74 10000 8.23 230 18:38 16.02.2022
5292 -273 0 0 0 0 0 17:48 16.02.2022
5293 Clouds 10 990 72 10000 8.49 218 15:36 16.02.2022
5294 Clouds 9 990 76 10000 9.39 233 14:59 16.02.2022
5295 Rain 9 993 70 10000 10.8 220 12:35 16.02.2022
5296 Rain 9 1002 68 10000 7.72 200 11:55 16.02.2022
5297 Rain 9 1003 70 10000 8.23 210 11:24 16.02.2022
5298 Clouds 8 991 74 10000 8.75 210 10:30 16.02.2022
5299 Clouds 6 998 76 10000 7.2 190 07:21 16.02.2022
5300 Clear 5 999 76 10000 6.17 200 05:20 16.02.2022
5301 Clear 4 1003 76 10000 6.69 210 23:44 15.02.2022
5302 Clouds 5 1004 77 10000 5.14 220 22:28 15.02.2022
5303 Clouds 6 1004 79 10000 5.14 220 21:46 15.02.2022
5304 Clear 6 1004 80 10000 4.63 220 21:27 15.02.2022
5305 Clouds 6 1004 78 10000 4.47 200 20:56 15.02.2022
5306 Clouds 6 1004 80 10000 3.09 220 19:57 15.02.2022
5307 Clouds 7 1004 79 10000 2.57 220 18:56 15.02.2022
5308 Clouds 8 1004 80 10000 2.06 260 18:21 15.02.2022
5309 Clouds 8 1004 80 10000 2.57 290 17:49 15.02.2022
5310 Clouds 9 1012 67 10000 1.54 270 16:38 15.02.2022
5311 Clouds 10 1003 66 10000 3.09 270 15:28 15.02.2022
5312 Clouds 10 1003 66 10000 3.13 277 13:27 15.02.2022
5313 Clouds 10 1003 67 10000 3.6 230 12:37 15.02.2022
5314 Clouds 10 1003 68 10000 4.12 230 11:40 15.02.2022
5315 Clear 5 1000 83 10000 3.6 200 09:31 15.02.2022
5316 Clear 4 1001 80 10000 5.14 180 06:58 15.02.2022
5317 Rain 5 997 80 10000 4.12 200 05:32 15.02.2022
5318 Clear 5 1000 74 10000 5.66 160 23:33 14.02.2022
5319 Rain 6 1000 64 10000 7.2 170 21:47 14.02.2022
5320 Clear 6 999 64 10000 6.69 170 20:40 14.02.2022
5321 Clear 6 999 61 10000 6.69 170 19:44 14.02.2022
5322 Clear 6 999 61 10000 6.69 170 19:25 14.02.2022
5323 Clear 5 999 65 10000 8.23 170 18:23 14.02.2022
5324 Clear 6 999 62 10000 7.2 170 17:26 14.02.2022
5325 Clear 8 999 56 10000 7.2 170 16:25 14.02.2022
5326 Clear 8 1008 50 10000 8.23 170 14:39 14.02.2022
5327 Clear 8 1009 47 10000 7.2 160 13:34 14.02.2022
5328 Clear 8 1009 52 10000 8.23 160 12:55 14.02.2022
5329 Clear 7 1009 52 10000 7.72 150 11:55 14.02.2022
5330 Clear 6 1009 54 10000 8.23 150 11:18 14.02.2022
5331 Clear 3 1010 66 10000 7.2 150 09:19 14.02.2022
5332 Clear 1 1010 72 10000 7.2 150 07:33 14.02.2022
5333 Clear 1 1010 73 10000 8.23 160 06:32 14.02.2022
5334 Clear 4 1001 74 10000 5.14 160 22:43 13.02.2022
5335 Clear 4 1001 69 10000 4.12 160 22:25 13.02.2022
5336 Clear 4 1001 71 10000 4.12 160 21:48 13.02.2022
5337 Clear 4 1002 71 10000 4.12 150 20:42 13.02.2022
5338 Clear 4 1006 71 10000 4.63 160 19:51 13.02.2022
5339 Clear 4 1007 67 10000 4.63 170 18:56 13.02.2022
5340 Clear 5 1007 67 10000 4.63 170 18:38 13.02.2022
5341 Clear 7 1017 59 10000 4.63 170 16:39 13.02.2022
5342 Clear 9 1017 54 10000 3.6 180 15:42 13.02.2022
5343 Clear 9 1018 55 10000 3.6 180 14:38 13.02.2022
5344 Clear 8 1006 57 10000 4.92 194 13:26 13.02.2022
5345 Clear 8 1006 56 10000 5.14 190 12:40 13.02.2022
5346 Clear 6 1011 59 10000 5.66 170 10:39 13.02.2022
5347 Clear 3 1011 67 10000 5.14 160 09:49 13.02.2022
5348 Clear 0 1012 80 10000 3.09 140 08:33 13.02.2022
5349 Clear 1 1015 77 10000 4.12 160 01:26 13.02.2022
5350 Clear 2 1016 75 10000 3.09 170 00:21 13.02.2022
5351 Clear 3 1005 76 10000 4.63 170 22:34 12.02.2022
5352 Clear 3 1006 77 10000 2.57 160 22:00 12.02.2022
5353 Clear 3 1006 79 10000 3.09 170 20:55 12.02.2022
5354 Clear 2 1013 78 10000 2.06 150 20:23 12.02.2022
5355 Clear 2 1019 79 10000 1.54 130 18:54 12.02.2022
5356 Clear 2 1019 78 10000 1.54 130 18:36 12.02.2022
5357 Clear 3 1020 75 10000 2.06 160 17:39 12.02.2022
5358 Clouds 4 1020 70 10000 6.17 180 16:46 12.02.2022
5359 Clouds 6 1021 65 10000 4.12 170 15:53 12.02.2022
5360 Clouds 6 1021 62 10000 4.12 160 15:21 12.02.2022
5361 Clouds 6 1018 67 10000 3.6 180 14:29 12.02.2022
5362 Clouds 4 1020 73 10000 3.09 210 11:34 12.02.2022
5363 Clear 3 1021 82 10000 3.09 200 10:33 12.02.2022
5364 Clouds 1 1021 87 10000 2.57 190 09:38 12.02.2022
5365 Clouds 0 1021 92 10000 2.24 191 08:47 12.02.2022
5366 Clear -1 1021 92 10000 2.57 190 07:47 12.02.2022
5367 Clear 0 1021 90 10000 1.54 290 05:31 12.02.2022
5368 Clouds 1 1024 86 10000 1.54 270 02:19 12.02.2022
5369 Clouds 3 1023 91 10000 6.17 300 23:56 11.02.2022
5370 Clouds 3 1022 91 10000 4.02 282 22:24 11.02.2022
5371 Clouds 3 1021 92 10000 4.63 310 21:37 11.02.2022
5372 Clouds 4 1020 90 10000 4.12 330 20:37 11.02.2022
5373 Clouds 4 1018 92 8000 4.12 300 19:31 11.02.2022
5374 Mist 4 1017 91 5000 3.09 260 18:47 11.02.2022
5375 Clouds 4 1016 88 10000 4.12 260 17:27 11.02.2022
5376 Clouds 4 1016 86 10000 4.12 260 16:58 11.02.2022
5377 Clouds 4 1014 84 10000 4.63 270 15:33 11.02.2022
5378 Clouds 5 1014 81 10000 7.15 238 14:38 11.02.2022
5379 Clouds 5 1013 79 10000 7.72 260 14:20 11.02.2022
5380 Clouds 4 1013 79 10000 6.17 260 13:50 11.02.2022
5381 Clouds 4 1013 81 10000 5.66 240 13:31 11.02.2022
5382 Clouds 3 1009 92 10000 4.12 250 11:27 11.02.2022
5383 Snow 2 1013 93 1400 4.63 290 09:39 11.02.2022
5384 Mist 2 1011 93 2300 3.6 290 08:39 11.02.2022
5385 Mist 2 1011 94 1600 3.6 300 08:21 11.02.2022
5386 Rain 3 1009 91 10000 2.57 310 06:32 11.02.2022
5387 Drizzle 5 1010 92 10000 1.54 320 02:25 11.02.2022
5388 Rain 6 979 94 6560 2.09 299 00:46 11.02.2022
5389 Clouds 7 1006 89 9000 4.02 293 22:45 10.02.2022
5390 Clouds 7 1011 87 10000 3.58 215 21:44 10.02.2022
5391 Clouds 7 1011 84 10000 3.09 290 20:52 10.02.2022
5392 Clouds 7 1010 82 10000 4.63 270 20:29 10.02.2022
5393 Clouds 7 1010 80 10000 4.92 236 19:24 10.02.2022
5394 Clouds 7 1010 79 10000 4.63 260 18:43 10.02.2022
5395 Clouds 8 1009 75 10000 6.17 260 17:26 10.02.2022
5396 Clouds 8 1009 73 10000 6.17 260 16:47 10.02.2022
5397 Clouds 9 1009 70 10000 7.2 260 15:47 10.02.2022
5398 Clouds 9 1009 68 10000 8.23 260 15:28 10.02.2022
5399 Clouds 10 1008 65 10000 7.2 250 14:46 10.02.2022
5400 Clouds 11 1008 64 10000 7.6 225 14:23 10.02.2022
5401 Clouds 12 1008 60 10000 8.75 260 13:22 10.02.2022
5402 Clouds 12 1009 56 10000 6.26 221 12:23 10.02.2022
5403 Clear 13 1005 60 10000 6.69 240 11:33 10.02.2022
5404 Clear 11 1006 68 10000 3.6 190 10:35 10.02.2022
5405 Clear 9 1010 72 10000 5.66 200 09:50 10.02.2022
5406 Clear 8 1010 76 10000 5.14 190 09:18 10.02.2022
5407 Clouds 7 1011 82 10000 4.12 180 06:50 10.02.2022
5408 Clouds 8 1013 78 10000 3.09 220 03:55 10.02.2022
5409 Clouds 8 1014 76 10000 2.57 260 01:48 10.02.2022
5410 Clouds 9 1014 76 10000 1.34 210 00:44 10.02.2022
5411 Clouds 8 1015 76 10000 3.6 230 00:25 10.02.2022
5412 Clouds 9 1015 76 10000 4.02 206 22:58 09.02.2022
5413 Clouds 9 1015 76 10000 3.6 240 22:34 09.02.2022
5414 Clouds 9 1015 76 10000 4.12 240 21:49 09.02.2022
5415 Clouds 9 1015 76 10000 4.12 240 21:28 09.02.2022
5416 Clouds 9 1015 76 10000 4.12 240 20:47 09.02.2022
5417 Clouds 9 1015 76 10000 4.12 240 20:24 09.02.2022
5418 Clouds 9 1015 76 10000 4.63 240 19:45 09.02.2022
5419 Clouds 9 1016 76 10000 4.63 240 19:22 09.02.2022
5420 Clouds 9 1015 74 10000 3.6 240 17:35 09.02.2022
5421 Clouds 9 1015 72 10000 4.63 240 16:32 09.02.2022
5422 Clouds 9 1015 71 10000 4.63 240 15:40 09.02.2022
5423 Clouds 9 1016 70 10000 6.17 240 14:28 09.02.2022
5424 Clouds 9 1016 71 10000 5.14 230 12:28 09.02.2022
5425 Clouds 9 1017 74 10000 4.63 230 10:47 09.02.2022
5426 Clouds 8 1017 76 10000 5.14 240 10:26 09.02.2022
5427 Clouds 8 1017 80 10000 4.12 230 09:23 09.02.2022
5428 Clouds 8 1017 80 10000 4.02 229 08:59 09.02.2022
5429 Clouds 8 1017 81 10000 4.12 240 07:47 09.02.2022
5430 Clouds 8 1017 82 10000 4.92 224 05:30 09.02.2022
5431 Clouds 8 1017 82 10000 4.92 224 05:30 09.02.2022
5432 Clouds 8 1017 84 10000 5.36 228 03:50 09.02.2022
5433 Clouds 8 1017 83 10000 6.17 250 00:23 09.02.2022
5434 Clouds 8 1017 84 10000 6.17 260 23:30 08.02.2022
5435 Clouds 8 1017 84 10000 6.71 212 22:46 08.02.2022
5436 Clouds 8 1017 84 10000 8.49 225 22:21 08.02.2022
5437 Clouds 8 1017 84 10000 8.49 225 22:21 08.02.2022
5438 Drizzle 8 1017 84 10000 6.69 260 21:38 08.02.2022
5439 Drizzle 8 1016 84 10000 6.71 237 21:20 08.02.2022
5440 Clouds 7 1016 86 10000 6.69 250 20:42 08.02.2022
5441 Drizzle 8 1016 83 10000 7.2 260 19:46 08.02.2022
5442 Clouds 8 1015 80 10000 7.2 260 18:35 08.02.2022
5443 Clouds 8 1015 78 10000 7.2 260 17:38 08.02.2022
5444 Clouds 8 1015 77 10000 7.2 260 16:22 08.02.2022
5445 Clouds 8 1015 76 10000 6.17 260 15:29 08.02.2022
5446 Clouds 8 1014 76 10000 7.72 250 14:26 08.02.2022
5447 Clouds 7 1015 80 10000 7.2 260 12:41 08.02.2022
5448 Clouds 6 1015 82 10000 6.69 250 11:28 08.02.2022
5449 Clouds 5 1015 82 10000 6.26 238 10:18 08.02.2022
5450 Clouds 5 1016 82 10000 5.81 218 09:41 08.02.2022
5451 Clouds 4 1016 77 10000 5.36 235 07:46 08.02.2022
5452 Clear 3 1016 80 10000 6.26 223 05:37 08.02.2022
5453 Clear 3 1017 80 10000 4.47 237 04:39 08.02.2022
5454 Clouds 3 1017 81 10000 4.63 260 04:21 08.02.2022
5455 Clouds 3 1017 82 10000 4.63 270 03:36 08.02.2022
5456 Clouds 3 1017 82 10000 4.12 270 03:18 08.02.2022
5457 Clouds 3 1017 82 10000 4.63 270 02:58 08.02.2022
5458 Clouds 3 1017 83 10000 4.63 270 02:36 08.02.2022
5459 Clouds 4 1017 82 10000 4.12 270 02:18 08.02.2022
5460 Clouds 3 1016 83 10000 4.12 270 01:43 08.02.2022
5461 Clouds 3 1016 83 10000 5.14 280 01:24 08.02.2022
5462 Clouds 3 1016 83 10000 4.63 280 00:49 08.02.2022
5463 Clouds 3 1015 79 10000 4.12 280 23:54 07.02.2022
5464 Clouds 3 1015 78 10000 4.47 240 23:36 07.02.2022
5465 Clouds 4 1015 79 10000 5.14 290 23:18 07.02.2022
5466 Clouds 4 1014 80 10000 5.66 300 22:19 07.02.2022
5467 Clouds 3 1014 82 10000 6.17 290 21:53 07.02.2022
5468 Clouds 3 1014 80 10000 7.6 283 21:29 07.02.2022
5469 Clouds 3 1013 79 10000 7.2 300 20:56 07.02.2022
5470 Clouds 3 1013 79 10000 7.2 300 20:38 07.02.2022
5471 Clouds 3 1012 78 10000 7.2 290 19:49 07.02.2022
5472 Clouds 3 1012 81 10000 7.6 269 19:31 07.02.2022
5473 Clouds 3 1010 82 10000 6.17 290 17:52 07.02.2022
5474 Rain 4 1008 77 10000 9.77 300 16:52 07.02.2022
5475 Clouds 4 1008 79 10000 8.75 300 15:49 07.02.2022
5476 Rain 6 1006 65 10000 9.77 300 14:48 07.02.2022
5477 Clouds 6 1005 73 10000 8.75 300 13:28 07.02.2022
5478 Clouds 6 1004 78 10000 1.79 240 12:38 07.02.2022
5479 Clouds 4 1004 87 10000 0.45 309 11:57 07.02.2022
5480 Clouds 3 1003 88 10000 0.89 306 11:34 07.02.2022
5481 Clouds 3 1003 86 10000 2.24 323 10:49 07.02.2022
5482 Clouds 3 1002 88 10000 5.36 296 10:29 07.02.2022
5483 Clouds 3 1001 87 10000 0.45 319 09:53 07.02.2022
5484 Clouds 3 1000 85 10000 4.92 225 09:18 07.02.2022
5485 Clouds 2 999 85 10000 2.68 246 08:36 07.02.2022
5486 Clouds 3 997 82 10000 5.81 242 06:54 07.02.2022
5487 Clouds 3 996 82 10000 0.45 319 06:33 07.02.2022
5488 Clouds 3 990 89 2200 2.68 316 02:58 07.02.2022
5489 Rain 5 984 80 10000 0.45 310 00:44 07.02.2022
5490 Clouds 6 984 76 10000 0.45 319 23:47 06.02.2022
5491 Clouds 6 984 81 10000 0.45 323 22:48 06.02.2022
5492 Clouds 6 985 78 10000 1.34 296 21:54 06.02.2022
5493 Clouds 6 985 78 10000 1.34 296 21:35 06.02.2022
5494 Clouds 6 989 77 10000 0.45 307 20:54 06.02.2022
5495 Clouds 6 989 77 10000 0.45 307 20:31 06.02.2022
5496 Clouds 6 984 80 10000 2.24 333 19:38 06.02.2022
5497 Rain 7 983 75 10000 1.79 306 18:40 06.02.2022
5498 Rain 6 984 81 10000 2.24 257 17:55 06.02.2022
5499 Rain 7 985 80 10000 2.24 282 17:19 06.02.2022
5500 Rain 7 989 72 10000 2.24 301 16:38 06.02.2022
5501 Clouds 8 990 66 10000 1.79 316 15:49 06.02.2022
5502 Clouds 8 991 68 10000 1.79 324 15:26 06.02.2022
5503 Clouds 8 993 70 10000 1.79 25 14:36 06.02.2022
5504 Clouds 8 995 67 10000 1.79 323 13:26 06.02.2022
5505 Clouds 8 992 70 10000 2.24 322 12:52 06.02.2022
5506 Clouds 8 997 70 10000 2.68 325 11:32 06.02.2022
5507 Rain 7 998 77 10000 1.34 306 10:31 06.02.2022
5508 Rain 6 999 80 10000 0.89 329 08:59 06.02.2022
5509 Rain 5 1000 78 10000 1.79 292 08:30 06.02.2022
5510 Rain 4 1002 83 10000 1.79 15 05:31 06.02.2022
5511 Rain 5 1005 76 10000 1.79 295 02:50 06.02.2022
5512 Clouds 5 1005 70 10000 0.89 331 02:24 06.02.2022
5513 Clear 4 1007 69 10000 1.79 308 00:29 06.02.2022
5514 Clear 4 1008 70 10000 0.89 306 22:31 05.02.2022
5515 Clear 4 1009 69 10000 4.47 226 21:32 05.02.2022
5516 Clear 4 1009 66 10000 4.47 220 20:25 05.02.2022
5517 Clear 4 1009 67 10000 0.89 313 19:48 05.02.2022
5518 Clear 5 1010 66 10000 0.45 344 18:59 05.02.2022
5519 Clouds 5 1010 65 10000 1.34 292 17:45 05.02.2022
5520 Clouds 5 1010 64 10000 0.45 300 17:25 05.02.2022
5521 Clouds 6 1009 59 10000 0.45 292 15:40 05.02.2022
5522 Clouds 6 1009 59 10000 0.45 314 15:21 05.02.2022
5523 Clouds 6 1009 63 10000 0.45 329 12:54 05.02.2022
5524 Clouds 6 1009 65 10000 0.45 313 12:31 05.02.2022
5525 Clouds 5 1008 68 10000 0.89 297 10:52 05.02.2022
5526 Clouds 5 1008 68 10000 1.34 275 10:22 05.02.2022
5527 Clouds 4 1008 71 10000 1.34 311 09:44 05.02.2022
5528 Clouds 3 1007 75 10000 0.89 355 07:54 05.02.2022
5529 Clouds 3 1006 76 10000 0.89 303 06:57 05.02.2022
5530 Clouds 3 1005 78 10000 0.45 277 04:30 05.02.2022
5531 Clouds 4 1002 80 10000 2.68 231 01:19 05.02.2022
5532 Clouds 4 1002 82 10000 0.45 355 00:53 05.02.2022
5533 Rain 7 999 79 10000 1.34 209 23:58 04.02.2022
5534 Rain 8 998 72 10000 0.89 261 23:30 04.02.2022
5535 Clouds 7 998 75 10000 0.45 341 21:59 04.02.2022
5536 Clouds 7 998 75 10000 1.34 324 21:36 04.02.2022
5537 Clouds 7 998 76 10000 0.89 335 21:18 04.02.2022
5538 Clouds 7 999 75 10000 0.45 317 20:20 04.02.2022
5539 Clouds 7 1000 73 10000 4.02 222 17:43 04.02.2022
5540 Clouds 8 1001 72 10000 4.02 210 15:55 04.02.2022
5541 Clouds 8 1001 72 10000 4.02 210 15:55 04.02.2022
5542 Clouds 8 1001 69 10000 1.34 323 14:55 04.02.2022
5543 Clouds 8 1002 71 10000 1.34 325 13:39 04.02.2022
5544 Clouds 8 1003 72 10000 0.45 321 12:43 04.02.2022
5545 Clouds 7 1004 79 10000 0.45 313 11:42 04.02.2022
5546 Clouds 7 1004 79 10000 0.45 313 11:42 04.02.2022
5547 Clouds 7 1004 83 10000 3.58 223 10:37 04.02.2022
5548 Clouds 6 1004 87 10000 0.45 313 08:48 04.02.2022
5549 Clouds 5 1003 89 10000 0.89 311 06:57 04.02.2022
5550 Rain 6 1003 92 10000 0.45 201 02:48 04.02.2022
5551 Clouds 6 1003 91 10000 1.79 229 01:56 04.02.2022
5552 Clouds 5 1003 91 10000 2.24 214 23:31 03.02.2022
5553 Clouds 6 1000 92 10000 2.24 191 22:46 03.02.2022
5554 Clouds 6 1000 92 10000 2.68 139 21:49 03.02.2022
5555 Clouds 5 1005 92 10000 4.12 170 20:41 03.02.2022
5556 Clouds 6 1001 91 10000 1.79 191 20:20 03.02.2022
5557 Clouds 5 1005 92 10000 3.6 180 19:32 03.02.2022
5558 Clouds 6 1005 92 10000 2.24 188 18:40 03.02.2022
5559 Clouds 6 1006 93 10000 1.34 193 17:35 03.02.2022
5560 Rain 6 1006 90 10000 1.79 200 16:35 03.02.2022
5561 Rain 6 1016 89 10000 4.12 190 14:52 03.02.2022
5562 Clouds 5 1018 84 10000 3.6 210 12:59 03.02.2022
5563 Clouds 5 1019 79 10000 4.12 200 11:23 03.02.2022
5564 Clear 3 1019 86 10000 3.09 200 08:38 03.02.2022
5565 Clear 0 1021 86 10000 4.12 210 05:26 03.02.2022
5566 Clear 2 1011 83 10000 1.34 318 00:32 03.02.2022
5567 Clear 3 1011 81 10000 0.45 313 23:44 02.02.2022
5568 Clouds 3 1010 80 10000 0.45 313 22:35 02.02.2022
5569 Clouds 4 1010 80 10000 0.89 327 21:37 02.02.2022
5570 Clear 4 1009 80 10000 4.02 277 20:53 02.02.2022
5571 Clouds 4 1009 80 10000 2.24 294 19:59 02.02.2022
5572 Clouds 4 1008 80 10000 2.68 245 19:32 02.02.2022
5573 Clouds 4 1008 80 10000 5.81 277 18:50 02.02.2022
5574 Clouds 4 1007 80 10000 0.45 321 18:22 02.02.2022
5575 Clouds 5 1006 80 10000 1.79 240 17:20 02.02.2022
5576 Clouds 5 1005 77 10000 0.45 278 16:46 02.02.2022
5577 Rain 6 1010 72 10000 0.89 328 13:57 02.02.2022
5578 Clouds 6 1009 74 10000 0.45 278 12:25 02.02.2022
5579 Clouds 5 1009 74 10000 0.45 311 11:37 02.02.2022
5580 Clouds 5 1008 81 10000 7.72 300 10:38 02.02.2022
5581 Clouds 5 1005 77 10000 0.89 300 07:42 02.02.2022
5582 Clouds 5 1002 84 10000 0.45 315 00:34 02.02.2022
5583 Rain 4 1002 89 10000 7.2 270 21:55 01.02.2022
5584 Clouds 4 1002 87 10000 0.45 307 20:47 01.02.2022
5585 Snow 3 1003 87 10000 1.79 305 18:35 01.02.2022
5586 Clouds 3 1004 83 10000 0.89 307 16:43 01.02.2022
5587 Rain 4 1009 75 10000 1.34 309 14:56 01.02.2022
5588 Rain 3 1003 83 10000 0.45 293 12:48 01.02.2022
5589 Clouds 3 1004 86 10000 0.89 332 11:48 01.02.2022
5590 Clouds 1 1004 91 7000 4.12 290 06:57 01.02.2022
5591 Rain 2 1002 93 6000 2.57 340 23:54 31.01.2022
5592 Rain 2 1001 93 6000 2.57 340 23:36 31.01.2022
5593 Rain 2 1001 93 6000 2.57 340 23:36 31.01.2022
5594 Rain 2 1001 94 5000 2.06 340 22:27 31.01.2022
5595 Snow 2 1000 95 4200 2.57 360 21:34 31.01.2022
5596 Fog 1 999 95 600 2.57 350 20:34 31.01.2022
5597 Fog 1 993 94 300 2.06 320 19:46 31.01.2022
5598 Mist 2 992 93 1500 2.06 320 18:31 31.01.2022
5599 Mist 2 992 93 1500 2.06 320 18:31 31.01.2022
5600 Mist 2 991 93 1000 1.54 310 17:53 31.01.2022
5601 Snow 2 991 92 1000 2.06 290 16:58 31.01.2022
5602 Snow 2 990 92 1300 2.06 280 15:46 31.01.2022
5603 Rain 3 994 89 10000 2.68 294 14:27 31.01.2022
5604 Snow 3 994 88 9000 2.68 244 12:55 31.01.2022
5605 Clouds 3 995 83 4500 4.63 230 11:59 31.01.2022
5606 Rain 4 995 73 10000 0.89 318 10:58 31.01.2022
5607 Rain 4 995 71 10000 4.02 203 10:37 31.01.2022
5608 Clouds 3 996 73 10000 2.68 201 09:34 31.01.2022
5609 Clouds 2 998 74 10000 3.58 205 08:53 31.01.2022
5610 Clouds 2 998 75 10000 1.34 197 08:20 31.01.2022
5611 Clouds 2 1000 75 10000 0.45 329 06:53 31.01.2022
5612 Clouds 2 1002 71 10000 2.24 216 05:24 31.01.2022
5613 Clouds 4 1010 68 10000 6.69 290 23:37 30.01.2022
5614 Clouds 4 1010 69 10000 0.45 338 22:31 30.01.2022
5615 Clouds 4 1011 66 10000 0.45 315 21:44 30.01.2022
5616 Clouds 4 1011 65 10000 4.02 245 21:22 30.01.2022
5617 Clouds 4 1011 65 10000 0.45 54 20:51 30.01.2022
5618 Clouds 4 1011 65 10000 0.45 317 20:30 30.01.2022
5619 Clear 4 1011 65 10000 0.45 317 19:55 30.01.2022
5620 Clouds 5 1011 64 10000 0.45 332 18:51 30.01.2022
5621 Clouds 5 1011 65 10000 0.45 344 18:22 30.01.2022
5622 Clouds 5 1011 65 10000 0.45 278 17:30 30.01.2022
5623 Clouds 5 1011 64 10000 0.45 344 16:42 30.01.2022
5624 Clouds 5 1010 64 10000 0.45 355 16:23 30.01.2022
5625 Clouds 5 1010 65 10000 0.45 343 15:54 30.01.2022
5626 Clouds 5 1010 65 10000 1.34 288 15:32 30.01.2022
5627 Clouds 6 1009 64 10000 1.34 252 14:47 30.01.2022
5628 Clouds 6 1008 63 10000 2.68 309 13:47 30.01.2022
5629 Clouds 5 1008 66 10000 1.34 5 12:46 30.01.2022
5630 Clouds 5 1006 67 10000 1.79 315 10:47 30.01.2022
5631 Clouds 5 1006 66 10000 1.34 324 10:25 30.01.2022
5632 Clouds 5 1006 67 10000 0.89 277 09:22 30.01.2022
5633 Clouds 5 1005 67 10000 0.89 267 07:58 30.01.2022
5634 Clouds 5 1004 80 10000 0.89 346 02:44 30.01.2022
5635 Clouds 5 1004 79 10000 0.89 346 02:44 30.01.2022
5636 Clouds 6 1004 82 10000 0.89 360 01:54 30.01.2022
5637 Clouds 7 1004 83 10000 1.34 291 23:49 29.01.2022
5638 Clouds 7 1003 88 10000 0.45 340 22:50 29.01.2022
5639 Rain 7 1002 82 10000 1.34 331 21:29 29.01.2022
5640 Clouds 7 1003 82 10000 0.89 9 20:57 29.01.2022
5641 Clouds 7 1004 82 10000 1.34 291 19:52 29.01.2022
5642 Clouds 7 1004 82 10000 0.45 330 19:31 29.01.2022
5643 Clouds 7 1004 80 10000 1.79 11 18:44 29.01.2022
5644 Clouds 7 1005 80 10000 1.34 26 17:55 29.01.2022
5645 Clouds 6 1006 80 10000 0.45 311 16:59 29.01.2022
5646 Clouds 6 1007 80 10000 0.45 319 15:27 29.01.2022
5647 Clouds 6 1009 84 10000 0.45 313 13:48 29.01.2022
5648 Clouds 6 1009 86 10000 8.94 236 13:28 29.01.2022
5649 Clouds 6 1010 87 10000 0.45 312 12:58 29.01.2022
5650 Rain 5 1011 89 8000 0.89 290 11:39 29.01.2022
5651 Rain 4 1012 89 7000 6.69 240 10:33 29.01.2022
5652 Clouds 4 1014 80 10000 0.89 326 08:19 29.01.2022
5653 Clouds 2 1015 82 10000 3.6 240 02:26 29.01.2022
5654 Clouds 3 1021 80 10000 0.45 321 00:32 29.01.2022
5655 Clear 3 1021 80 10000 0.45 319 23:31 28.01.2022
5656 Clear 3 1022 79 10000 1.34 230 22:47 28.01.2022
5657 Clear 3 1021 79 10000 1.34 338 22:19 28.01.2022
5658 Clear 3 1021 79 10000 2.24 286 20:41 28.01.2022
5659 Clear 3 1021 78 10000 4.92 240 19:57 28.01.2022
5660 Clouds 4 1020 77 10000 2.24 240 18:52 28.01.2022
5661 Clouds 4 1020 77 10000 2.24 240 18:52 28.01.2022
5662 Clouds 4 1020 77 10000 0.45 245 18:34 28.01.2022
5663 Clouds 5 1019 74 10000 0.89 224 16:23 28.01.2022
5664 Clouds 5 1018 72 10000 0.45 334 14:58 28.01.2022
5665 Clouds 4 1017 77 10000 0.45 303 13:21 28.01.2022
5666 Clouds 4 1017 79 10000 0.45 310 11:50 28.01.2022
5667 Clouds 4 1015 81 10000 4.92 29 10:27 28.01.2022
5668 Clouds 4 1015 83 10000 0.45 338 09:47 28.01.2022
5669 Clouds 3 1013 83 10000 5.36 299 07:42 28.01.2022
5670 Clouds 4 1012 80 10000 0.45 313 06:29 28.01.2022
5671 Clouds 4 1010 80 10000 4.47 241 03:51 28.01.2022
5672 Clouds 4 1009 78 10000 5.36 290 02:28 28.01.2022
5673 Clouds 4 1008 80 10000 5.36 293 01:38 28.01.2022
5674 Clouds 4 1008 83 10000 0.45 5 00:46 28.01.2022
5675 Rain 4 1007 89 10000 1.34 296 22:20 27.01.2022
5676 Clouds 4 1003 88 10000 0.89 335 21:40 27.01.2022
5677 Rain 4 1007 85 10000 0.89 332 20:59 27.01.2022
5678 Clouds 5 1007 79 10000 1.79 323 19:47 27.01.2022
5679 Clouds 4 1008 81 10000 0.45 267 18:22 27.01.2022
5680 Clouds 4 1008 84 10000 2.24 355 16:59 27.01.2022
5681 Clouds 4 1009 80 10000 2.24 346 14:24 27.01.2022
5682 Clouds 3 1010 76 10000 1.79 298 12:53 27.01.2022
5683 Clouds 3 1010 75 10000 0.45 355 12:18 27.01.2022
5684 Clouds 2 1012 80 10000 0.45 305 09:51 27.01.2022
5685 Clouds 2 1012 83 10000 0.45 313 08:40 27.01.2022
5686 Clouds 2 1013 84 10000 0.89 343 07:53 27.01.2022
5687 Clouds 1 1016 86 10000 0.45 329 03:34 27.01.2022
5688 Clouds 1 1017 87 10000 1.34 349 00:24 27.01.2022
5689 Clouds 1 1018 86 10000 5.36 235 22:31 26.01.2022
5690 Clouds 1 1018 86 10000 0.89 355 21:44 26.01.2022
5691 Clouds 1 1018 86 10000 0.89 269 20:57 26.01.2022
5692 Clouds 1 1018 86 10000 0.45 305 20:33 26.01.2022
5693 Clouds 1 1019 84 10000 1.34 337 19:49 26.01.2022
5694 Clouds 1 1019 87 10000 1.79 245 18:52 26.01.2022
5695 Clouds 1 1019 86 10000 0.45 318 18:24 26.01.2022
5696 Clouds 1 1015 89 8000 0.89 340 17:39 26.01.2022
5697 Clouds 1 1015 89 8000 3.58 9 17:19 26.01.2022
5698 Clouds 1 1015 89 6000 2.68 209 16:25 26.01.2022
5699 Clouds 2 1015 90 8000 2.24 237 15:23 26.01.2022
5700 Clouds 2 1020 84 10000 0.45 307 12:44 26.01.2022
5701 Clouds 2 1021 88 10000 3.13 241 10:56 26.01.2022
5702 Clouds 2 1020 88 6000 2.68 229 09:58 26.01.2022
5703 Clouds 2 1020 88 6000 2.24 234 09:39 26.01.2022
5704 Clouds 2 1020 90 8000 0.45 311 07:28 26.01.2022
5705 Mist 2 1021 93 3500 1.34 228 00:42 26.01.2022
5706 Mist 2 1022 93 4500 0.45 211 23:43 25.01.2022
5707 Mist 2 1022 93 4000 0.45 199 22:49 25.01.2022
5708 Drizzle 2 1022 93 4000 1.79 239 22:19 25.01.2022
5709 Drizzle 2 1022 93 3800 1.79 229 21:34 25.01.2022
5710 Mist 2 1022 92 4000 0.89 226 20:46 25.01.2022
5711 Drizzle 3 1018 92 4200 2.06 290 19:58 25.01.2022
5712 Drizzle 3 1018 92 4200 2.06 290 19:58 25.01.2022
5713 Drizzle 3 1023 91 4200 0.89 232 19:34 25.01.2022
5714 Mist 3 1022 91 4200 0.45 231 18:20 25.01.2022
5715 Mist 3 1022 91 5000 2.57 290 17:39 25.01.2022
5716 Mist 3 1022 91 4800 0.45 328 16:35 25.01.2022
5717 Clouds 3 1022 91 7000 2.57 300 15:39 25.01.2022
5718 Clouds 3 1022 92 7000 3.09 280 15:20 25.01.2022
5719 Mist 3 1022 92 5000 3.09 300 14:56 25.01.2022
5720 Drizzle 3 1023 92 9000 3.6 300 12:32 25.01.2022
5721 Drizzle 4 1023 91 4500 1.79 298 09:58 25.01.2022
5722 Drizzle 3 1023 91 6000 1.79 232 08:29 25.01.2022
5723 Drizzle 4 1023 92 6000 0.89 243 07:28 25.01.2022
5724 Clouds 4 1023 91 9000 2.68 232 05:54 25.01.2022
5725 Drizzle 5 1024 90 10000 1.54 260 00:58 25.01.2022
5726 Clouds 5 1025 92 10000 0.45 231 23:36 24.01.2022
5727 Drizzle 5 1025 92 8000 0.45 216 23:18 24.01.2022
5728 Drizzle 5 1025 93 4000 1.03 0 22:58 24.01.2022
5729 Drizzle 5 1025 93 4000 0.89 221 22:40 24.01.2022
5730 Drizzle 5 1025 93 7000 1.79 220 21:43 24.01.2022
5731 Drizzle 5 1025 92 9000 1.03 250 21:25 24.01.2022
5732 Drizzle 5 1025 92 10000 0.51 230 20:28 24.01.2022
5733 Clouds 5 1025 92 10000 1.03 220 19:38 24.01.2022
5734 Clouds 5 1025 90 10000 1.54 290 18:50 24.01.2022
5735 Clouds 6 1025 89 10000 1.03 0 17:43 24.01.2022
5736 Clouds 6 1025 89 10000 0.51 220 17:23 24.01.2022
5737 Clouds 6 1025 88 10000 1.03 0 16:32 24.01.2022
5738 Clouds 6 1025 87 10000 1.54 270 15:51 24.01.2022
5739 Clouds 6 1034 86 10000 1.54 230 14:27 24.01.2022
5740 Clouds 6 1025 91 10000 1.03 0 12:36 24.01.2022
5741 Drizzle 6 1025 90 9000 1.54 280 11:45 24.01.2022
5742 Mist 6 1026 94 3200 0.51 0 10:24 24.01.2022
5743 Fog 5 1026 95 600 1.03 240 09:46 24.01.2022
5744 Fog 4 1026 96 3300 1.03 0 08:19 24.01.2022
5745 Drizzle 4 1025 96 3000 1.03 330 02:33 24.01.2022
5746 Drizzle 4 1025 96 3300 2.06 320 01:27 24.01.2022
5747 Drizzle 4 1025 96 3300 2.06 320 01:27 24.01.2022
5748 Mist 5 1025 96 1500 1.03 0 00:34 24.01.2022
5749 Mist 5 1025 96 4500 1.03 0 23:47 23.01.2022
5750 Drizzle 5 1025 96 5000 2.06 300 22:21 23.01.2022
5751 Clouds 5 1025 96 7000 0.45 201 21:42 23.01.2022
5752 Clouds 5 1025 96 7000 1.79 278 21:24 23.01.2022
5753 Drizzle 5 1025 96 6000 2.06 300 20:29 23.01.2022
5754 Drizzle 5 1025 95 5000 3.09 300 19:21 23.01.2022
5755 Drizzle 5 1024 95 7000 2.57 300 18:44 23.01.2022
5756 Drizzle 5 1025 95 6000 0.89 226 17:27 23.01.2022
5757 Drizzle 5 1024 93 6000 3.09 300 16:38 23.01.2022
5758 Clouds 5 1024 92 10000 3.6 300 14:56 23.01.2022
5759 Clouds 5 1024 92 10000 4.63 300 14:19 23.01.2022
5760 Clouds 5 1024 94 3200 3.6 290 12:50 23.01.2022
5761 Clouds 5 1024 93 3700 0.89 327 12:21 23.01.2022
5762 Clouds 5 1024 93 3000 3.6 280 11:51 23.01.2022
5763 Clouds 5 1024 92 6000 0.45 282 11:18 23.01.2022
5764 Clouds 4 1024 95 3600 2.24 355 10:27 23.01.2022
5765 Clouds 4 1024 95 5000 1.34 207 09:40 23.01.2022
5766 Clouds 4 1023 95 3300 3.6 280 08:51 23.01.2022
5767 Clouds 4 1022 96 8000 0.89 315 05:55 23.01.2022
5768 Drizzle 4 1021 96 2000 0.89 221 01:49 23.01.2022
5769 Drizzle 3 1021 96 2200 2.68 291 01:25 23.01.2022
5770 Rain 3 1021 96 2300 1.03 0 00:23 23.01.2022
5771 Drizzle 3 1021 94 2500 1.03 0 23:44 22.01.2022
5772 Drizzle 3 1021 93 8000 1.54 280 22:40 22.01.2022
5773 Clouds 3 1021 92 10000 1.34 232 21:28 22.01.2022
5774 Clouds 2 1021 92 10000 1.03 0 19:51 22.01.2022
5775 Clouds 2 1021 92 10000 1.54 260 18:49 22.01.2022
5776 Clouds 2 1020 90 10000 1.34 231 18:18 22.01.2022
5777 Clouds 2 1020 90 10000 1.54 290 17:40 22.01.2022
5778 Clouds 3 1020 86 10000 1.54 320 16:56 22.01.2022
5779 Clouds 3 1020 86 10000 3.6 320 15:50 22.01.2022
5780 Clouds 3 1020 84 10000 0.45 168 15:26 22.01.2022
5781 Clouds 4 1019 83 10000 4.63 330 13:46 22.01.2022
5782 Clouds 3 1015 88 10000 5.14 350 12:52 22.01.2022
5783 Clouds 3 1019 84 10000 4.63 340 12:29 22.01.2022
5784 Clouds 4 1019 85 10000 5.14 360 11:44 22.01.2022
5785 Clouds 3 1018 91 10000 4.12 340 10:29 22.01.2022
5786 Clouds 3 1018 93 10000 3.6 320 09:59 22.01.2022
5787 Clouds 2 1017 94 10000 4.12 330 08:53 22.01.2022
5788 Clouds 3 1016 94 10000 0.45 225 07:39 22.01.2022
5789 Rain 3 1013 96 6000 0.89 244 04:53 22.01.2022
5790 Snow 2 1012 94 8000 4.02 197 01:49 22.01.2022
5791 Snow 2 1014 92 4300 6.26 237 23:46 21.01.2022
5792 Clouds 2 1015 88 8000 0.89 271 22:36 21.01.2022
5793 Clouds 1 1016 84 10000 0.45 290 20:32 21.01.2022
5794 Clear 0 1016 80 10000 0.45 328 18:40 21.01.2022
5795 Clear 0 1016 77 10000 3.58 241 17:45 21.01.2022
5796 Clouds 1 1016 75 10000 0.45 313 15:47 21.01.2022
5797 Clouds 1 1016 81 10000 1.79 308 13:55 21.01.2022
5798 Clouds 0 1014 84 10000 0.89 192 12:40 21.01.2022
5799 Snow 0 1016 85 10000 0.45 325 11:29 21.01.2022
5800 Clouds 0 1016 82 10000 4.02 240 10:22 21.01.2022
5801 Clear -3 1016 77 10000 0.45 345 08:25 21.01.2022
5802 Clear -3 1016 77 10000 0.45 345 08:25 21.01.2022
5803 Clear -3 1016 78 10000 4.47 240 07:26 21.01.2022
5804 Clouds -1 1014 79 10000 0.45 128 00:59 21.01.2022
5805 Clouds 0 1012 82 10000 1.79 237 22:45 20.01.2022
5806 Clouds 0 1011 83 10000 2.68 336 21:48 20.01.2022
5807 Clouds -1 1010 85 10000 0.45 128 20:57 20.01.2022
5808 Clouds 0 1009 81 10000 0.45 339 19:40 20.01.2022
5809 Clouds 1 1009 81 10000 0.45 307 19:18 20.01.2022
5810 Clouds 1 1008 81 10000 8.49 273 17:32 20.01.2022
5811 Clouds 1 1008 80 10000 2.68 228 15:46 20.01.2022
5812 Clouds 1 1008 78 10000 0.45 312 15:26 20.01.2022
5813 Clouds 2 1008 76 10000 0.45 318 13:54 20.01.2022
5814 Clouds 2 1008 76 10000 0.45 318 13:54 20.01.2022
5815 Clouds 2 1008 77 10000 1.79 303 12:44 20.01.2022
5816 Rain 1 1008 77 10000 2.68 51 12:26 20.01.2022
5817 Clouds 1 1008 82 10000 1.34 294 10:58 20.01.2022
5818 Clouds 1 1007 89 10000 0.89 188 09:43 20.01.2022
5819 Snow 2 1006 92 900 1.34 325 08:36 20.01.2022
5820 Clouds 2 1006 78 10000 0.89 309 06:19 20.01.2022
5821 Rain 3 1006 82 10000 2.24 329 23:56 19.01.2022
5822 Clouds 4 1007 78 10000 0.45 317 22:37 19.01.2022
5823 Clouds 3 1008 79 10000 1.34 5 21:26 19.01.2022
5824 Clouds 3 1008 80 10000 0.45 313 20:55 19.01.2022
5825 Clouds 3 1008 81 10000 5.36 243 20:24 19.01.2022
5826 Clouds 2 1010 81 10000 4.92 223 18:49 19.01.2022
5827 Clouds 2 1006 84 10000 1.79 206 17:50 19.01.2022
5828 Clouds 2 1010 81 10000 2.68 205 17:18 19.01.2022
5829 Clouds 2 1010 81 10000 2.68 205 17:18 19.01.2022
5830 Clear 5 1021 72 10000 4.12 160 14:55 19.01.2022
5831 Clouds 5 1014 75 10000 0.45 129 13:20 19.01.2022
5832 Clouds 5 1026 77 10000 3.09 270 11:58 19.01.2022
5833 Clouds 3 1026 82 10000 4.12 200 11:22 19.01.2022
5834 Clear 1 1025 94 10000 1.54 180 09:35 19.01.2022
5835 Clear 1 1025 94 10000 1.54 180 09:35 19.01.2022
5836 Clear 0 1028 89 10000 2.57 150 08:20 19.01.2022
5837 Clouds 2 1031 89 10000 3.09 210 05:19 19.01.2022
5838 Clouds 4 1035 90 10000 3.09 210 00:18 19.01.2022
5839 Clouds 4 1036 89 10000 2.57 220 23:18 18.01.2022
5840 Clouds 4 1036 90 10000 2.06 250 21:44 18.01.2022
5841 Clouds 4 1037 90 10000 2.06 240 20:22 18.01.2022
5842 Clouds 4 1037 89 10000 2.57 240 19:45 18.01.2022
5843 Clouds 4 1037 89 10000 2.06 250 19:25 18.01.2022
5844 Clouds 4 1037 88 10000 2.57 260 18:18 18.01.2022
5845 Clouds 3 1037 91 10000 2.06 250 17:31 18.01.2022
5846 Clouds 4 1037 88 10000 2.57 270 16:20 18.01.2022
5847 Clouds 4 1037 87 10000 2.57 270 15:25 18.01.2022
5848 Clouds 4 1037 84 10000 3.6 290 14:22 18.01.2022
5849 Clouds 3 1037 89 10000 3.09 270 11:37 18.01.2022
5850 Clouds 2 1037 89 10000 2.57 280 10:25 18.01.2022
5851 Clouds 1 1036 89 10000 2.57 270 08:29 18.01.2022
5852 Clouds 1 1035 89 10000 3.09 290 07:43 18.01.2022
5853 Clear 0 1033 93 10000 3.09 280 00:39 18.01.2022
5854 Clear 1 1032 92 10000 2.57 280 22:46 17.01.2022
5855 Clear 1 1031 92 10000 2.57 300 21:44 17.01.2022
5856 Clear 1 1031 92 10000 3.09 300 21:24 17.01.2022
5857 Clouds 2 1028 94 10000 2.57 330 18:51 17.01.2022
5858 Clouds 2 1028 93 10000 2.06 340 18:25 17.01.2022
5859 Clouds 3 1026 92 10000 3.6 320 17:22 17.01.2022
5860 Clouds 3 1023 92 10000 5.66 310 15:58 17.01.2022
5861 Rain 4 1022 86 935 8.94 317 14:58 17.01.2022
5862 Drizzle 4 1021 91 7000 9.26 310 14:31 17.01.2022
5863 Drizzle 5 1020 91 10000 0.89 311 13:18 17.01.2022
5864 Drizzle 5 1020 90 8000 0.89 355 12:22 17.01.2022
5865 Drizzle 4 1020 90 8000 1.34 344 10:53 17.01.2022
5866 Clouds 4 1021 86 4700 0.45 322 09:53 17.01.2022
5867 Clouds 5 1021 82 10000 0.89 311 08:44 17.01.2022
5868 Clouds 5 1012 84 10000 0.89 261 07:20 17.01.2022
5869 Clouds 4 1023 79 10000 1.34 341 00:59 17.01.2022
5870 Clouds 4 1023 78 10000 0.89 316 23:33 16.01.2022
5871 Clouds 4 1023 81 10000 1.34 338 21:21 16.01.2022
5872 Clouds 3 1023 84 10000 0.89 322 20:18 16.01.2022
5873 Drizzle 3 1022 85 10000 1.34 199 18:46 16.01.2022
5874 Drizzle 2 1013 87 8000 0.89 338 17:47 16.01.2022
5875 Clouds 2 1013 84 10000 0.89 292 16:54 16.01.2022
5876 Clouds 2 1012 84 10000 0.45 272 15:40 16.01.2022
5877 Clouds 3 1012 82 10000 4.02 240 14:29 16.01.2022
5878 Clouds 3 1012 81 10000 0.89 320 13:23 16.01.2022
5879 Clear 4 1012 80 10000 2.68 219 12:21 16.01.2022
5880 Clear 3 1008 80 10000 2.68 231 11:27 16.01.2022
5881 Clear 2 1012 86 10000 0.45 183 10:27 16.01.2022
5882 Clear 1 1000 86 10000 0.45 186 09:57 16.01.2022
5883 Clear 1 1000 89 10000 0.89 172 09:37 16.01.2022
5884 Clear 0 1001 91 10000 2.57 200 09:19 16.01.2022
5885 Clouds 1 981 85 10000 2.45 180 06:35 16.01.2022
5886 Clear -1 1005 95 10000 0.89 118 00:19 16.01.2022
5887 Clear -1 1005 90 10000 1.03 0 22:50 15.01.2022
5888 Clear 0 1013 85 10000 2.06 160 21:21 15.01.2022
5889 Clear 1 1014 84 10000 0.45 169 20:44 15.01.2022
5890 Clouds 1 1014 83 10000 0.45 164 20:21 15.01.2022
5891 Clouds 2 1019 80 10000 0.89 178 19:26 15.01.2022
5892 Clouds 3 1019 78 10000 0.51 0 18:18 15.01.2022
5893 Clouds 4 1019 75 10000 1.54 340 16:49 15.01.2022
5894 Clouds 4 1020 74 10000 1.34 217 14:38 15.01.2022
5895 Clouds 5 1021 76 10000 3.09 310 12:39 15.01.2022
5896 Clouds 4 1022 82 10000 0.45 237 11:21 15.01.2022
5897 Clouds 3 1022 89 10000 3.09 280 09:46 15.01.2022
5898 Mist 4 1021 92 4500 2.68 242 01:58 15.01.2022
5899 Clouds 4 1022 92 6000 2.68 217 23:20 14.01.2022
5900 Drizzle 4 1022 91 7000 2.24 202 21:18 14.01.2022
5901 Clouds 4 1022 91 6000 2.68 234 20:25 14.01.2022
5902 Drizzle 4 1022 92 4200 0.45 285 19:50 14.01.2022
5903 Drizzle 4 1018 93 2800 2.68 228 18:38 14.01.2022
5904 Drizzle 4 1018 91 3300 3.58 326 17:36 14.01.2022
5905 Mist 3 1021 89 4500 3.13 242 16:42 14.01.2022
5906 Mist 3 1021 89 5000 0.45 321 15:30 14.01.2022
5907 Clouds 4 1016 90 6000 0.45 273 14:26 14.01.2022
5908 Clouds 3 1010 89 10000 4.47 282 12:58 14.01.2022
5909 Clear 3 1031 83 10000 0.45 336 11:52 14.01.2022
5910 Clouds 4 1022 81 10000 4.92 228 10:30 14.01.2022
5911 Clouds 2 1017 89 10000 4.92 222 08:53 14.01.2022
5912 Clouds 2 1023 88 10000 2.68 242 07:30 14.01.2022
5913 Clouds 3 1019 86 10000 4.02 298 02:27 14.01.2022
5914 Clear 3 1024 84 10000 2.68 256 00:21 14.01.2022
5915 Clear 4 1026 83 10000 4.12 290 21:47 13.01.2022
5916 Clear 4 1025 83 10000 4.92 224 21:47 13.01.2022
5917 Clear 5 1025 82 10000 4.47 234 21:29 13.01.2022
5918 Clear 5 1026 78 10000 0.45 312 19:47 13.01.2022
5919 Clear 5 1026 79 10000 3.58 203 19:28 13.01.2022
5920 Clear 5 1026 80 10000 5.36 231 18:37 13.01.2022
5921 Clear 6 1025 78 10000 4.02 222 16:53 13.01.2022
5922 Clear 7 1025 78 10000 5.36 231 15:39 13.01.2022
5923 Clear 7 1025 77 10000 4.92 223 15:21 13.01.2022
5924 Clouds 7 1027 77 10000 5.36 215 13:29 13.01.2022
5925 Clouds 6 1028 78 10000 0.45 325 11:18 13.01.2022
5926 Clouds 4 1028 83 10000 4.02 225 09:23 13.01.2022
5927 Clouds 3 1027 86 10000 5.81 224 08:29 13.01.2022
5928 Clouds 3 1027 85 10000 4.12 260 07:58 13.01.2022
5929 Clouds 3 1027 84 10000 6.71 230 07:19 13.01.2022
5930 Clouds 2 1028 86 10000 0.45 312 05:21 13.01.2022
5931 Clouds 2 1028 87 10000 3.58 238 04:55 13.01.2022
5932 Clouds 3 1029 89 10000 4.02 233 01:39 13.01.2022
5933 Clouds 3 1029 85 10000 0.89 231 23:54 12.01.2022
5934 Clouds 3 1029 85 10000 2.06 280 23:34 12.01.2022
5935 Clouds 3 1029 86 10000 1.34 292 22:35 12.01.2022
5936 Clouds 3 1029 88 10000 1.34 316 21:49 12.01.2022
5937 Clouds 3 1029 88 10000 0.45 119 21:20 12.01.2022
5938 Clouds 3 1029 88 10000 0.89 277 20:49 12.01.2022
5939 Clouds 3 1028 84 10000 1.34 227 19:22 12.01.2022
5940 Clouds 3 1028 82 10000 2.24 283 18:25 12.01.2022
5941 Clouds 3 1027 80 10000 2.68 233 16:58 12.01.2022
5942 Clouds 4 1028 78 10000 2.24 237 15:49 12.01.2022
5943 Clear 4 1028 77 10000 1.79 219 14:45 12.01.2022
5944 Clear 3 1028 79 10000 2.68 232 12:58 12.01.2022
5945 Clear -1 1038 85 10000 2.57 220 09:58 12.01.2022
5946 Clear -2 1038 88 10000 2.57 210 08:33 12.01.2022
5947 Clear -2 1037 86 10000 1.54 210 07:33 12.01.2022
5948 Clouds -3 1037 86 10000 2.06 190 05:30 12.01.2022
5949 Clouds -1 1037 85 10000 1.03 220 23:29 11.01.2022
5950 Clouds -1 1037 82 10000 2.06 210 22:41 11.01.2022
5951 Clouds -1 1037 82 10000 2.06 200 22:21 11.01.2022
5952 Clouds -1 1037 80 10000 2.06 210 20:49 11.01.2022
5953 Clouds -1 1037 81 10000 1.54 100 19:42 11.01.2022
5954 Clouds -2 1037 81 9000 0.51 0 18:31 11.01.2022
5955 Clouds -1 1036 82 9000 1.54 170 17:19 11.01.2022
5956 Clouds -1 1036 82 9000 2.57 130 16:37 11.01.2022
5957 Clouds 0 1036 81 9000 2.06 90 15:34 11.01.2022
5958 Clouds 0 1036 81 9000 1.54 80 14:41 11.01.2022
5959 Clouds 0 1036 82 8000 0.45 207 13:54 11.01.2022
5960 Clouds 0 1036 82 8000 1.54 190 13:32 11.01.2022
5961 Clouds 0 1036 84 8000 2.06 170 12:41 11.01.2022
5962 Clouds -1 1036 84 6000 2.06 60 10:59 11.01.2022
5963 Mist -1 1035 87 4600 1.54 80 08:58 11.01.2022
5964 Mist -1 1034 88 5000 0.89 180 06:36 11.01.2022
5965 Mist 2 1031 89 4500 3.09 80 00:30 11.01.2022
5966 Clouds 2 1030 89 9000 3.09 50 23:41 10.01.2022
5967 Clouds 2 1030 89 10000 2.06 60 22:51 10.01.2022
5968 Clouds 3 1029 89 10000 2.06 50 22:19 10.01.2022
5969 Clouds 3 1029 89 10000 2.57 50 21:53 10.01.2022
5970 Clouds 3 1028 90 10000 2.57 70 21:20 10.01.2022
5971 Clouds 3 1028 91 10000 2.06 50 20:56 10.01.2022
5972 Clouds 3 1028 91 10000 1.54 30 20:28 10.01.2022
5973 Clouds 3 1027 92 10000 1.03 0 19:42 10.01.2022
5974 Clouds 4 1027 90 10000 2.06 20 19:20 10.01.2022
5975 Clouds 4 1026 90 10000 2.57 30 18:48 10.01.2022
5976 Clouds 4 1025 91 7000 2.57 40 17:41 10.01.2022
5977 Clouds 4 1024 91 8000 2.06 350 16:42 10.01.2022
5978 Clouds 4 1023 89 10000 2.57 10 15:49 10.01.2022
5979 Clouds 5 1022 89 10000 2.57 340 14:30 10.01.2022
5980 Mist 4 1019 91 5000 2.57 330 11:58 10.01.2022
5981 Mist 4 1019 90 4000 2.57 320 11:25 10.01.2022
5982 Mist 3 1017 92 5000 2.57 300 09:52 10.01.2022
5983 Clouds 3 1015 90 10000 3.09 300 07:31 10.01.2022
5984 Clouds 3 1013 88 10000 2.57 290 05:49 10.01.2022
5985 Clouds 3 1009 88 10000 3.09 260 01:31 10.01.2022
5986 Clouds 3 1008 89 10000 3.09 260 00:25 10.01.2022
5987 Clouds 3 1008 89 10000 3.6 270 23:40 09.01.2022
5988 Rain 3 1007 90 9000 0.89 22 22:38 09.01.2022
5989 Rain 3 1006 90 10000 0.45 342 21:46 09.01.2022
5990 Rain 3 1006 90 10000 0.45 325 21:24 09.01.2022
5991 Rain 3 1006 90 10000 0.45 325 21:24 09.01.2022
5992 Clouds 3 1005 90 10000 0.89 355 20:53 09.01.2022
5993 Snow 3 1005 91 10000 0.45 9 20:34 09.01.2022
5994 Clouds 3 1005 91 7000 0.45 302 19:45 09.01.2022
5995 Clouds 3 1004 91 6000 4.12 250 19:23 09.01.2022
5996 Drizzle 3 1004 90 7000 0.89 298 18:56 09.01.2022
5997 Clouds 3 1003 90 7000 3.6 250 18:35 09.01.2022
5998 Clouds 3 1002 89 5000 0.45 346 17:45 09.01.2022
5999 Clouds 3 1002 87 10000 3.6 240 17:21 09.01.2022
6000 Clouds 3 1001 87 10000 3.6 240 16:34 09.01.2022
6001 Clouds 3 1000 84 10000 4.63 180 15:37 09.01.2022
6002 Clouds 3 999 79 10000 3.6 160 14:41 09.01.2022
6003 Clouds 3 999 76 10000 0.45 189 13:56 09.01.2022
6004 Clouds 3 999 76 10000 0.45 119 13:36 09.01.2022
6005 Clouds 2 997 79 10000 0.45 129 11:56 09.01.2022
6006 Clouds 2 997 78 10000 0.45 204 11:24 09.01.2022
6007 Clouds 1 997 80 10000 7.2 160 09:53 09.01.2022
6008 Clouds 0 997 80 10000 6.17 150 08:54 09.01.2022
6009 Clouds -1 997 80 10000 0.45 158 06:21 09.01.2022
6010 Clear -2 1001 87 10000 6.69 150 01:28 09.01.2022
6011 Clear -2 1002 87 10000 6.69 150 00:37 09.01.2022
6012 Clear -2 1004 89 10000 5.14 150 23:30 08.01.2022
6013 Clear -1 1005 88 10000 4.63 150 22:44 08.01.2022
6014 Clouds -1 1007 92 10000 4.12 170 21:27 08.01.2022
6015 Clouds -1 1008 92 10000 4.63 180 20:43 08.01.2022
6016 Clouds -1 1008 92 10000 4.12 190 20:21 08.01.2022
6017 Clouds 0 1009 91 10000 2.57 220 19:22 08.01.2022
6018 Clouds 1 1010 89 10000 2.57 250 17:25 08.01.2022
6019 Mist 1 1011 92 5000 2.57 230 16:42 08.01.2022
6020 Snow 1 1011 92 1400 1.54 240 15:28 08.01.2022
6021 Snow 2 1011 92 1500 2.06 220 13:57 08.01.2022
6022 Clouds 2 1011 90 7000 3.09 170 11:40 08.01.2022
6023 Clouds 2 1011 89 10000 3.09 170 10:33 08.01.2022
6024 Clouds 2 1011 87 8000 4.12 200 09:57 08.01.2022
6025 Clouds 1 1012 87 8000 4.12 200 09:33 08.01.2022
6026 Clouds 1 1011 84 10000 5.14 190 06:18 08.01.2022
6027 Clouds 1 1012 88 10000 2.57 170 01:41 08.01.2022
6028 Clouds 1 1004 88 10000 3.13 170 23:31 07.01.2022
6029 Clouds 1 1000 91 10000 2.68 198 21:49 07.01.2022
6030 Clouds 1 1004 92 10000 2.68 203 20:34 07.01.2022
6031 Snow 1 1001 90 1800 1.34 172 19:27 07.01.2022
6032 Snow 2 1005 86 3000 3.13 203 18:49 07.01.2022
6033 Snow 2 1005 82 6000 4.02 186 18:24 07.01.2022
6034 Clouds 2 1005 77 10000 0.45 138 17:24 07.01.2022
6035 Clouds 3 1015 73 10000 7.2 200 14:56 07.01.2022
6036 Clear 3 1015 73 10000 0.45 134 13:52 07.01.2022
6037 Clear 3 1015 73 10000 0.45 134 13:52 07.01.2022
6038 Clear 3 1016 73 10000 6.69 190 12:51 07.01.2022
6039 Clear 2 1016 76 10000 0.45 99 11:58 07.01.2022
6040 Clear -2 1018 87 10000 4.12 180 04:56 07.01.2022
6041 Clear -2 1020 88 10000 3.6 200 02:53 07.01.2022
6042 Clear -2 1020 87 10000 4.63 190 01:50 07.01.2022
6043 Clouds -2 1020 85 10000 4.63 180 01:26 07.01.2022
6044 Clouds -2 1020 87 10000 3.6 200 00:34 07.01.2022
6045 Clouds -1 1021 85 10000 1.34 305 22:42 06.01.2022
6046 Clouds -1 1020 89 10000 3.6 220 20:54 06.01.2022
6047 Clear -1 1021 86 10000 0.89 319 20:19 06.01.2022
6048 Clear -1 1021 85 10000 0.89 298 19:40 06.01.2022
6049 Clouds 0 1020 84 10000 0.45 350 17:52 06.01.2022
6050 Clouds 0 1020 84 10000 2.06 270 17:31 06.01.2022
6051 Clouds 1 1019 83 10000 1.54 270 16:40 06.01.2022
6052 Clouds 2 1019 80 10000 3.09 290 15:45 06.01.2022
6053 Clouds 2 1019 79 10000 3.6 290 15:23 06.01.2022
6054 Clouds 3 1018 78 10000 4.63 300 14:21 06.01.2022
6055 Clouds 3 1017 79 10000 4.63 290 13:46 06.01.2022
6056 Clouds 2 1017 83 10000 5.14 280 12:43 06.01.2022
6057 Clouds 1 1017 85 10000 5.14 290 11:41 06.01.2022
6058 Clouds 1 1017 85 10000 0.89 314 11:21 06.01.2022
6059 Clouds 0 1014 87 10000 5.14 310 08:50 06.01.2022
6060 Rain 3 1006 83 10000 0.89 329 00:42 06.01.2022
6061 Clouds 4 1006 84 10000 0.45 338 23:36 05.01.2022
6062 Clouds 4 1005 79 10000 0.45 324 22:54 05.01.2022
6063 Clouds 4 1005 78 10000 0.89 298 22:30 05.01.2022
6064 Clouds 4 1004 79 10000 0.89 299 21:46 05.01.2022
6065 Clouds 4 1004 78 10000 1.34 302 20:50 05.01.2022
6066 Clouds 4 1004 78 10000 1.34 325 19:59 05.01.2022
6067 Clouds 3 1003 80 10000 0.45 311 18:38 05.01.2022
6068 Clouds 3 1003 81 10000 1.34 344 17:23 05.01.2022
6069 Clouds 3 1002 79 10000 1.34 301 16:38 05.01.2022
6070 Clouds 3 1003 76 10000 0.89 289 15:21 05.01.2022
6071 Clouds 4 1002 76 10000 1.34 265 13:51 05.01.2022
6072 Clouds 3 1002 82 10000 0.45 306 12:58 05.01.2022
6073 Snow 2 1002 92 1700 0.45 321 10:32 05.01.2022
6074 Drizzle 3 999 94 10000 3.6 330 07:45 05.01.2022
6075 Clouds 6 997 85 10000 5.14 230 06:24 05.01.2022
6076 Clouds 6 998 87 10000 2.57 240 00:58 05.01.2022
6077 Clouds 6 997 89 10000 0.45 300 23:27 04.01.2022
6078 Clouds 6 997 90 10000 0.45 314 22:46 04.01.2022
6079 Clouds 5 997 91 10000 2.57 230 21:21 04.01.2022
6080 Clouds 5 996 93 10000 2.06 250 19:20 04.01.2022
6081 Clouds 6 995 93 10000 3.6 300 17:51 04.01.2022
6082 Rain 7 994 94 10000 3.6 300 16:43 04.01.2022
6083 Rain 7 994 95 8000 4.63 310 16:23 04.01.2022
6084 Rain 8 993 93 10000 1.54 300 14:54 04.01.2022
6085 Clouds 8 993 93 10000 1.54 300 14:34 04.01.2022
6086 Rain 8 993 95 6000 2.57 350 13:27 04.01.2022
6087 Rain 8 996 93 10000 1.03 0 10:41 04.01.2022
6088 Rain 7 997 94 10000 3.09 170 09:20 04.01.2022
6089 Rain 8 998 92 10000 3.6 170 08:30 04.01.2022
6090 Rain 8 1003 89 10000 0.89 331 02:32 04.01.2022
6091 Clouds 7 1005 88 10000 2.57 210 00:41 04.01.2022
6092 Clouds 8 1006 87 10000 0.45 325 23:26 03.01.2022
6093 Rain 9 1008 80 10000 2.24 343 21:52 03.01.2022
6094 Rain 9 1008 78 10000 0.89 307 21:33 03.01.2022
6095 Rain 9 1008 73 10000 0.89 342 20:22 03.01.2022
6096 Clouds 9 1009 74 10000 5.66 240 18:54 03.01.2022
6097 Clouds 9 1010 75 10000 0.45 300 18:28 03.01.2022
6098 Clouds 10 1010 73 10000 0.45 317 16:58 03.01.2022
6099 Clouds 10 1010 69 10000 0.45 355 15:40 03.01.2022
6100 Clouds 11 1011 65 10000 0.45 309 14:31 03.01.2022
6101 Clouds 11 1011 65 10000 0.45 325 14:31 03.01.2022
6102 Clouds 11 1012 62 10000 0.89 309 12:48 03.01.2022
6103 Clouds 11 1012 64 10000 0.89 308 11:38 03.01.2022
6104 Clouds 10 1012 68 10000 0.45 340 10:37 03.01.2022
6105 Clouds 9 1011 76 10000 0.89 327 08:48 03.01.2022
6106 Clouds 9 1011 78 10000 0.89 331 07:36 03.01.2022
6107 Clear 11 1011 70 10000 5.14 250 00:29 03.01.2022
6108 Clear 11 1011 69 10000 0.89 333 23:22 02.01.2022
6109 Clear 11 1012 70 10000 0.45 277 22:55 02.01.2022
6110 Clear 11 1012 68 10000 0.89 355 21:52 02.01.2022
6111 Clear 11 1012 67 10000 0.45 321 20:41 02.01.2022
6112 Clouds 12 1013 67 10000 0.45 317 20:22 02.01.2022
6113 Clouds 12 1013 66 10000 0.89 325 19:31 02.01.2022
6114 Clear 12 1013 66 10000 1.34 296 18:47 02.01.2022
6115 Clouds 13 1012 58 10000 1.34 333 17:56 02.01.2022
6116 Clouds 12 1011 63 10000 1.34 281 17:37 02.01.2022
6117 Clouds 12 1011 60 10000 0.45 329 17:18 02.01.2022
6118 Clear 11 1011 74 10000 4.63 170 16:27 02.01.2022
6119 Rain 12 993 81 10000 2.24 286 14:38 02.01.2022
6120 Rain 11 1006 80 10000 1.79 193 12:57 02.01.2022
6121 Rain 11 1007 81 10000 3.58 151 12:25 02.01.2022
6122 Clear 10 1008 83 10000 3.13 209 11:36 02.01.2022
6123 Clouds 10 997 85 10000 3.13 233 10:50 02.01.2022
6124 Clear 10 998 87 10000 4.02 190 09:52 02.01.2022
6125 Clear 7 1017 88 10000 4.12 170 07:26 02.01.2022
6126 Clear 7 1008 85 10000 2.57 160 02:20 02.01.2022
6127 Clear 9 1010 84 10000 1.79 190 23:41 01.01.2022
6128 Clear 8 1010 85 10000 1.79 160 23:22 01.01.2022
6129 Clouds 9 1015 82 10000 2.57 250 22:24 01.01.2022
6130 Clouds 10 1015 82 10000 0.89 182 21:44 01.01.2022
6131 Clouds 11 1016 80 10000 0.89 194 20:56 01.01.2022
6132 Clouds 11 1016 78 10000 1.03 240 20:19 01.01.2022
6133 Clouds 11 1016 78 10000 0.45 137 19:32 01.01.2022
6134 Clouds 11 1016 79 10000 2.24 209 18:29 01.01.2022
6135 Clouds 12 1016 78 10000 1.34 209 16:55 01.01.2022
6136 Clouds 12 1016 77 10000 0.45 314 16:34 01.01.2022
6137 Clouds 13 1016 76 10000 0.45 284 15:33 01.01.2022
6138 Clouds 13 1016 75 10000 2.24 280 14:22 01.01.2022
6139 Clouds 13 1016 75 10000 0.89 221 13:28 01.01.2022
6140 Clouds 13 1015 76 10000 1.34 275 11:59 01.01.2022
6141 Clouds 13 1016 76 10000 0.45 258 11:24 01.01.2022
6142 Clouds 13 1015 77 10000 0.89 324 10:43 01.01.2022
6143 Clouds 13 1015 78 10000 0.89 284 09:47 01.01.2022
6144 Clouds 12 1014 80 10000 0.45 346 08:27 01.01.2022
6145 Clouds 12 1014 81 10000 0.89 321 07:56 01.01.2022
6146 Clouds 12 1013 81 10000 0.89 11 07:37 01.01.2022
6147 Clouds 12 1013 81 10000 0.89 11 07:37 01.01.2022
6148 Clouds 12 1013 80 10000 0.45 275 06:43 01.01.2022
6149 Clouds 13 1012 80 10000 4.92 227 04:39 01.01.2022
6150 Clouds 13 1012 80 10000 2.68 242 03:48 01.01.2022
6151 Clouds 13 1011 80 10000 0.89 321 23:53 31.12.2021
6152 Clouds 13 1009 77 10000 0.45 61 21:56 31.12.2021
6153 Clouds 13 1009 76 10000 1.34 188 21:32 31.12.2021
6154 Rain 13 1008 75 10000 0.89 355 19:43 31.12.2021
6155 Clear 14 1016 71 10000 5.66 250 18:47 31.12.2021
6156 Clear 14 1008 73 10000 0.89 328 17:49 31.12.2021
6157 Rain 14 1008 73 10000 0.89 328 17:24 31.12.2021
6158 Clouds 13 1008 73 10000 0.89 327 16:51 31.12.2021
6159 Clouds 14 1008 72 10000 0.89 318 16:18 31.12.2021
6160 Clouds 14 1008 71 10000 3.13 206 15:42 31.12.2021
6161 Clouds 14 1009 69 10000 0.45 308 15:20 31.12.2021
6162 Clouds 15 1008 67 10000 0.45 311 14:38 31.12.2021
6163 Clouds 16 1008 65 10000 0.89 327 13:45 31.12.2021
6164 Clouds 16 1008 65 10000 0.89 327 13:45 31.12.2021
6165 Clouds 15 1009 67 10000 4.47 238 12:50 31.12.2021
6166 Clouds 15 1009 69 10000 1.34 317 12:20 31.12.2021
6167 Clouds 14 1009 72 10000 0.45 298 11:41 31.12.2021
6168 Clouds 14 1010 75 10000 0.89 306 10:55 31.12.2021
6169 Clouds 14 1010 75 10000 5.81 236 10:28 31.12.2021
6170 Clouds 14 1010 76 10000 0.89 317 09:34 31.12.2021
6171 Clear 14 1010 77 10000 1.34 94 08:52 31.12.2021
6172 Clouds 13 1009 79 10000 1.34 314 07:55 31.12.2021
6173 Clouds 13 1009 80 10000 0.45 311 04:55 31.12.2021
6174 Clouds 13 1008 84 10000 0.45 313 23:18 30.12.2021
6175 Clouds 13 1008 83 10000 5.36 231 22:32 30.12.2021
6176 Clouds 13 1008 81 10000 0.45 355 21:39 30.12.2021
6177 Clouds 13 1008 81 10000 0.45 355 21:19 30.12.2021
6178 Clouds 14 1008 81 10000 3.58 236 20:40 30.12.2021
6179 Clear 13 1007 84 10000 0.45 333 19:56 30.12.2021
6180 Clouds 13 1007 85 10000 4.92 235 19:31 30.12.2021
6181 Clouds 13 1006 85 10000 1.34 319 18:28 30.12.2021
6182 Clouds 14 1006 83 10000 0.45 309 16:53 30.12.2021
6183 Clouds 13 1005 83 10000 0.45 279 15:54 30.12.2021
6184 Clouds 13 1005 88 10000 0.89 5 15:21 30.12.2021
6185 Clouds 12 1005 89 4500 1.34 337 14:36 30.12.2021
6186 Rain 13 1005 85 10000 0.45 275 13:31 30.12.2021
6187 Clouds 12 1006 85 10000 0.45 341 11:58 30.12.2021
6188 Rain 11 1006 85 10000 3.58 236 10:40 30.12.2021
6189 Clouds 11 1006 87 10000 2.68 237 09:50 30.12.2021
6190 Clouds 11 1006 87 10000 2.68 237 09:50 30.12.2021
6191 Clouds 10 1005 90 10000 0.45 324 07:42 30.12.2021
6192 Clouds 9 1004 92 10000 4.63 270 06:38 30.12.2021
6193 Mist 7 991 97 4500 4.47 287 03:41 30.12.2021
6194 Clouds 6 997 94 10000 2.24 207 02:35 30.12.2021
6195 Rain 6 997 92 10000 1.79 204 23:41 29.12.2021
6196 Rain 6 997 93 10000 1.79 209 22:59 29.12.2021
6197 Clouds 6 997 93 10000 1.79 193 22:18 29.12.2021
6198 Clouds 6 997 93 10000 2.24 197 21:27 29.12.2021
6199 Clouds 5 1001 95 10000 2.24 216 20:34 29.12.2021
6200 Clouds 6 1001 95 10000 3.58 233 19:48 29.12.2021
6201 Drizzle 6 1000 95 8000 1.34 222 18:47 29.12.2021
6202 Drizzle 6 996 95 6000 3.58 233 17:54 29.12.2021
6203 Mist 6 996 95 4000 2.24 237 17:27 29.12.2021
6204 Drizzle 6 1000 95 4500 1.34 209 16:24 29.12.2021
6205 Drizzle 6 999 95 2000 2.24 231 15:48 29.12.2021
6206 Mist 6 998 94 2600 0.89 350 14:19 29.12.2021
6207 Drizzle 6 997 94 6000 2.57 220 12:37 29.12.2021
6208 Drizzle 5 997 92 9000 3.09 210 11:43 29.12.2021
6209 Clouds 4 996 91 10000 1.34 198 09:59 29.12.2021
6210 Clouds 3 995 92 10000 2.68 232 07:52 29.12.2021
6211 Clouds 3 994 92 10000 1.79 227 06:40 29.12.2021
6212 Clouds 3 994 92 10000 2.68 235 06:22 29.12.2021
6213 Clouds 3 993 92 10000 2.68 229 05:39 29.12.2021
6214 Clouds 3 991 92 10000 1.79 136 02:48 29.12.2021
6215 Clouds 3 986 92 10000 3.13 221 00:23 29.12.2021
6216 Clear 3 990 90 10000 4.47 205 23:35 28.12.2021
6217 Clouds 4 985 92 10000 2.68 209 22:42 28.12.2021
6218 Clouds 4 985 91 10000 4.02 227 22:24 28.12.2021
6219 Clouds 4 989 90 10000 0.45 177 21:38 28.12.2021
6220 Rain 3 985 90 10000 0.45 162 20:40 28.12.2021
6221 Rain 3 984 88 10000 0.45 113 19:31 28.12.2021
6222 Rain 3 985 86 10000 0.45 189 18:41 28.12.2021
6223 Clouds 3 989 86 10000 0.89 221 17:59 28.12.2021
6224 Rain 2 989 85 10000 0.89 157 16:34 28.12.2021
6225 Clouds 2 990 84 10000 0.45 224 15:50 28.12.2021
6226 Clouds 3 990 82 10000 0.89 173 15:22 28.12.2021
6227 Clouds 2 990 83 10000 0.89 164 14:50 28.12.2021
6228 Clear 2 991 83 10000 1.34 140 14:21 28.12.2021
6229 Clear 3 991 82 10000 1.79 214 13:42 28.12.2021
6230 Clear 3 992 80 10000 0.89 154 13:24 28.12.2021
6231 Clear 3 992 80 10000 0.89 126 12:49 28.12.2021
6232 Clear 3 993 79 10000 1.34 89 11:46 28.12.2021
6233 Clouds 1 994 85 10000 1.34 98 08:53 28.12.2021
6234 Snow 0 994 87 10000 0.89 196 07:28 28.12.2021
6235 Clear 0 996 86 10000 0.45 126 00:59 28.12.2021
6236 Clear -1 997 86 10000 1.79 95 23:26 27.12.2021
6237 Clear -1 998 85 10000 1.34 108 21:46 27.12.2021
6238 Clear -1 998 85 10000 0.89 92 21:26 27.12.2021
6239 Clear -1 998 86 10000 0.45 217 20:24 27.12.2021
6240 Clear 0 998 84 10000 0.45 189 19:43 27.12.2021
6241 Clouds 0 998 84 10000 1.79 110 18:54 27.12.2021
6242 Clouds 0 997 84 10000 0.45 175 17:50 27.12.2021
6243 Clouds 1 998 83 10000 0.45 165 16:57 27.12.2021
6244 Snow 1 997 83 10000 0.89 113 15:53 27.12.2021
6245 Clouds 1 998 83 10000 0.45 207 14:34 27.12.2021
6246 Clouds 1 997 82 10000 0.89 284 13:58 27.12.2021
6247 Clouds 1 997 82 10000 0.45 113 12:47 27.12.2021
6248 Clouds 0 999 83 10000 1.34 80 10:36 27.12.2021
6249 Clouds 0 999 83 10000 0.45 134 10:18 27.12.2021
6250 Snow -1 999 83 10000 0.45 242 08:41 27.12.2021
6251 Snow -1 1009 81 10000 6.17 150 07:33 27.12.2021
6252 Clouds -2 1010 72 10000 0.89 203 02:29 27.12.2021
6253 Clouds -2 1011 74 10000 0.45 177 00:29 27.12.2021
6254 Clouds -3 1011 72 10000 0.45 159 23:42 26.12.2021
6255 Clear -3 1011 73 10000 6.69 150 23:18 26.12.2021
6256 Clear -4 1012 71 10000 0.89 169 21:33 26.12.2021
6257 Clear -5 1013 71 10000 4.63 140 19:54 26.12.2021
6258 Clear -4 1013 69 10000 4.63 140 18:39 26.12.2021
6259 Clear -4 1013 69 10000 0.45 162 18:19 26.12.2021
6260 Clear -3 1013 68 10000 0.89 131 15:35 26.12.2021
6261 Clear -2 1013 74 10000 0.45 223 13:43 26.12.2021
6262 Clear -2 1014 68 10000 0.45 72 13:21 26.12.2021
6263 Clear -3 1014 70 10000 0.45 153 12:35 26.12.2021
6264 Clear -4 1014 69 10000 3.09 130 11:18 26.12.2021
6265 Clear -8 1012 83 10000 2.57 140 09:30 26.12.2021
6266 Clear -8 1012 84 10000 3.09 140 08:45 26.12.2021
6267 Clear -9 1012 84 10000 3.6 140 08:26 26.12.2021
6268 Clear -9 1012 87 10000 1.54 140 01:50 26.12.2021
6269 Clear -8 1013 91 10000 2.06 150 00:39 26.12.2021
6270 Clear -8 1013 88 10000 1.03 0 23:35 25.12.2021
6271 Clear -8 1014 89 10000 2.06 120 22:38 25.12.2021
6272 Clear -8 1014 89 10000 1.03 120 22:20 25.12.2021
6273 Clear -7 1014 89 10000 1.03 110 20:26 25.12.2021
6274 Clear -7 1014 89 10000 1.03 130 19:19 25.12.2021
6275 Clear -6 1014 89 10000 1.03 160 18:37 25.12.2021
6276 Clouds -5 1014 89 10000 2.06 80 16:50 25.12.2021
6277 Clouds -4 1013 87 10000 2.57 40 15:38 25.12.2021
6278 Clear -3 1013 84 10000 3.09 60 14:23 25.12.2021
6279 Clouds -3 1013 85 10000 2.57 50 12:40 25.12.2021
6280 Clouds -2 1012 84 10000 3.09 80 10:49 25.12.2021
6281 Clouds -3 1012 86 10000 3.6 90 09:49 25.12.2021
6282 Snow -3 1011 90 10000 3.09 40 07:28 25.12.2021
6283 Snow 0 1008 94 5000 2.06 10 01:43 25.12.2021
6284 Mist 1 1007 95 2000 3.09 20 00:23 25.12.2021
6285 Snow 1 1006 94 3500 2.57 320 22:26 24.12.2021
6286 Snow 2 1003 91 3500 3.6 350 19:29 24.12.2021
6287 Clouds 3 1003 90 9000 5.66 360 18:57 24.12.2021
6288 Clouds 8 999 83 10000 0.89 271 16:49 24.12.2021
6289 Clouds 9 999 75 10000 1.79 11 15:53 24.12.2021
6290 Clouds 9 999 74 10000 0.89 288 15:34 24.12.2021
6291 Clouds 10 999 74 10000 0.89 321 14:36 24.12.2021
6292 Clouds 10 999 74 10000 2.24 336 14:18 24.12.2021
6293 Clouds 10 999 75 10000 0.89 355 13:33 24.12.2021
6294 Clouds 10 999 75 10000 1.79 310 12:47 24.12.2021
6295 Clouds 10 999 80 10000 0.89 10 11:52 24.12.2021
6296 Clouds 9 999 84 10000 0.89 32 11:25 24.12.2021
6297 Drizzle 9 1000 86 10000 1.79 5 10:46 24.12.2021
6298 Clouds 8 1000 92 10000 0.45 318 09:32 24.12.2021
6299 Clouds 7 1000 93 8000 1.79 320 08:23 24.12.2021
6300 Clouds 7 1000 94 4700 1.79 313 07:47 24.12.2021
6301 Rain 6 1001 91 7000 4.12 260 02:33 24.12.2021
6302 Rain 4 1002 91 10000 4.12 220 23:56 23.12.2021
6303 Clouds 3 1003 86 10000 4.63 220 22:58 23.12.2021
6304 Rain 2 1003 86 10000 4.63 220 22:37 23.12.2021
6305 Clouds 2 1003 85 10000 4.12 220 22:18 23.12.2021
6306 Clouds 1 1004 86 10000 3.09 190 20:56 23.12.2021
6307 Snow 1 1006 85 10000 3.09 180 20:18 23.12.2021
6308 Snow 1 1006 85 10000 3.09 180 20:18 23.12.2021
6309 Rain 1 1007 81 10000 2.06 220 18:35 23.12.2021
6310 Snow 0 1008 77 10000 4.63 170 17:57 23.12.2021
6311 Snow 0 1009 76 10000 4.12 170 16:44 23.12.2021
6312 Clear 0 1010 74 10000 0.45 198 16:24 23.12.2021
6313 Snow 0 1010 72 10000 1.34 173 15:31 23.12.2021
6314 Clear 0 1011 71 10000 0.45 211 14:52 23.12.2021
6315 Clear 0 1011 72 10000 0.89 159 14:30 23.12.2021
6316 Snow 0 1013 73 10000 0.89 234 12:57 23.12.2021
6317 Snow -1 1014 79 10000 0.45 168 10:52 23.12.2021
6318 Snow -2 1016 78 10000 0.45 235 09:47 23.12.2021
6319 Clear -2 1017 78 10000 0.45 202 08:59 23.12.2021
6320 Clear -2 1017 78 10000 0.45 202 08:59 23.12.2021
6321 Clear -2 1018 81 10000 6.17 150 06:58 23.12.2021
6322 Clear -2 1018 84 10000 5.14 150 04:33 23.12.2021
6323 Clear -2 1023 86 10000 3.09 150 23:26 22.12.2021
6324 Clear -2 1023 86 10000 3.09 150 23:26 22.12.2021
6325 Clear -2 1024 86 10000 3.09 150 22:47 22.12.2021
6326 Clear -2 1024 85 10000 3.09 150 21:57 22.12.2021
6327 Clear -2 1024 85 10000 1.54 140 21:29 22.12.2021
6328 Clear -2 1024 85 10000 3.09 170 20:50 22.12.2021
6329 Clear -2 1025 85 10000 3.09 170 20:30 22.12.2021
6330 Clear -2 1026 82 10000 3.6 180 19:32 22.12.2021
6331 Clear -1 1027 80 10000 3.6 150 17:55 22.12.2021
6332 Clear -1 1026 79 10000 3.09 150 17:34 22.12.2021
6333 Clear 1 1027 72 10000 1.03 0 15:46 22.12.2021
6334 Clear 2 1027 70 10000 1.54 190 13:44 22.12.2021
6335 Clear 1 1028 73 10000 2.57 200 12:41 22.12.2021
6336 Clouds -1 1029 84 9000 2.57 170 10:48 22.12.2021
6337 Mist -2 1027 97 5000 2.06 180 09:40 22.12.2021
6338 Clouds -2 1028 85 10000 1.03 0 07:48 22.12.2021
6339 Clouds -1 1028 83 10000 1.03 0 05:51 22.12.2021
6340 Clouds -1 1028 90 10000 1.03 230 05:28 22.12.2021
6341 Clouds -1 1029 87 10000 0.51 230 04:55 22.12.2021
6342 Snow -1 1029 85 10000 0.51 0 04:31 22.12.2021
6343 Snow -1 1028 85 10000 1.03 210 03:34 22.12.2021
6344 Snow -1 1028 88 9000 1.03 340 01:37 22.12.2021
6345 Clouds 0 1028 88 9000 1.54 270 23:47 21.12.2021
6346 Clouds -1 1027 87 7000 1.54 340 22:29 21.12.2021
6347 Clouds -1 1027 87 7000 1.54 300 21:53 21.12.2021
6348 Mist -1 1027 87 5000 1.54 330 21:26 21.12.2021
6349 Clouds 0 1027 90 7000 0.51 0 20:23 21.12.2021
6350 Clouds 0 1027 87 7000 1.54 270 19:52 21.12.2021
6351 Clouds 0 1027 87 10000 1.54 330 19:26 21.12.2021
6352 Clouds 0 1027 86 10000 2.06 320 18:23 21.12.2021
6353 Clouds 1 1027 85 10000 2.06 320 17:52 21.12.2021
6354 Clouds 1 1026 84 10000 3.09 300 16:47 21.12.2021
6355 Clouds 1 1026 84 10000 2.57 290 15:33 21.12.2021
6356 Rain 1 1026 85 10000 2.57 290 13:51 21.12.2021
6357 Rain 1 1026 84 10000 2.57 290 13:32 21.12.2021
6358 Rain 1 1026 86 10000 2.57 280 12:25 21.12.2021
6359 Rain 1 1027 88 8000 3.6 300 10:38 21.12.2021
6360 Rain 1 1027 88 8000 3.6 310 09:41 21.12.2021
6361 Clouds 1 1026 88 10000 3.09 300 08:39 21.12.2021
6362 Clouds 1 1026 88 9000 2.06 290 07:35 21.12.2021
6363 Clouds 1 1026 88 9000 2.06 290 06:56 21.12.2021
6364 Clouds 1 1027 88 10000 0.45 315 03:24 21.12.2021
6365 Snow 1 1027 87 7000 2.06 290 01:19 21.12.2021
6366 Clouds 1 1027 87 10000 3.09 300 23:54 20.12.2021
6367 Clouds 1 1027 87 10000 2.57 260 22:35 20.12.2021
6368 Clouds 1 1027 86 10000 1.54 280 21:48 20.12.2021
6369 Clouds 1 1027 86 10000 1.54 280 21:24 20.12.2021
6370 Clouds 1 1027 87 10000 1.54 290 20:50 20.12.2021
6371 Clouds 1 1027 87 10000 2.06 280 20:19 20.12.2021
6372 Clouds 1 1027 87 10000 2.06 280 19:36 20.12.2021
6373 Clouds 1 1027 87 10000 1.54 300 19:18 20.12.2021
6374 Clouds 1 1027 87 10000 2.57 310 18:28 20.12.2021
6375 Clouds 2 1026 85 10000 2.06 310 17:49 20.12.2021
6376 Clouds 2 1026 84 10000 2.06 340 16:45 20.12.2021
6377 Clouds 2 1025 84 10000 2.57 330 15:55 20.12.2021
6378 Clouds 2 1025 83 10000 3.09 310 15:31 20.12.2021
6379 Clouds 2 1025 85 10000 5.14 310 13:31 20.12.2021
6380 Clouds 2 1025 86 10000 3.6 300 11:47 20.12.2021
6381 Clouds 1 1025 87 10000 3.6 290 10:35 20.12.2021
6382 Clouds 0 1025 90 10000 0.45 311 09:38 20.12.2021
6383 Clouds 0 1024 90 10000 3.6 290 08:49 20.12.2021
6384 Clouds 0 1024 90 10000 3.6 290 08:31 20.12.2021
6385 Clear 0 1024 90 10000 3.6 280 07:32 20.12.2021
6386 Clouds 0 1023 90 10000 4.12 280 06:32 20.12.2021
6387 Clouds 0 1023 90 10000 4.12 280 06:32 20.12.2021
6388 Clouds 4 1021 90 10000 4.12 340 00:20 20.12.2021
6389 Clouds 5 1020 90 10000 6.17 330 22:56 19.12.2021
6390 Clouds 5 1020 92 10000 4.63 330 22:24 19.12.2021
6391 Clouds 6 1020 91 10000 6.17 320 21:32 19.12.2021
6392 Clouds 6 1019 91 10000 7.2 310 20:36 19.12.2021
6393 Clouds 6 1019 91 10000 7.2 310 19:53 19.12.2021
6394 Clouds 6 1019 92 10000 7.2 310 19:34 19.12.2021
6395 Clouds 6 1020 92 10000 6.69 300 18:37 19.12.2021
6396 Clouds 6 1020 92 10000 6.17 300 17:53 19.12.2021
6397 Clouds 6 1020 92 10000 7.2 300 17:28 19.12.2021
6398 Drizzle 6 1020 91 4500 7.2 300 16:27 19.12.2021
6399 Drizzle 6 1020 90 6000 0.45 342 15:52 19.12.2021
6400 Drizzle 6 1020 89 4000 0.89 345 15:24 19.12.2021
6401 Drizzle 6 1021 88 7000 0.45 278 14:45 19.12.2021
6402 Drizzle 6 1022 87 10000 0.45 327 13:27 19.12.2021
6403 Drizzle 6 1022 87 10000 0.45 315 12:52 19.12.2021
6404 Drizzle 6 1022 86 10000 5.66 280 12:29 19.12.2021
6405 Drizzle 6 1023 88 8000 5.66 280 11:37 19.12.2021
6406 Drizzle 6 1024 88 7000 0.89 360 10:49 19.12.2021
6407 Drizzle 6 1024 88 7000 0.45 298 10:22 19.12.2021
6408 Drizzle 6 1025 86 10000 0.45 263 08:46 19.12.2021
6409 Clouds 6 1025 82 10000 6.17 280 06:30 19.12.2021
6410 Clouds 7 1028 85 10000 5.14 280 01:51 19.12.2021
6411 Drizzle 7 1029 89 10000 0.45 309 00:54 19.12.2021
6412 Drizzle 6 1030 91 7000 4.12 280 22:59 18.12.2021
6413 Drizzle 6 1030 90 10000 4.12 280 22:24 18.12.2021
6414 Drizzle 6 1031 92 6000 0.45 315 21:43 18.12.2021
6415 Drizzle 6 1031 92 8000 4.12 280 21:22 18.12.2021
6416 Drizzle 6 1032 92 6000 3.6 290 20:26 18.12.2021
6417 Drizzle 6 1032 92 4500 4.12 270 19:35 18.12.2021
6418 Drizzle 6 1033 89 4500 0.45 321 18:24 18.12.2021
6419 Drizzle 5 1033 89 4500 3.09 260 17:49 18.12.2021
6420 Drizzle 6 1033 87 7000 4.63 250 16:36 18.12.2021
6421 Clouds 6 1034 85 10000 4.12 250 16:18 18.12.2021
6422 Clouds 6 1034 85 10000 4.63 270 14:54 18.12.2021
6423 Clouds 6 1035 85 10000 5.14 270 13:45 18.12.2021
6424 Drizzle 6 1036 87 8000 4.12 270 11:57 18.12.2021
6425 Clouds 5 1037 87 10000 3.6 270 09:54 18.12.2021
6426 Clouds 5 1037 87 10000 3.6 270 09:32 18.12.2021
6427 Clouds 5 1037 88 10000 3.09 280 08:36 18.12.2021
6428 Clouds 5 1037 88 10000 2.57 280 07:24 18.12.2021
6429 Clouds 5 1038 89 10000 3.09 290 01:45 18.12.2021
6430 Clouds 5 1038 88 10000 1.54 320 23:51 17.12.2021
6431 Clouds 5 1038 87 10000 2.06 320 22:40 17.12.2021
6432 Clouds 5 1038 85 10000 3.09 340 21:49 17.12.2021
6433 Clouds 5 1037 87 10000 4.12 310 20:44 17.12.2021
6434 Clouds 5 1037 89 10000 4.12 310 19:57 17.12.2021
6435 Clouds 5 1037 91 8000 4.12 300 18:40 17.12.2021
6436 Clouds 5 1037 91 8000 3.6 290 18:18 17.12.2021
6437 Clouds 5 1037 91 6000 4.12 290 16:57 17.12.2021
6438 Clouds 5 1037 91 7000 4.12 300 16:28 17.12.2021
6439 Drizzle 5 1037 91 6000 4.12 300 15:51 17.12.2021
6440 Mist 5 1037 92 3500 4.12 290 14:43 17.12.2021
6441 Clouds 5 1037 90 6000 4.12 290 13:55 17.12.2021
6442 Drizzle 5 1038 90 4500 3.6 290 12:38 17.12.2021
6443 Mist 4 1038 91 2500 5.66 300 10:49 17.12.2021
6444 Fog 4 1037 92 600 5.66 300 09:47 17.12.2021
6445 Drizzle 5 1028 93 1300 0.45 340 08:43 17.12.2021
6446 Fog 4 1028 93 1500 0.45 327 08:18 17.12.2021
6447 Clouds 6 1027 92 10000 1.79 281 04:58 17.12.2021
6448 Clouds 6 1027 92 10000 1.34 26 00:58 17.12.2021
6449 Clouds 5 1028 93 10000 2.24 288 22:44 16.12.2021
6450 Clouds 5 1028 94 10000 2.57 280 22:22 16.12.2021
6451 Clouds 5 1028 94 10000 1.34 182 21:43 16.12.2021
6452 Clouds 5 1028 94 10000 2.57 290 20:48 16.12.2021
6453 Clouds 6 1028 93 10000 3.09 290 20:21 16.12.2021
6454 Clouds 6 1028 93 10000 0.45 124 19:30 16.12.2021
6455 Clouds 7 1027 94 10000 3.09 300 18:33 16.12.2021
6456 Clouds 8 1027 94 10000 3.09 310 17:47 16.12.2021
6457 Drizzle 8 1026 95 3500 0.89 229 16:26 16.12.2021
6458 Drizzle 8 1026 95 3800 0.89 132 15:50 16.12.2021
6459 Drizzle 8 1025 94 1300 4.02 270 13:46 16.12.2021
6460 Drizzle 8 1025 92 1600 1.34 284 12:27 16.12.2021
6461 Drizzle 8 1025 93 2000 2.68 252 11:19 16.12.2021
6462 Drizzle 8 1025 91 3500 4.12 270 10:41 16.12.2021
6463 Mist 7 1024 93 2000 3.58 238 09:43 16.12.2021
6464 Drizzle 7 1023 91 4500 0.89 243 06:51 16.12.2021
6465 Drizzle 7 1023 89 9000 0.89 192 06:18 16.12.2021
6466 Clouds 7 1023 90 10000 1.79 212 23:59 15.12.2021
6467 Clouds 7 1022 92 10000 0.45 331 23:18 15.12.2021
6468 Drizzle 7 1023 91 5000 0.45 280 22:21 15.12.2021
6469 Drizzle 7 1023 91 5000 1.34 229 21:44 15.12.2021
6470 Drizzle 8 1023 90 10000 2.24 233 21:24 15.12.2021
6471 Clouds 8 1022 89 10000 0.89 222 19:54 15.12.2021
6472 Drizzle 8 1022 87 10000 1.79 234 19:18 15.12.2021
6473 Clouds 8 1022 87 10000 0.45 303 18:24 15.12.2021
6474 Clouds 8 1022 87 10000 2.24 239 17:46 15.12.2021
6475 Clouds 8 1022 86 10000 2.68 233 17:21 15.12.2021
6476 Clouds 8 1021 87 10000 2.68 240 15:59 15.12.2021
6477 Clouds 8 1021 86 10000 3.6 250 15:41 15.12.2021
6478 Clouds 8 1021 87 10000 3.58 229 15:23 15.12.2021
6479 Clouds 8 1021 88 10000 1.79 237 13:48 15.12.2021
6480 Clouds 8 1021 85 10000 3.58 219 11:52 15.12.2021
6481 Clouds 8 1022 86 10000 4.02 226 10:22 15.12.2021
6482 Clouds 6 1021 88 10000 2.68 228 08:27 15.12.2021
6483 Clouds 6 1021 89 10000 4.92 238 05:59 15.12.2021
6484 Clouds 6 1020 93 6000 1.34 194 00:45 15.12.2021
6485 Mist 6 1020 94 2000 2.24 232 23:32 14.12.2021
6486 Drizzle 6 1020 93 2000 1.34 230 22:45 14.12.2021
6487 Drizzle 6 1019 93 2800 0.89 228 21:47 14.12.2021
6488 Clouds 6 1019 89 10000 1.79 207 20:24 14.12.2021
6489 Clouds 6 1019 89 10000 2.57 250 19:39 14.12.2021
6490 Clouds 6 1018 89 10000 1.34 238 18:42 14.12.2021
6491 Clouds 6 1018 88 10000 1.34 237 17:58 14.12.2021
6492 Clouds 6 1017 88 10000 1.79 195 16:58 14.12.2021
6493 Clouds 6 1018 88 10000 1.34 226 16:35 14.12.2021
6494 Clouds 7 1017 87 10000 1.79 230 14:39 14.12.2021
6495 Clouds 7 1017 87 10000 1.34 229 13:24 14.12.2021
6496 Clouds 7 1017 87 10000 0.89 234 11:56 14.12.2021
6497 Clouds 7 1018 88 10000 0.89 228 11:22 14.12.2021
6498 Clouds 6 1018 90 10000 0.45 219 09:55 14.12.2021
6499 Clouds 6 1018 91 10000 0.45 235 09:34 14.12.2021
6500 Clouds 6 1018 93 10000 1.34 219 08:23 14.12.2021
6501 Drizzle 6 1018 92 10000 1.34 212 07:43 14.12.2021
6502 Clouds 7 1019 92 10000 1.34 218 01:46 14.12.2021
6503 Clouds 7 1019 96 6000 0.89 216 22:50 13.12.2021
6504 Clouds 7 1019 97 6000 0.89 204 21:52 13.12.2021
6505 Clouds 7 1019 97 6000 0.89 204 21:52 13.12.2021
6506 Drizzle 7 1019 97 2800 0.89 222 20:59 13.12.2021
6507 Drizzle 7 1020 97 2200 2.57 280 20:34 13.12.2021
6508 Mist 7 1019 97 3200 0.89 270 19:52 13.12.2021
6509 Mist 7 1028 96 1600 2.06 270 17:56 13.12.2021
6510 Drizzle 7 1028 96 1800 2.06 270 17:24 13.12.2021
6511 Drizzle 7 1027 95 1800 2.06 280 15:50 13.12.2021
6512 Drizzle 7 1018 96 1800 0.89 225 15:19 13.12.2021
6513 Drizzle 6 1027 94 2700 2.57 280 13:38 13.12.2021
6514 Mist 6 1018 95 1200 1.34 254 12:46 13.12.2021
6515 Mist 6 1018 95 3500 2.24 239 11:54 13.12.2021
6516 Mist 6 1018 95 3500 1.79 231 11:35 13.12.2021
6517 Drizzle 5 1018 95 2500 0.89 229 10:43 13.12.2021
6518 Mist 5 1017 95 2600 1.34 226 08:57 13.12.2021
6519 Mist 4 1017 96 3200 0.89 216 07:46 13.12.2021
6520 Mist 5 1012 96 5000 1.79 232 05:35 13.12.2021
6521 Drizzle 4 1011 95 2500 1.79 209 03:26 13.12.2021
6522 Clouds 4 1011 94 3000 3.13 212 22:23 12.12.2021
6523 Clouds 3 1015 94 3000 4.02 218 21:38 12.12.2021
6524 Rain 3 1015 89 10000 3.13 229 19:47 12.12.2021
6525 Rain 3 1015 86 10000 3.58 227 18:36 12.12.2021
6526 Clouds 3 1015 86 10000 5.14 200 18:36 12.12.2021
6527 Clouds 3 1015 84 10000 4.63 200 17:31 12.12.2021
6528 Clouds 3 1015 81 10000 4.63 180 16:27 12.12.2021
6529 Clouds 3 1015 82 10000 2.68 171 15:46 12.12.2021
6530 Clouds 4 1015 81 10000 2.68 171 15:25 12.12.2021
6531 Rain 4 1015 80 10000 2.68 232 14:34 12.12.2021
6532 Clear 4 1016 80 10000 2.68 214 13:26 12.12.2021
6533 Clear 3 1016 81 10000 2.68 217 12:30 12.12.2021
6534 Clear 2 1016 84 10000 3.13 209 11:44 12.12.2021
6535 Clear 2 1013 85 10000 3.13 202 11:22 12.12.2021
6536 Clear 1 1005 90 10000 2.68 220 10:22 12.12.2021
6537 Clear 0 1005 93 10000 2.24 212 09:38 12.12.2021
6538 Clouds 0 1005 93 10000 2.24 215 08:33 12.12.2021
6539 Clouds -1 1004 92 10000 4.47 232 06:19 12.12.2021
6540 Clear -3 1024 92 10000 3.6 220 04:56 12.12.2021
6541 Clear -3 1024 92 10000 3.09 220 03:31 12.12.2021
6542 Clear -1 1023 90 10000 2.06 220 23:47 11.12.2021
6543 Clear 0 1022 91 10000 2.06 220 22:23 11.12.2021
6544 Clouds 0 1022 89 10000 1.54 220 21:52 11.12.2021
6545 Clouds 0 1022 89 10000 2.57 200 21:18 11.12.2021
6546 Clouds 0 1021 89 10000 1.54 220 19:30 11.12.2021
6547 Clouds 0 1020 90 9000 1.54 200 18:52 11.12.2021
6548 Clouds 0 1020 90 9000 1.03 0 18:26 11.12.2021
6549 Clouds 0 1019 89 9000 0.51 10 17:24 11.12.2021
6550 Clouds 0 1018 90 8000 0.51 0 15:55 11.12.2021
6551 Clouds 0 1018 90 8000 0.51 320 15:30 11.12.2021
6552 Clouds 0 1015 88 10000 3.09 310 12:59 11.12.2021
6553 Clouds -1 1014 87 10000 2.06 270 11:46 11.12.2021
6554 Clear -3 1012 90 10000 1.03 0 09:47 11.12.2021
6555 Clear -4 1012 91 10000 2.57 220 09:18 11.12.2021
6556 Clear -2 1005 90 10000 2.57 160 02:40 11.12.2021
6557 Clouds -1 1003 87 10000 2.06 140 00:42 11.12.2021
6558 Clouds 0 1002 89 10000 2.06 120 23:24 10.12.2021
6559 Clouds 0 1001 90 10000 2.06 130 21:57 10.12.2021
6560 Clouds 0 1001 90 10000 2.06 130 21:37 10.12.2021
6561 Clouds 0 1000 92 10000 2.06 120 19:23 10.12.2021
6562 Clouds 0 999 91 10000 2.06 140 18:57 10.12.2021
6563 Clouds 1 998 90 10000 3.09 130 17:21 10.12.2021
6564 Clouds 1 998 90 10000 3.09 140 16:32 10.12.2021
6565 Rain 2 998 85 10000 4.12 140 15:42 10.12.2021
6566 Clouds 2 998 86 10000 5.14 150 15:23 10.12.2021
6567 Clouds 3 998 83 10000 4.12 150 13:53 10.12.2021
6568 Clouds 3 998 88 10000 3.09 140 13:31 10.12.2021
6569 Clear 3 998 86 10000 3.6 150 12:47 10.12.2021
6570 Clouds 2 998 89 10000 3.09 150 11:34 10.12.2021
6571 Clouds 2 999 90 10000 2.57 140 10:50 10.12.2021
6572 Clouds 1 999 93 10000 2.57 160 09:33 10.12.2021
6573 Clouds 1 1000 94 9000 2.06 180 07:24 10.12.2021
6574 Snow 1 1003 93 2000 1.03 210 02:53 10.12.2021
6575 Snow 1 1004 93 1600 0.51 140 01:32 10.12.2021
6576 Snow 1 1005 93 1500 0.51 0 23:39 09.12.2021
6577 Snow 1 1005 91 1300 0.51 280 22:41 09.12.2021
6578 Snow 1 1005 91 1300 0.51 0 22:21 09.12.2021
6579 Mist 1 1005 91 2000 1.03 300 21:38 09.12.2021
6580 Snow 1 1006 91 2000 1.03 0 20:34 09.12.2021
6581 Mist 1 1005 91 1800 1.03 0 19:38 09.12.2021
6582 Snow 1 1005 91 3200 1.03 300 19:19 09.12.2021
6583 Mist 1 1006 90 4200 1.03 0 18:18 09.12.2021
6584 Mist 1 1006 90 3500 1.03 330 17:47 09.12.2021
6585 Mist 1 1006 90 3500 1.54 320 17:24 09.12.2021
6586 Mist 2 1006 89 3200 2.06 300 16:25 09.12.2021
6587 Clouds 2 1005 87 7000 2.06 220 14:59 09.12.2021
6588 Rain 2 1005 85 10000 2.57 180 13:52 09.12.2021
6589 Clouds 2 1005 85 10000 2.06 150 12:48 09.12.2021
6590 Rain 2 1005 85 10000 3.09 170 11:33 09.12.2021
6591 Clouds 1 1005 87 9000 2.57 150 10:20 09.12.2021
6592 Snow 1 1004 83 10000 2.57 100 07:34 09.12.2021
6593 Clouds 1 1004 83 9000 2.57 70 03:56 09.12.2021
6594 Clouds 1 1004 79 10000 2.06 60 00:25 09.12.2021
6595 Clouds 1 1004 78 10000 2.06 100 23:37 08.12.2021
6596 Clouds 1 1004 79 10000 2.57 100 22:57 08.12.2021
6597 Clouds 1 1004 78 10000 2.57 100 22:36 08.12.2021
6598 Clouds 1 1004 78 10000 3.09 130 21:38 08.12.2021
6599 Clear 1 1004 78 10000 4.12 120 20:50 08.12.2021
6600 Clear 1 1004 79 10000 3.09 120 19:57 08.12.2021
6601 Clear 1 1004 79 10000 3.6 130 19:20 08.12.2021
6602 Clear 1 1004 79 10000 4.63 130 18:22 08.12.2021
6603 Clear 1 1004 80 10000 0.45 233 16:55 08.12.2021
6604 Clear 1 1004 78 10000 0.45 166 15:45 08.12.2021
6605 Clear 1 1004 77 10000 0.89 242 15:22 08.12.2021
6606 Rain 2 1004 75 10000 4.12 130 13:27 08.12.2021
6607 Clouds 3 1004 76 10000 0.45 202 10:45 08.12.2021
6608 Clouds 3 1004 76 10000 0.45 202 10:45 08.12.2021
6609 Clouds 2 1004 78 10000 0.45 201 10:23 08.12.2021
6610 Clouds 1 1005 84 10000 0.89 217 08:54 08.12.2021
6611 Clouds 1 1005 88 10000 0.45 236 06:36 08.12.2021
6612 Snow 0 1009 90 7000 4.63 150 01:20 08.12.2021
6613 Clouds 1 1007 87 9000 5.14 150 23:29 07.12.2021
6614 Clouds 1 1011 88 10000 3.6 150 21:26 07.12.2021
6615 Clouds 1 1011 88 10000 0.45 228 20:26 07.12.2021
6616 Clouds 1 1016 87 10000 0.45 228 20:26 07.12.2021
6617 Clouds 1 1002 87 10000 0.89 118 19:23 07.12.2021
6618 Snow 1 1012 84 10000 4.12 150 18:32 07.12.2021
6619 Snow 2 1012 82 10000 4.12 150 17:27 07.12.2021
6620 Clouds 2 1012 82 10000 4.12 150 16:57 07.12.2021
6621 Clouds 2 1003 85 10000 0.45 93 16:27 07.12.2021
6622 Clouds 2 1002 84 10000 4.12 150 14:47 07.12.2021
6623 Clouds 2 998 85 10000 0.45 213 13:45 07.12.2021
6624 Clouds 2 998 85 10000 0.45 197 12:41 07.12.2021
6625 Snow 1 998 87 10000 0.45 158 11:23 07.12.2021
6626 Clear 0 998 88 10000 0.45 140 09:43 07.12.2021
6627 Clear -1 997 89 10000 3.6 160 07:52 07.12.2021
6628 Clouds -1 997 89 10000 3.6 140 05:55 07.12.2021
6629 Clouds 0 998 91 10000 4.12 150 05:27 07.12.2021
6630 Mist 0 1000 91 4000 1.54 130 23:41 06.12.2021
6631 Mist 0 1000 92 4000 1.54 150 22:44 06.12.2021
6632 Mist 0 1000 94 4000 1.54 150 22:18 06.12.2021
6633 Mist 0 1001 94 4000 1.03 140 21:42 06.12.2021
6634 Snow 0 1001 94 3000 0.51 280 20:33 06.12.2021
6635 Mist 0 1002 94 3000 1.03 0 19:27 06.12.2021
6636 Snow 0 1002 94 3200 0.51 0 18:57 06.12.2021
6637 Snow 0 1002 94 3000 1.03 0 17:56 06.12.2021
6638 Snow 1 1002 94 3000 1.03 0 17:36 06.12.2021
6639 Snow 0 1002 94 5000 2.06 290 16:21 06.12.2021
6640 Clouds 1 1002 91 7000 1.54 290 15:38 06.12.2021
6641 Rain 1 1002 91 8000 1.54 10 13:45 06.12.2021
6642 Snow 1 1002 94 3300 2.57 350 12:39 06.12.2021
6643 Snow 1 1002 93 2800 2.06 360 10:32 06.12.2021
6644 Snow 1 1000 95 1600 2.57 360 08:45 06.12.2021
6645 Snow 1 998 93 2200 3.6 10 04:56 06.12.2021
6646 Clouds 2 996 91 10000 2.06 340 22:52 05.12.2021
6647 Clear 3 996 88 10000 1.54 300 21:43 05.12.2021
6648 Clouds 3 995 88 10000 1.54 310 21:19 05.12.2021
6649 Clouds 3 995 87 10000 1.54 320 20:19 05.12.2021
6650 Clouds 3 995 87 10000 1.03 320 19:33 05.12.2021
6651 Clouds 3 994 86 10000 2.06 290 18:47 05.12.2021
6652 Clouds 3 994 86 10000 1.54 270 18:19 05.12.2021
6653 Clouds 3 994 86 10000 2.06 290 17:48 05.12.2021
6654 Clouds 4 993 84 10000 2.06 280 16:47 05.12.2021
6655 Clouds 4 993 84 10000 2.06 280 16:26 05.12.2021
6656 Clouds 5 993 82 10000 2.06 270 15:34 05.12.2021
6657 Clouds 5 992 81 10000 0.89 239 14:37 05.12.2021
6658 Clouds 5 992 82 10000 2.57 290 14:19 05.12.2021
6659 Clouds 6 991 82 10000 1.79 220 13:22 05.12.2021
6660 Clouds 5 991 83 10000 4.02 243 12:40 05.12.2021
6661 Clouds 5 991 83 10000 3.58 235 12:18 05.12.2021
6662 Clouds 5 991 82 10000 0.89 308 11:29 05.12.2021
6663 Clouds 4 991 85 10000 0.45 290 09:59 05.12.2021
6664 Clouds 4 990 88 10000 0.89<